<?xml version="1.0" encoding="UTF-8" standalone="no" ?>
<gpx xmlns="http://www.topografix.com/GPX/1/1" xmlns:xsi="http://www.w3.org/2001/XMLSchema-instance" xsi:schemaLocation="http://www.topografix.com/GPX/1/1 http://www.topografix.com/GPX/1/1/gpx.xsd" version="1.1" creator="VisuGPX - https://www.visugpx.com">
  <metadata>
    <name>tour du 9 juillet : Matagrin race</name>
    <desc><![CDATA[une journée sympathique entre amis]]></desc>
  </metadata>
  <trk>
    <name><![CDATA[09_07_201108_31_31_history on GPSies.com]]></name>
    <trkseg>
      <trkpt lat="45.77196" lon="4.12599">
        <ele>384.18408</ele>
        <time>2011-07-09T06:31:32Z</time>
      </trkpt>
      <trkpt lat="45.77197" lon="4.12599">
        <ele>384.18408</ele>
        <time>2011-07-09T06:31:33Z</time>
      </trkpt>
      <trkpt lat="45.77201" lon="4.12596">
        <ele>384.66479</ele>
        <time>2011-07-09T06:31:36Z</time>
      </trkpt>
      <trkpt lat="45.77206" lon="4.12592">
        <ele>384.18408</ele>
        <time>2011-07-09T06:31:39Z</time>
      </trkpt>
      <trkpt lat="45.77227" lon="4.12578">
        <ele>383.70324</ele>
        <time>2011-07-09T06:31:48Z</time>
      </trkpt>
      <trkpt lat="45.77245" lon="4.12565">
        <ele>383.70324</ele>
        <time>2011-07-09T06:31:56Z</time>
      </trkpt>
      <trkpt lat="45.77258" lon="4.12554">
        <ele>383.22265</ele>
        <time>2011-07-09T06:32:02Z</time>
      </trkpt>
      <trkpt lat="45.77274" lon="4.12543">
        <ele>382.26135</ele>
        <time>2011-07-09T06:32:09Z</time>
      </trkpt>
      <trkpt lat="45.77298" lon="4.12524">
        <ele>381.78063</ele>
        <time>2011-07-09T06:32:17Z</time>
      </trkpt>
      <trkpt lat="45.77328" lon="4.12502">
        <ele>380.81945</ele>
        <time>2011-07-09T06:32:25Z</time>
      </trkpt>
      <trkpt lat="45.77351" lon="4.12485">
        <ele>379.37744</ele>
        <time>2011-07-09T06:32:31Z</time>
      </trkpt>
      <trkpt lat="45.77375" lon="4.1246">
        <ele>377.93542</ele>
        <time>2011-07-09T06:32:38Z</time>
      </trkpt>
      <trkpt lat="45.77406" lon="4.12425">
        <ele>376.49353</ele>
        <time>2011-07-09T06:32:45Z</time>
      </trkpt>
      <trkpt lat="45.7744" lon="4.12389">
        <ele>376.01281</ele>
        <time>2011-07-09T06:32:51Z</time>
      </trkpt>
      <trkpt lat="45.77453" lon="4.12375">
        <ele>374.5708</ele>
        <time>2011-07-09T06:32:53Z</time>
      </trkpt>
      <trkpt lat="45.77482" lon="4.1234">
        <ele>373.1289</ele>
        <time>2011-07-09T06:32:58Z</time>
      </trkpt>
      <trkpt lat="45.77488" lon="4.12334">
        <ele>373.1289</ele>
        <time>2011-07-09T06:32:59Z</time>
      </trkpt>
      <trkpt lat="45.77506" lon="4.12315">
        <ele>371.68688</ele>
        <time>2011-07-09T06:33:02Z</time>
      </trkpt>
      <trkpt lat="45.77549" lon="4.12266">
        <ele>369.28369</ele>
        <time>2011-07-09T06:33:09Z</time>
      </trkpt>
      <trkpt lat="45.77589" lon="4.12225">
        <ele>368.32226</ele>
        <time>2011-07-09T06:33:15Z</time>
      </trkpt>
      <trkpt lat="45.77626" lon="4.12186">
        <ele>367.36096</ele>
        <time>2011-07-09T06:33:21Z</time>
      </trkpt>
      <trkpt lat="45.77661" lon="4.12147">
        <ele>365.91894</ele>
        <time>2011-07-09T06:33:27Z</time>
      </trkpt>
      <trkpt lat="45.77704" lon="4.12101">
        <ele>364.47692</ele>
        <time>2011-07-09T06:33:34Z</time>
      </trkpt>
      <trkpt lat="45.7771" lon="4.12094">
        <ele>364.47692</ele>
        <time>2011-07-09T06:33:35Z</time>
      </trkpt>
      <trkpt lat="45.77752" lon="4.12029">
        <ele>363.03503</ele>
        <time>2011-07-09T06:33:44Z</time>
      </trkpt>
      <trkpt lat="45.77772" lon="4.12007">
        <ele>362.55432</ele>
        <time>2011-07-09T06:33:48Z</time>
      </trkpt>
      <trkpt lat="45.77801" lon="4.11992">
        <ele>362.55432</ele>
        <time>2011-07-09T06:33:53Z</time>
      </trkpt>
      <trkpt lat="45.77812" lon="4.11991">
        <ele>363.03503</ele>
        <time>2011-07-09T06:33:55Z</time>
      </trkpt>
      <trkpt lat="45.77848" lon="4.11988">
        <ele>362.55432</ele>
        <time>2011-07-09T06:34:02Z</time>
      </trkpt>
      <trkpt lat="45.77863" lon="4.11985">
        <ele>363.03503</ele>
        <time>2011-07-09T06:34:05Z</time>
      </trkpt>
      <trkpt lat="45.77903" lon="4.11977">
        <ele>363.03503</ele>
        <time>2011-07-09T06:34:12Z</time>
      </trkpt>
      <trkpt lat="45.77948" lon="4.11967">
        <ele>362.55432</ele>
        <time>2011-07-09T06:34:20Z</time>
      </trkpt>
      <trkpt lat="45.77971" lon="4.11965">
        <ele>362.07373</ele>
        <time>2011-07-09T06:34:24Z</time>
      </trkpt>
      <trkpt lat="45.78009" lon="4.11958">
        <ele>362.07373</ele>
        <time>2011-07-09T06:34:31Z</time>
      </trkpt>
      <trkpt lat="45.78048" lon="4.11947">
        <ele>362.07373</ele>
        <time>2011-07-09T06:34:38Z</time>
      </trkpt>
      <trkpt lat="45.78084" lon="4.11939">
        <ele>362.55432</ele>
        <time>2011-07-09T06:34:44Z</time>
      </trkpt>
      <trkpt lat="45.78108" lon="4.11934">
        <ele>362.55432</ele>
        <time>2011-07-09T06:34:48Z</time>
      </trkpt>
      <trkpt lat="45.78144" lon="4.11924">
        <ele>363.03503</ele>
        <time>2011-07-09T06:34:54Z</time>
      </trkpt>
      <trkpt lat="45.78172" lon="4.11922">
        <ele>362.07373</ele>
        <time>2011-07-09T06:34:59Z</time>
      </trkpt>
      <trkpt lat="45.78219" lon="4.11925">
        <ele>362.55432</ele>
        <time>2011-07-09T06:35:07Z</time>
      </trkpt>
      <trkpt lat="45.78259" lon="4.11929">
        <ele>363.03503</ele>
        <time>2011-07-09T06:35:14Z</time>
      </trkpt>
      <trkpt lat="45.78295" lon="4.11931">
        <ele>363.03503</ele>
        <time>2011-07-09T06:35:20Z</time>
      </trkpt>
      <trkpt lat="45.78332" lon="4.11931">
        <ele>362.55432</ele>
        <time>2011-07-09T06:35:27Z</time>
      </trkpt>
      <trkpt lat="45.78356" lon="4.11933">
        <ele>362.55432</ele>
        <time>2011-07-09T06:35:31Z</time>
      </trkpt>
      <trkpt lat="45.78374" lon="4.1194">
        <ele>362.55432</ele>
        <time>2011-07-09T06:35:34Z</time>
      </trkpt>
      <trkpt lat="45.78406" lon="4.11968">
        <ele>362.55432</ele>
        <time>2011-07-09T06:35:40Z</time>
      </trkpt>
      <trkpt lat="45.78421" lon="4.11982">
        <ele>362.07373</ele>
        <time>2011-07-09T06:35:43Z</time>
      </trkpt>
      <trkpt lat="45.78451" lon="4.11995">
        <ele>361.59313</ele>
        <time>2011-07-09T06:35:48Z</time>
      </trkpt>
      <trkpt lat="45.78471" lon="4.11997">
        <ele>360.63171</ele>
        <time>2011-07-09T06:35:51Z</time>
      </trkpt>
      <trkpt lat="45.78503" lon="4.11997">
        <ele>360.15112</ele>
        <time>2011-07-09T06:35:56Z</time>
      </trkpt>
      <trkpt lat="45.78508" lon="4.11997">
        <ele>361.11242</ele>
        <time>2011-07-09T06:35:57Z</time>
      </trkpt>
      <trkpt lat="45.7854" lon="4.11997">
        <ele>360.15112</ele>
        <time>2011-07-09T06:36:03Z</time>
      </trkpt>
      <trkpt lat="45.78545" lon="4.11996">
        <ele>360.15112</ele>
        <time>2011-07-09T06:36:04Z</time>
      </trkpt>
      <trkpt lat="45.78562" lon="4.12009">
        <ele>359.18969</ele>
        <time>2011-07-09T06:36:08Z</time>
      </trkpt>
      <trkpt lat="45.78566" lon="4.12022">
        <ele>358.70898</ele>
        <time>2011-07-09T06:36:10Z</time>
      </trkpt>
      <trkpt lat="45.78587" lon="4.12092">
        <ele>357.7478</ele>
        <time>2011-07-09T06:36:20Z</time>
      </trkpt>
      <trkpt lat="45.78607" lon="4.1216">
        <ele>357.26708</ele>
        <time>2011-07-09T06:36:30Z</time>
      </trkpt>
      <trkpt lat="45.78622" lon="4.1221">
        <ele>357.26708</ele>
        <time>2011-07-09T06:36:38Z</time>
      </trkpt>
      <trkpt lat="45.78639" lon="4.12265">
        <ele>357.7478</ele>
        <time>2011-07-09T06:36:47Z</time>
      </trkpt>
      <trkpt lat="45.78656" lon="4.12322">
        <ele>358.70898</ele>
        <time>2011-07-09T06:36:56Z</time>
      </trkpt>
      <trkpt lat="45.7866" lon="4.12334">
        <ele>358.70898</ele>
        <time>2011-07-09T06:36:58Z</time>
      </trkpt>
      <trkpt lat="45.78676" lon="4.12385">
        <ele>359.67041</ele>
        <time>2011-07-09T06:37:06Z</time>
      </trkpt>
      <trkpt lat="45.78684" lon="4.12411">
        <ele>359.67041</ele>
        <time>2011-07-09T06:37:10Z</time>
      </trkpt>
      <trkpt lat="45.78695" lon="4.12448">
        <ele>360.15112</ele>
        <time>2011-07-09T06:37:16Z</time>
      </trkpt>
      <trkpt lat="45.78697" lon="4.12454">
        <ele>360.63171</ele>
        <time>2011-07-09T06:37:17Z</time>
      </trkpt>
      <trkpt lat="45.78716" lon="4.12503">
        <ele>360.63171</ele>
        <time>2011-07-09T06:37:24Z</time>
      </trkpt>
      <trkpt lat="45.78731" lon="4.12553">
        <ele>361.59313</ele>
        <time>2011-07-09T06:37:31Z</time>
      </trkpt>
      <trkpt lat="45.7874" lon="4.12589">
        <ele>362.07373</ele>
        <time>2011-07-09T06:37:37Z</time>
      </trkpt>
      <trkpt lat="45.78741" lon="4.12595">
        <ele>363.03503</ele>
        <time>2011-07-09T06:37:38Z</time>
      </trkpt>
      <trkpt lat="45.78751" lon="4.12621">
        <ele>362.55432</ele>
        <time>2011-07-09T06:37:42Z</time>
      </trkpt>
      <trkpt lat="45.78764" lon="4.12662">
        <ele>363.03503</ele>
        <time>2011-07-09T06:37:48Z</time>
      </trkpt>
      <trkpt lat="45.78769" lon="4.12682">
        <ele>362.55432</ele>
        <time>2011-07-09T06:37:51Z</time>
      </trkpt>
      <trkpt lat="45.78784" lon="4.12735">
        <ele>363.03503</ele>
        <time>2011-07-09T06:37:58Z</time>
      </trkpt>
      <trkpt lat="45.78794" lon="4.12768">
        <ele>363.99633</ele>
        <time>2011-07-09T06:38:03Z</time>
      </trkpt>
      <trkpt lat="45.78807" lon="4.12807">
        <ele>364.47692</ele>
        <time>2011-07-09T06:38:09Z</time>
      </trkpt>
      <trkpt lat="45.7882" lon="4.12827">
        <ele>365.43835</ele>
        <time>2011-07-09T06:38:13Z</time>
      </trkpt>
      <trkpt lat="45.78857" lon="4.12858">
        <ele>365.43835</ele>
        <time>2011-07-09T06:38:21Z</time>
      </trkpt>
      <trkpt lat="45.78883" lon="4.12879">
        <ele>365.43835</ele>
        <time>2011-07-09T06:38:27Z</time>
      </trkpt>
      <trkpt lat="45.78903" lon="4.12884">
        <ele>365.91894</ele>
        <time>2011-07-09T06:38:31Z</time>
      </trkpt>
      <trkpt lat="45.78939" lon="4.12885">
        <ele>366.88024</ele>
        <time>2011-07-09T06:38:38Z</time>
      </trkpt>
      <trkpt lat="45.78973" lon="4.12885">
        <ele>366.88024</ele>
        <time>2011-07-09T06:38:44Z</time>
      </trkpt>
      <trkpt lat="45.79012" lon="4.12886">
        <ele>366.39953</ele>
        <time>2011-07-09T06:38:51Z</time>
      </trkpt>
      <trkpt lat="45.7904" lon="4.12897">
        <ele>366.39953</ele>
        <time>2011-07-09T06:38:56Z</time>
      </trkpt>
      <trkpt lat="45.79048" lon="4.12908">
        <ele>365.91894</ele>
        <time>2011-07-09T06:38:58Z</time>
      </trkpt>
      <trkpt lat="45.7908" lon="4.12952">
        <ele>365.91894</ele>
        <time>2011-07-09T06:39:06Z</time>
      </trkpt>
      <trkpt lat="45.79107" lon="4.12988">
        <ele>366.39953</ele>
        <time>2011-07-09T06:39:13Z</time>
      </trkpt>
      <trkpt lat="45.79135" lon="4.13023">
        <ele>366.39953</ele>
        <time>2011-07-09T06:39:20Z</time>
      </trkpt>
      <trkpt lat="45.7916" lon="4.13055">
        <ele>367.36096</ele>
        <time>2011-07-09T06:39:27Z</time>
      </trkpt>
      <trkpt lat="45.79164" lon="4.13061">
        <ele>367.84155</ele>
        <time>2011-07-09T06:39:28Z</time>
      </trkpt>
      <trkpt lat="45.79172" lon="4.13069">
        <ele>367.84155</ele>
        <time>2011-07-09T06:39:30Z</time>
      </trkpt>
      <trkpt lat="45.79208" lon="4.13116">
        <ele>369.28369</ele>
        <time>2011-07-09T06:39:40Z</time>
      </trkpt>
      <trkpt lat="45.79226" lon="4.1314">
        <ele>369.28369</ele>
        <time>2011-07-09T06:39:45Z</time>
      </trkpt>
      <trkpt lat="45.79255" lon="4.13176">
        <ele>369.28369</ele>
        <time>2011-07-09T06:39:52Z</time>
      </trkpt>
      <trkpt lat="45.79283" lon="4.13214">
        <ele>370.24487</ele>
        <time>2011-07-09T06:39:59Z</time>
      </trkpt>
      <trkpt lat="45.79315" lon="4.13262">
        <ele>371.20629</ele>
        <time>2011-07-09T06:40:07Z</time>
      </trkpt>
      <trkpt lat="45.79329" lon="4.13283">
        <ele>372.16748</ele>
        <time>2011-07-09T06:40:11Z</time>
      </trkpt>
      <trkpt lat="45.79336" lon="4.13294">
        <ele>372.64819</ele>
        <time>2011-07-09T06:40:13Z</time>
      </trkpt>
      <trkpt lat="45.79353" lon="4.13318">
        <ele>375.05151</ele>
        <time>2011-07-09T06:40:18Z</time>
      </trkpt>
      <trkpt lat="45.7937" lon="4.13341">
        <ele>376.49353</ele>
        <time>2011-07-09T06:40:24Z</time>
      </trkpt>
      <trkpt lat="45.79387" lon="4.13363">
        <ele>377.93542</ele>
        <time>2011-07-09T06:40:30Z</time>
      </trkpt>
      <trkpt lat="45.79412" lon="4.13399">
        <ele>377.93542</ele>
        <time>2011-07-09T06:40:38Z</time>
      </trkpt>
      <trkpt lat="45.79441" lon="4.13438">
        <ele>377.45483</ele>
        <time>2011-07-09T06:40:46Z</time>
      </trkpt>
      <trkpt lat="45.79464" lon="4.13466">
        <ele>375.05151</ele>
        <time>2011-07-09T06:40:51Z</time>
      </trkpt>
      <trkpt lat="45.79497" lon="4.13511">
        <ele>373.60949</ele>
        <time>2011-07-09T06:40:57Z</time>
      </trkpt>
      <trkpt lat="45.79528" lon="4.13552">
        <ele>374.09008</ele>
        <time>2011-07-09T06:41:03Z</time>
      </trkpt>
      <trkpt lat="45.79556" lon="4.13587">
        <ele>373.60949</ele>
        <time>2011-07-09T06:41:09Z</time>
      </trkpt>
      <trkpt lat="45.79593" lon="4.13637">
        <ele>374.09008</ele>
        <time>2011-07-09T06:41:17Z</time>
      </trkpt>
      <trkpt lat="45.79627" lon="4.13684">
        <ele>374.5708</ele>
        <time>2011-07-09T06:41:25Z</time>
      </trkpt>
      <trkpt lat="45.79662" lon="4.1373">
        <ele>375.05151</ele>
        <time>2011-07-09T06:41:33Z</time>
      </trkpt>
      <trkpt lat="45.79694" lon="4.13773">
        <ele>375.5321</ele>
        <time>2011-07-09T06:41:41Z</time>
      </trkpt>
      <trkpt lat="45.79722" lon="4.13809">
        <ele>376.97424</ele>
        <time>2011-07-09T06:41:48Z</time>
      </trkpt>
      <trkpt lat="45.79758" lon="4.1386">
        <ele>377.93542</ele>
        <time>2011-07-09T06:41:57Z</time>
      </trkpt>
      <trkpt lat="45.7978" lon="4.13917">
        <ele>378.89685</ele>
        <time>2011-07-09T06:42:05Z</time>
      </trkpt>
      <trkpt lat="45.79796" lon="4.13966">
        <ele>378.41613</ele>
        <time>2011-07-09T06:42:12Z</time>
      </trkpt>
      <trkpt lat="45.79798" lon="4.13973">
        <ele>378.89685</ele>
        <time>2011-07-09T06:42:13Z</time>
      </trkpt>
      <trkpt lat="45.79796" lon="4.13981">
        <ele>378.89685</ele>
        <time>2011-07-09T06:42:15Z</time>
      </trkpt>
      <trkpt lat="45.7977" lon="4.13998">
        <ele>380.33874</ele>
        <time>2011-07-09T06:42:22Z</time>
      </trkpt>
      <trkpt lat="45.79741" lon="4.14014">
        <ele>379.85803</ele>
        <time>2011-07-09T06:42:30Z</time>
      </trkpt>
      <trkpt lat="45.79704" lon="4.14037">
        <ele>381.30004</ele>
        <time>2011-07-09T06:42:40Z</time>
      </trkpt>
      <trkpt lat="45.79669" lon="4.14059">
        <ele>382.74206</ele>
        <time>2011-07-09T06:42:49Z</time>
      </trkpt>
      <trkpt lat="45.79626" lon="4.14086">
        <ele>382.74206</ele>
        <time>2011-07-09T06:43:00Z</time>
      </trkpt>
      <trkpt lat="45.79581" lon="4.14113">
        <ele>382.26135</ele>
        <time>2011-07-09T06:43:11Z</time>
      </trkpt>
      <trkpt lat="45.79545" lon="4.14135">
        <ele>382.74206</ele>
        <time>2011-07-09T06:43:19Z</time>
      </trkpt>
      <trkpt lat="45.79501" lon="4.14164">
        <ele>381.78063</ele>
        <time>2011-07-09T06:43:29Z</time>
      </trkpt>
      <trkpt lat="45.79454" lon="4.14195">
        <ele>382.26135</ele>
        <time>2011-07-09T06:43:40Z</time>
      </trkpt>
      <trkpt lat="45.79427" lon="4.14211">
        <ele>383.22265</ele>
        <time>2011-07-09T06:43:47Z</time>
      </trkpt>
      <trkpt lat="45.79401" lon="4.14227">
        <ele>383.22265</ele>
        <time>2011-07-09T06:43:56Z</time>
      </trkpt>
      <trkpt lat="45.7938" lon="4.14237">
        <ele>383.70324</ele>
        <time>2011-07-09T06:44:02Z</time>
      </trkpt>
      <trkpt lat="45.79339" lon="4.14257">
        <ele>384.18408</ele>
        <time>2011-07-09T06:44:13Z</time>
      </trkpt>
      <trkpt lat="45.79292" lon="4.14279">
        <ele>384.66479</ele>
        <time>2011-07-09T06:44:25Z</time>
      </trkpt>
      <trkpt lat="45.79268" lon="4.14291">
        <ele>384.18408</ele>
        <time>2011-07-09T06:44:31Z</time>
      </trkpt>
      <trkpt lat="45.79237" lon="4.14308">
        <ele>383.70324</ele>
        <time>2011-07-09T06:44:39Z</time>
      </trkpt>
      <trkpt lat="45.79206" lon="4.14329">
        <ele>384.66479</ele>
        <time>2011-07-09T06:44:47Z</time>
      </trkpt>
      <trkpt lat="45.79185" lon="4.14344">
        <ele>384.18408</ele>
        <time>2011-07-09T06:44:52Z</time>
      </trkpt>
      <trkpt lat="45.79145" lon="4.14383">
        <ele>384.66479</ele>
        <time>2011-07-09T06:45:02Z</time>
      </trkpt>
      <trkpt lat="45.79137" lon="4.14391">
        <ele>384.18408</ele>
        <time>2011-07-09T06:45:04Z</time>
      </trkpt>
      <trkpt lat="45.79118" lon="4.14412">
        <ele>384.66479</ele>
        <time>2011-07-09T06:45:10Z</time>
      </trkpt>
      <trkpt lat="45.79106" lon="4.14416">
        <ele>384.66479</ele>
        <time>2011-07-09T06:45:14Z</time>
      </trkpt>
      <trkpt lat="45.79081" lon="4.14405">
        <ele>385.62597</ele>
        <time>2011-07-09T06:45:21Z</time>
      </trkpt>
      <trkpt lat="45.79053" lon="4.14396">
        <ele>386.5874</ele>
        <time>2011-07-09T06:45:28Z</time>
      </trkpt>
      <trkpt lat="45.79024" lon="4.14386">
        <ele>387.06799</ele>
        <time>2011-07-09T06:45:35Z</time>
      </trkpt>
      <trkpt lat="45.78983" lon="4.14372">
        <ele>387.06799</ele>
        <time>2011-07-09T06:45:44Z</time>
      </trkpt>
      <trkpt lat="45.7894" lon="4.14358">
        <ele>387.06799</ele>
        <time>2011-07-09T06:45:53Z</time>
      </trkpt>
      <trkpt lat="45.789" lon="4.14345">
        <ele>387.06799</ele>
        <time>2011-07-09T06:46:01Z</time>
      </trkpt>
      <trkpt lat="45.78861" lon="4.14332">
        <ele>387.06799</ele>
        <time>2011-07-09T06:46:09Z</time>
      </trkpt>
      <trkpt lat="45.78818" lon="4.14318">
        <ele>388.02929</ele>
        <time>2011-07-09T06:46:18Z</time>
      </trkpt>
      <trkpt lat="45.78794" lon="4.14311">
        <ele>388.02929</ele>
        <time>2011-07-09T06:46:23Z</time>
      </trkpt>
      <trkpt lat="45.78754" lon="4.14297">
        <ele>388.51</ele>
        <time>2011-07-09T06:46:31Z</time>
      </trkpt>
      <trkpt lat="45.78735" lon="4.14292">
        <ele>388.02929</ele>
        <time>2011-07-09T06:46:35Z</time>
      </trkpt>
      <trkpt lat="45.78726" lon="4.14308">
        <ele>388.9906</ele>
        <time>2011-07-09T06:46:39Z</time>
      </trkpt>
      <trkpt lat="45.78729" lon="4.14314">
        <ele>388.9906</ele>
        <time>2011-07-09T06:46:40Z</time>
      </trkpt>
      <trkpt lat="45.78749" lon="4.1436">
        <ele>388.51</ele>
        <time>2011-07-09T06:46:48Z</time>
      </trkpt>
      <trkpt lat="45.78775" lon="4.14415">
        <ele>388.51</ele>
        <time>2011-07-09T06:46:56Z</time>
      </trkpt>
      <trkpt lat="45.78805" lon="4.14481">
        <ele>388.02929</ele>
        <time>2011-07-09T06:47:05Z</time>
      </trkpt>
      <trkpt lat="45.78833" lon="4.14547">
        <ele>387.54858</ele>
        <time>2011-07-09T06:47:14Z</time>
      </trkpt>
      <trkpt lat="45.78869" lon="4.14626">
        <ele>385.62597</ele>
        <time>2011-07-09T06:47:24Z</time>
      </trkpt>
      <trkpt lat="45.78892" lon="4.14682">
        <ele>384.66479</ele>
        <time>2011-07-09T06:47:31Z</time>
      </trkpt>
      <trkpt lat="45.78925" lon="4.14762">
        <ele>383.22265</ele>
        <time>2011-07-09T06:47:41Z</time>
      </trkpt>
      <trkpt lat="45.78951" lon="4.1482">
        <ele>382.74206</ele>
        <time>2011-07-09T06:47:48Z</time>
      </trkpt>
      <trkpt lat="45.78978" lon="4.14879">
        <ele>380.81945</ele>
        <time>2011-07-09T06:47:55Z</time>
      </trkpt>
      <trkpt lat="45.78993" lon="4.14915">
        <ele>379.37744</ele>
        <time>2011-07-09T06:47:59Z</time>
      </trkpt>
      <trkpt lat="45.79025" lon="4.14998">
        <ele>377.93542</ele>
        <time>2011-07-09T06:48:08Z</time>
      </trkpt>
      <trkpt lat="45.79053" lon="4.15084">
        <ele>376.49353</ele>
        <time>2011-07-09T06:48:17Z</time>
      </trkpt>
      <trkpt lat="45.79079" lon="4.15159">
        <ele>375.05151</ele>
        <time>2011-07-09T06:48:25Z</time>
      </trkpt>
      <trkpt lat="45.79098" lon="4.15215">
        <ele>374.09008</ele>
        <time>2011-07-09T06:48:31Z</time>
      </trkpt>
      <trkpt lat="45.79121" lon="4.1529">
        <ele>373.1289</ele>
        <time>2011-07-09T06:48:39Z</time>
      </trkpt>
      <trkpt lat="45.79144" lon="4.1536">
        <ele>370.72558</ele>
        <time>2011-07-09T06:48:46Z</time>
      </trkpt>
      <trkpt lat="45.79151" lon="4.1538">
        <ele>369.76428</ele>
        <time>2011-07-09T06:48:48Z</time>
      </trkpt>
      <trkpt lat="45.79177" lon="4.15459">
        <ele>366.88024</ele>
        <time>2011-07-09T06:48:56Z</time>
      </trkpt>
      <trkpt lat="45.79197" lon="4.15521">
        <ele>364.47692</ele>
        <time>2011-07-09T06:49:02Z</time>
      </trkpt>
      <trkpt lat="45.79219" lon="4.15588">
        <ele>362.55432</ele>
        <time>2011-07-09T06:49:08Z</time>
      </trkpt>
      <trkpt lat="45.7923" lon="4.15623">
        <ele>361.11242</ele>
        <time>2011-07-09T06:49:11Z</time>
      </trkpt>
      <trkpt lat="45.79259" lon="4.15706">
        <ele>360.15112</ele>
        <time>2011-07-09T06:49:18Z</time>
      </trkpt>
      <trkpt lat="45.79275" lon="4.15752">
        <ele>357.7478</ele>
        <time>2011-07-09T06:49:22Z</time>
      </trkpt>
      <trkpt lat="45.79286" lon="4.15785">
        <ele>357.7478</ele>
        <time>2011-07-09T06:49:25Z</time>
      </trkpt>
      <trkpt lat="45.79307" lon="4.15847">
        <ele>356.78637</ele>
        <time>2011-07-09T06:49:31Z</time>
      </trkpt>
      <trkpt lat="45.79334" lon="4.1593">
        <ele>353.90258</ele>
        <time>2011-07-09T06:49:39Z</time>
      </trkpt>
      <trkpt lat="45.79362" lon="4.16015">
        <ele>351.01843</ele>
        <time>2011-07-09T06:49:47Z</time>
      </trkpt>
      <trkpt lat="45.79368" lon="4.16037">
        <ele>350.05725</ele>
        <time>2011-07-09T06:49:49Z</time>
      </trkpt>
      <trkpt lat="45.79371" lon="4.16048">
        <ele>349.57653</ele>
        <time>2011-07-09T06:49:50Z</time>
      </trkpt>
      <trkpt lat="45.79404" lon="4.16147">
        <ele>346.69262</ele>
        <time>2011-07-09T06:49:59Z</time>
      </trkpt>
      <trkpt lat="45.79415" lon="4.16186">
        <ele>343.80859</ele>
        <time>2011-07-09T06:50:03Z</time>
      </trkpt>
      <trkpt lat="45.7942" lon="4.16207">
        <ele>343.32788</ele>
        <time>2011-07-09T06:50:07Z</time>
      </trkpt>
      <trkpt lat="45.79428" lon="4.16234">
        <ele>342.36669</ele>
        <time>2011-07-09T06:50:12Z</time>
      </trkpt>
      <trkpt lat="45.79439" lon="4.16281">
        <ele>340.44409</ele>
        <time>2011-07-09T06:50:18Z</time>
      </trkpt>
      <trkpt lat="45.79449" lon="4.16311">
        <ele>339.96337</ele>
        <time>2011-07-09T06:50:22Z</time>
      </trkpt>
      <trkpt lat="45.79453" lon="4.16335">
        <ele>339.96337</ele>
        <time>2011-07-09T06:50:25Z</time>
      </trkpt>
      <trkpt lat="45.79452" lon="4.16369">
        <ele>339.48266</ele>
        <time>2011-07-09T06:50:31Z</time>
      </trkpt>
      <trkpt lat="45.79452" lon="4.16369">
        <ele>339.48266</ele>
        <time>2011-07-09T06:50:36Z</time>
      </trkpt>
      <trkpt lat="45.79453" lon="4.16367">
        <ele>340.44409</ele>
        <time>2011-07-09T06:50:54Z</time>
      </trkpt>
      <trkpt lat="45.79453" lon="4.16369">
        <ele>339.48266</ele>
        <time>2011-07-09T06:51:23Z</time>
      </trkpt>
      <trkpt lat="45.79452" lon="4.16388">
        <ele>339.00207</ele>
        <time>2011-07-09T06:51:30Z</time>
      </trkpt>
      <trkpt lat="45.79452" lon="4.16391">
        <ele>339.00207</ele>
        <time>2011-07-09T06:51:35Z</time>
      </trkpt>
      <trkpt lat="45.79454" lon="4.16391">
        <ele>338.52148</ele>
        <time>2011-07-09T06:51:51Z</time>
      </trkpt>
      <trkpt lat="45.79454" lon="4.16386">
        <ele>339.96337</ele>
        <time>2011-07-09T06:52:38Z</time>
      </trkpt>
      <trkpt lat="45.79454" lon="4.16387">
        <ele>340.44409</ele>
        <time>2011-07-09T06:52:57Z</time>
      </trkpt>
      <trkpt lat="45.79456" lon="4.16391">
        <ele>340.44409</ele>
        <time>2011-07-09T06:53:06Z</time>
      </trkpt>
      <trkpt lat="45.79452" lon="4.16386">
        <ele>340.44409</ele>
        <time>2011-07-09T06:53:39Z</time>
      </trkpt>
      <trkpt lat="45.79454" lon="4.1639">
        <ele>340.44409</ele>
        <time>2011-07-09T06:54:09Z</time>
      </trkpt>
      <trkpt lat="45.79453" lon="4.16387">
        <ele>340.44409</ele>
        <time>2011-07-09T06:54:26Z</time>
      </trkpt>
      <trkpt lat="45.79452" lon="4.16387">
        <ele>340.92468</ele>
        <time>2011-07-09T06:54:38Z</time>
      </trkpt>
      <trkpt lat="45.79453" lon="4.16387">
        <ele>340.92468</ele>
        <time>2011-07-09T06:54:49Z</time>
      </trkpt>
      <trkpt lat="45.79453" lon="4.1639">
        <ele>340.92468</ele>
        <time>2011-07-09T06:54:58Z</time>
      </trkpt>
      <trkpt lat="45.79455" lon="4.16391">
        <ele>341.40527</ele>
        <time>2011-07-09T06:55:10Z</time>
      </trkpt>
      <trkpt lat="45.79453" lon="4.1639">
        <ele>341.40527</ele>
        <time>2011-07-09T06:55:26Z</time>
      </trkpt>
      <trkpt lat="45.79453" lon="4.16392">
        <ele>340.44409</ele>
        <time>2011-07-09T06:55:36Z</time>
      </trkpt>
      <trkpt lat="45.79451" lon="4.1639">
        <ele>341.40527</ele>
        <time>2011-07-09T06:55:57Z</time>
      </trkpt>
      <trkpt lat="45.79453" lon="4.16391">
        <ele>340.92468</ele>
        <time>2011-07-09T06:56:12Z</time>
      </trkpt>
      <trkpt lat="45.79455" lon="4.16394">
        <ele>340.44409</ele>
        <time>2011-07-09T06:56:23Z</time>
      </trkpt>
      <trkpt lat="45.79455" lon="4.16407">
        <ele>340.92468</ele>
        <time>2011-07-09T06:56:28Z</time>
      </trkpt>
      <trkpt lat="45.79464" lon="4.16423">
        <ele>340.44409</ele>
        <time>2011-07-09T06:56:32Z</time>
      </trkpt>
      <trkpt lat="45.79479" lon="4.1644">
        <ele>339.48266</ele>
        <time>2011-07-09T06:56:37Z</time>
      </trkpt>
      <trkpt lat="45.7949" lon="4.16454">
        <ele>339.48266</ele>
        <time>2011-07-09T06:56:40Z</time>
      </trkpt>
      <trkpt lat="45.7951" lon="4.16482">
        <ele>338.52148</ele>
        <time>2011-07-09T06:56:46Z</time>
      </trkpt>
      <trkpt lat="45.79518" lon="4.16501">
        <ele>338.04077</ele>
        <time>2011-07-09T06:56:49Z</time>
      </trkpt>
      <trkpt lat="45.79523" lon="4.16523">
        <ele>337.07946</ele>
        <time>2011-07-09T06:56:52Z</time>
      </trkpt>
      <trkpt lat="45.79526" lon="4.16568">
        <ele>335.63732</ele>
        <time>2011-07-09T06:56:57Z</time>
      </trkpt>
      <trkpt lat="45.79532" lon="4.16629">
        <ele>333.71472</ele>
        <time>2011-07-09T06:57:03Z</time>
      </trkpt>
      <trkpt lat="45.79534" lon="4.16651">
        <ele>332.75354</ele>
        <time>2011-07-09T06:57:05Z</time>
      </trkpt>
      <trkpt lat="45.79527" lon="4.16707">
        <ele>331.79211</ele>
        <time>2011-07-09T06:57:10Z</time>
      </trkpt>
      <trkpt lat="45.79523" lon="4.16742">
        <ele>330.83093</ele>
        <time>2011-07-09T06:57:14Z</time>
      </trkpt>
      <trkpt lat="45.79525" lon="4.16789">
        <ele>330.83093</ele>
        <time>2011-07-09T06:57:20Z</time>
      </trkpt>
      <trkpt lat="45.79524" lon="4.16839">
        <ele>330.83093</ele>
        <time>2011-07-09T06:57:26Z</time>
      </trkpt>
      <trkpt lat="45.79525" lon="4.16897">
        <ele>330.35021</ele>
        <time>2011-07-09T06:57:33Z</time>
      </trkpt>
      <trkpt lat="45.79536" lon="4.16959">
        <ele>330.35021</ele>
        <time>2011-07-09T06:57:41Z</time>
      </trkpt>
      <trkpt lat="45.7955" lon="4.17019">
        <ele>329.8695</ele>
        <time>2011-07-09T06:57:49Z</time>
      </trkpt>
      <trkpt lat="45.79564" lon="4.17064">
        <ele>329.38891</ele>
        <time>2011-07-09T06:57:55Z</time>
      </trkpt>
      <trkpt lat="45.79584" lon="4.17141">
        <ele>328.90832</ele>
        <time>2011-07-09T06:58:05Z</time>
      </trkpt>
      <trkpt lat="45.79595" lon="4.17213">
        <ele>329.38891</ele>
        <time>2011-07-09T06:58:14Z</time>
      </trkpt>
      <trkpt lat="45.79612" lon="4.17308">
        <ele>328.42761</ele>
        <time>2011-07-09T06:58:26Z</time>
      </trkpt>
      <trkpt lat="45.79626" lon="4.17371">
        <ele>329.38891</ele>
        <time>2011-07-09T06:58:34Z</time>
      </trkpt>
      <trkpt lat="45.79642" lon="4.17416">
        <ele>327.94677</ele>
        <time>2011-07-09T06:58:40Z</time>
      </trkpt>
      <trkpt lat="45.79664" lon="4.17465">
        <ele>328.42761</ele>
        <time>2011-07-09T06:58:47Z</time>
      </trkpt>
      <trkpt lat="45.79683" lon="4.17474">
        <ele>327.94677</ele>
        <time>2011-07-09T06:58:51Z</time>
      </trkpt>
      <trkpt lat="45.79689" lon="4.17471">
        <ele>327.94677</ele>
        <time>2011-07-09T06:58:52Z</time>
      </trkpt>
      <trkpt lat="45.79733" lon="4.17447">
        <ele>327.46618</ele>
        <time>2011-07-09T06:59:00Z</time>
      </trkpt>
      <trkpt lat="45.79791" lon="4.17417">
        <ele>327.46618</ele>
        <time>2011-07-09T06:59:10Z</time>
      </trkpt>
      <trkpt lat="45.79844" lon="4.1739">
        <ele>327.46618</ele>
        <time>2011-07-09T06:59:19Z</time>
      </trkpt>
      <trkpt lat="45.79896" lon="4.17363">
        <ele>326.98559</ele>
        <time>2011-07-09T06:59:28Z</time>
      </trkpt>
      <trkpt lat="45.79931" lon="4.1733">
        <ele>326.98559</ele>
        <time>2011-07-09T06:59:35Z</time>
      </trkpt>
      <trkpt lat="45.79991" lon="4.17272">
        <ele>326.98559</ele>
        <time>2011-07-09T06:59:47Z</time>
      </trkpt>
      <trkpt lat="45.80035" lon="4.17232">
        <ele>326.50488</ele>
        <time>2011-07-09T06:59:56Z</time>
      </trkpt>
      <trkpt lat="45.80081" lon="4.17183">
        <ele>326.98559</ele>
        <time>2011-07-09T07:00:06Z</time>
      </trkpt>
      <trkpt lat="45.80128" lon="4.17121">
        <ele>326.98559</ele>
        <time>2011-07-09T07:00:17Z</time>
      </trkpt>
      <trkpt lat="45.80154" lon="4.1709">
        <ele>326.02416</ele>
        <time>2011-07-09T07:00:23Z</time>
      </trkpt>
      <trkpt lat="45.80172" lon="4.17091">
        <ele>326.02416</ele>
        <time>2011-07-09T07:00:27Z</time>
      </trkpt>
      <trkpt lat="45.80174" lon="4.17098">
        <ele>326.50488</ele>
        <time>2011-07-09T07:00:28Z</time>
      </trkpt>
      <trkpt lat="45.80189" lon="4.17169">
        <ele>326.50488</ele>
        <time>2011-07-09T07:00:38Z</time>
      </trkpt>
      <trkpt lat="45.80202" lon="4.1723">
        <ele>326.50488</ele>
        <time>2011-07-09T07:00:46Z</time>
      </trkpt>
      <trkpt lat="45.80216" lon="4.1729">
        <ele>326.98559</ele>
        <time>2011-07-09T07:00:54Z</time>
      </trkpt>
      <trkpt lat="45.80231" lon="4.17353">
        <ele>326.50488</ele>
        <time>2011-07-09T07:01:02Z</time>
      </trkpt>
      <trkpt lat="45.80251" lon="4.17446">
        <ele>326.50488</ele>
        <time>2011-07-09T07:01:14Z</time>
      </trkpt>
      <trkpt lat="45.80269" lon="4.17523">
        <ele>326.98559</ele>
        <time>2011-07-09T07:01:24Z</time>
      </trkpt>
      <trkpt lat="45.80273" lon="4.17538">
        <ele>326.98559</ele>
        <time>2011-07-09T07:01:26Z</time>
      </trkpt>
      <trkpt lat="45.80288" lon="4.17557">
        <ele>327.46618</ele>
        <time>2011-07-09T07:01:30Z</time>
      </trkpt>
      <trkpt lat="45.80299" lon="4.17553">
        <ele>327.46618</ele>
        <time>2011-07-09T07:01:32Z</time>
      </trkpt>
      <trkpt lat="45.80345" lon="4.17537">
        <ele>326.98559</ele>
        <time>2011-07-09T07:01:40Z</time>
      </trkpt>
      <trkpt lat="45.80381" lon="4.17525">
        <ele>325.54357</ele>
        <time>2011-07-09T07:01:46Z</time>
      </trkpt>
      <trkpt lat="45.80433" lon="4.17506">
        <ele>326.02416</ele>
        <time>2011-07-09T07:01:55Z</time>
      </trkpt>
      <trkpt lat="45.80479" lon="4.17489">
        <ele>326.50488</ele>
        <time>2011-07-09T07:02:03Z</time>
      </trkpt>
      <trkpt lat="45.80532" lon="4.1747">
        <ele>326.02416</ele>
        <time>2011-07-09T07:02:12Z</time>
      </trkpt>
      <trkpt lat="45.80562" lon="4.17459">
        <ele>326.02416</ele>
        <time>2011-07-09T07:02:17Z</time>
      </trkpt>
      <trkpt lat="45.80593" lon="4.17447">
        <ele>325.54357</ele>
        <time>2011-07-09T07:02:22Z</time>
      </trkpt>
      <trkpt lat="45.80634" lon="4.17431">
        <ele>325.54357</ele>
        <time>2011-07-09T07:02:29Z</time>
      </trkpt>
      <trkpt lat="45.80682" lon="4.17413">
        <ele>325.54357</ele>
        <time>2011-07-09T07:02:37Z</time>
      </trkpt>
      <trkpt lat="45.80723" lon="4.17396">
        <ele>325.54357</ele>
        <time>2011-07-09T07:02:44Z</time>
      </trkpt>
      <trkpt lat="45.80735" lon="4.17391">
        <ele>326.02416</ele>
        <time>2011-07-09T07:02:46Z</time>
      </trkpt>
      <trkpt lat="45.80777" lon="4.17376">
        <ele>325.54357</ele>
        <time>2011-07-09T07:02:53Z</time>
      </trkpt>
      <trkpt lat="45.80796" lon="4.17369">
        <ele>325.54357</ele>
        <time>2011-07-09T07:02:56Z</time>
      </trkpt>
      <trkpt lat="45.80838" lon="4.17352">
        <ele>326.02416</ele>
        <time>2011-07-09T07:03:03Z</time>
      </trkpt>
      <trkpt lat="45.80878" lon="4.17335">
        <ele>326.02416</ele>
        <time>2011-07-09T07:03:10Z</time>
      </trkpt>
      <trkpt lat="45.80932" lon="4.17315">
        <ele>325.54357</ele>
        <time>2011-07-09T07:03:19Z</time>
      </trkpt>
      <trkpt lat="45.80985" lon="4.17295">
        <ele>325.54357</ele>
        <time>2011-07-09T07:03:28Z</time>
      </trkpt>
      <trkpt lat="45.81029" lon="4.1728">
        <ele>325.54357</ele>
        <time>2011-07-09T07:03:36Z</time>
      </trkpt>
      <trkpt lat="45.81069" lon="4.17264">
        <ele>326.02416</ele>
        <time>2011-07-09T07:03:43Z</time>
      </trkpt>
      <trkpt lat="45.8112" lon="4.17245">
        <ele>326.02416</ele>
        <time>2011-07-09T07:03:52Z</time>
      </trkpt>
      <trkpt lat="45.81159" lon="4.1723">
        <ele>326.02416</ele>
        <time>2011-07-09T07:03:59Z</time>
      </trkpt>
      <trkpt lat="45.81175" lon="4.17238">
        <ele>325.54357</ele>
        <time>2011-07-09T07:04:03Z</time>
      </trkpt>
      <trkpt lat="45.81176" lon="4.17245">
        <ele>325.54357</ele>
        <time>2011-07-09T07:04:04Z</time>
      </trkpt>
      <trkpt lat="45.81181" lon="4.17305">
        <ele>325.54357</ele>
        <time>2011-07-09T07:04:13Z</time>
      </trkpt>
      <trkpt lat="45.81187" lon="4.17362">
        <ele>325.54357</ele>
        <time>2011-07-09T07:04:21Z</time>
      </trkpt>
      <trkpt lat="45.81192" lon="4.17416">
        <ele>325.54357</ele>
        <time>2011-07-09T07:04:28Z</time>
      </trkpt>
      <trkpt lat="45.81198" lon="4.17462">
        <ele>325.06298</ele>
        <time>2011-07-09T07:04:34Z</time>
      </trkpt>
      <trkpt lat="45.81205" lon="4.17522">
        <ele>324.58227</ele>
        <time>2011-07-09T07:04:41Z</time>
      </trkpt>
      <trkpt lat="45.8121" lon="4.17575">
        <ele>325.06298</ele>
        <time>2011-07-09T07:04:48Z</time>
      </trkpt>
      <trkpt lat="45.81217" lon="4.17635">
        <ele>325.54357</ele>
        <time>2011-07-09T07:04:56Z</time>
      </trkpt>
      <trkpt lat="45.81222" lon="4.17683">
        <ele>325.54357</ele>
        <time>2011-07-09T07:05:02Z</time>
      </trkpt>
      <trkpt lat="45.81228" lon="4.17726">
        <ele>326.02416</ele>
        <time>2011-07-09T07:05:08Z</time>
      </trkpt>
      <trkpt lat="45.81232" lon="4.17759">
        <ele>325.54357</ele>
        <time>2011-07-09T07:05:13Z</time>
      </trkpt>
      <trkpt lat="45.81233" lon="4.17778">
        <ele>325.54357</ele>
        <time>2011-07-09T07:05:16Z</time>
      </trkpt>
      <trkpt lat="45.81232" lon="4.17837">
        <ele>325.06298</ele>
        <time>2011-07-09T07:05:26Z</time>
      </trkpt>
      <trkpt lat="45.81231" lon="4.17896">
        <ele>325.54357</ele>
        <time>2011-07-09T07:05:36Z</time>
      </trkpt>
      <trkpt lat="45.81234" lon="4.17953">
        <ele>325.06298</ele>
        <time>2011-07-09T07:05:45Z</time>
      </trkpt>
      <trkpt lat="45.81241" lon="4.18012">
        <ele>325.06298</ele>
        <time>2011-07-09T07:05:54Z</time>
      </trkpt>
      <trkpt lat="45.81247" lon="4.18064">
        <ele>325.06298</ele>
        <time>2011-07-09T07:06:02Z</time>
      </trkpt>
      <trkpt lat="45.81254" lon="4.18126">
        <ele>325.54357</ele>
        <time>2011-07-09T07:06:11Z</time>
      </trkpt>
      <trkpt lat="45.81262" lon="4.18192">
        <ele>325.54357</ele>
        <time>2011-07-09T07:06:20Z</time>
      </trkpt>
      <trkpt lat="45.81269" lon="4.18244">
        <ele>325.06298</ele>
        <time>2011-07-09T07:06:27Z</time>
      </trkpt>
      <trkpt lat="45.8128" lon="4.18268">
        <ele>325.06298</ele>
        <time>2011-07-09T07:06:31Z</time>
      </trkpt>
      <trkpt lat="45.8129" lon="4.1827">
        <ele>325.06298</ele>
        <time>2011-07-09T07:06:33Z</time>
      </trkpt>
      <trkpt lat="45.81344" lon="4.1826">
        <ele>325.06298</ele>
        <time>2011-07-09T07:06:43Z</time>
      </trkpt>
      <trkpt lat="45.81359" lon="4.18253">
        <ele>324.58227</ele>
        <time>2011-07-09T07:06:46Z</time>
      </trkpt>
      <trkpt lat="45.81378" lon="4.18239">
        <ele>325.06298</ele>
        <time>2011-07-09T07:06:50Z</time>
      </trkpt>
      <trkpt lat="45.81395" lon="4.18212">
        <ele>325.06298</ele>
        <time>2011-07-09T07:06:55Z</time>
      </trkpt>
      <trkpt lat="45.81419" lon="4.18156">
        <ele>325.06298</ele>
        <time>2011-07-09T07:07:04Z</time>
      </trkpt>
      <trkpt lat="45.8144" lon="4.18118">
        <ele>326.02416</ele>
        <time>2011-07-09T07:07:11Z</time>
      </trkpt>
      <trkpt lat="45.81458" lon="4.18089">
        <ele>327.94677</ele>
        <time>2011-07-09T07:07:18Z</time>
      </trkpt>
      <trkpt lat="45.81472" lon="4.18079">
        <ele>329.8695</ele>
        <time>2011-07-09T07:07:22Z</time>
      </trkpt>
      <trkpt lat="45.81478" lon="4.18083">
        <ele>330.35021</ele>
        <time>2011-07-09T07:07:24Z</time>
      </trkpt>
      <trkpt lat="45.8149" lon="4.18101">
        <ele>331.31152</ele>
        <time>2011-07-09T07:07:30Z</time>
      </trkpt>
      <trkpt lat="45.8151" lon="4.18133">
        <ele>332.27282</ele>
        <time>2011-07-09T07:07:38Z</time>
      </trkpt>
      <trkpt lat="45.8153" lon="4.1816">
        <ele>333.23413</ele>
        <time>2011-07-09T07:07:45Z</time>
      </trkpt>
      <trkpt lat="45.81547" lon="4.18183">
        <ele>333.71472</ele>
        <time>2011-07-09T07:07:51Z</time>
      </trkpt>
      <trkpt lat="45.81556" lon="4.18196">
        <ele>332.75354</ele>
        <time>2011-07-09T07:07:54Z</time>
      </trkpt>
      <trkpt lat="45.81584" lon="4.18235">
        <ele>333.71472</ele>
        <time>2011-07-09T07:08:03Z</time>
      </trkpt>
      <trkpt lat="45.81614" lon="4.18274">
        <ele>332.75354</ele>
        <time>2011-07-09T07:08:12Z</time>
      </trkpt>
      <trkpt lat="45.81638" lon="4.18309">
        <ele>332.27282</ele>
        <time>2011-07-09T07:08:19Z</time>
      </trkpt>
      <trkpt lat="45.81653" lon="4.1833">
        <ele>331.79211</ele>
        <time>2011-07-09T07:08:23Z</time>
      </trkpt>
      <trkpt lat="45.81659" lon="4.18342">
        <ele>331.79211</ele>
        <time>2011-07-09T07:08:25Z</time>
      </trkpt>
      <trkpt lat="45.81683" lon="4.18378">
        <ele>332.27282</ele>
        <time>2011-07-09T07:08:32Z</time>
      </trkpt>
      <trkpt lat="45.81704" lon="4.18407">
        <ele>333.23413</ele>
        <time>2011-07-09T07:08:39Z</time>
      </trkpt>
      <trkpt lat="45.8171" lon="4.18417">
        <ele>333.23413</ele>
        <time>2011-07-09T07:08:41Z</time>
      </trkpt>
      <trkpt lat="45.81729" lon="4.18446">
        <ele>333.71472</ele>
        <time>2011-07-09T07:08:48Z</time>
      </trkpt>
      <trkpt lat="45.81744" lon="4.18468">
        <ele>334.19543</ele>
        <time>2011-07-09T07:08:53Z</time>
      </trkpt>
      <trkpt lat="45.81758" lon="4.18485">
        <ele>334.19543</ele>
        <time>2011-07-09T07:08:59Z</time>
      </trkpt>
      <trkpt lat="45.81759" lon="4.18486">
        <ele>334.19543</ele>
        <time>2011-07-09T07:09:04Z</time>
      </trkpt>
      <trkpt lat="45.81759" lon="4.18486">
        <ele>334.19543</ele>
        <time>2011-07-09T07:09:14Z</time>
      </trkpt>
      <trkpt lat="45.81759" lon="4.18481">
        <ele>334.19543</ele>
        <time>2011-07-09T07:09:38Z</time>
      </trkpt>
      <trkpt lat="45.81767" lon="4.18493">
        <ele>334.67614</ele>
        <time>2011-07-09T07:09:44Z</time>
      </trkpt>
      <trkpt lat="45.81775" lon="4.18516">
        <ele>335.15673</ele>
        <time>2011-07-09T07:09:49Z</time>
      </trkpt>
      <trkpt lat="45.8178" lon="4.18532">
        <ele>335.15673</ele>
        <time>2011-07-09T07:09:52Z</time>
      </trkpt>
      <trkpt lat="45.81791" lon="4.18579">
        <ele>336.11816</ele>
        <time>2011-07-09T07:10:00Z</time>
      </trkpt>
      <trkpt lat="45.81797" lon="4.18614">
        <ele>336.59887</ele>
        <time>2011-07-09T07:10:06Z</time>
      </trkpt>
      <trkpt lat="45.81798" lon="4.18626">
        <ele>336.11816</ele>
        <time>2011-07-09T07:10:08Z</time>
      </trkpt>
      <trkpt lat="45.81801" lon="4.18644">
        <ele>336.59887</ele>
        <time>2011-07-09T07:10:11Z</time>
      </trkpt>
      <trkpt lat="45.81812" lon="4.18703">
        <ele>337.56005</ele>
        <time>2011-07-09T07:10:20Z</time>
      </trkpt>
      <trkpt lat="45.81817" lon="4.18742">
        <ele>337.56005</ele>
        <time>2011-07-09T07:10:26Z</time>
      </trkpt>
      <trkpt lat="45.81826" lon="4.1878">
        <ele>337.56005</ele>
        <time>2011-07-09T07:10:33Z</time>
      </trkpt>
      <trkpt lat="45.81827" lon="4.18786">
        <ele>337.56005</ele>
        <time>2011-07-09T07:10:34Z</time>
      </trkpt>
      <trkpt lat="45.81836" lon="4.18828">
        <ele>337.56005</ele>
        <time>2011-07-09T07:10:41Z</time>
      </trkpt>
      <trkpt lat="45.81839" lon="4.1884">
        <ele>337.07946</ele>
        <time>2011-07-09T07:10:43Z</time>
      </trkpt>
      <trkpt lat="45.81842" lon="4.18852">
        <ele>337.56005</ele>
        <time>2011-07-09T07:10:45Z</time>
      </trkpt>
      <trkpt lat="45.81845" lon="4.18872">
        <ele>337.56005</ele>
        <time>2011-07-09T07:10:48Z</time>
      </trkpt>
      <trkpt lat="45.81854" lon="4.1892">
        <ele>337.56005</ele>
        <time>2011-07-09T07:10:56Z</time>
      </trkpt>
      <trkpt lat="45.81863" lon="4.1897">
        <ele>338.04077</ele>
        <time>2011-07-09T07:11:04Z</time>
      </trkpt>
      <trkpt lat="45.81874" lon="4.19018">
        <ele>337.56005</ele>
        <time>2011-07-09T07:11:11Z</time>
      </trkpt>
      <trkpt lat="45.81881" lon="4.19053">
        <ele>337.56005</ele>
        <time>2011-07-09T07:11:16Z</time>
      </trkpt>
      <trkpt lat="45.8188" lon="4.19104">
        <ele>336.59887</ele>
        <time>2011-07-09T07:11:23Z</time>
      </trkpt>
      <trkpt lat="45.81871" lon="4.19143">
        <ele>336.59887</ele>
        <time>2011-07-09T07:11:29Z</time>
      </trkpt>
      <trkpt lat="45.81858" lon="4.19184">
        <ele>337.07946</ele>
        <time>2011-07-09T07:11:36Z</time>
      </trkpt>
      <trkpt lat="45.81846" lon="4.19233">
        <ele>337.56005</ele>
        <time>2011-07-09T07:11:44Z</time>
      </trkpt>
      <trkpt lat="45.8184" lon="4.1926">
        <ele>338.52148</ele>
        <time>2011-07-09T07:11:48Z</time>
      </trkpt>
      <trkpt lat="45.81833" lon="4.19287">
        <ele>339.00207</ele>
        <time>2011-07-09T07:11:52Z</time>
      </trkpt>
      <trkpt lat="45.81816" lon="4.19357">
        <ele>339.96337</ele>
        <time>2011-07-09T07:12:03Z</time>
      </trkpt>
      <trkpt lat="45.81806" lon="4.19402">
        <ele>340.44409</ele>
        <time>2011-07-09T07:12:10Z</time>
      </trkpt>
      <trkpt lat="45.81798" lon="4.19437">
        <ele>340.92468</ele>
        <time>2011-07-09T07:12:15Z</time>
      </trkpt>
      <trkpt lat="45.81785" lon="4.19496">
        <ele>341.88598</ele>
        <time>2011-07-09T07:12:24Z</time>
      </trkpt>
      <trkpt lat="45.8178" lon="4.19516">
        <ele>342.36669</ele>
        <time>2011-07-09T07:12:27Z</time>
      </trkpt>
      <trkpt lat="45.81768" lon="4.19531">
        <ele>342.84729</ele>
        <time>2011-07-09T07:12:31Z</time>
      </trkpt>
      <trkpt lat="45.81756" lon="4.1954">
        <ele>343.32788</ele>
        <time>2011-07-09T07:12:34Z</time>
      </trkpt>
      <trkpt lat="45.81754" lon="4.1956">
        <ele>343.80859</ele>
        <time>2011-07-09T07:12:37Z</time>
      </trkpt>
      <trkpt lat="45.81759" lon="4.19573">
        <ele>343.80859</ele>
        <time>2011-07-09T07:12:39Z</time>
      </trkpt>
      <trkpt lat="45.81766" lon="4.19606">
        <ele>343.80859</ele>
        <time>2011-07-09T07:12:44Z</time>
      </trkpt>
      <trkpt lat="45.81766" lon="4.19621">
        <ele>344.28942</ele>
        <time>2011-07-09T07:12:46Z</time>
      </trkpt>
      <trkpt lat="45.81764" lon="4.19649">
        <ele>343.80859</ele>
        <time>2011-07-09T07:12:50Z</time>
      </trkpt>
      <trkpt lat="45.81762" lon="4.19663">
        <ele>344.77001</ele>
        <time>2011-07-09T07:12:52Z</time>
      </trkpt>
      <trkpt lat="45.81751" lon="4.19733">
        <ele>345.25061</ele>
        <time>2011-07-09T07:13:02Z</time>
      </trkpt>
      <trkpt lat="45.81745" lon="4.19779">
        <ele>345.73132</ele>
        <time>2011-07-09T07:13:09Z</time>
      </trkpt>
      <trkpt lat="45.81739" lon="4.19841">
        <ele>346.21203</ele>
        <time>2011-07-09T07:13:18Z</time>
      </trkpt>
      <trkpt lat="45.81737" lon="4.19862">
        <ele>346.21203</ele>
        <time>2011-07-09T07:13:21Z</time>
      </trkpt>
      <trkpt lat="45.81736" lon="4.1989">
        <ele>346.69262</ele>
        <time>2011-07-09T07:13:25Z</time>
      </trkpt>
      <trkpt lat="45.81731" lon="4.19946">
        <ele>347.17321</ele>
        <time>2011-07-09T07:13:33Z</time>
      </trkpt>
      <trkpt lat="45.81729" lon="4.19967">
        <ele>347.65393</ele>
        <time>2011-07-09T07:13:36Z</time>
      </trkpt>
      <trkpt lat="45.81712" lon="4.20022">
        <ele>348.13464</ele>
        <time>2011-07-09T07:13:45Z</time>
      </trkpt>
      <trkpt lat="45.81695" lon="4.20073">
        <ele>348.61523</ele>
        <time>2011-07-09T07:13:54Z</time>
      </trkpt>
      <trkpt lat="45.81677" lon="4.20126">
        <ele>349.09582</ele>
        <time>2011-07-09T07:14:03Z</time>
      </trkpt>
      <trkpt lat="45.81662" lon="4.20169">
        <ele>349.57653</ele>
        <time>2011-07-09T07:14:10Z</time>
      </trkpt>
      <trkpt lat="45.81642" lon="4.20226">
        <ele>349.57653</ele>
        <time>2011-07-09T07:14:19Z</time>
      </trkpt>
      <trkpt lat="45.81628" lon="4.20277">
        <ele>350.05725</ele>
        <time>2011-07-09T07:14:27Z</time>
      </trkpt>
      <trkpt lat="45.81617" lon="4.20324">
        <ele>350.53784</ele>
        <time>2011-07-09T07:14:34Z</time>
      </trkpt>
      <trkpt lat="45.81609" lon="4.20358">
        <ele>350.53784</ele>
        <time>2011-07-09T07:14:39Z</time>
      </trkpt>
      <trkpt lat="45.8159" lon="4.20418">
        <ele>351.01843</ele>
        <time>2011-07-09T07:14:48Z</time>
      </trkpt>
      <trkpt lat="45.81586" lon="4.20432">
        <ele>351.01843</ele>
        <time>2011-07-09T07:14:50Z</time>
      </trkpt>
      <trkpt lat="45.8157" lon="4.20487">
        <ele>351.49914</ele>
        <time>2011-07-09T07:14:58Z</time>
      </trkpt>
      <trkpt lat="45.81552" lon="4.20548">
        <ele>351.49914</ele>
        <time>2011-07-09T07:15:07Z</time>
      </trkpt>
      <trkpt lat="45.81532" lon="4.20615">
        <ele>351.97985</ele>
        <time>2011-07-09T07:15:17Z</time>
      </trkpt>
      <trkpt lat="45.81515" lon="4.20672">
        <ele>351.49914</ele>
        <time>2011-07-09T07:15:25Z</time>
      </trkpt>
      <trkpt lat="45.815" lon="4.20721">
        <ele>351.97985</ele>
        <time>2011-07-09T07:15:32Z</time>
      </trkpt>
      <trkpt lat="45.8148" lon="4.20784">
        <ele>351.97985</ele>
        <time>2011-07-09T07:15:41Z</time>
      </trkpt>
      <trkpt lat="45.81463" lon="4.20838">
        <ele>352.46057</ele>
        <time>2011-07-09T07:15:49Z</time>
      </trkpt>
      <trkpt lat="45.81448" lon="4.20887">
        <ele>352.46057</ele>
        <time>2011-07-09T07:15:56Z</time>
      </trkpt>
      <trkpt lat="45.81425" lon="4.20961">
        <ele>353.42187</ele>
        <time>2011-07-09T07:16:07Z</time>
      </trkpt>
      <trkpt lat="45.81408" lon="4.21014">
        <ele>353.42187</ele>
        <time>2011-07-09T07:16:15Z</time>
      </trkpt>
      <trkpt lat="45.8139" lon="4.21074">
        <ele>354.38317</ele>
        <time>2011-07-09T07:16:24Z</time>
      </trkpt>
      <trkpt lat="45.81372" lon="4.21134">
        <ele>355.34448</ele>
        <time>2011-07-09T07:16:33Z</time>
      </trkpt>
      <trkpt lat="45.81358" lon="4.2118">
        <ele>355.82519</ele>
        <time>2011-07-09T07:16:40Z</time>
      </trkpt>
      <trkpt lat="45.8134" lon="4.21241">
        <ele>356.78637</ele>
        <time>2011-07-09T07:16:49Z</time>
      </trkpt>
      <trkpt lat="45.81322" lon="4.21301">
        <ele>357.7478</ele>
        <time>2011-07-09T07:16:58Z</time>
      </trkpt>
      <trkpt lat="45.81306" lon="4.21354">
        <ele>357.7478</ele>
        <time>2011-07-09T07:17:06Z</time>
      </trkpt>
      <trkpt lat="45.81292" lon="4.21401">
        <ele>357.7478</ele>
        <time>2011-07-09T07:17:13Z</time>
      </trkpt>
      <trkpt lat="45.81278" lon="4.21449">
        <ele>358.70898</ele>
        <time>2011-07-09T07:17:20Z</time>
      </trkpt>
      <trkpt lat="45.8126" lon="4.2151">
        <ele>358.70898</ele>
        <time>2011-07-09T07:17:29Z</time>
      </trkpt>
      <trkpt lat="45.81245" lon="4.21547">
        <ele>360.15112</ele>
        <time>2011-07-09T07:17:35Z</time>
      </trkpt>
      <trkpt lat="45.81225" lon="4.21578">
        <ele>360.63171</ele>
        <time>2011-07-09T07:17:41Z</time>
      </trkpt>
      <trkpt lat="45.81205" lon="4.216">
        <ele>361.11242</ele>
        <time>2011-07-09T07:17:46Z</time>
      </trkpt>
      <trkpt lat="45.81175" lon="4.21619">
        <ele>362.07373</ele>
        <time>2011-07-09T07:17:53Z</time>
      </trkpt>
      <trkpt lat="45.81155" lon="4.21634">
        <ele>363.51574</ele>
        <time>2011-07-09T07:17:58Z</time>
      </trkpt>
      <trkpt lat="45.81122" lon="4.21664">
        <ele>364.47692</ele>
        <time>2011-07-09T07:18:06Z</time>
      </trkpt>
      <trkpt lat="45.81095" lon="4.21695">
        <ele>364.95764</ele>
        <time>2011-07-09T07:18:13Z</time>
      </trkpt>
      <trkpt lat="45.81068" lon="4.21733">
        <ele>366.88024</ele>
        <time>2011-07-09T07:18:21Z</time>
      </trkpt>
      <trkpt lat="45.81049" lon="4.21775">
        <ele>366.88024</ele>
        <time>2011-07-09T07:18:28Z</time>
      </trkpt>
      <trkpt lat="45.81033" lon="4.21829">
        <ele>367.36096</ele>
        <time>2011-07-09T07:18:36Z</time>
      </trkpt>
      <trkpt lat="45.81026" lon="4.21855">
        <ele>367.36096</ele>
        <time>2011-07-09T07:18:40Z</time>
      </trkpt>
      <trkpt lat="45.80995" lon="4.21917">
        <ele>366.88024</ele>
        <time>2011-07-09T07:18:50Z</time>
      </trkpt>
      <trkpt lat="45.80965" lon="4.2197">
        <ele>365.91894</ele>
        <time>2011-07-09T07:18:58Z</time>
      </trkpt>
      <trkpt lat="45.80938" lon="4.22016">
        <ele>365.91894</ele>
        <time>2011-07-09T07:19:05Z</time>
      </trkpt>
      <trkpt lat="45.80911" lon="4.22058">
        <ele>365.43835</ele>
        <time>2011-07-09T07:19:12Z</time>
      </trkpt>
      <trkpt lat="45.80881" lon="4.22094">
        <ele>366.88024</ele>
        <time>2011-07-09T07:19:19Z</time>
      </trkpt>
      <trkpt lat="45.80856" lon="4.22122">
        <ele>366.88024</ele>
        <time>2011-07-09T07:19:25Z</time>
      </trkpt>
      <trkpt lat="45.80819" lon="4.2216">
        <ele>367.36096</ele>
        <time>2011-07-09T07:19:33Z</time>
      </trkpt>
      <trkpt lat="45.80782" lon="4.22199">
        <ele>366.88024</ele>
        <time>2011-07-09T07:19:41Z</time>
      </trkpt>
      <trkpt lat="45.80764" lon="4.2222">
        <ele>366.88024</ele>
        <time>2011-07-09T07:19:45Z</time>
      </trkpt>
      <trkpt lat="45.80725" lon="4.22282">
        <ele>367.36096</ele>
        <time>2011-07-09T07:19:55Z</time>
      </trkpt>
      <trkpt lat="45.80698" lon="4.22328">
        <ele>367.84155</ele>
        <time>2011-07-09T07:20:02Z</time>
      </trkpt>
      <trkpt lat="45.80666" lon="4.22364">
        <ele>367.84155</ele>
        <time>2011-07-09T07:20:09Z</time>
      </trkpt>
      <trkpt lat="45.80625" lon="4.22411">
        <ele>367.36096</ele>
        <time>2011-07-09T07:20:18Z</time>
      </trkpt>
      <trkpt lat="45.80585" lon="4.2245">
        <ele>366.88024</ele>
        <time>2011-07-09T07:20:26Z</time>
      </trkpt>
      <trkpt lat="45.80539" lon="4.22486">
        <ele>364.95764</ele>
        <time>2011-07-09T07:20:34Z</time>
      </trkpt>
      <trkpt lat="45.80499" lon="4.22518">
        <ele>364.47692</ele>
        <time>2011-07-09T07:20:41Z</time>
      </trkpt>
      <trkpt lat="45.80465" lon="4.22548">
        <ele>363.99633</ele>
        <time>2011-07-09T07:20:47Z</time>
      </trkpt>
      <trkpt lat="45.80428" lon="4.22587">
        <ele>363.51574</ele>
        <time>2011-07-09T07:20:54Z</time>
      </trkpt>
      <trkpt lat="45.80392" lon="4.2261">
        <ele>363.51574</ele>
        <time>2011-07-09T07:21:00Z</time>
      </trkpt>
      <trkpt lat="45.80347" lon="4.22628">
        <ele>363.03503</ele>
        <time>2011-07-09T07:21:07Z</time>
      </trkpt>
      <trkpt lat="45.80286" lon="4.22654">
        <ele>362.07373</ele>
        <time>2011-07-09T07:21:17Z</time>
      </trkpt>
      <trkpt lat="45.80236" lon="4.22678">
        <ele>361.11242</ele>
        <time>2011-07-09T07:21:25Z</time>
      </trkpt>
      <trkpt lat="45.80201" lon="4.22705">
        <ele>361.59313</ele>
        <time>2011-07-09T07:21:31Z</time>
      </trkpt>
      <trkpt lat="45.80164" lon="4.22743">
        <ele>362.07373</ele>
        <time>2011-07-09T07:21:38Z</time>
      </trkpt>
      <trkpt lat="45.80135" lon="4.22776">
        <ele>361.59313</ele>
        <time>2011-07-09T07:21:44Z</time>
      </trkpt>
      <trkpt lat="45.80107" lon="4.22823">
        <ele>362.55432</ele>
        <time>2011-07-09T07:21:51Z</time>
      </trkpt>
      <trkpt lat="45.80079" lon="4.22871">
        <ele>363.03503</ele>
        <time>2011-07-09T07:21:58Z</time>
      </trkpt>
      <trkpt lat="45.80053" lon="4.22928">
        <ele>364.47692</ele>
        <time>2011-07-09T07:22:06Z</time>
      </trkpt>
      <trkpt lat="45.80045" lon="4.22942">
        <ele>364.95764</ele>
        <time>2011-07-09T07:22:08Z</time>
      </trkpt>
      <trkpt lat="45.80013" lon="4.22975">
        <ele>365.43835</ele>
        <time>2011-07-09T07:22:15Z</time>
      </trkpt>
      <trkpt lat="45.79971" lon="4.23006">
        <ele>364.95764</ele>
        <time>2011-07-09T07:22:23Z</time>
      </trkpt>
      <trkpt lat="45.79955" lon="4.23018">
        <ele>364.95764</ele>
        <time>2011-07-09T07:22:26Z</time>
      </trkpt>
      <trkpt lat="45.79941" lon="4.23043">
        <ele>364.47692</ele>
        <time>2011-07-09T07:22:30Z</time>
      </trkpt>
      <trkpt lat="45.79939" lon="4.23051">
        <ele>364.47692</ele>
        <time>2011-07-09T07:22:31Z</time>
      </trkpt>
      <trkpt lat="45.79933" lon="4.23084">
        <ele>364.95764</ele>
        <time>2011-07-09T07:22:36Z</time>
      </trkpt>
      <trkpt lat="45.79931" lon="4.23095">
        <ele>365.43835</ele>
        <time>2011-07-09T07:22:38Z</time>
      </trkpt>
      <trkpt lat="45.79914" lon="4.23122">
        <ele>365.43835</ele>
        <time>2011-07-09T07:22:44Z</time>
      </trkpt>
      <trkpt lat="45.79901" lon="4.23134">
        <ele>365.91894</ele>
        <time>2011-07-09T07:22:49Z</time>
      </trkpt>
      <trkpt lat="45.79892" lon="4.23144">
        <ele>365.91894</ele>
        <time>2011-07-09T07:22:55Z</time>
      </trkpt>
      <trkpt lat="45.79886" lon="4.23151">
        <ele>365.91894</ele>
        <time>2011-07-09T07:23:02Z</time>
      </trkpt>
      <trkpt lat="45.79885" lon="4.23151">
        <ele>365.91894</ele>
        <time>2011-07-09T07:23:12Z</time>
      </trkpt>
      <trkpt lat="45.79885" lon="4.23152">
        <ele>365.43835</ele>
        <time>2011-07-09T07:23:26Z</time>
      </trkpt>
      <trkpt lat="45.79883" lon="4.23154">
        <ele>366.39953</ele>
        <time>2011-07-09T07:23:33Z</time>
      </trkpt>
      <trkpt lat="45.79884" lon="4.23154">
        <ele>365.91894</ele>
        <time>2011-07-09T07:23:41Z</time>
      </trkpt>
      <trkpt lat="45.7988" lon="4.23161">
        <ele>365.91894</ele>
        <time>2011-07-09T07:24:10Z</time>
      </trkpt>
      <trkpt lat="45.79872" lon="4.23171">
        <ele>366.39953</ele>
        <time>2011-07-09T07:24:15Z</time>
      </trkpt>
      <trkpt lat="45.7986" lon="4.23184">
        <ele>366.39953</ele>
        <time>2011-07-09T07:24:21Z</time>
      </trkpt>
      <trkpt lat="45.79846" lon="4.23203">
        <ele>366.39953</ele>
        <time>2011-07-09T07:24:26Z</time>
      </trkpt>
      <trkpt lat="45.79839" lon="4.23219">
        <ele>365.91894</ele>
        <time>2011-07-09T07:24:29Z</time>
      </trkpt>
      <trkpt lat="45.79824" lon="4.23228">
        <ele>365.43835</ele>
        <time>2011-07-09T07:24:33Z</time>
      </trkpt>
      <trkpt lat="45.79781" lon="4.23242">
        <ele>364.95764</ele>
        <time>2011-07-09T07:24:42Z</time>
      </trkpt>
      <trkpt lat="45.79777" lon="4.23244">
        <ele>364.47692</ele>
        <time>2011-07-09T07:24:43Z</time>
      </trkpt>
      <trkpt lat="45.79739" lon="4.23257">
        <ele>363.99633</ele>
        <time>2011-07-09T07:24:51Z</time>
      </trkpt>
      <trkpt lat="45.79725" lon="4.23267">
        <ele>363.99633</ele>
        <time>2011-07-09T07:24:55Z</time>
      </trkpt>
      <trkpt lat="45.7972" lon="4.23294">
        <ele>363.99633</ele>
        <time>2011-07-09T07:25:00Z</time>
      </trkpt>
      <trkpt lat="45.79718" lon="4.23326">
        <ele>363.99633</ele>
        <time>2011-07-09T07:25:05Z</time>
      </trkpt>
      <trkpt lat="45.79708" lon="4.23374">
        <ele>363.99633</ele>
        <time>2011-07-09T07:25:13Z</time>
      </trkpt>
      <trkpt lat="45.79704" lon="4.23392">
        <ele>363.99633</ele>
        <time>2011-07-09T07:25:16Z</time>
      </trkpt>
      <trkpt lat="45.79697" lon="4.23428">
        <ele>364.47692</ele>
        <time>2011-07-09T07:25:22Z</time>
      </trkpt>
      <trkpt lat="45.79696" lon="4.23434">
        <ele>364.95764</ele>
        <time>2011-07-09T07:25:23Z</time>
      </trkpt>
      <trkpt lat="45.79678" lon="4.23468">
        <ele>366.88024</ele>
        <time>2011-07-09T07:25:29Z</time>
      </trkpt>
      <trkpt lat="45.79676" lon="4.23483">
        <ele>367.36096</ele>
        <time>2011-07-09T07:25:31Z</time>
      </trkpt>
      <trkpt lat="45.79678" lon="4.23514">
        <ele>368.80297</ele>
        <time>2011-07-09T07:25:35Z</time>
      </trkpt>
      <trkpt lat="45.79684" lon="4.2355">
        <ele>369.28369</ele>
        <time>2011-07-09T07:25:39Z</time>
      </trkpt>
      <trkpt lat="45.79693" lon="4.2361">
        <ele>371.20629</ele>
        <time>2011-07-09T07:25:46Z</time>
      </trkpt>
      <trkpt lat="45.79701" lon="4.23644">
        <ele>373.1289</ele>
        <time>2011-07-09T07:25:51Z</time>
      </trkpt>
      <trkpt lat="45.79709" lon="4.23673">
        <ele>374.5708</ele>
        <time>2011-07-09T07:25:57Z</time>
      </trkpt>
      <trkpt lat="45.79712" lon="4.23681">
        <ele>375.5321</ele>
        <time>2011-07-09T07:25:59Z</time>
      </trkpt>
      <trkpt lat="45.79723" lon="4.23696">
        <ele>375.5321</ele>
        <time>2011-07-09T07:26:04Z</time>
      </trkpt>
      <trkpt lat="45.79733" lon="4.2371">
        <ele>376.49353</ele>
        <time>2011-07-09T07:26:09Z</time>
      </trkpt>
      <trkpt lat="45.79747" lon="4.23728">
        <ele>377.93542</ele>
        <time>2011-07-09T07:26:15Z</time>
      </trkpt>
      <trkpt lat="45.79763" lon="4.2375">
        <ele>378.41613</ele>
        <time>2011-07-09T07:26:22Z</time>
      </trkpt>
      <trkpt lat="45.7978" lon="4.23775">
        <ele>379.85803</ele>
        <time>2011-07-09T07:26:29Z</time>
      </trkpt>
      <trkpt lat="45.79795" lon="4.2379">
        <ele>381.30004</ele>
        <time>2011-07-09T07:26:35Z</time>
      </trkpt>
      <trkpt lat="45.79815" lon="4.23812">
        <ele>384.18408</ele>
        <time>2011-07-09T07:26:44Z</time>
      </trkpt>
      <trkpt lat="45.79827" lon="4.23826">
        <ele>386.5874</ele>
        <time>2011-07-09T07:26:50Z</time>
      </trkpt>
      <trkpt lat="45.79832" lon="4.23837">
        <ele>388.51</ele>
        <time>2011-07-09T07:26:55Z</time>
      </trkpt>
      <trkpt lat="45.79833" lon="4.2384">
        <ele>388.51</ele>
        <time>2011-07-09T07:26:56Z</time>
      </trkpt>
      <trkpt lat="45.79833" lon="4.23847">
        <ele>390.43261</ele>
        <time>2011-07-09T07:26:59Z</time>
      </trkpt>
      <trkpt lat="45.79837" lon="4.23863">
        <ele>392.83593</ele>
        <time>2011-07-09T07:27:05Z</time>
      </trkpt>
      <trkpt lat="45.79838" lon="4.2387">
        <ele>394.27795</ele>
        <time>2011-07-09T07:27:08Z</time>
      </trkpt>
      <trkpt lat="45.79838" lon="4.2388">
        <ele>396.20056</ele>
        <time>2011-07-09T07:27:12Z</time>
      </trkpt>
      <trkpt lat="45.79842" lon="4.23897">
        <ele>398.12316</ele>
        <time>2011-07-09T07:27:19Z</time>
      </trkpt>
      <trkpt lat="45.79847" lon="4.23913">
        <ele>399.56506</ele>
        <time>2011-07-09T07:27:27Z</time>
      </trkpt>
      <trkpt lat="45.7985" lon="4.23916">
        <ele>400.52648</ele>
        <time>2011-07-09T07:27:29Z</time>
      </trkpt>
      <trkpt lat="45.79857" lon="4.23929">
        <ele>402.92968</ele>
        <time>2011-07-09T07:27:36Z</time>
      </trkpt>
      <trkpt lat="45.79866" lon="4.23947">
        <ele>404.3717</ele>
        <time>2011-07-09T07:27:44Z</time>
      </trkpt>
      <trkpt lat="45.79869" lon="4.23952">
        <ele>405.81372</ele>
        <time>2011-07-09T07:27:47Z</time>
      </trkpt>
      <trkpt lat="45.79872" lon="4.23959">
        <ele>407.73632</ele>
        <time>2011-07-09T07:27:53Z</time>
      </trkpt>
      <trkpt lat="45.79876" lon="4.2397">
        <ele>409.65905</ele>
        <time>2011-07-09T07:28:00Z</time>
      </trkpt>
      <trkpt lat="45.79882" lon="4.23989">
        <ele>412.06225</ele>
        <time>2011-07-09T07:28:08Z</time>
      </trkpt>
      <trkpt lat="45.79889" lon="4.24009">
        <ele>414.94616</ele>
        <time>2011-07-09T07:28:16Z</time>
      </trkpt>
      <trkpt lat="45.7989" lon="4.24012">
        <ele>415.42687</ele>
        <time>2011-07-09T07:28:17Z</time>
      </trkpt>
      <trkpt lat="45.799" lon="4.24031">
        <ele>416.86889</ele>
        <time>2011-07-09T07:28:24Z</time>
      </trkpt>
      <trkpt lat="45.79915" lon="4.24055">
        <ele>418.31079</ele>
        <time>2011-07-09T07:28:32Z</time>
      </trkpt>
      <trkpt lat="45.79933" lon="4.24081">
        <ele>419.7528</ele>
        <time>2011-07-09T07:28:41Z</time>
      </trkpt>
      <trkpt lat="45.79951" lon="4.24109">
        <ele>421.67541</ele>
        <time>2011-07-09T07:28:49Z</time>
      </trkpt>
      <trkpt lat="45.79973" lon="4.24144">
        <ele>422.63671</ele>
        <time>2011-07-09T07:28:58Z</time>
      </trkpt>
      <trkpt lat="45.79989" lon="4.24177">
        <ele>423.11743</ele>
        <time>2011-07-09T07:29:06Z</time>
      </trkpt>
      <trkpt lat="45.80002" lon="4.24206">
        <ele>423.11743</ele>
        <time>2011-07-09T07:29:13Z</time>
      </trkpt>
      <trkpt lat="45.80007" lon="4.24234">
        <ele>424.07873</ele>
        <time>2011-07-09T07:29:19Z</time>
      </trkpt>
      <trkpt lat="45.80012" lon="4.24263">
        <ele>425.04016</ele>
        <time>2011-07-09T07:29:25Z</time>
      </trkpt>
      <trkpt lat="45.80012" lon="4.24291">
        <ele>426.96276</ele>
        <time>2011-07-09T07:29:31Z</time>
      </trkpt>
      <trkpt lat="45.80014" lon="4.24328">
        <ele>428.88537</ele>
        <time>2011-07-09T07:29:39Z</time>
      </trkpt>
      <trkpt lat="45.80018" lon="4.24349">
        <ele>430.80798</ele>
        <time>2011-07-09T07:29:43Z</time>
      </trkpt>
      <trkpt lat="45.80021" lon="4.24361">
        <ele>432.25</ele>
        <time>2011-07-09T07:29:45Z</time>
      </trkpt>
      <trkpt lat="45.80031" lon="4.24387">
        <ele>433.69189</ele>
        <time>2011-07-09T07:29:49Z</time>
      </trkpt>
      <trkpt lat="45.80034" lon="4.24392">
        <ele>433.69189</ele>
        <time>2011-07-09T07:29:50Z</time>
      </trkpt>
      <trkpt lat="45.80054" lon="4.24413">
        <ele>435.13391</ele>
        <time>2011-07-09T07:29:56Z</time>
      </trkpt>
      <trkpt lat="45.80055" lon="4.24422">
        <ele>436.09521</ele>
        <time>2011-07-09T07:29:58Z</time>
      </trkpt>
      <trkpt lat="45.80046" lon="4.2444">
        <ele>439.94042</ele>
        <time>2011-07-09T07:30:03Z</time>
      </trkpt>
      <trkpt lat="45.80036" lon="4.24459">
        <ele>442.82446</ele>
        <time>2011-07-09T07:30:07Z</time>
      </trkpt>
      <trkpt lat="45.80032" lon="4.24467">
        <ele>443.78576</ele>
        <time>2011-07-09T07:30:09Z</time>
      </trkpt>
      <trkpt lat="45.80013" lon="4.24502">
        <ele>446.18908</ele>
        <time>2011-07-09T07:30:17Z</time>
      </trkpt>
      <trkpt lat="45.80004" lon="4.24518">
        <ele>447.15026</ele>
        <time>2011-07-09T07:30:22Z</time>
      </trkpt>
      <trkpt lat="45.8" lon="4.24523">
        <ele>448.11181</ele>
        <time>2011-07-09T07:30:25Z</time>
      </trkpt>
      <trkpt lat="45.79993" lon="4.24535">
        <ele>448.11181</ele>
        <time>2011-07-09T07:30:31Z</time>
      </trkpt>
      <trkpt lat="45.79985" lon="4.24551">
        <ele>449.55371</ele>
        <time>2011-07-09T07:30:38Z</time>
      </trkpt>
      <trkpt lat="45.79976" lon="4.24563">
        <ele>450.03442</ele>
        <time>2011-07-09T07:30:45Z</time>
      </trkpt>
      <trkpt lat="45.7997" lon="4.24574">
        <ele>451.47631</ele>
        <time>2011-07-09T07:30:51Z</time>
      </trkpt>
      <trkpt lat="45.79967" lon="4.2458">
        <ele>451.95703</ele>
        <time>2011-07-09T07:30:55Z</time>
      </trkpt>
      <trkpt lat="45.79964" lon="4.24582">
        <ele>452.43762</ele>
        <time>2011-07-09T07:30:57Z</time>
      </trkpt>
      <trkpt lat="45.79959" lon="4.24581">
        <ele>451.95703</ele>
        <time>2011-07-09T07:31:04Z</time>
      </trkpt>
      <trkpt lat="45.79959" lon="4.24582">
        <ele>451.95703</ele>
        <time>2011-07-09T07:31:26Z</time>
      </trkpt>
      <trkpt lat="45.79957" lon="4.24579">
        <ele>451.95703</ele>
        <time>2011-07-09T07:31:53Z</time>
      </trkpt>
      <trkpt lat="45.79951" lon="4.24576">
        <ele>451.95703</ele>
        <time>2011-07-09T07:32:06Z</time>
      </trkpt>
      <trkpt lat="45.79952" lon="4.2457">
        <ele>452.91821</ele>
        <time>2011-07-09T07:32:12Z</time>
      </trkpt>
      <trkpt lat="45.79958" lon="4.24579">
        <ele>452.43762</ele>
        <time>2011-07-09T07:32:22Z</time>
      </trkpt>
      <trkpt lat="45.79957" lon="4.24579">
        <ele>451.95703</ele>
        <time>2011-07-09T07:32:31Z</time>
      </trkpt>
      <trkpt lat="45.79955" lon="4.24578">
        <ele>451.95703</ele>
        <time>2011-07-09T07:32:33Z</time>
      </trkpt>
      <trkpt lat="45.79944" lon="4.24569">
        <ele>452.43762</ele>
        <time>2011-07-09T07:32:41Z</time>
      </trkpt>
      <trkpt lat="45.79931" lon="4.24554">
        <ele>452.43762</ele>
        <time>2011-07-09T07:32:47Z</time>
      </trkpt>
      <trkpt lat="45.79914" lon="4.24536">
        <ele>451.95703</ele>
        <time>2011-07-09T07:32:53Z</time>
      </trkpt>
      <trkpt lat="45.79895" lon="4.24517">
        <ele>450.9956</ele>
        <time>2011-07-09T07:32:58Z</time>
      </trkpt>
      <trkpt lat="45.79863" lon="4.24497">
        <ele>450.03442</ele>
        <time>2011-07-09T07:33:05Z</time>
      </trkpt>
      <trkpt lat="45.79831" lon="4.24484">
        <ele>448.11181</ele>
        <time>2011-07-09T07:33:10Z</time>
      </trkpt>
      <trkpt lat="45.79808" lon="4.24474">
        <ele>446.18908</ele>
        <time>2011-07-09T07:33:13Z</time>
      </trkpt>
      <trkpt lat="45.7979" lon="4.24457">
        <ele>444.74707</ele>
        <time>2011-07-09T07:33:16Z</time>
      </trkpt>
      <trkpt lat="45.79776" lon="4.24457">
        <ele>443.78576</ele>
        <time>2011-07-09T07:33:20Z</time>
      </trkpt>
      <trkpt lat="45.79775" lon="4.24463">
        <ele>444.26647</ele>
        <time>2011-07-09T07:33:21Z</time>
      </trkpt>
      <trkpt lat="45.79761" lon="4.24512">
        <ele>442.82446</ele>
        <time>2011-07-09T07:33:29Z</time>
      </trkpt>
      <trkpt lat="45.79754" lon="4.24536">
        <ele>442.34387</ele>
        <time>2011-07-09T07:33:33Z</time>
      </trkpt>
      <trkpt lat="45.79731" lon="4.24591">
        <ele>440.42126</ele>
        <time>2011-07-09T07:33:42Z</time>
      </trkpt>
      <trkpt lat="45.79728" lon="4.246">
        <ele>438.97912</ele>
        <time>2011-07-09T07:33:43Z</time>
      </trkpt>
      <trkpt lat="45.79715" lon="4.24631">
        <ele>435.13391</ele>
        <time>2011-07-09T07:33:47Z</time>
      </trkpt>
      <trkpt lat="45.7971" lon="4.24667">
        <ele>430.80798</ele>
        <time>2011-07-09T07:33:51Z</time>
      </trkpt>
      <trkpt lat="45.79712" lon="4.24675">
        <ele>430.32727</ele>
        <time>2011-07-09T07:33:52Z</time>
      </trkpt>
      <trkpt lat="45.79714" lon="4.24683">
        <ele>430.32727</ele>
        <time>2011-07-09T07:33:53Z</time>
      </trkpt>
      <trkpt lat="45.79728" lon="4.24713">
        <ele>429.84655</ele>
        <time>2011-07-09T07:33:57Z</time>
      </trkpt>
      <trkpt lat="45.79749" lon="4.24744">
        <ele>426.48205</ele>
        <time>2011-07-09T07:34:01Z</time>
      </trkpt>
      <trkpt lat="45.79781" lon="4.24791">
        <ele>425.52075</ele>
        <time>2011-07-09T07:34:07Z</time>
      </trkpt>
      <trkpt lat="45.79791" lon="4.24807">
        <ele>425.52075</ele>
        <time>2011-07-09T07:34:09Z</time>
      </trkpt>
      <trkpt lat="45.79816" lon="4.24839">
        <ele>425.04016</ele>
        <time>2011-07-09T07:34:14Z</time>
      </trkpt>
      <trkpt lat="45.79829" lon="4.2486">
        <ele>424.55944</ele>
        <time>2011-07-09T07:34:17Z</time>
      </trkpt>
      <trkpt lat="45.79838" lon="4.24887">
        <ele>424.07873</ele>
        <time>2011-07-09T07:34:20Z</time>
      </trkpt>
      <trkpt lat="45.79855" lon="4.24934">
        <ele>419.7528</ele>
        <time>2011-07-09T07:34:25Z</time>
      </trkpt>
      <trkpt lat="45.79859" lon="4.24943">
        <ele>419.27221</ele>
        <time>2011-07-09T07:34:26Z</time>
      </trkpt>
      <trkpt lat="45.79879" lon="4.24976">
        <ele>416.38818</ele>
        <time>2011-07-09T07:34:30Z</time>
      </trkpt>
      <trkpt lat="45.79905" lon="4.2501">
        <ele>413.50427</ele>
        <time>2011-07-09T07:34:34Z</time>
      </trkpt>
      <trkpt lat="45.79933" lon="4.25046">
        <ele>410.13964</ele>
        <time>2011-07-09T07:34:38Z</time>
      </trkpt>
      <trkpt lat="45.79952" lon="4.25067">
        <ele>408.21704</ele>
        <time>2011-07-09T07:34:41Z</time>
      </trkpt>
      <trkpt lat="45.79958" lon="4.25074">
        <ele>406.29431</ele>
        <time>2011-07-09T07:34:42Z</time>
      </trkpt>
      <trkpt lat="45.79985" lon="4.25094">
        <ele>403.89111</ele>
        <time>2011-07-09T07:34:46Z</time>
      </trkpt>
      <trkpt lat="45.79994" lon="4.25103">
        <ele>402.44909</ele>
        <time>2011-07-09T07:34:48Z</time>
      </trkpt>
      <trkpt lat="45.79996" lon="4.25118">
        <ele>400.52648</ele>
        <time>2011-07-09T07:34:51Z</time>
      </trkpt>
      <trkpt lat="45.79992" lon="4.25126">
        <ele>399.56506</ele>
        <time>2011-07-09T07:34:53Z</time>
      </trkpt>
      <trkpt lat="45.79972" lon="4.25148">
        <ele>398.12316</ele>
        <time>2011-07-09T07:34:59Z</time>
      </trkpt>
      <trkpt lat="45.79967" lon="4.25148">
        <ele>398.12316</ele>
        <time>2011-07-09T07:35:03Z</time>
      </trkpt>
      <trkpt lat="45.79962" lon="4.2515">
        <ele>398.60375</ele>
        <time>2011-07-09T07:35:07Z</time>
      </trkpt>
      <trkpt lat="45.79959" lon="4.25161">
        <ele>399.08435</ele>
        <time>2011-07-09T07:35:14Z</time>
      </trkpt>
      <trkpt lat="45.7996" lon="4.25163">
        <ele>400.04589</ele>
        <time>2011-07-09T07:35:20Z</time>
      </trkpt>
      <trkpt lat="45.79959" lon="4.25168">
        <ele>400.52648</ele>
        <time>2011-07-09T07:35:25Z</time>
      </trkpt>
      <trkpt lat="45.79961" lon="4.25173">
        <ele>400.04589</ele>
        <time>2011-07-09T07:35:32Z</time>
      </trkpt>
      <trkpt lat="45.79964" lon="4.25175">
        <ele>400.52648</ele>
        <time>2011-07-09T07:35:34Z</time>
      </trkpt>
      <trkpt lat="45.7997" lon="4.25184">
        <ele>401.48779</ele>
        <time>2011-07-09T07:35:39Z</time>
      </trkpt>
      <trkpt lat="45.79974" lon="4.25194">
        <ele>401.9685</ele>
        <time>2011-07-09T07:35:44Z</time>
      </trkpt>
      <trkpt lat="45.79975" lon="4.25198">
        <ele>402.44909</ele>
        <time>2011-07-09T07:35:45Z</time>
      </trkpt>
      <trkpt lat="45.79983" lon="4.2521">
        <ele>402.44909</ele>
        <time>2011-07-09T07:35:50Z</time>
      </trkpt>
      <trkpt lat="45.79982" lon="4.25217">
        <ele>403.4104</ele>
        <time>2011-07-09T07:35:54Z</time>
      </trkpt>
      <trkpt lat="45.79984" lon="4.25223">
        <ele>404.85229</ele>
        <time>2011-07-09T07:35:57Z</time>
      </trkpt>
      <trkpt lat="45.79991" lon="4.25234">
        <ele>405.81372</ele>
        <time>2011-07-09T07:36:02Z</time>
      </trkpt>
      <trkpt lat="45.79996" lon="4.25245">
        <ele>406.7749</ele>
        <time>2011-07-09T07:36:07Z</time>
      </trkpt>
      <trkpt lat="45.80003" lon="4.25262">
        <ele>407.73632</ele>
        <time>2011-07-09T07:36:15Z</time>
      </trkpt>
      <trkpt lat="45.80014" lon="4.25286">
        <ele>408.21704</ele>
        <time>2011-07-09T07:36:23Z</time>
      </trkpt>
      <trkpt lat="45.80018" lon="4.25301">
        <ele>408.69763</ele>
        <time>2011-07-09T07:36:28Z</time>
      </trkpt>
      <trkpt lat="45.80022" lon="4.25319">
        <ele>410.62023</ele>
        <time>2011-07-09T07:36:34Z</time>
      </trkpt>
      <trkpt lat="45.80023" lon="4.25341">
        <ele>413.02355</ele>
        <time>2011-07-09T07:36:40Z</time>
      </trkpt>
      <trkpt lat="45.80022" lon="4.25361">
        <ele>413.98486</ele>
        <time>2011-07-09T07:36:46Z</time>
      </trkpt>
      <trkpt lat="45.80026" lon="4.25376">
        <ele>414.46545</ele>
        <time>2011-07-09T07:36:50Z</time>
      </trkpt>
      <trkpt lat="45.80028" lon="4.25389">
        <ele>414.94616</ele>
        <time>2011-07-09T07:36:54Z</time>
      </trkpt>
      <trkpt lat="45.80034" lon="4.25408">
        <ele>415.42687</ele>
        <time>2011-07-09T07:36:59Z</time>
      </trkpt>
      <trkpt lat="45.80037" lon="4.25426">
        <ele>416.86889</ele>
        <time>2011-07-09T07:37:05Z</time>
      </trkpt>
      <trkpt lat="45.80038" lon="4.25446">
        <ele>418.31079</ele>
        <time>2011-07-09T07:37:10Z</time>
      </trkpt>
      <trkpt lat="45.80039" lon="4.25457">
        <ele>419.27221</ele>
        <time>2011-07-09T07:37:13Z</time>
      </trkpt>
      <trkpt lat="45.80043" lon="4.25485">
        <ele>420.23339</ele>
        <time>2011-07-09T07:37:19Z</time>
      </trkpt>
      <trkpt lat="45.80045" lon="4.25506">
        <ele>420.71411</ele>
        <time>2011-07-09T07:37:24Z</time>
      </trkpt>
      <trkpt lat="45.80049" lon="4.25525">
        <ele>421.19482</ele>
        <time>2011-07-09T07:37:29Z</time>
      </trkpt>
      <trkpt lat="45.80046" lon="4.25545">
        <ele>423.11743</ele>
        <time>2011-07-09T07:37:35Z</time>
      </trkpt>
      <trkpt lat="45.80052" lon="4.25571">
        <ele>423.59802</ele>
        <time>2011-07-09T07:37:42Z</time>
      </trkpt>
      <trkpt lat="45.80054" lon="4.25582">
        <ele>424.55944</ele>
        <time>2011-07-09T07:37:45Z</time>
      </trkpt>
      <trkpt lat="45.80062" lon="4.25602">
        <ele>425.52075</ele>
        <time>2011-07-09T07:37:51Z</time>
      </trkpt>
      <trkpt lat="45.80065" lon="4.25606">
        <ele>426.00134</ele>
        <time>2011-07-09T07:37:53Z</time>
      </trkpt>
      <trkpt lat="45.80065" lon="4.25612">
        <ele>425.52075</ele>
        <time>2011-07-09T07:37:59Z</time>
      </trkpt>
      <trkpt lat="45.80063" lon="4.25616">
        <ele>425.04016</ele>
        <time>2011-07-09T07:38:07Z</time>
      </trkpt>
      <trkpt lat="45.80055" lon="4.25619">
        <ele>425.52075</ele>
        <time>2011-07-09T07:38:47Z</time>
      </trkpt>
      <trkpt lat="45.80061" lon="4.25624">
        <ele>425.52075</ele>
        <time>2011-07-09T07:38:54Z</time>
      </trkpt>
      <trkpt lat="45.80065" lon="4.25627">
        <ele>425.52075</ele>
        <time>2011-07-09T07:39:02Z</time>
      </trkpt>
      <trkpt lat="45.8007" lon="4.2563">
        <ele>425.52075</ele>
        <time>2011-07-09T07:39:06Z</time>
      </trkpt>
      <trkpt lat="45.80083" lon="4.2564">
        <ele>425.04016</ele>
        <time>2011-07-09T07:39:12Z</time>
      </trkpt>
      <trkpt lat="45.80092" lon="4.25649">
        <ele>426.00134</ele>
        <time>2011-07-09T07:39:17Z</time>
      </trkpt>
      <trkpt lat="45.80096" lon="4.25662">
        <ele>426.96276</ele>
        <time>2011-07-09T07:39:23Z</time>
      </trkpt>
      <trkpt lat="45.80095" lon="4.25677">
        <ele>427.92395</ele>
        <time>2011-07-09T07:39:28Z</time>
      </trkpt>
      <trkpt lat="45.80093" lon="4.2569">
        <ele>429.36596</ele>
        <time>2011-07-09T07:39:32Z</time>
      </trkpt>
      <trkpt lat="45.80091" lon="4.25703">
        <ele>431.28857</ele>
        <time>2011-07-09T07:39:37Z</time>
      </trkpt>
      <trkpt lat="45.8009" lon="4.25723">
        <ele>432.25</ele>
        <time>2011-07-09T07:39:44Z</time>
      </trkpt>
      <trkpt lat="45.80093" lon="4.25739">
        <ele>432.73071</ele>
        <time>2011-07-09T07:39:50Z</time>
      </trkpt>
      <trkpt lat="45.80092" lon="4.25761">
        <ele>434.1726</ele>
        <time>2011-07-09T07:39:57Z</time>
      </trkpt>
      <trkpt lat="45.80089" lon="4.25774">
        <ele>435.6145</ele>
        <time>2011-07-09T07:40:04Z</time>
      </trkpt>
      <trkpt lat="45.80091" lon="4.25772">
        <ele>437.05651</ele>
        <time>2011-07-09T07:40:10Z</time>
      </trkpt>
      <trkpt lat="45.80096" lon="4.25768">
        <ele>438.49853</ele>
        <time>2011-07-09T07:40:16Z</time>
      </trkpt>
      <trkpt lat="45.80102" lon="4.25763">
        <ele>438.97912</ele>
        <time>2011-07-09T07:40:22Z</time>
      </trkpt>
      <trkpt lat="45.80105" lon="4.25761">
        <ele>439.94042</ele>
        <time>2011-07-09T07:40:24Z</time>
      </trkpt>
      <trkpt lat="45.80114" lon="4.25772">
        <ele>440.90185</ele>
        <time>2011-07-09T07:40:30Z</time>
      </trkpt>
      <trkpt lat="45.80116" lon="4.25776">
        <ele>441.38244</ele>
        <time>2011-07-09T07:40:32Z</time>
      </trkpt>
      <trkpt lat="45.80121" lon="4.25793">
        <ele>442.82446</ele>
        <time>2011-07-09T07:40:39Z</time>
      </trkpt>
      <trkpt lat="45.80121" lon="4.25795">
        <ele>442.34387</ele>
        <time>2011-07-09T07:40:40Z</time>
      </trkpt>
      <trkpt lat="45.80127" lon="4.25804">
        <ele>444.74707</ele>
        <time>2011-07-09T07:40:47Z</time>
      </trkpt>
      <trkpt lat="45.80133" lon="4.25813">
        <ele>445.70837</ele>
        <time>2011-07-09T07:40:53Z</time>
      </trkpt>
      <trkpt lat="45.80139" lon="4.25818">
        <ele>447.15026</ele>
        <time>2011-07-09T07:41:00Z</time>
      </trkpt>
      <trkpt lat="45.8014" lon="4.2582">
        <ele>448.5924</ele>
        <time>2011-07-09T07:41:02Z</time>
      </trkpt>
      <trkpt lat="45.80148" lon="4.25826">
        <ele>448.5924</ele>
        <time>2011-07-09T07:41:07Z</time>
      </trkpt>
      <trkpt lat="45.80157" lon="4.25835">
        <ele>449.55371</ele>
        <time>2011-07-09T07:41:12Z</time>
      </trkpt>
      <trkpt lat="45.80158" lon="4.25837">
        <ele>450.51501</ele>
        <time>2011-07-09T07:41:13Z</time>
      </trkpt>
      <trkpt lat="45.80161" lon="4.25847">
        <ele>451.47631</ele>
        <time>2011-07-09T07:41:17Z</time>
      </trkpt>
      <trkpt lat="45.80165" lon="4.25856">
        <ele>452.43762</ele>
        <time>2011-07-09T07:41:21Z</time>
      </trkpt>
      <trkpt lat="45.80171" lon="4.25873">
        <ele>453.39892</ele>
        <time>2011-07-09T07:41:28Z</time>
      </trkpt>
      <trkpt lat="45.80175" lon="4.25891">
        <ele>454.36022</ele>
        <time>2011-07-09T07:41:36Z</time>
      </trkpt>
      <trkpt lat="45.80175" lon="4.25894">
        <ele>453.87963</ele>
        <time>2011-07-09T07:41:38Z</time>
      </trkpt>
      <trkpt lat="45.80184" lon="4.25894">
        <ele>453.87963</ele>
        <time>2011-07-09T07:41:46Z</time>
      </trkpt>
      <trkpt lat="45.80196" lon="4.25896">
        <ele>454.36022</ele>
        <time>2011-07-09T07:41:52Z</time>
      </trkpt>
      <trkpt lat="45.80208" lon="4.25904">
        <ele>454.36022</ele>
        <time>2011-07-09T07:41:59Z</time>
      </trkpt>
      <trkpt lat="45.8022" lon="4.25914">
        <ele>454.36022</ele>
        <time>2011-07-09T07:42:06Z</time>
      </trkpt>
      <trkpt lat="45.80229" lon="4.25924">
        <ele>454.84082</ele>
        <time>2011-07-09T07:42:12Z</time>
      </trkpt>
      <trkpt lat="45.80238" lon="4.25941">
        <ele>456.28295</ele>
        <time>2011-07-09T07:42:18Z</time>
      </trkpt>
      <trkpt lat="45.80246" lon="4.25954">
        <ele>459.16687</ele>
        <time>2011-07-09T07:42:24Z</time>
      </trkpt>
      <trkpt lat="45.80253" lon="4.25968">
        <ele>461.08947</ele>
        <time>2011-07-09T07:42:31Z</time>
      </trkpt>
      <trkpt lat="45.80258" lon="4.25984">
        <ele>463.49279</ele>
        <time>2011-07-09T07:42:39Z</time>
      </trkpt>
      <trkpt lat="45.80258" lon="4.25999">
        <ele>465.41552</ele>
        <time>2011-07-09T07:42:46Z</time>
      </trkpt>
      <trkpt lat="45.80262" lon="4.26009">
        <ele>466.3767</ele>
        <time>2011-07-09T07:42:52Z</time>
      </trkpt>
      <trkpt lat="45.80269" lon="4.2602">
        <ele>468.29931</ele>
        <time>2011-07-09T07:42:58Z</time>
      </trkpt>
      <trkpt lat="45.80276" lon="4.26034">
        <ele>471.18334</ele>
        <time>2011-07-09T07:43:05Z</time>
      </trkpt>
      <trkpt lat="45.80284" lon="4.26046">
        <ele>472.14465</ele>
        <time>2011-07-09T07:43:11Z</time>
      </trkpt>
      <trkpt lat="45.80284" lon="4.26053">
        <ele>473.10607</ele>
        <time>2011-07-09T07:43:15Z</time>
      </trkpt>
      <trkpt lat="45.80277" lon="4.26054">
        <ele>473.58666</ele>
        <time>2011-07-09T07:43:20Z</time>
      </trkpt>
      <trkpt lat="45.80263" lon="4.26058">
        <ele>474.54797</ele>
        <time>2011-07-09T07:43:28Z</time>
      </trkpt>
      <trkpt lat="45.80262" lon="4.26059">
        <ele>475.02868</ele>
        <time>2011-07-09T07:43:29Z</time>
      </trkpt>
      <trkpt lat="45.80259" lon="4.26063">
        <ele>474.54797</ele>
        <time>2011-07-09T07:43:35Z</time>
      </trkpt>
      <trkpt lat="45.80258" lon="4.26065">
        <ele>475.02868</ele>
        <time>2011-07-09T07:43:41Z</time>
      </trkpt>
      <trkpt lat="45.80258" lon="4.26076">
        <ele>475.50927</ele>
        <time>2011-07-09T07:43:46Z</time>
      </trkpt>
      <trkpt lat="45.80264" lon="4.26092">
        <ele>476.95129</ele>
        <time>2011-07-09T07:43:54Z</time>
      </trkpt>
      <trkpt lat="45.8027" lon="4.26103">
        <ele>478.39318</ele>
        <time>2011-07-09T07:44:00Z</time>
      </trkpt>
      <trkpt lat="45.80278" lon="4.26122">
        <ele>478.8739</ele>
        <time>2011-07-09T07:44:08Z</time>
      </trkpt>
      <trkpt lat="45.80283" lon="4.2614">
        <ele>478.39318</ele>
        <time>2011-07-09T07:44:14Z</time>
      </trkpt>
      <trkpt lat="45.80294" lon="4.26167">
        <ele>477.91247</ele>
        <time>2011-07-09T07:44:21Z</time>
      </trkpt>
      <trkpt lat="45.80303" lon="4.26199">
        <ele>477.43188</ele>
        <time>2011-07-09T07:44:28Z</time>
      </trkpt>
      <trkpt lat="45.80302" lon="4.26223">
        <ele>477.43188</ele>
        <time>2011-07-09T07:44:33Z</time>
      </trkpt>
      <trkpt lat="45.80297" lon="4.26252">
        <ele>477.43188</ele>
        <time>2011-07-09T07:44:39Z</time>
      </trkpt>
      <trkpt lat="45.80298" lon="4.26262">
        <ele>475.98986</ele>
        <time>2011-07-09T07:44:41Z</time>
      </trkpt>
      <trkpt lat="45.80294" lon="4.26301">
        <ele>475.02868</ele>
        <time>2011-07-09T07:44:47Z</time>
      </trkpt>
      <trkpt lat="45.80283" lon="4.26333">
        <ele>475.02868</ele>
        <time>2011-07-09T07:44:53Z</time>
      </trkpt>
      <trkpt lat="45.80268" lon="4.26361">
        <ele>475.02868</ele>
        <time>2011-07-09T07:44:59Z</time>
      </trkpt>
      <trkpt lat="45.80254" lon="4.26398">
        <ele>474.54797</ele>
        <time>2011-07-09T07:45:06Z</time>
      </trkpt>
      <trkpt lat="45.80242" lon="4.26427">
        <ele>475.98986</ele>
        <time>2011-07-09T07:45:12Z</time>
      </trkpt>
      <trkpt lat="45.80236" lon="4.26441">
        <ele>476.47058</ele>
        <time>2011-07-09T07:45:17Z</time>
      </trkpt>
      <trkpt lat="45.80233" lon="4.26449">
        <ele>476.95129</ele>
        <time>2011-07-09T07:45:22Z</time>
      </trkpt>
      <trkpt lat="45.80232" lon="4.2645">
        <ele>478.39318</ele>
        <time>2011-07-09T07:45:29Z</time>
      </trkpt>
      <trkpt lat="45.80231" lon="4.2645">
        <ele>477.43188</ele>
        <time>2011-07-09T07:45:38Z</time>
      </trkpt>
      <trkpt lat="45.80227" lon="4.26447">
        <ele>476.95129</ele>
        <time>2011-07-09T07:46:01Z</time>
      </trkpt>
      <trkpt lat="45.8023" lon="4.26448">
        <ele>477.43188</ele>
        <time>2011-07-09T07:46:08Z</time>
      </trkpt>
      <trkpt lat="45.80228" lon="4.26445">
        <ele>477.43188</ele>
        <time>2011-07-09T07:46:15Z</time>
      </trkpt>
      <trkpt lat="45.80226" lon="4.26443">
        <ele>477.91247</ele>
        <time>2011-07-09T07:46:24Z</time>
      </trkpt>
      <trkpt lat="45.80223" lon="4.26441">
        <ele>476.95129</ele>
        <time>2011-07-09T07:46:35Z</time>
      </trkpt>
      <trkpt lat="45.80221" lon="4.2644">
        <ele>477.43188</ele>
        <time>2011-07-09T07:46:42Z</time>
      </trkpt>
      <trkpt lat="45.8022" lon="4.26439">
        <ele>477.43188</ele>
        <time>2011-07-09T07:46:51Z</time>
      </trkpt>
      <trkpt lat="45.80218" lon="4.26438">
        <ele>477.43188</ele>
        <time>2011-07-09T07:47:04Z</time>
      </trkpt>
      <trkpt lat="45.80218" lon="4.26438">
        <ele>477.91247</ele>
        <time>2011-07-09T07:47:12Z</time>
      </trkpt>
      <trkpt lat="45.8022" lon="4.26439">
        <ele>477.43188</ele>
        <time>2011-07-09T07:47:20Z</time>
      </trkpt>
      <trkpt lat="45.80223" lon="4.26441">
        <ele>477.43188</ele>
        <time>2011-07-09T07:47:30Z</time>
      </trkpt>
      <trkpt lat="45.80225" lon="4.26444">
        <ele>477.91247</ele>
        <time>2011-07-09T07:47:40Z</time>
      </trkpt>
      <trkpt lat="45.80229" lon="4.26449">
        <ele>477.43188</ele>
        <time>2011-07-09T07:47:50Z</time>
      </trkpt>
      <trkpt lat="45.80229" lon="4.26449">
        <ele>477.91247</ele>
        <time>2011-07-09T07:48:00Z</time>
      </trkpt>
      <trkpt lat="45.80227" lon="4.26446">
        <ele>477.91247</ele>
        <time>2011-07-09T07:48:09Z</time>
      </trkpt>
      <trkpt lat="45.80228" lon="4.26449">
        <ele>477.91247</ele>
        <time>2011-07-09T07:48:17Z</time>
      </trkpt>
      <trkpt lat="45.80226" lon="4.26451">
        <ele>477.91247</ele>
        <time>2011-07-09T07:48:19Z</time>
      </trkpt>
      <trkpt lat="45.8022" lon="4.26469">
        <ele>477.91247</ele>
        <time>2011-07-09T07:48:30Z</time>
      </trkpt>
      <trkpt lat="45.80215" lon="4.26484">
        <ele>478.39318</ele>
        <time>2011-07-09T07:48:37Z</time>
      </trkpt>
      <trkpt lat="45.80209" lon="4.26498">
        <ele>479.83508</ele>
        <time>2011-07-09T07:48:43Z</time>
      </trkpt>
      <trkpt lat="45.80201" lon="4.26524">
        <ele>480.31591</ele>
        <time>2011-07-09T07:48:52Z</time>
      </trkpt>
      <trkpt lat="45.80199" lon="4.26543">
        <ele>481.27722</ele>
        <time>2011-07-09T07:48:57Z</time>
      </trkpt>
      <trkpt lat="45.80195" lon="4.26573">
        <ele>481.75781</ele>
        <time>2011-07-09T07:49:04Z</time>
      </trkpt>
      <trkpt lat="45.80194" lon="4.26598">
        <ele>482.23852</ele>
        <time>2011-07-09T07:49:10Z</time>
      </trkpt>
      <trkpt lat="45.80193" lon="4.26627">
        <ele>482.71923</ele>
        <time>2011-07-09T07:49:17Z</time>
      </trkpt>
      <trkpt lat="45.80191" lon="4.26659">
        <ele>483.68041</ele>
        <time>2011-07-09T07:49:25Z</time>
      </trkpt>
      <trkpt lat="45.80189" lon="4.26691">
        <ele>485.12243</ele>
        <time>2011-07-09T07:49:33Z</time>
      </trkpt>
      <trkpt lat="45.80188" lon="4.26721">
        <ele>487.52563</ele>
        <time>2011-07-09T07:49:40Z</time>
      </trkpt>
      <trkpt lat="45.80184" lon="4.26746">
        <ele>488.48718</ele>
        <time>2011-07-09T07:49:46Z</time>
      </trkpt>
      <trkpt lat="45.80171" lon="4.26774">
        <ele>491.37097</ele>
        <time>2011-07-09T07:49:54Z</time>
      </trkpt>
      <trkpt lat="45.80158" lon="4.26794">
        <ele>491.85168</ele>
        <time>2011-07-09T07:50:00Z</time>
      </trkpt>
      <trkpt lat="45.80136" lon="4.26821">
        <ele>492.33239</ele>
        <time>2011-07-09T07:50:08Z</time>
      </trkpt>
      <trkpt lat="45.80117" lon="4.26837">
        <ele>493.77429</ele>
        <time>2011-07-09T07:50:14Z</time>
      </trkpt>
      <trkpt lat="45.80101" lon="4.26848">
        <ele>493.77429</ele>
        <time>2011-07-09T07:50:19Z</time>
      </trkpt>
      <trkpt lat="45.80088" lon="4.26858">
        <ele>494.255</ele>
        <time>2011-07-09T07:50:23Z</time>
      </trkpt>
      <trkpt lat="45.80071" lon="4.26863">
        <ele>494.255</ele>
        <time>2011-07-09T07:50:27Z</time>
      </trkpt>
      <trkpt lat="45.80048" lon="4.26862">
        <ele>493.77429</ele>
        <time>2011-07-09T07:50:32Z</time>
      </trkpt>
      <trkpt lat="45.8003" lon="4.26869">
        <ele>492.81298</ele>
        <time>2011-07-09T07:50:36Z</time>
      </trkpt>
      <trkpt lat="45.80027" lon="4.26889">
        <ele>493.77429</ele>
        <time>2011-07-09T07:50:39Z</time>
      </trkpt>
      <trkpt lat="45.8003" lon="4.26952">
        <ele>493.77429</ele>
        <time>2011-07-09T07:50:48Z</time>
      </trkpt>
      <trkpt lat="45.8003" lon="4.26959">
        <ele>493.29357</ele>
        <time>2011-07-09T07:50:49Z</time>
      </trkpt>
      <trkpt lat="45.8003" lon="4.26973">
        <ele>493.77429</ele>
        <time>2011-07-09T07:50:51Z</time>
      </trkpt>
      <trkpt lat="45.80031" lon="4.27041">
        <ele>494.255</ele>
        <time>2011-07-09T07:51:00Z</time>
      </trkpt>
      <trkpt lat="45.80031" lon="4.27077">
        <ele>494.73559</ele>
        <time>2011-07-09T07:51:05Z</time>
      </trkpt>
      <trkpt lat="45.80033" lon="4.2713">
        <ele>495.21618</ele>
        <time>2011-07-09T07:51:12Z</time>
      </trkpt>
      <trkpt lat="45.80033" lon="4.27166">
        <ele>495.69689</ele>
        <time>2011-07-09T07:51:17Z</time>
      </trkpt>
      <trkpt lat="45.80034" lon="4.27188">
        <ele>495.69689</ele>
        <time>2011-07-09T07:51:20Z</time>
      </trkpt>
      <trkpt lat="45.80046" lon="4.27252">
        <ele>496.65832</ele>
        <time>2011-07-09T07:51:29Z</time>
      </trkpt>
      <trkpt lat="45.8005" lon="4.27267">
        <ele>496.65832</ele>
        <time>2011-07-09T07:51:31Z</time>
      </trkpt>
      <trkpt lat="45.80054" lon="4.27318">
        <ele>497.13891</ele>
        <time>2011-07-09T07:51:38Z</time>
      </trkpt>
      <trkpt lat="45.8005" lon="4.27378">
        <ele>497.61962</ele>
        <time>2011-07-09T07:51:46Z</time>
      </trkpt>
      <trkpt lat="45.80051" lon="4.27434">
        <ele>496.65832</ele>
        <time>2011-07-09T07:51:53Z</time>
      </trkpt>
      <trkpt lat="45.80053" lon="4.27488">
        <ele>497.13891</ele>
        <time>2011-07-09T07:52:00Z</time>
      </trkpt>
      <trkpt lat="45.80052" lon="4.27529">
        <ele>497.13891</ele>
        <time>2011-07-09T07:52:06Z</time>
      </trkpt>
      <trkpt lat="45.80053" lon="4.27548">
        <ele>498.10034</ele>
        <time>2011-07-09T07:52:09Z</time>
      </trkpt>
      <trkpt lat="45.80064" lon="4.27555">
        <ele>499.06152</ele>
        <time>2011-07-09T07:52:13Z</time>
      </trkpt>
      <trkpt lat="45.80071" lon="4.27557">
        <ele>499.06152</ele>
        <time>2011-07-09T07:52:15Z</time>
      </trkpt>
      <trkpt lat="45.80074" lon="4.27576">
        <ele>498.58093</ele>
        <time>2011-07-09T07:52:19Z</time>
      </trkpt>
      <trkpt lat="45.80072" lon="4.27586">
        <ele>499.06152</ele>
        <time>2011-07-09T07:52:21Z</time>
      </trkpt>
      <trkpt lat="45.80081" lon="4.27603">
        <ele>499.06152</ele>
        <time>2011-07-09T07:52:26Z</time>
      </trkpt>
      <trkpt lat="45.80086" lon="4.27605">
        <ele>499.54223</ele>
        <time>2011-07-09T07:52:31Z</time>
      </trkpt>
      <trkpt lat="45.80087" lon="4.27606">
        <ele>500.02294</ele>
        <time>2011-07-09T07:52:35Z</time>
      </trkpt>
      <trkpt lat="45.8008" lon="4.27605">
        <ele>501.46484</ele>
        <time>2011-07-09T08:22:03Z</time>
      </trkpt>
      <trkpt lat="45.80071" lon="4.27593">
        <ele>501.46484</ele>
        <time>2011-07-09T08:22:10Z</time>
      </trkpt>
      <trkpt lat="45.80069" lon="4.27588">
        <ele>500.98413</ele>
        <time>2011-07-09T08:22:12Z</time>
      </trkpt>
      <trkpt lat="45.80075" lon="4.27573">
        <ele>500.98413</ele>
        <time>2011-07-09T08:22:17Z</time>
      </trkpt>
      <trkpt lat="45.80076" lon="4.2757">
        <ele>501.46484</ele>
        <time>2011-07-09T08:22:18Z</time>
      </trkpt>
      <trkpt lat="45.80085" lon="4.27561">
        <ele>501.46484</ele>
        <time>2011-07-09T08:22:22Z</time>
      </trkpt>
      <trkpt lat="45.80089" lon="4.27553">
        <ele>501.94555</ele>
        <time>2011-07-09T08:22:25Z</time>
      </trkpt>
      <trkpt lat="45.80108" lon="4.27532">
        <ele>501.94555</ele>
        <time>2011-07-09T08:22:34Z</time>
      </trkpt>
      <trkpt lat="45.80129" lon="4.27519">
        <ele>502.90673</ele>
        <time>2011-07-09T08:22:41Z</time>
      </trkpt>
      <trkpt lat="45.80151" lon="4.27507">
        <ele>503.86816</ele>
        <time>2011-07-09T08:22:48Z</time>
      </trkpt>
      <trkpt lat="45.80172" lon="4.27492">
        <ele>502.90673</ele>
        <time>2011-07-09T08:22:55Z</time>
      </trkpt>
      <trkpt lat="45.80206" lon="4.2747">
        <ele>502.42614</ele>
        <time>2011-07-09T08:23:04Z</time>
      </trkpt>
      <trkpt lat="45.80236" lon="4.27452">
        <ele>501.94555</ele>
        <time>2011-07-09T08:23:11Z</time>
      </trkpt>
      <trkpt lat="45.80281" lon="4.27425">
        <ele>501.46484</ele>
        <time>2011-07-09T08:23:21Z</time>
      </trkpt>
      <trkpt lat="45.80293" lon="4.27414">
        <ele>501.46484</ele>
        <time>2011-07-09T08:23:24Z</time>
      </trkpt>
      <trkpt lat="45.80315" lon="4.27377">
        <ele>501.94555</ele>
        <time>2011-07-09T08:23:31Z</time>
      </trkpt>
      <trkpt lat="45.80333" lon="4.27343">
        <ele>502.42614</ele>
        <time>2011-07-09T08:23:37Z</time>
      </trkpt>
      <trkpt lat="45.80357" lon="4.27311">
        <ele>501.94555</ele>
        <time>2011-07-09T08:23:44Z</time>
      </trkpt>
      <trkpt lat="45.80379" lon="4.27296">
        <ele>502.42614</ele>
        <time>2011-07-09T08:23:49Z</time>
      </trkpt>
      <trkpt lat="45.804" lon="4.2728">
        <ele>501.94555</ele>
        <time>2011-07-09T08:23:54Z</time>
      </trkpt>
      <trkpt lat="45.80429" lon="4.27245">
        <ele>501.94555</ele>
        <time>2011-07-09T08:24:02Z</time>
      </trkpt>
      <trkpt lat="45.80455" lon="4.27204">
        <ele>503.38745</ele>
        <time>2011-07-09T08:24:10Z</time>
      </trkpt>
      <trkpt lat="45.80477" lon="4.2717">
        <ele>504.34887</ele>
        <time>2011-07-09T08:24:17Z</time>
      </trkpt>
      <trkpt lat="45.8048" lon="4.27165">
        <ele>504.34887</ele>
        <time>2011-07-09T08:24:18Z</time>
      </trkpt>
      <trkpt lat="45.80508" lon="4.27117">
        <ele>504.82946</ele>
        <time>2011-07-09T08:24:28Z</time>
      </trkpt>
      <trkpt lat="45.80511" lon="4.27112">
        <ele>504.82946</ele>
        <time>2011-07-09T08:24:29Z</time>
      </trkpt>
      <trkpt lat="45.80519" lon="4.27098">
        <ele>504.34887</ele>
        <time>2011-07-09T08:24:32Z</time>
      </trkpt>
      <trkpt lat="45.80534" lon="4.27096">
        <ele>504.34887</ele>
        <time>2011-07-09T08:24:36Z</time>
      </trkpt>
      <trkpt lat="45.8054" lon="4.27103">
        <ele>504.82946</ele>
        <time>2011-07-09T08:24:38Z</time>
      </trkpt>
      <trkpt lat="45.80555" lon="4.27123">
        <ele>506.75207</ele>
        <time>2011-07-09T08:24:45Z</time>
      </trkpt>
      <trkpt lat="45.80565" lon="4.27136">
        <ele>508.19409</ele>
        <time>2011-07-09T08:24:51Z</time>
      </trkpt>
      <trkpt lat="45.80577" lon="4.27148">
        <ele>509.6361</ele>
        <time>2011-07-09T08:24:58Z</time>
      </trkpt>
      <trkpt lat="45.80589" lon="4.27163">
        <ele>512.03942</ele>
        <time>2011-07-09T08:25:06Z</time>
      </trkpt>
      <trkpt lat="45.80598" lon="4.27175">
        <ele>514.92333</ele>
        <time>2011-07-09T08:25:12Z</time>
      </trkpt>
      <trkpt lat="45.80607" lon="4.27188">
        <ele>516.36523</ele>
        <time>2011-07-09T08:25:18Z</time>
      </trkpt>
      <trkpt lat="45.8062" lon="4.27201">
        <ele>518.28784</ele>
        <time>2011-07-09T08:25:25Z</time>
      </trkpt>
      <trkpt lat="45.80631" lon="4.27204">
        <ele>520.21057</ele>
        <time>2011-07-09T08:25:31Z</time>
      </trkpt>
      <trkpt lat="45.8064" lon="4.27206">
        <ele>520.69128</ele>
        <time>2011-07-09T08:25:37Z</time>
      </trkpt>
      <trkpt lat="45.80653" lon="4.27206">
        <ele>522.13317</ele>
        <time>2011-07-09T08:25:44Z</time>
      </trkpt>
      <trkpt lat="45.80668" lon="4.27207">
        <ele>524.05578</ele>
        <time>2011-07-09T08:25:51Z</time>
      </trkpt>
      <trkpt lat="45.80683" lon="4.27209">
        <ele>525.4978</ele>
        <time>2011-07-09T08:25:58Z</time>
      </trkpt>
      <trkpt lat="45.80695" lon="4.2721">
        <ele>527.42041</ele>
        <time>2011-07-09T08:26:04Z</time>
      </trkpt>
      <trkpt lat="45.80711" lon="4.27216">
        <ele>528.86254</ele>
        <time>2011-07-09T08:26:11Z</time>
      </trkpt>
      <trkpt lat="45.80722" lon="4.27218">
        <ele>529.82373</ele>
        <time>2011-07-09T08:26:16Z</time>
      </trkpt>
      <trkpt lat="45.80733" lon="4.27222">
        <ele>531.74633</ele>
        <time>2011-07-09T08:26:22Z</time>
      </trkpt>
      <trkpt lat="45.80744" lon="4.27232">
        <ele>533.66894</ele>
        <time>2011-07-09T08:26:29Z</time>
      </trkpt>
      <trkpt lat="45.80758" lon="4.2725">
        <ele>536.07238</ele>
        <time>2011-07-09T08:26:36Z</time>
      </trkpt>
      <trkpt lat="45.80768" lon="4.27265">
        <ele>537.99499</ele>
        <time>2011-07-09T08:26:42Z</time>
      </trkpt>
      <trkpt lat="45.80776" lon="4.27278">
        <ele>538.95629</ele>
        <time>2011-07-09T08:26:48Z</time>
      </trkpt>
      <trkpt lat="45.80784" lon="4.27288">
        <ele>540.8789</ele>
        <time>2011-07-09T08:26:53Z</time>
      </trkpt>
      <trkpt lat="45.80795" lon="4.27303">
        <ele>541.84021</ele>
        <time>2011-07-09T08:26:58Z</time>
      </trkpt>
      <trkpt lat="45.80809" lon="4.2732">
        <ele>542.80151</ele>
        <time>2011-07-09T08:27:05Z</time>
      </trkpt>
      <trkpt lat="45.80833" lon="4.27349">
        <ele>543.76281</ele>
        <time>2011-07-09T08:27:14Z</time>
      </trkpt>
      <trkpt lat="45.8085" lon="4.27374">
        <ele>544.24365</ele>
        <time>2011-07-09T08:27:21Z</time>
      </trkpt>
      <trkpt lat="45.80861" lon="4.27395">
        <ele>545.68554</ele>
        <time>2011-07-09T08:27:27Z</time>
      </trkpt>
      <trkpt lat="45.80867" lon="4.2741">
        <ele>546.64685</ele>
        <time>2011-07-09T08:27:33Z</time>
      </trkpt>
      <trkpt lat="45.80877" lon="4.27427">
        <ele>548.08886</ele>
        <time>2011-07-09T08:27:39Z</time>
      </trkpt>
      <trkpt lat="45.80895" lon="4.27446">
        <ele>550.01147</ele>
        <time>2011-07-09T08:27:46Z</time>
      </trkpt>
      <trkpt lat="45.80907" lon="4.27461">
        <ele>551.93408</ele>
        <time>2011-07-09T08:27:51Z</time>
      </trkpt>
      <trkpt lat="45.80908" lon="4.27465">
        <ele>552.41455</ele>
        <time>2011-07-09T08:27:52Z</time>
      </trkpt>
      <trkpt lat="45.80918" lon="4.27486">
        <ele>552.41455</ele>
        <time>2011-07-09T08:27:57Z</time>
      </trkpt>
      <trkpt lat="45.80933" lon="4.27511">
        <ele>552.41455</ele>
        <time>2011-07-09T08:28:04Z</time>
      </trkpt>
      <trkpt lat="45.80944" lon="4.27532">
        <ele>552.41455</ele>
        <time>2011-07-09T08:28:09Z</time>
      </trkpt>
      <trkpt lat="45.80953" lon="4.27554">
        <ele>552.89526</ele>
        <time>2011-07-09T08:28:14Z</time>
      </trkpt>
      <trkpt lat="45.80966" lon="4.27579">
        <ele>553.37597</ele>
        <time>2011-07-09T08:28:20Z</time>
      </trkpt>
      <trkpt lat="45.80979" lon="4.27609">
        <ele>553.37597</ele>
        <time>2011-07-09T08:28:26Z</time>
      </trkpt>
      <trkpt lat="45.80989" lon="4.27635">
        <ele>554.3374</ele>
        <time>2011-07-09T08:28:32Z</time>
      </trkpt>
      <trkpt lat="45.81" lon="4.27665">
        <ele>554.3374</ele>
        <time>2011-07-09T08:28:39Z</time>
      </trkpt>
      <trkpt lat="45.8101" lon="4.27687">
        <ele>554.3374</ele>
        <time>2011-07-09T08:28:43Z</time>
      </trkpt>
      <trkpt lat="45.81019" lon="4.27716">
        <ele>555.77929</ele>
        <time>2011-07-09T08:28:49Z</time>
      </trkpt>
      <trkpt lat="45.81034" lon="4.27749">
        <ele>556.26</ele>
        <time>2011-07-09T08:28:56Z</time>
      </trkpt>
      <trkpt lat="45.81043" lon="4.27764">
        <ele>556.74072</ele>
        <time>2011-07-09T08:29:01Z</time>
      </trkpt>
      <trkpt lat="45.81052" lon="4.2778">
        <ele>556.26</ele>
        <time>2011-07-09T08:29:06Z</time>
      </trkpt>
      <trkpt lat="45.81069" lon="4.27798">
        <ele>556.74072</ele>
        <time>2011-07-09T08:29:11Z</time>
      </trkpt>
      <trkpt lat="45.81086" lon="4.27821">
        <ele>557.22143</ele>
        <time>2011-07-09T08:29:16Z</time>
      </trkpt>
      <trkpt lat="45.81107" lon="4.27846">
        <ele>558.18286</ele>
        <time>2011-07-09T08:29:22Z</time>
      </trkpt>
      <trkpt lat="45.81126" lon="4.27874">
        <ele>559.14404</ele>
        <time>2011-07-09T08:29:29Z</time>
      </trkpt>
      <trkpt lat="45.8114" lon="4.27898">
        <ele>560.58593</ele>
        <time>2011-07-09T08:29:35Z</time>
      </trkpt>
      <trkpt lat="45.81147" lon="4.27905">
        <ele>562.50854</ele>
        <time>2011-07-09T08:29:38Z</time>
      </trkpt>
      <trkpt lat="45.81154" lon="4.27917">
        <ele>562.98925</ele>
        <time>2011-07-09T08:29:42Z</time>
      </trkpt>
      <trkpt lat="45.81165" lon="4.27938">
        <ele>565.39257</ele>
        <time>2011-07-09T08:29:49Z</time>
      </trkpt>
      <trkpt lat="45.81177" lon="4.2796">
        <ele>566.83447</ele>
        <time>2011-07-09T08:29:56Z</time>
      </trkpt>
      <trkpt lat="45.81191" lon="4.27986">
        <ele>567.79565</ele>
        <time>2011-07-09T08:30:04Z</time>
      </trkpt>
      <trkpt lat="45.81205" lon="4.28012">
        <ele>569.7185</ele>
        <time>2011-07-09T08:30:12Z</time>
      </trkpt>
      <trkpt lat="45.81216" lon="4.28031">
        <ele>570.67968</ele>
        <time>2011-07-09T08:30:18Z</time>
      </trkpt>
      <trkpt lat="45.81226" lon="4.28048">
        <ele>572.60253</ele>
        <time>2011-07-09T08:30:24Z</time>
      </trkpt>
      <trkpt lat="45.81237" lon="4.28067">
        <ele>574.04443</ele>
        <time>2011-07-09T08:30:31Z</time>
      </trkpt>
      <trkpt lat="45.8124" lon="4.28072">
        <ele>575.00585</ele>
        <time>2011-07-09T08:30:33Z</time>
      </trkpt>
      <trkpt lat="45.81248" lon="4.28089">
        <ele>576.44775</ele>
        <time>2011-07-09T08:30:39Z</time>
      </trkpt>
      <trkpt lat="45.81257" lon="4.28109">
        <ele>578.37036</ele>
        <time>2011-07-09T08:30:46Z</time>
      </trkpt>
      <trkpt lat="45.81268" lon="4.28129">
        <ele>580.77368</ele>
        <time>2011-07-09T08:30:53Z</time>
      </trkpt>
      <trkpt lat="45.81269" lon="4.28132">
        <ele>580.77368</ele>
        <time>2011-07-09T08:30:54Z</time>
      </trkpt>
      <trkpt lat="45.81278" lon="4.28147">
        <ele>583.65747</ele>
        <time>2011-07-09T08:31:00Z</time>
      </trkpt>
      <trkpt lat="45.8128" lon="4.28153">
        <ele>584.61889</ele>
        <time>2011-07-09T08:31:02Z</time>
      </trkpt>
      <trkpt lat="45.81276" lon="4.28164">
        <ele>586.06079</ele>
        <time>2011-07-09T08:31:08Z</time>
      </trkpt>
      <trkpt lat="45.81273" lon="4.28171">
        <ele>587.02197</ele>
        <time>2011-07-09T08:31:12Z</time>
      </trkpt>
      <trkpt lat="45.81267" lon="4.28177">
        <ele>587.50268</ele>
        <time>2011-07-09T08:31:17Z</time>
      </trkpt>
      <trkpt lat="45.81254" lon="4.28188">
        <ele>587.98339</ele>
        <time>2011-07-09T08:31:26Z</time>
      </trkpt>
      <trkpt lat="45.81238" lon="4.28198">
        <ele>587.98339</ele>
        <time>2011-07-09T08:31:36Z</time>
      </trkpt>
      <trkpt lat="45.81222" lon="4.28206">
        <ele>588.94506</ele>
        <time>2011-07-09T08:31:45Z</time>
      </trkpt>
      <trkpt lat="45.81206" lon="4.28212">
        <ele>590.86743</ele>
        <time>2011-07-09T08:31:54Z</time>
      </trkpt>
      <trkpt lat="45.81194" lon="4.28218">
        <ele>592.30957</ele>
        <time>2011-07-09T08:32:01Z</time>
      </trkpt>
      <trkpt lat="45.81183" lon="4.28228">
        <ele>593.27075</ele>
        <time>2011-07-09T08:32:08Z</time>
      </trkpt>
      <trkpt lat="45.8117" lon="4.28236">
        <ele>593.75146</ele>
        <time>2011-07-09T08:32:15Z</time>
      </trkpt>
      <trkpt lat="45.81159" lon="4.2824">
        <ele>594.23217</ele>
        <time>2011-07-09T08:32:21Z</time>
      </trkpt>
      <trkpt lat="45.81154" lon="4.28252">
        <ele>595.19335</ele>
        <time>2011-07-09T08:32:27Z</time>
      </trkpt>
      <trkpt lat="45.81151" lon="4.28254">
        <ele>595.67407</ele>
        <time>2011-07-09T08:32:29Z</time>
      </trkpt>
      <trkpt lat="45.8114" lon="4.28263">
        <ele>597.11596</ele>
        <time>2011-07-09T08:32:37Z</time>
      </trkpt>
      <trkpt lat="45.8113" lon="4.28273">
        <ele>597.59667</ele>
        <time>2011-07-09T08:32:44Z</time>
      </trkpt>
      <trkpt lat="45.8112" lon="4.28283">
        <ele>598.55786</ele>
        <time>2011-07-09T08:32:51Z</time>
      </trkpt>
      <trkpt lat="45.81108" lon="4.28294">
        <ele>599.03857</ele>
        <time>2011-07-09T08:32:59Z</time>
      </trkpt>
      <trkpt lat="45.81095" lon="4.28304">
        <ele>599.51928</ele>
        <time>2011-07-09T08:33:07Z</time>
      </trkpt>
      <trkpt lat="45.81086" lon="4.28312">
        <ele>600.96118</ele>
        <time>2011-07-09T08:33:13Z</time>
      </trkpt>
      <trkpt lat="45.81081" lon="4.28316">
        <ele>600.96118</ele>
        <time>2011-07-09T08:33:16Z</time>
      </trkpt>
      <trkpt lat="45.81076" lon="4.28326">
        <ele>600.96118</ele>
        <time>2011-07-09T08:33:22Z</time>
      </trkpt>
      <trkpt lat="45.81073" lon="4.2832">
        <ele>601.44189</ele>
        <time>2011-07-09T08:33:27Z</time>
      </trkpt>
      <trkpt lat="45.81064" lon="4.2831">
        <ele>600.96118</ele>
        <time>2011-07-09T08:33:34Z</time>
      </trkpt>
      <trkpt lat="45.81059" lon="4.28309">
        <ele>600.48071</ele>
        <time>2011-07-09T08:33:37Z</time>
      </trkpt>
      <trkpt lat="45.81061" lon="4.28315">
        <ele>600.96118</ele>
        <time>2011-07-09T08:33:40Z</time>
      </trkpt>
      <trkpt lat="45.81067" lon="4.28314">
        <ele>600.48071</ele>
        <time>2011-07-09T08:33:45Z</time>
      </trkpt>
      <trkpt lat="45.81071" lon="4.28321">
        <ele>600.96118</ele>
        <time>2011-07-09T08:33:50Z</time>
      </trkpt>
      <trkpt lat="45.81071" lon="4.28326">
        <ele>600.96118</ele>
        <time>2011-07-09T08:33:53Z</time>
      </trkpt>
      <trkpt lat="45.81076" lon="4.28326">
        <ele>600.48071</ele>
        <time>2011-07-09T08:33:58Z</time>
      </trkpt>
      <trkpt lat="45.81074" lon="4.2832">
        <ele>600.48071</ele>
        <time>2011-07-09T08:34:02Z</time>
      </trkpt>
      <trkpt lat="45.81072" lon="4.28319">
        <ele>600.96118</ele>
        <time>2011-07-09T08:34:03Z</time>
      </trkpt>
      <trkpt lat="45.81064" lon="4.28311">
        <ele>600.48071</ele>
        <time>2011-07-09T08:34:08Z</time>
      </trkpt>
      <trkpt lat="45.81063" lon="4.28315">
        <ele>600.48071</ele>
        <time>2011-07-09T08:34:12Z</time>
      </trkpt>
      <trkpt lat="45.8107" lon="4.28319">
        <ele>600.48071</ele>
        <time>2011-07-09T08:34:20Z</time>
      </trkpt>
      <trkpt lat="45.81072" lon="4.28325">
        <ele>600.48071</ele>
        <time>2011-07-09T08:34:26Z</time>
      </trkpt>
      <trkpt lat="45.81076" lon="4.28324">
        <ele>600.48071</ele>
        <time>2011-07-09T08:34:30Z</time>
      </trkpt>
      <trkpt lat="45.81073" lon="4.28318">
        <ele>600.96118</ele>
        <time>2011-07-09T08:34:35Z</time>
      </trkpt>
      <trkpt lat="45.81071" lon="4.28321">
        <ele>600.48071</ele>
        <time>2011-07-09T08:34:40Z</time>
      </trkpt>
      <trkpt lat="45.81076" lon="4.28323">
        <ele>600.48071</ele>
        <time>2011-07-09T08:34:47Z</time>
      </trkpt>
      <trkpt lat="45.81074" lon="4.2832">
        <ele>600.48071</ele>
        <time>2011-07-09T08:34:53Z</time>
      </trkpt>
      <trkpt lat="45.81074" lon="4.28319">
        <ele>600.48071</ele>
        <time>2011-07-09T08:35:07Z</time>
      </trkpt>
      <trkpt lat="45.81074" lon="4.28319">
        <ele>600</ele>
        <time>2011-07-09T08:35:15Z</time>
      </trkpt>
      <trkpt lat="45.81068" lon="4.28331">
        <ele>600.48071</ele>
        <time>2011-07-09T08:35:21Z</time>
      </trkpt>
      <trkpt lat="45.81061" lon="4.28335">
        <ele>600.48071</ele>
        <time>2011-07-09T08:35:24Z</time>
      </trkpt>
      <trkpt lat="45.81041" lon="4.28349">
        <ele>600.96118</ele>
        <time>2011-07-09T08:35:31Z</time>
      </trkpt>
      <trkpt lat="45.81025" lon="4.2837">
        <ele>600</ele>
        <time>2011-07-09T08:35:36Z</time>
      </trkpt>
      <trkpt lat="45.8102" lon="4.28375">
        <ele>600</ele>
        <time>2011-07-09T08:35:37Z</time>
      </trkpt>
      <trkpt lat="45.81009" lon="4.28387">
        <ele>599.03857</ele>
        <time>2011-07-09T08:35:39Z</time>
      </trkpt>
      <trkpt lat="45.80981" lon="4.2843">
        <ele>595.19335</ele>
        <time>2011-07-09T08:35:44Z</time>
      </trkpt>
      <trkpt lat="45.80975" lon="4.28441">
        <ele>593.75146</ele>
        <time>2011-07-09T08:35:45Z</time>
      </trkpt>
      <trkpt lat="45.80953" lon="4.28475">
        <ele>591.82885</ele>
        <time>2011-07-09T08:35:48Z</time>
      </trkpt>
      <trkpt lat="45.80926" lon="4.2851">
        <ele>588.46435</ele>
        <time>2011-07-09T08:35:52Z</time>
      </trkpt>
      <trkpt lat="45.80919" lon="4.28539">
        <ele>588.94506</ele>
        <time>2011-07-09T08:35:56Z</time>
      </trkpt>
      <trkpt lat="45.8092" lon="4.28546">
        <ele>588.94506</ele>
        <time>2011-07-09T08:35:57Z</time>
      </trkpt>
      <trkpt lat="45.8093" lon="4.28595">
        <ele>585.0996</ele>
        <time>2011-07-09T08:36:03Z</time>
      </trkpt>
      <trkpt lat="45.80944" lon="4.28609">
        <ele>582.69628</ele>
        <time>2011-07-09T08:36:06Z</time>
      </trkpt>
      <trkpt lat="45.80981" lon="4.28637">
        <ele>580.29296</ele>
        <time>2011-07-09T08:36:11Z</time>
      </trkpt>
      <trkpt lat="45.80989" lon="4.28644">
        <ele>579.81225</ele>
        <time>2011-07-09T08:36:12Z</time>
      </trkpt>
      <trkpt lat="45.81026" lon="4.28679">
        <ele>574.52514</ele>
        <time>2011-07-09T08:36:17Z</time>
      </trkpt>
      <trkpt lat="45.81052" lon="4.28716">
        <ele>569.7185</ele>
        <time>2011-07-09T08:36:22Z</time>
      </trkpt>
      <trkpt lat="45.81061" lon="4.28739">
        <ele>565.39257</ele>
        <time>2011-07-09T08:36:25Z</time>
      </trkpt>
      <trkpt lat="45.81064" lon="4.28746">
        <ele>564.43115</ele>
        <time>2011-07-09T08:36:26Z</time>
      </trkpt>
      <trkpt lat="45.81071" lon="4.28771">
        <ele>561.06665</ele>
        <time>2011-07-09T08:36:31Z</time>
      </trkpt>
      <trkpt lat="45.81071" lon="4.28775">
        <ele>561.06665</ele>
        <time>2011-07-09T08:36:32Z</time>
      </trkpt>
      <trkpt lat="45.81058" lon="4.28791">
        <ele>560.10522</ele>
        <time>2011-07-09T08:36:36Z</time>
      </trkpt>
      <trkpt lat="45.81054" lon="4.28794">
        <ele>560.10522</ele>
        <time>2011-07-09T08:36:37Z</time>
      </trkpt>
      <trkpt lat="45.81031" lon="4.28807">
        <ele>559.14404</ele>
        <time>2011-07-09T08:36:43Z</time>
      </trkpt>
      <trkpt lat="45.81009" lon="4.28825">
        <ele>559.14404</ele>
        <time>2011-07-09T08:36:50Z</time>
      </trkpt>
      <trkpt lat="45.80998" lon="4.28818">
        <ele>560.10522</ele>
        <time>2011-07-09T08:36:55Z</time>
      </trkpt>
      <trkpt lat="45.80991" lon="4.28814">
        <ele>561.06665</ele>
        <time>2011-07-09T08:36:58Z</time>
      </trkpt>
      <trkpt lat="45.80987" lon="4.28813">
        <ele>562.02807</ele>
        <time>2011-07-09T08:37:00Z</time>
      </trkpt>
      <trkpt lat="45.8098" lon="4.2882">
        <ele>559.62475</ele>
        <time>2011-07-09T08:37:06Z</time>
      </trkpt>
      <trkpt lat="45.80982" lon="4.28835">
        <ele>557.22143</ele>
        <time>2011-07-09T08:37:10Z</time>
      </trkpt>
      <trkpt lat="45.80988" lon="4.28846">
        <ele>555.29858</ele>
        <time>2011-07-09T08:37:14Z</time>
      </trkpt>
      <trkpt lat="45.80992" lon="4.28869">
        <ele>551.45336</ele>
        <time>2011-07-09T08:37:18Z</time>
      </trkpt>
      <trkpt lat="45.80995" lon="4.28886">
        <ele>548.08886</ele>
        <time>2011-07-09T08:37:21Z</time>
      </trkpt>
      <trkpt lat="45.80997" lon="4.28895">
        <ele>546.64685</ele>
        <time>2011-07-09T08:37:23Z</time>
      </trkpt>
      <trkpt lat="45.81011" lon="4.28903">
        <ele>545.20483</ele>
        <time>2011-07-09T08:37:27Z</time>
      </trkpt>
      <trkpt lat="45.81025" lon="4.28906">
        <ele>541.84021</ele>
        <time>2011-07-09T08:37:30Z</time>
      </trkpt>
      <trkpt lat="45.81043" lon="4.28913">
        <ele>537.99499</ele>
        <time>2011-07-09T08:37:34Z</time>
      </trkpt>
      <trkpt lat="45.8104" lon="4.28931">
        <ele>534.63037</ele>
        <time>2011-07-09T08:37:38Z</time>
      </trkpt>
      <trkpt lat="45.81034" lon="4.28936">
        <ele>533.66894</ele>
        <time>2011-07-09T08:37:39Z</time>
      </trkpt>
      <trkpt lat="45.8102" lon="4.28951">
        <ele>531.74633</ele>
        <time>2011-07-09T08:37:41Z</time>
      </trkpt>
      <trkpt lat="45.81004" lon="4.28962">
        <ele>528.86254</ele>
        <time>2011-07-09T08:37:43Z</time>
      </trkpt>
      <trkpt lat="45.80976" lon="4.2897">
        <ele>524.53649</ele>
        <time>2011-07-09T08:37:46Z</time>
      </trkpt>
      <trkpt lat="45.80957" lon="4.28973">
        <ele>521.65258</ele>
        <time>2011-07-09T08:37:48Z</time>
      </trkpt>
      <trkpt lat="45.80931" lon="4.28984">
        <ele>518.76855</ele>
        <time>2011-07-09T08:37:52Z</time>
      </trkpt>
      <trkpt lat="45.8093" lon="4.28987">
        <ele>519.24926</ele>
        <time>2011-07-09T08:37:56Z</time>
      </trkpt>
      <trkpt lat="45.80931" lon="4.28988">
        <ele>519.24926</ele>
        <time>2011-07-09T08:38:07Z</time>
      </trkpt>
      <trkpt lat="45.80933" lon="4.28989">
        <ele>519.72985</ele>
        <time>2011-07-09T08:38:32Z</time>
      </trkpt>
      <trkpt lat="45.80939" lon="4.28992">
        <ele>517.80725</ele>
        <time>2011-07-09T08:38:36Z</time>
      </trkpt>
      <trkpt lat="45.80941" lon="4.28993">
        <ele>517.32666</ele>
        <time>2011-07-09T08:38:37Z</time>
      </trkpt>
      <trkpt lat="45.80961" lon="4.29002">
        <ele>512.52001</ele>
        <time>2011-07-09T08:38:42Z</time>
      </trkpt>
      <trkpt lat="45.80999" lon="4.29017">
        <ele>511.078</ele>
        <time>2011-07-09T08:38:47Z</time>
      </trkpt>
      <trkpt lat="45.81044" lon="4.29036">
        <ele>511.55871</ele>
        <time>2011-07-09T08:38:52Z</time>
      </trkpt>
      <trkpt lat="45.81069" lon="4.29036">
        <ele>512.52001</ele>
        <time>2011-07-09T08:38:56Z</time>
      </trkpt>
      <trkpt lat="45.81082" lon="4.29034">
        <ele>512.52001</ele>
        <time>2011-07-09T08:38:58Z</time>
      </trkpt>
      <trkpt lat="45.81102" lon="4.29039">
        <ele>513.00073</ele>
        <time>2011-07-09T08:39:02Z</time>
      </trkpt>
      <trkpt lat="45.81122" lon="4.29047">
        <ele>513.96203</ele>
        <time>2011-07-09T08:39:07Z</time>
      </trkpt>
      <trkpt lat="45.81132" lon="4.29052">
        <ele>512.52001</ele>
        <time>2011-07-09T08:39:09Z</time>
      </trkpt>
      <trkpt lat="45.81142" lon="4.29057">
        <ele>512.03942</ele>
        <time>2011-07-09T08:39:11Z</time>
      </trkpt>
      <trkpt lat="45.81151" lon="4.29065">
        <ele>511.55871</ele>
        <time>2011-07-09T08:39:13Z</time>
      </trkpt>
      <trkpt lat="45.81167" lon="4.29083">
        <ele>511.55871</ele>
        <time>2011-07-09T08:39:16Z</time>
      </trkpt>
      <trkpt lat="45.81182" lon="4.29112">
        <ele>511.55871</ele>
        <time>2011-07-09T08:39:20Z</time>
      </trkpt>
      <trkpt lat="45.81167" lon="4.29123">
        <ele>513.96203</ele>
        <time>2011-07-09T08:39:27Z</time>
      </trkpt>
      <trkpt lat="45.81165" lon="4.29125">
        <ele>513.48144</ele>
        <time>2011-07-09T08:39:28Z</time>
      </trkpt>
      <trkpt lat="45.81149" lon="4.29129">
        <ele>514.44262</ele>
        <time>2011-07-09T08:39:34Z</time>
      </trkpt>
      <trkpt lat="45.81131" lon="4.29129">
        <ele>514.92333</ele>
        <time>2011-07-09T08:39:40Z</time>
      </trkpt>
      <trkpt lat="45.81117" lon="4.29126">
        <ele>515.40405</ele>
        <time>2011-07-09T08:39:45Z</time>
      </trkpt>
      <trkpt lat="45.81097" lon="4.29124">
        <ele>514.92333</ele>
        <time>2011-07-09T08:39:51Z</time>
      </trkpt>
      <trkpt lat="45.8108" lon="4.29122">
        <ele>513.48144</ele>
        <time>2011-07-09T08:39:57Z</time>
      </trkpt>
      <trkpt lat="45.81066" lon="4.2912">
        <ele>513.00073</ele>
        <time>2011-07-09T08:40:02Z</time>
      </trkpt>
      <trkpt lat="45.81047" lon="4.29113">
        <ele>512.03942</ele>
        <time>2011-07-09T08:40:06Z</time>
      </trkpt>
      <trkpt lat="45.81037" lon="4.29108">
        <ele>512.03942</ele>
        <time>2011-07-09T08:40:08Z</time>
      </trkpt>
      <trkpt lat="45.81014" lon="4.29101">
        <ele>511.078</ele>
        <time>2011-07-09T08:40:12Z</time>
      </trkpt>
      <trkpt lat="45.80973" lon="4.29099">
        <ele>510.11669</ele>
        <time>2011-07-09T08:40:18Z</time>
      </trkpt>
      <trkpt lat="45.80951" lon="4.29104">
        <ele>510.11669</ele>
        <time>2011-07-09T08:40:22Z</time>
      </trkpt>
      <trkpt lat="45.80935" lon="4.29108">
        <ele>509.6361</ele>
        <time>2011-07-09T08:40:25Z</time>
      </trkpt>
      <trkpt lat="45.80914" lon="4.29115">
        <ele>510.11669</ele>
        <time>2011-07-09T08:40:29Z</time>
      </trkpt>
      <trkpt lat="45.80905" lon="4.2912">
        <ele>509.6361</ele>
        <time>2011-07-09T08:40:31Z</time>
      </trkpt>
      <trkpt lat="45.80881" lon="4.29126">
        <ele>508.19409</ele>
        <time>2011-07-09T08:40:36Z</time>
      </trkpt>
      <trkpt lat="45.80875" lon="4.29125">
        <ele>507.7135</ele>
        <time>2011-07-09T08:40:37Z</time>
      </trkpt>
      <trkpt lat="45.80838" lon="4.29124">
        <ele>503.86816</ele>
        <time>2011-07-09T08:40:42Z</time>
      </trkpt>
      <trkpt lat="45.80821" lon="4.29127">
        <ele>502.90673</ele>
        <time>2011-07-09T08:40:44Z</time>
      </trkpt>
      <trkpt lat="45.8078" lon="4.29139">
        <ele>501.94555</ele>
        <time>2011-07-09T08:40:49Z</time>
      </trkpt>
      <trkpt lat="45.80774" lon="4.29141">
        <ele>500.98413</ele>
        <time>2011-07-09T08:40:50Z</time>
      </trkpt>
      <trkpt lat="45.80761" lon="4.29144">
        <ele>500.02294</ele>
        <time>2011-07-09T08:40:52Z</time>
      </trkpt>
      <trkpt lat="45.80751" lon="4.29147">
        <ele>498.58093</ele>
        <time>2011-07-09T08:40:54Z</time>
      </trkpt>
      <trkpt lat="45.80744" lon="4.29158">
        <ele>499.54223</ele>
        <time>2011-07-09T08:40:57Z</time>
      </trkpt>
      <trkpt lat="45.80745" lon="4.29163">
        <ele>500.50354</ele>
        <time>2011-07-09T08:40:59Z</time>
      </trkpt>
      <trkpt lat="45.80744" lon="4.29187">
        <ele>502.42614</ele>
        <time>2011-07-09T08:41:06Z</time>
      </trkpt>
      <trkpt lat="45.80744" lon="4.29197">
        <ele>503.86816</ele>
        <time>2011-07-09T08:41:09Z</time>
      </trkpt>
      <trkpt lat="45.80746" lon="4.29221">
        <ele>505.79089</ele>
        <time>2011-07-09T08:41:16Z</time>
      </trkpt>
      <trkpt lat="45.80745" lon="4.29241">
        <ele>506.27148</ele>
        <time>2011-07-09T08:41:22Z</time>
      </trkpt>
      <trkpt lat="45.80743" lon="4.2926">
        <ele>508.19409</ele>
        <time>2011-07-09T08:41:28Z</time>
      </trkpt>
      <trkpt lat="45.80744" lon="4.29279">
        <ele>509.6361</ele>
        <time>2011-07-09T08:41:34Z</time>
      </trkpt>
      <trkpt lat="45.80747" lon="4.29291">
        <ele>511.078</ele>
        <time>2011-07-09T08:41:37Z</time>
      </trkpt>
      <trkpt lat="45.80749" lon="4.29306">
        <ele>512.03942</ele>
        <time>2011-07-09T08:41:42Z</time>
      </trkpt>
      <trkpt lat="45.80748" lon="4.29328">
        <ele>513.00073</ele>
        <time>2011-07-09T08:41:49Z</time>
      </trkpt>
      <trkpt lat="45.80744" lon="4.2935">
        <ele>515.40405</ele>
        <time>2011-07-09T08:41:56Z</time>
      </trkpt>
      <trkpt lat="45.80736" lon="4.29368">
        <ele>515.88464</ele>
        <time>2011-07-09T08:42:03Z</time>
      </trkpt>
      <trkpt lat="45.80728" lon="4.2938">
        <ele>514.92333</ele>
        <time>2011-07-09T08:42:08Z</time>
      </trkpt>
      <trkpt lat="45.80729" lon="4.29392">
        <ele>515.88464</ele>
        <time>2011-07-09T08:42:13Z</time>
      </trkpt>
      <trkpt lat="45.80732" lon="4.29388">
        <ele>516.36523</ele>
        <time>2011-07-09T08:42:16Z</time>
      </trkpt>
      <trkpt lat="45.80742" lon="4.29384">
        <ele>517.80725</ele>
        <time>2011-07-09T08:42:22Z</time>
      </trkpt>
      <trkpt lat="45.80754" lon="4.29385">
        <ele>521.17199</ele>
        <time>2011-07-09T08:42:29Z</time>
      </trkpt>
      <trkpt lat="45.80756" lon="4.29385">
        <ele>521.17199</ele>
        <time>2011-07-09T08:42:30Z</time>
      </trkpt>
      <trkpt lat="45.8076" lon="4.29389">
        <ele>521.65258</ele>
        <time>2011-07-09T08:42:33Z</time>
      </trkpt>
      <trkpt lat="45.80769" lon="4.29396">
        <ele>523.0946</ele>
        <time>2011-07-09T08:42:40Z</time>
      </trkpt>
      <trkpt lat="45.80774" lon="4.29401">
        <ele>522.61389</ele>
        <time>2011-07-09T08:42:43Z</time>
      </trkpt>
      <trkpt lat="45.80785" lon="4.29409">
        <ele>524.53649</ele>
        <time>2011-07-09T08:42:50Z</time>
      </trkpt>
      <trkpt lat="45.80797" lon="4.29411">
        <ele>525.4978</ele>
        <time>2011-07-09T08:42:56Z</time>
      </trkpt>
      <trkpt lat="45.80806" lon="4.29414">
        <ele>527.42041</ele>
        <time>2011-07-09T08:43:01Z</time>
      </trkpt>
      <trkpt lat="45.80815" lon="4.29418">
        <ele>528.38183</ele>
        <time>2011-07-09T08:43:07Z</time>
      </trkpt>
      <trkpt lat="45.80827" lon="4.29423">
        <ele>530.30444</ele>
        <time>2011-07-09T08:43:14Z</time>
      </trkpt>
      <trkpt lat="45.80831" lon="4.29425">
        <ele>531.74633</ele>
        <time>2011-07-09T08:43:17Z</time>
      </trkpt>
      <trkpt lat="45.8084" lon="4.29432">
        <ele>533.66894</ele>
        <time>2011-07-09T08:43:23Z</time>
      </trkpt>
      <trkpt lat="45.80845" lon="4.29436">
        <ele>534.63037</ele>
        <time>2011-07-09T08:43:27Z</time>
      </trkpt>
      <trkpt lat="45.80858" lon="4.29442">
        <ele>536.5531</ele>
        <time>2011-07-09T08:43:36Z</time>
      </trkpt>
      <trkpt lat="45.80864" lon="4.29448">
        <ele>538.4757</ele>
        <time>2011-07-09T08:43:42Z</time>
      </trkpt>
      <trkpt lat="45.80873" lon="4.29454">
        <ele>540.39831</ele>
        <time>2011-07-09T08:43:49Z</time>
      </trkpt>
      <trkpt lat="45.8088" lon="4.29457">
        <ele>541.84021</ele>
        <time>2011-07-09T08:43:55Z</time>
      </trkpt>
      <trkpt lat="45.80889" lon="4.29464">
        <ele>543.2821</ele>
        <time>2011-07-09T08:44:00Z</time>
      </trkpt>
      <trkpt lat="45.80906" lon="4.29477">
        <ele>545.68554</ele>
        <time>2011-07-09T08:44:09Z</time>
      </trkpt>
      <trkpt lat="45.80914" lon="4.29483">
        <ele>547.12744</ele>
        <time>2011-07-09T08:44:15Z</time>
      </trkpt>
      <trkpt lat="45.80924" lon="4.2949">
        <ele>548.56933</ele>
        <time>2011-07-09T08:44:23Z</time>
      </trkpt>
      <trkpt lat="45.80933" lon="4.29501">
        <ele>550.01147</ele>
        <time>2011-07-09T08:44:30Z</time>
      </trkpt>
      <trkpt lat="45.80941" lon="4.29514">
        <ele>552.41455</ele>
        <time>2011-07-09T08:44:38Z</time>
      </trkpt>
      <trkpt lat="45.80944" lon="4.29528">
        <ele>553.37597</ele>
        <time>2011-07-09T08:44:45Z</time>
      </trkpt>
      <trkpt lat="45.80944" lon="4.2953">
        <ele>553.37597</ele>
        <time>2011-07-09T08:44:54Z</time>
      </trkpt>
      <trkpt lat="45.80943" lon="4.29534">
        <ele>552.89526</ele>
        <time>2011-07-09T08:45:02Z</time>
      </trkpt>
      <trkpt lat="45.80942" lon="4.29536">
        <ele>552.41455</ele>
        <time>2011-07-09T08:45:10Z</time>
      </trkpt>
      <trkpt lat="45.8094" lon="4.29538">
        <ele>552.41455</ele>
        <time>2011-07-09T08:45:45Z</time>
      </trkpt>
      <trkpt lat="45.8094" lon="4.29539">
        <ele>552.41455</ele>
        <time>2011-07-09T08:45:46Z</time>
      </trkpt>
      <trkpt lat="45.80941" lon="4.29556">
        <ele>550.01147</ele>
        <time>2011-07-09T08:45:50Z</time>
      </trkpt>
      <trkpt lat="45.80942" lon="4.29564">
        <ele>549.53076</ele>
        <time>2011-07-09T08:45:51Z</time>
      </trkpt>
      <trkpt lat="45.80949" lon="4.29598">
        <ele>547.60815</ele>
        <time>2011-07-09T08:45:55Z</time>
      </trkpt>
      <trkpt lat="45.80964" lon="4.29616">
        <ele>547.60815</ele>
        <time>2011-07-09T08:46:00Z</time>
      </trkpt>
      <trkpt lat="45.80991" lon="4.29636">
        <ele>546.16625</ele>
        <time>2011-07-09T08:46:06Z</time>
      </trkpt>
      <trkpt lat="45.81014" lon="4.2965">
        <ele>544.72424</ele>
        <time>2011-07-09T08:46:10Z</time>
      </trkpt>
      <trkpt lat="45.8103" lon="4.29664">
        <ele>544.24365</ele>
        <time>2011-07-09T08:46:13Z</time>
      </trkpt>
      <trkpt lat="45.81064" lon="4.29691">
        <ele>544.24365</ele>
        <time>2011-07-09T08:46:20Z</time>
      </trkpt>
      <trkpt lat="45.81086" lon="4.29716">
        <ele>544.24365</ele>
        <time>2011-07-09T08:46:25Z</time>
      </trkpt>
      <trkpt lat="45.81103" lon="4.29736">
        <ele>542.80151</ele>
        <time>2011-07-09T08:46:30Z</time>
      </trkpt>
      <trkpt lat="45.81115" lon="4.29752">
        <ele>543.76281</ele>
        <time>2011-07-09T08:46:35Z</time>
      </trkpt>
      <trkpt lat="45.8112" lon="4.29761">
        <ele>545.20483</ele>
        <time>2011-07-09T08:46:38Z</time>
      </trkpt>
      <trkpt lat="45.81122" lon="4.29771">
        <ele>545.20483</ele>
        <time>2011-07-09T08:46:42Z</time>
      </trkpt>
      <trkpt lat="45.81127" lon="4.29801">
        <ele>541.84021</ele>
        <time>2011-07-09T08:46:46Z</time>
      </trkpt>
      <trkpt lat="45.81132" lon="4.29863">
        <ele>537.51428</ele>
        <time>2011-07-09T08:46:52Z</time>
      </trkpt>
      <trkpt lat="45.81133" lon="4.29876">
        <ele>537.03369</ele>
        <time>2011-07-09T08:46:53Z</time>
      </trkpt>
      <trkpt lat="45.81141" lon="4.29914">
        <ele>535.11096</ele>
        <time>2011-07-09T08:46:56Z</time>
      </trkpt>
      <trkpt lat="45.81142" lon="4.29926">
        <ele>535.11096</ele>
        <time>2011-07-09T08:46:57Z</time>
      </trkpt>
      <trkpt lat="45.8115" lon="4.29964">
        <ele>533.66894</ele>
        <time>2011-07-09T08:47:01Z</time>
      </trkpt>
      <trkpt lat="45.81138" lon="4.29975">
        <ele>531.26574</ele>
        <time>2011-07-09T08:47:04Z</time>
      </trkpt>
      <trkpt lat="45.8112" lon="4.30003">
        <ele>526.93981</ele>
        <time>2011-07-09T08:47:07Z</time>
      </trkpt>
      <trkpt lat="45.81103" lon="4.3004">
        <ele>524.53649</ele>
        <time>2011-07-09T08:47:10Z</time>
      </trkpt>
      <trkpt lat="45.81075" lon="4.30061">
        <ele>522.61389</ele>
        <time>2011-07-09T08:47:14Z</time>
      </trkpt>
      <trkpt lat="45.81053" lon="4.3006">
        <ele>524.05578</ele>
        <time>2011-07-09T08:47:17Z</time>
      </trkpt>
      <trkpt lat="45.81028" lon="4.30063">
        <ele>525.01721</ele>
        <time>2011-07-09T08:47:22Z</time>
      </trkpt>
      <trkpt lat="45.81013" lon="4.30084">
        <ele>525.97839</ele>
        <time>2011-07-09T08:47:27Z</time>
      </trkpt>
      <trkpt lat="45.81004" lon="4.30105">
        <ele>527.42041</ele>
        <time>2011-07-09T08:47:32Z</time>
      </trkpt>
      <trkpt lat="45.80999" lon="4.30126">
        <ele>528.38183</ele>
        <time>2011-07-09T08:47:38Z</time>
      </trkpt>
      <trkpt lat="45.8099" lon="4.30147">
        <ele>530.78515</ele>
        <time>2011-07-09T08:47:45Z</time>
      </trkpt>
      <trkpt lat="45.80983" lon="4.30161">
        <ele>532.70776</ele>
        <time>2011-07-09T08:47:51Z</time>
      </trkpt>
      <trkpt lat="45.80973" lon="4.3018">
        <ele>534.14965</ele>
        <time>2011-07-09T08:47:58Z</time>
      </trkpt>
      <trkpt lat="45.80971" lon="4.30182">
        <ele>534.14965</ele>
        <time>2011-07-09T08:47:59Z</time>
      </trkpt>
      <trkpt lat="45.80974" lon="4.30199">
        <ele>536.5531</ele>
        <time>2011-07-09T08:48:06Z</time>
      </trkpt>
      <trkpt lat="45.80979" lon="4.30208">
        <ele>538.4757</ele>
        <time>2011-07-09T08:48:12Z</time>
      </trkpt>
      <trkpt lat="45.8098" lon="4.30215">
        <ele>538.95629</ele>
        <time>2011-07-09T08:48:16Z</time>
      </trkpt>
      <trkpt lat="45.80978" lon="4.30239">
        <ele>541.35949</ele>
        <time>2011-07-09T08:48:25Z</time>
      </trkpt>
      <trkpt lat="45.80977" lon="4.30264">
        <ele>543.76281</ele>
        <time>2011-07-09T08:48:33Z</time>
      </trkpt>
      <trkpt lat="45.80969" lon="4.30289">
        <ele>545.20483</ele>
        <time>2011-07-09T08:48:42Z</time>
      </trkpt>
      <trkpt lat="45.8096" lon="4.30312">
        <ele>547.12744</ele>
        <time>2011-07-09T08:48:50Z</time>
      </trkpt>
      <trkpt lat="45.80952" lon="4.30328">
        <ele>550.49218</ele>
        <time>2011-07-09T08:48:57Z</time>
      </trkpt>
      <trkpt lat="45.80947" lon="4.30341">
        <ele>551.45336</ele>
        <time>2011-07-09T08:49:03Z</time>
      </trkpt>
      <trkpt lat="45.80937" lon="4.30359">
        <ele>551.93408</ele>
        <time>2011-07-09T08:49:10Z</time>
      </trkpt>
      <trkpt lat="45.80933" lon="4.30379">
        <ele>552.41455</ele>
        <time>2011-07-09T08:49:17Z</time>
      </trkpt>
      <trkpt lat="45.80929" lon="4.30396">
        <ele>553.37597</ele>
        <time>2011-07-09T08:49:23Z</time>
      </trkpt>
      <trkpt lat="45.80927" lon="4.30413">
        <ele>555.29858</ele>
        <time>2011-07-09T08:49:29Z</time>
      </trkpt>
      <trkpt lat="45.80923" lon="4.30435">
        <ele>556.74072</ele>
        <time>2011-07-09T08:49:36Z</time>
      </trkpt>
      <trkpt lat="45.80919" lon="4.30455">
        <ele>557.70214</ele>
        <time>2011-07-09T08:49:44Z</time>
      </trkpt>
      <trkpt lat="45.80917" lon="4.30468">
        <ele>559.62475</ele>
        <time>2011-07-09T08:49:50Z</time>
      </trkpt>
      <trkpt lat="45.80916" lon="4.30475">
        <ele>560.10522</ele>
        <time>2011-07-09T08:49:54Z</time>
      </trkpt>
      <trkpt lat="45.80916" lon="4.30484">
        <ele>561.06665</ele>
        <time>2011-07-09T08:49:58Z</time>
      </trkpt>
      <trkpt lat="45.80915" lon="4.30494">
        <ele>562.02807</ele>
        <time>2011-07-09T08:50:02Z</time>
      </trkpt>
      <trkpt lat="45.80915" lon="4.30496">
        <ele>562.98925</ele>
        <time>2011-07-09T08:50:03Z</time>
      </trkpt>
      <trkpt lat="45.80917" lon="4.30511">
        <ele>564.43115</ele>
        <time>2011-07-09T08:50:10Z</time>
      </trkpt>
      <trkpt lat="45.80917" lon="4.3052">
        <ele>565.87329</ele>
        <time>2011-07-09T08:50:13Z</time>
      </trkpt>
      <trkpt lat="45.80917" lon="4.30525">
        <ele>567.79565</ele>
        <time>2011-07-09T08:50:16Z</time>
      </trkpt>
      <trkpt lat="45.80917" lon="4.30529">
        <ele>568.27636</ele>
        <time>2011-07-09T08:50:18Z</time>
      </trkpt>
      <trkpt lat="45.80918" lon="4.30533">
        <ele>569.23779</ele>
        <time>2011-07-09T08:50:20Z</time>
      </trkpt>
      <trkpt lat="45.80922" lon="4.30547">
        <ele>570.19897</ele>
        <time>2011-07-09T08:50:26Z</time>
      </trkpt>
      <trkpt lat="45.80923" lon="4.30552">
        <ele>570.67968</ele>
        <time>2011-07-09T08:50:30Z</time>
      </trkpt>
      <trkpt lat="45.80926" lon="4.30557">
        <ele>572.12182</ele>
        <time>2011-07-09T08:50:33Z</time>
      </trkpt>
      <trkpt lat="45.80927" lon="4.30562">
        <ele>573.08325</ele>
        <time>2011-07-09T08:50:36Z</time>
      </trkpt>
      <trkpt lat="45.80933" lon="4.30575">
        <ele>575.48632</ele>
        <time>2011-07-09T08:50:44Z</time>
      </trkpt>
      <trkpt lat="45.80934" lon="4.30577">
        <ele>575.96704</ele>
        <time>2011-07-09T08:50:45Z</time>
      </trkpt>
      <trkpt lat="45.80946" lon="4.30591">
        <ele>576.92846</ele>
        <time>2011-07-09T08:50:53Z</time>
      </trkpt>
      <trkpt lat="45.80959" lon="4.30603">
        <ele>578.37036</ele>
        <time>2011-07-09T08:51:01Z</time>
      </trkpt>
      <trkpt lat="45.8097" lon="4.30603">
        <ele>579.33154</ele>
        <time>2011-07-09T08:51:08Z</time>
      </trkpt>
      <trkpt lat="45.80978" lon="4.30601">
        <ele>581.25439</ele>
        <time>2011-07-09T08:51:14Z</time>
      </trkpt>
      <trkpt lat="45.80989" lon="4.30601">
        <ele>583.65747</ele>
        <time>2011-07-09T08:51:21Z</time>
      </trkpt>
      <trkpt lat="45.80997" lon="4.30597">
        <ele>583.65747</ele>
        <time>2011-07-09T08:51:26Z</time>
      </trkpt>
      <trkpt lat="45.81001" lon="4.30598">
        <ele>583.65747</ele>
        <time>2011-07-09T08:51:28Z</time>
      </trkpt>
      <trkpt lat="45.81015" lon="4.30593">
        <ele>586.5415</ele>
        <time>2011-07-09T08:51:37Z</time>
      </trkpt>
      <trkpt lat="45.81028" lon="4.30598">
        <ele>588.46435</ele>
        <time>2011-07-09T08:51:45Z</time>
      </trkpt>
      <trkpt lat="45.81033" lon="4.30605">
        <ele>589.42553</ele>
        <time>2011-07-09T08:51:48Z</time>
      </trkpt>
      <trkpt lat="45.81039" lon="4.30607">
        <ele>589.42553</ele>
        <time>2011-07-09T08:51:52Z</time>
      </trkpt>
      <trkpt lat="45.81047" lon="4.30611">
        <ele>589.42553</ele>
        <time>2011-07-09T08:52:00Z</time>
      </trkpt>
      <trkpt lat="45.81048" lon="4.3061">
        <ele>589.90625</ele>
        <time>2011-07-09T08:52:28Z</time>
      </trkpt>
      <trkpt lat="45.81047" lon="4.3061">
        <ele>590.38696</ele>
        <time>2011-07-09T08:52:50Z</time>
      </trkpt>
      <trkpt lat="45.81049" lon="4.3061">
        <ele>590.38696</ele>
        <time>2011-07-09T08:53:01Z</time>
      </trkpt>
      <trkpt lat="45.81051" lon="4.3061">
        <ele>590.38696</ele>
        <time>2011-07-09T08:53:12Z</time>
      </trkpt>
      <trkpt lat="45.81051" lon="4.3061">
        <ele>590.86743</ele>
        <time>2011-07-09T08:53:27Z</time>
      </trkpt>
      <trkpt lat="45.81052" lon="4.30611">
        <ele>590.86743</ele>
        <time>2011-07-09T08:53:46Z</time>
      </trkpt>
      <trkpt lat="45.81052" lon="4.30611">
        <ele>590.86743</ele>
        <time>2011-07-09T08:54:02Z</time>
      </trkpt>
      <trkpt lat="45.81052" lon="4.30611">
        <ele>591.34814</ele>
        <time>2011-07-09T08:54:14Z</time>
      </trkpt>
      <trkpt lat="45.81052" lon="4.30612">
        <ele>590.86743</ele>
        <time>2011-07-09T08:54:57Z</time>
      </trkpt>
      <trkpt lat="45.81053" lon="4.30611">
        <ele>591.34814</ele>
        <time>2011-07-09T08:55:01Z</time>
      </trkpt>
      <trkpt lat="45.81068" lon="4.30608">
        <ele>591.34814</ele>
        <time>2011-07-09T08:55:09Z</time>
      </trkpt>
      <trkpt lat="45.81074" lon="4.30619">
        <ele>591.82885</ele>
        <time>2011-07-09T08:55:14Z</time>
      </trkpt>
      <trkpt lat="45.8108" lon="4.30645">
        <ele>592.30957</ele>
        <time>2011-07-09T08:55:22Z</time>
      </trkpt>
      <trkpt lat="45.8109" lon="4.30676">
        <ele>592.79028</ele>
        <time>2011-07-09T08:55:30Z</time>
      </trkpt>
      <trkpt lat="45.81098" lon="4.30698">
        <ele>593.27075</ele>
        <time>2011-07-09T08:55:35Z</time>
      </trkpt>
      <trkpt lat="45.81107" lon="4.30723">
        <ele>594.23217</ele>
        <time>2011-07-09T08:55:42Z</time>
      </trkpt>
      <trkpt lat="45.81118" lon="4.30755">
        <ele>596.15478</ele>
        <time>2011-07-09T08:55:50Z</time>
      </trkpt>
      <trkpt lat="45.81128" lon="4.30781">
        <ele>596.63549</ele>
        <time>2011-07-09T08:55:57Z</time>
      </trkpt>
      <trkpt lat="45.81136" lon="4.30803">
        <ele>597.59667</ele>
        <time>2011-07-09T08:56:03Z</time>
      </trkpt>
      <trkpt lat="45.81138" lon="4.30822">
        <ele>599.03857</ele>
        <time>2011-07-09T08:56:08Z</time>
      </trkpt>
      <trkpt lat="45.81135" lon="4.30838">
        <ele>599.03857</ele>
        <time>2011-07-09T08:56:13Z</time>
      </trkpt>
      <trkpt lat="45.81142" lon="4.30852">
        <ele>599.51928</ele>
        <time>2011-07-09T08:56:18Z</time>
      </trkpt>
      <trkpt lat="45.81163" lon="4.30878">
        <ele>600.48071</ele>
        <time>2011-07-09T08:56:27Z</time>
      </trkpt>
      <trkpt lat="45.81182" lon="4.30897">
        <ele>600.96118</ele>
        <time>2011-07-09T08:56:34Z</time>
      </trkpt>
      <trkpt lat="45.81202" lon="4.309">
        <ele>601.9226</ele>
        <time>2011-07-09T08:56:40Z</time>
      </trkpt>
      <trkpt lat="45.81226" lon="4.30901">
        <ele>601.9226</ele>
        <time>2011-07-09T08:56:47Z</time>
      </trkpt>
      <trkpt lat="45.81252" lon="4.30901">
        <ele>602.40307</ele>
        <time>2011-07-09T08:56:54Z</time>
      </trkpt>
      <trkpt lat="45.81277" lon="4.30901">
        <ele>603.84521</ele>
        <time>2011-07-09T08:57:01Z</time>
      </trkpt>
      <trkpt lat="45.81305" lon="4.30901">
        <ele>604.32617</ele>
        <time>2011-07-09T08:57:09Z</time>
      </trkpt>
      <trkpt lat="45.81323" lon="4.30908">
        <ele>604.80664</ele>
        <time>2011-07-09T08:57:15Z</time>
      </trkpt>
      <trkpt lat="45.81338" lon="4.30931">
        <ele>605.28735</ele>
        <time>2011-07-09T08:57:22Z</time>
      </trkpt>
      <trkpt lat="45.81342" lon="4.3095">
        <ele>605.76806</ele>
        <time>2011-07-09T08:57:27Z</time>
      </trkpt>
      <trkpt lat="45.81341" lon="4.30955">
        <ele>605.76806</ele>
        <time>2011-07-09T08:57:28Z</time>
      </trkpt>
      <trkpt lat="45.81337" lon="4.30966">
        <ele>604.80664</ele>
        <time>2011-07-09T08:57:30Z</time>
      </trkpt>
      <trkpt lat="45.81333" lon="4.30988">
        <ele>604.32617</ele>
        <time>2011-07-09T08:57:33Z</time>
      </trkpt>
      <trkpt lat="45.8132" lon="4.31026">
        <ele>603.84521</ele>
        <time>2011-07-09T08:57:38Z</time>
      </trkpt>
      <trkpt lat="45.81303" lon="4.31062">
        <ele>604.32617</ele>
        <time>2011-07-09T08:57:44Z</time>
      </trkpt>
      <trkpt lat="45.81282" lon="4.31105">
        <ele>604.32617</ele>
        <time>2011-07-09T08:57:52Z</time>
      </trkpt>
      <trkpt lat="45.81277" lon="4.31138">
        <ele>604.80664</ele>
        <time>2011-07-09T08:57:57Z</time>
      </trkpt>
      <trkpt lat="45.81288" lon="4.31184">
        <ele>606.24853</ele>
        <time>2011-07-09T08:58:04Z</time>
      </trkpt>
      <trkpt lat="45.8129" lon="4.3119">
        <ele>605.76806</ele>
        <time>2011-07-09T08:58:05Z</time>
      </trkpt>
      <trkpt lat="45.81298" lon="4.3123">
        <ele>606.72924</ele>
        <time>2011-07-09T08:58:12Z</time>
      </trkpt>
      <trkpt lat="45.81313" lon="4.31278">
        <ele>605.28735</ele>
        <time>2011-07-09T08:58:20Z</time>
      </trkpt>
      <trkpt lat="45.81314" lon="4.31289">
        <ele>604.32617</ele>
        <time>2011-07-09T08:58:22Z</time>
      </trkpt>
      <trkpt lat="45.81302" lon="4.31301">
        <ele>604.32617</ele>
        <time>2011-07-09T08:58:27Z</time>
      </trkpt>
      <trkpt lat="45.81279" lon="4.31326">
        <ele>602.88378</ele>
        <time>2011-07-09T08:58:34Z</time>
      </trkpt>
      <trkpt lat="45.81254" lon="4.31354">
        <ele>602.40307</ele>
        <time>2011-07-09T08:58:40Z</time>
      </trkpt>
      <trkpt lat="45.81221" lon="4.3139">
        <ele>600.96118</ele>
        <time>2011-07-09T08:58:47Z</time>
      </trkpt>
      <trkpt lat="45.81191" lon="4.31423">
        <ele>597.59667</ele>
        <time>2011-07-09T08:58:52Z</time>
      </trkpt>
      <trkpt lat="45.81184" lon="4.31431">
        <ele>597.59667</ele>
        <time>2011-07-09T08:58:53Z</time>
      </trkpt>
      <trkpt lat="45.81146" lon="4.3147">
        <ele>593.75146</ele>
        <time>2011-07-09T08:58:58Z</time>
      </trkpt>
      <trkpt lat="45.81102" lon="4.31512">
        <ele>590.86743</ele>
        <time>2011-07-09T08:59:03Z</time>
      </trkpt>
      <trkpt lat="45.81093" lon="4.31522">
        <ele>589.42553</ele>
        <time>2011-07-09T08:59:04Z</time>
      </trkpt>
      <trkpt lat="45.81069" lon="4.31559">
        <ele>585.58007</ele>
        <time>2011-07-09T08:59:07Z</time>
      </trkpt>
      <trkpt lat="45.8106" lon="4.31572">
        <ele>585.0996</ele>
        <time>2011-07-09T08:59:08Z</time>
      </trkpt>
      <trkpt lat="45.81035" lon="4.31611">
        <ele>581.73486</ele>
        <time>2011-07-09T08:59:11Z</time>
      </trkpt>
      <trkpt lat="45.81005" lon="4.31653">
        <ele>578.37036</ele>
        <time>2011-07-09T08:59:15Z</time>
      </trkpt>
      <trkpt lat="45.80999" lon="4.31661">
        <ele>577.40917</ele>
        <time>2011-07-09T08:59:16Z</time>
      </trkpt>
      <trkpt lat="45.80987" lon="4.3167">
        <ele>576.44775</ele>
        <time>2011-07-09T08:59:18Z</time>
      </trkpt>
      <trkpt lat="45.80975" lon="4.31663">
        <ele>575.00585</ele>
        <time>2011-07-09T08:59:20Z</time>
      </trkpt>
      <trkpt lat="45.80956" lon="4.31645">
        <ele>572.12182</ele>
        <time>2011-07-09T08:59:23Z</time>
      </trkpt>
      <trkpt lat="45.80928" lon="4.31643">
        <ele>568.27636</ele>
        <time>2011-07-09T08:59:26Z</time>
      </trkpt>
      <trkpt lat="45.80883" lon="4.3165">
        <ele>560.10522</ele>
        <time>2011-07-09T08:59:30Z</time>
      </trkpt>
      <trkpt lat="45.80859" lon="4.31655">
        <ele>556.74072</ele>
        <time>2011-07-09T08:59:32Z</time>
      </trkpt>
      <trkpt lat="45.80813" lon="4.31678">
        <ele>550.97265</ele>
        <time>2011-07-09T08:59:36Z</time>
      </trkpt>
      <trkpt lat="45.80791" lon="4.31693">
        <ele>547.12744</ele>
        <time>2011-07-09T08:59:38Z</time>
      </trkpt>
      <trkpt lat="45.80771" lon="4.31709">
        <ele>543.76281</ele>
        <time>2011-07-09T08:59:40Z</time>
      </trkpt>
      <trkpt lat="45.80738" lon="4.31734">
        <ele>538.95629</ele>
        <time>2011-07-09T08:59:43Z</time>
      </trkpt>
      <trkpt lat="45.80717" lon="4.31751">
        <ele>535.11096</ele>
        <time>2011-07-09T08:59:45Z</time>
      </trkpt>
      <trkpt lat="45.80707" lon="4.31759">
        <ele>534.63037</ele>
        <time>2011-07-09T08:59:46Z</time>
      </trkpt>
      <trkpt lat="45.80686" lon="4.31785">
        <ele>532.22705</ele>
        <time>2011-07-09T08:59:49Z</time>
      </trkpt>
      <trkpt lat="45.80658" lon="4.31806">
        <ele>533.18835</ele>
        <time>2011-07-09T08:59:53Z</time>
      </trkpt>
      <trkpt lat="45.80631" lon="4.3183">
        <ele>532.70776</ele>
        <time>2011-07-09T08:59:58Z</time>
      </trkpt>
      <trkpt lat="45.80623" lon="4.31826">
        <ele>532.22705</ele>
        <time>2011-07-09T09:00:01Z</time>
      </trkpt>
      <trkpt lat="45.80615" lon="4.31817">
        <ele>532.70776</ele>
        <time>2011-07-09T09:00:06Z</time>
      </trkpt>
      <trkpt lat="45.80611" lon="4.31813">
        <ele>533.18835</ele>
        <time>2011-07-09T09:00:09Z</time>
      </trkpt>
      <trkpt lat="45.80591" lon="4.31801">
        <ele>534.14965</ele>
        <time>2011-07-09T09:00:16Z</time>
      </trkpt>
      <trkpt lat="45.80571" lon="4.3179">
        <ele>534.63037</ele>
        <time>2011-07-09T09:00:21Z</time>
      </trkpt>
      <trkpt lat="45.8055" lon="4.31782">
        <ele>536.07238</ele>
        <time>2011-07-09T09:00:28Z</time>
      </trkpt>
      <trkpt lat="45.80537" lon="4.31776">
        <ele>537.99499</ele>
        <time>2011-07-09T09:00:35Z</time>
      </trkpt>
      <trkpt lat="45.8053" lon="4.31779">
        <ele>538.4757</ele>
        <time>2011-07-09T09:00:38Z</time>
      </trkpt>
      <trkpt lat="45.8053" lon="4.31785">
        <ele>539.9176</ele>
        <time>2011-07-09T09:00:41Z</time>
      </trkpt>
      <trkpt lat="45.80531" lon="4.31786">
        <ele>540.39831</ele>
        <time>2011-07-09T09:00:42Z</time>
      </trkpt>
      <trkpt lat="45.80538" lon="4.31792">
        <ele>542.32092</ele>
        <time>2011-07-09T09:00:48Z</time>
      </trkpt>
      <trkpt lat="45.80547" lon="4.31801">
        <ele>544.72424</ele>
        <time>2011-07-09T09:00:54Z</time>
      </trkpt>
      <trkpt lat="45.80554" lon="4.3181">
        <ele>546.64685</ele>
        <time>2011-07-09T09:01:01Z</time>
      </trkpt>
      <trkpt lat="45.80557" lon="4.31814">
        <ele>546.64685</ele>
        <time>2011-07-09T09:01:04Z</time>
      </trkpt>
      <trkpt lat="45.80563" lon="4.31823">
        <ele>549.05004</ele>
        <time>2011-07-09T09:01:11Z</time>
      </trkpt>
      <trkpt lat="45.80572" lon="4.31834">
        <ele>550.97265</ele>
        <time>2011-07-09T09:01:17Z</time>
      </trkpt>
      <trkpt lat="45.80574" lon="4.31838">
        <ele>551.45336</ele>
        <time>2011-07-09T09:01:19Z</time>
      </trkpt>
      <trkpt lat="45.80586" lon="4.31857">
        <ele>553.85668</ele>
        <time>2011-07-09T09:01:27Z</time>
      </trkpt>
      <trkpt lat="45.80594" lon="4.31872">
        <ele>555.29858</ele>
        <time>2011-07-09T09:01:33Z</time>
      </trkpt>
      <trkpt lat="45.80596" lon="4.31877">
        <ele>556.26</ele>
        <time>2011-07-09T09:01:35Z</time>
      </trkpt>
      <trkpt lat="45.80602" lon="4.31893">
        <ele>558.18286</ele>
        <time>2011-07-09T09:01:42Z</time>
      </trkpt>
      <trkpt lat="45.80605" lon="4.31911">
        <ele>560.10522</ele>
        <time>2011-07-09T09:01:48Z</time>
      </trkpt>
      <trkpt lat="45.80605" lon="4.31924">
        <ele>562.02807</ele>
        <time>2011-07-09T09:01:53Z</time>
      </trkpt>
      <trkpt lat="45.80605" lon="4.31944">
        <ele>564.43115</ele>
        <time>2011-07-09T09:02:00Z</time>
      </trkpt>
      <trkpt lat="45.80599" lon="4.31969">
        <ele>564.91186</ele>
        <time>2011-07-09T09:02:07Z</time>
      </trkpt>
      <trkpt lat="45.80593" lon="4.31985">
        <ele>565.87329</ele>
        <time>2011-07-09T09:02:12Z</time>
      </trkpt>
      <trkpt lat="45.80588" lon="4.32007">
        <ele>567.79565</ele>
        <time>2011-07-09T09:02:18Z</time>
      </trkpt>
      <trkpt lat="45.80578" lon="4.32031">
        <ele>568.75708</ele>
        <time>2011-07-09T09:02:25Z</time>
      </trkpt>
      <trkpt lat="45.80561" lon="4.32054">
        <ele>568.75708</ele>
        <time>2011-07-09T09:02:32Z</time>
      </trkpt>
      <trkpt lat="45.80547" lon="4.32072">
        <ele>568.75708</ele>
        <time>2011-07-09T09:02:38Z</time>
      </trkpt>
      <trkpt lat="45.80527" lon="4.32096">
        <ele>569.23779</ele>
        <time>2011-07-09T09:02:45Z</time>
      </trkpt>
      <trkpt lat="45.80505" lon="4.32115">
        <ele>569.23779</ele>
        <time>2011-07-09T09:02:52Z</time>
      </trkpt>
      <trkpt lat="45.80491" lon="4.32128">
        <ele>571.64086</ele>
        <time>2011-07-09T09:02:57Z</time>
      </trkpt>
      <trkpt lat="45.80488" lon="4.32131">
        <ele>571.64086</ele>
        <time>2011-07-09T09:02:58Z</time>
      </trkpt>
      <trkpt lat="45.80473" lon="4.32152">
        <ele>574.04443</ele>
        <time>2011-07-09T09:03:04Z</time>
      </trkpt>
      <trkpt lat="45.8046" lon="4.32181">
        <ele>575.48632</ele>
        <time>2011-07-09T09:03:11Z</time>
      </trkpt>
      <trkpt lat="45.80444" lon="4.32215">
        <ele>578.37036</ele>
        <time>2011-07-09T09:03:20Z</time>
      </trkpt>
      <trkpt lat="45.80443" lon="4.32218">
        <ele>578.85107</ele>
        <time>2011-07-09T09:03:21Z</time>
      </trkpt>
      <trkpt lat="45.80433" lon="4.32241">
        <ele>580.77368</ele>
        <time>2011-07-09T09:03:27Z</time>
      </trkpt>
      <trkpt lat="45.80424" lon="4.3227">
        <ele>582.21557</ele>
        <time>2011-07-09T09:03:35Z</time>
      </trkpt>
      <trkpt lat="45.80421" lon="4.32276">
        <ele>583.17675</ele>
        <time>2011-07-09T09:03:37Z</time>
      </trkpt>
      <trkpt lat="45.80414" lon="4.323">
        <ele>585.58007</ele>
        <time>2011-07-09T09:03:44Z</time>
      </trkpt>
      <trkpt lat="45.80405" lon="4.32323">
        <ele>587.02197</ele>
        <time>2011-07-09T09:03:50Z</time>
      </trkpt>
      <trkpt lat="45.80395" lon="4.32351">
        <ele>590.38696</ele>
        <time>2011-07-09T09:03:58Z</time>
      </trkpt>
      <trkpt lat="45.80386" lon="4.32377">
        <ele>593.75146</ele>
        <time>2011-07-09T09:04:05Z</time>
      </trkpt>
      <trkpt lat="45.80381" lon="4.32399">
        <ele>596.15478</ele>
        <time>2011-07-09T09:04:11Z</time>
      </trkpt>
      <trkpt lat="45.80373" lon="4.32427">
        <ele>598.55786</ele>
        <time>2011-07-09T09:04:19Z</time>
      </trkpt>
      <trkpt lat="45.80368" lon="4.32448">
        <ele>600.48071</ele>
        <time>2011-07-09T09:04:26Z</time>
      </trkpt>
      <trkpt lat="45.80363" lon="4.32467">
        <ele>600.96118</ele>
        <time>2011-07-09T09:04:32Z</time>
      </trkpt>
      <trkpt lat="45.80354" lon="4.32493">
        <ele>604.32617</ele>
        <time>2011-07-09T09:04:40Z</time>
      </trkpt>
      <trkpt lat="45.80344" lon="4.32517">
        <ele>605.28735</ele>
        <time>2011-07-09T09:04:48Z</time>
      </trkpt>
      <trkpt lat="45.80333" lon="4.32539">
        <ele>606.72924</ele>
        <time>2011-07-09T09:04:56Z</time>
      </trkpt>
      <trkpt lat="45.80323" lon="4.32564">
        <ele>607.69067</ele>
        <time>2011-07-09T09:05:04Z</time>
      </trkpt>
      <trkpt lat="45.80317" lon="4.32592">
        <ele>609.13256</ele>
        <time>2011-07-09T09:05:12Z</time>
      </trkpt>
      <trkpt lat="45.80315" lon="4.32621">
        <ele>610.09375</ele>
        <time>2011-07-09T09:05:20Z</time>
      </trkpt>
      <trkpt lat="45.80312" lon="4.3265">
        <ele>611.05517</ele>
        <time>2011-07-09T09:05:28Z</time>
      </trkpt>
      <trkpt lat="45.80304" lon="4.32681">
        <ele>612.97778</ele>
        <time>2011-07-09T09:05:37Z</time>
      </trkpt>
      <trkpt lat="45.80295" lon="4.32692">
        <ele>613.93896</ele>
        <time>2011-07-09T09:05:42Z</time>
      </trkpt>
      <trkpt lat="45.80289" lon="4.32695">
        <ele>614.41967</ele>
        <time>2011-07-09T09:05:45Z</time>
      </trkpt>
      <trkpt lat="45.80288" lon="4.32702">
        <ele>614.41967</ele>
        <time>2011-07-09T09:05:49Z</time>
      </trkpt>
      <trkpt lat="45.80293" lon="4.32699">
        <ele>614.41967</ele>
        <time>2011-07-09T09:05:53Z</time>
      </trkpt>
      <trkpt lat="45.80294" lon="4.32698">
        <ele>614.41967</ele>
        <time>2011-07-09T09:05:54Z</time>
      </trkpt>
      <trkpt lat="45.80299" lon="4.32694">
        <ele>613.93896</ele>
        <time>2011-07-09T09:05:56Z</time>
      </trkpt>
      <trkpt lat="45.80309" lon="4.32699">
        <ele>613.93896</ele>
        <time>2011-07-09T09:06:00Z</time>
      </trkpt>
      <trkpt lat="45.80309" lon="4.32702">
        <ele>614.41967</ele>
        <time>2011-07-09T09:06:01Z</time>
      </trkpt>
      <trkpt lat="45.80311" lon="4.32712">
        <ele>613.45849</ele>
        <time>2011-07-09T09:06:06Z</time>
      </trkpt>
      <trkpt lat="45.80312" lon="4.32713">
        <ele>613.93896</ele>
        <time>2011-07-09T09:06:11Z</time>
      </trkpt>
      <trkpt lat="45.80312" lon="4.32713">
        <ele>612.97778</ele>
        <time>2011-07-09T09:06:26Z</time>
      </trkpt>
      <trkpt lat="45.80315" lon="4.32713">
        <ele>613.93896</ele>
        <time>2011-07-09T09:07:24Z</time>
      </trkpt>
      <trkpt lat="45.80317" lon="4.32714">
        <ele>613.93896</ele>
        <time>2011-07-09T09:08:21Z</time>
      </trkpt>
      <trkpt lat="45.80322" lon="4.32722">
        <ele>613.93896</ele>
        <time>2011-07-09T09:08:27Z</time>
      </trkpt>
      <trkpt lat="45.80334" lon="4.32739">
        <ele>613.93896</ele>
        <time>2011-07-09T09:08:34Z</time>
      </trkpt>
      <trkpt lat="45.80347" lon="4.32757">
        <ele>613.45849</ele>
        <time>2011-07-09T09:08:40Z</time>
      </trkpt>
      <trkpt lat="45.80357" lon="4.32774">
        <ele>614.41967</ele>
        <time>2011-07-09T09:08:45Z</time>
      </trkpt>
      <trkpt lat="45.80374" lon="4.32804">
        <ele>613.45849</ele>
        <time>2011-07-09T09:08:53Z</time>
      </trkpt>
      <trkpt lat="45.804" lon="4.32849">
        <ele>612.97778</ele>
        <time>2011-07-09T09:09:03Z</time>
      </trkpt>
      <trkpt lat="45.8043" lon="4.32898">
        <ele>612.0166</ele>
        <time>2011-07-09T09:09:13Z</time>
      </trkpt>
      <trkpt lat="45.80453" lon="4.32942">
        <ele>611.53588</ele>
        <time>2011-07-09T09:09:22Z</time>
      </trkpt>
      <trkpt lat="45.80475" lon="4.32984">
        <ele>611.05517</ele>
        <time>2011-07-09T09:09:31Z</time>
      </trkpt>
      <trkpt lat="45.80493" lon="4.33012">
        <ele>611.53588</ele>
        <time>2011-07-09T09:09:38Z</time>
      </trkpt>
      <trkpt lat="45.80517" lon="4.33053">
        <ele>612.0166</ele>
        <time>2011-07-09T09:09:47Z</time>
      </trkpt>
      <trkpt lat="45.80543" lon="4.33095">
        <ele>612.97778</ele>
        <time>2011-07-09T09:09:56Z</time>
      </trkpt>
      <trkpt lat="45.80573" lon="4.33127">
        <ele>613.45849</ele>
        <time>2011-07-09T09:10:05Z</time>
      </trkpt>
      <trkpt lat="45.80592" lon="4.3315">
        <ele>613.93896</ele>
        <time>2011-07-09T09:10:12Z</time>
      </trkpt>
      <trkpt lat="45.80614" lon="4.33183">
        <ele>616.34228</ele>
        <time>2011-07-09T09:10:21Z</time>
      </trkpt>
      <trkpt lat="45.80627" lon="4.33215">
        <ele>617.78417</ele>
        <time>2011-07-09T09:10:29Z</time>
      </trkpt>
      <trkpt lat="45.80632" lon="4.33241">
        <ele>618.7456</ele>
        <time>2011-07-09T09:10:35Z</time>
      </trkpt>
      <trkpt lat="45.80638" lon="4.33282">
        <ele>619.70703</ele>
        <time>2011-07-09T09:10:44Z</time>
      </trkpt>
      <trkpt lat="45.8064" lon="4.33318">
        <ele>620.66845</ele>
        <time>2011-07-09T09:10:52Z</time>
      </trkpt>
      <trkpt lat="45.8064" lon="4.33352">
        <ele>621.62963</ele>
        <time>2011-07-09T09:10:59Z</time>
      </trkpt>
      <trkpt lat="45.8064" lon="4.33391">
        <ele>622.11035</ele>
        <time>2011-07-09T09:11:07Z</time>
      </trkpt>
      <trkpt lat="45.80639" lon="4.33408">
        <ele>620.66845</ele>
        <time>2011-07-09T09:11:10Z</time>
      </trkpt>
      <trkpt lat="45.80627" lon="4.33453">
        <ele>618.7456</ele>
        <time>2011-07-09T09:11:16Z</time>
      </trkpt>
      <trkpt lat="45.80621" lon="4.33471">
        <ele>618.26489</ele>
        <time>2011-07-09T09:11:18Z</time>
      </trkpt>
      <trkpt lat="45.80602" lon="4.33533">
        <ele>614.90039</ele>
        <time>2011-07-09T09:11:24Z</time>
      </trkpt>
      <trkpt lat="45.80591" lon="4.3358">
        <ele>612.49707</ele>
        <time>2011-07-09T09:11:28Z</time>
      </trkpt>
      <trkpt lat="45.80581" lon="4.33652">
        <ele>611.53588</ele>
        <time>2011-07-09T09:11:34Z</time>
      </trkpt>
      <trkpt lat="45.80579" lon="4.33717">
        <ele>610.57446</ele>
        <time>2011-07-09T09:11:40Z</time>
      </trkpt>
      <trkpt lat="45.80579" lon="4.33782">
        <ele>610.57446</ele>
        <time>2011-07-09T09:11:47Z</time>
      </trkpt>
      <trkpt lat="45.80581" lon="4.33797">
        <ele>610.57446</ele>
        <time>2011-07-09T09:11:49Z</time>
      </trkpt>
      <trkpt lat="45.80585" lon="4.33815">
        <ele>611.05517</ele>
        <time>2011-07-09T09:11:52Z</time>
      </trkpt>
      <trkpt lat="45.80599" lon="4.33844">
        <ele>611.53588</ele>
        <time>2011-07-09T09:11:59Z</time>
      </trkpt>
      <trkpt lat="45.80608" lon="4.33857">
        <ele>611.53588</ele>
        <time>2011-07-09T09:12:03Z</time>
      </trkpt>
      <trkpt lat="45.80624" lon="4.33858">
        <ele>612.97778</ele>
        <time>2011-07-09T09:12:09Z</time>
      </trkpt>
      <trkpt lat="45.80644" lon="4.33862">
        <ele>614.41967</ele>
        <time>2011-07-09T09:12:17Z</time>
      </trkpt>
      <trkpt lat="45.80665" lon="4.33869">
        <ele>616.34228</ele>
        <time>2011-07-09T09:12:25Z</time>
      </trkpt>
      <trkpt lat="45.80681" lon="4.33875">
        <ele>619.22631</ele>
        <time>2011-07-09T09:12:32Z</time>
      </trkpt>
      <trkpt lat="45.80696" lon="4.3388">
        <ele>621.14916</ele>
        <time>2011-07-09T09:12:39Z</time>
      </trkpt>
      <trkpt lat="45.80713" lon="4.33883">
        <ele>623.55249</ele>
        <time>2011-07-09T09:12:46Z</time>
      </trkpt>
      <trkpt lat="45.80727" lon="4.33881">
        <ele>624.99438</ele>
        <time>2011-07-09T09:12:52Z</time>
      </trkpt>
      <trkpt lat="45.80741" lon="4.33881">
        <ele>626.43627</ele>
        <time>2011-07-09T09:12:57Z</time>
      </trkpt>
      <trkpt lat="45.80748" lon="4.33894">
        <ele>627.3977</ele>
        <time>2011-07-09T09:13:02Z</time>
      </trkpt>
      <trkpt lat="45.80755" lon="4.33908">
        <ele>628.35888</ele>
        <time>2011-07-09T09:13:07Z</time>
      </trkpt>
      <trkpt lat="45.80774" lon="4.33922">
        <ele>629.80078</ele>
        <time>2011-07-09T09:13:15Z</time>
      </trkpt>
      <trkpt lat="45.80797" lon="4.33932">
        <ele>633.16528</ele>
        <time>2011-07-09T09:13:24Z</time>
      </trkpt>
      <trkpt lat="45.80815" lon="4.33938">
        <ele>634.60742</ele>
        <time>2011-07-09T09:13:31Z</time>
      </trkpt>
      <trkpt lat="45.80833" lon="4.33943">
        <ele>636.04956</ele>
        <time>2011-07-09T09:13:38Z</time>
      </trkpt>
      <trkpt lat="45.80849" lon="4.33946">
        <ele>638.45288</ele>
        <time>2011-07-09T09:13:45Z</time>
      </trkpt>
      <trkpt lat="45.80866" lon="4.33948">
        <ele>638.93359</ele>
        <time>2011-07-09T09:13:52Z</time>
      </trkpt>
      <trkpt lat="45.80881" lon="4.33951">
        <ele>642.29809</ele>
        <time>2011-07-09T09:13:58Z</time>
      </trkpt>
      <trkpt lat="45.80896" lon="4.33953">
        <ele>643.73999</ele>
        <time>2011-07-09T09:14:04Z</time>
      </trkpt>
      <trkpt lat="45.80918" lon="4.33956">
        <ele>645.18188</ele>
        <time>2011-07-09T09:14:12Z</time>
      </trkpt>
      <trkpt lat="45.80941" lon="4.3396">
        <ele>647.10449</ele>
        <time>2011-07-09T09:14:20Z</time>
      </trkpt>
      <trkpt lat="45.80976" lon="4.3397">
        <ele>647.5852</ele>
        <time>2011-07-09T09:14:31Z</time>
      </trkpt>
      <trkpt lat="45.80997" lon="4.3398">
        <ele>648.06591</ele>
        <time>2011-07-09T09:14:38Z</time>
      </trkpt>
      <trkpt lat="45.81019" lon="4.33996">
        <ele>650.46923</ele>
        <time>2011-07-09T09:14:46Z</time>
      </trkpt>
      <trkpt lat="45.81034" lon="4.34008">
        <ele>650.9497</ele>
        <time>2011-07-09T09:14:52Z</time>
      </trkpt>
      <trkpt lat="45.81051" lon="4.34023">
        <ele>652.39184</ele>
        <time>2011-07-09T09:14:59Z</time>
      </trkpt>
      <trkpt lat="45.81072" lon="4.34038">
        <ele>653.83398</ele>
        <time>2011-07-09T09:15:07Z</time>
      </trkpt>
      <trkpt lat="45.81096" lon="4.34054">
        <ele>654.79516</ele>
        <time>2011-07-09T09:15:16Z</time>
      </trkpt>
      <trkpt lat="45.81113" lon="4.34059">
        <ele>655.75659</ele>
        <time>2011-07-09T09:15:22Z</time>
      </trkpt>
      <trkpt lat="45.8113" lon="4.34044">
        <ele>656.71777</ele>
        <time>2011-07-09T09:15:28Z</time>
      </trkpt>
      <trkpt lat="45.81148" lon="4.34028">
        <ele>656.71777</ele>
        <time>2011-07-09T09:15:35Z</time>
      </trkpt>
      <trkpt lat="45.8117" lon="4.34011">
        <ele>657.19848</ele>
        <time>2011-07-09T09:15:43Z</time>
      </trkpt>
      <trkpt lat="45.81186" lon="4.33998">
        <ele>657.19848</ele>
        <time>2011-07-09T09:15:49Z</time>
      </trkpt>
      <trkpt lat="45.81202" lon="4.33986">
        <ele>657.19848</ele>
        <time>2011-07-09T09:15:55Z</time>
      </trkpt>
      <trkpt lat="45.8122" lon="4.3398">
        <ele>658.64038</ele>
        <time>2011-07-09T09:16:02Z</time>
      </trkpt>
      <trkpt lat="45.81238" lon="4.3398">
        <ele>659.12109</ele>
        <time>2011-07-09T09:16:08Z</time>
      </trkpt>
      <trkpt lat="45.81262" lon="4.33981">
        <ele>659.6018</ele>
        <time>2011-07-09T09:16:16Z</time>
      </trkpt>
      <trkpt lat="45.81284" lon="4.33987">
        <ele>660.56298</ele>
        <time>2011-07-09T09:16:23Z</time>
      </trkpt>
      <trkpt lat="45.81308" lon="4.34006">
        <ele>661.0437</ele>
        <time>2011-07-09T09:16:31Z</time>
      </trkpt>
      <trkpt lat="45.8133" lon="4.34028">
        <ele>661.52441</ele>
        <time>2011-07-09T09:16:39Z</time>
      </trkpt>
      <trkpt lat="45.81352" lon="4.34051">
        <ele>662.48559</ele>
        <time>2011-07-09T09:16:47Z</time>
      </trkpt>
      <trkpt lat="45.81366" lon="4.3407">
        <ele>663.44702</ele>
        <time>2011-07-09T09:16:53Z</time>
      </trkpt>
      <trkpt lat="45.81376" lon="4.34088">
        <ele>664.88891</ele>
        <time>2011-07-09T09:16:59Z</time>
      </trkpt>
      <trkpt lat="45.81379" lon="4.34114">
        <ele>666.33081</ele>
        <time>2011-07-09T09:17:05Z</time>
      </trkpt>
      <trkpt lat="45.8138" lon="4.34121">
        <ele>667.7727</ele>
        <time>2011-07-09T09:17:07Z</time>
      </trkpt>
      <trkpt lat="45.81381" lon="4.34148">
        <ele>669.6958</ele>
        <time>2011-07-09T09:17:14Z</time>
      </trkpt>
      <trkpt lat="45.81381" lon="4.3417">
        <ele>671.13769</ele>
        <time>2011-07-09T09:17:21Z</time>
      </trkpt>
      <trkpt lat="45.81386" lon="4.34195">
        <ele>671.61816</ele>
        <time>2011-07-09T09:17:28Z</time>
      </trkpt>
      <trkpt lat="45.81392" lon="4.34222">
        <ele>674.02148</ele>
        <time>2011-07-09T09:17:36Z</time>
      </trkpt>
      <trkpt lat="45.81397" lon="4.34249">
        <ele>674.98291</ele>
        <time>2011-07-09T09:17:44Z</time>
      </trkpt>
      <trkpt lat="45.81403" lon="4.34278">
        <ele>675.46337</ele>
        <time>2011-07-09T09:17:52Z</time>
      </trkpt>
      <trkpt lat="45.81409" lon="4.34309">
        <ele>675.46337</ele>
        <time>2011-07-09T09:18:00Z</time>
      </trkpt>
      <trkpt lat="45.81415" lon="4.34333">
        <ele>675.46337</ele>
        <time>2011-07-09T09:18:06Z</time>
      </trkpt>
      <trkpt lat="45.81421" lon="4.34365">
        <ele>675.94409</ele>
        <time>2011-07-09T09:18:14Z</time>
      </trkpt>
      <trkpt lat="45.81428" lon="4.34401">
        <ele>676.4248</ele>
        <time>2011-07-09T09:18:23Z</time>
      </trkpt>
      <trkpt lat="45.81432" lon="4.34426">
        <ele>676.4248</ele>
        <time>2011-07-09T09:18:28Z</time>
      </trkpt>
      <trkpt lat="45.81442" lon="4.34479">
        <ele>675.94409</ele>
        <time>2011-07-09T09:18:37Z</time>
      </trkpt>
      <trkpt lat="45.81451" lon="4.34528">
        <ele>674.98291</ele>
        <time>2011-07-09T09:18:45Z</time>
      </trkpt>
      <trkpt lat="45.8146" lon="4.34577">
        <ele>674.98291</ele>
        <time>2011-07-09T09:18:53Z</time>
      </trkpt>
      <trkpt lat="45.81463" lon="4.34619">
        <ele>674.50219</ele>
        <time>2011-07-09T09:19:00Z</time>
      </trkpt>
      <trkpt lat="45.81464" lon="4.34625">
        <ele>674.02148</ele>
        <time>2011-07-09T09:19:01Z</time>
      </trkpt>
      <trkpt lat="45.81462" lon="4.34643">
        <ele>673.54101</ele>
        <time>2011-07-09T09:19:04Z</time>
      </trkpt>
      <trkpt lat="45.8146" lon="4.34667">
        <ele>674.02148</ele>
        <time>2011-07-09T09:19:08Z</time>
      </trkpt>
      <trkpt lat="45.81449" lon="4.34715">
        <ele>674.50219</ele>
        <time>2011-07-09T09:19:17Z</time>
      </trkpt>
      <trkpt lat="45.81439" lon="4.34759">
        <ele>675.46337</ele>
        <time>2011-07-09T09:19:26Z</time>
      </trkpt>
      <trkpt lat="45.81431" lon="4.34796">
        <ele>676.4248</ele>
        <time>2011-07-09T09:19:34Z</time>
      </trkpt>
      <trkpt lat="45.81425" lon="4.34827">
        <ele>677.86669</ele>
        <time>2011-07-09T09:19:41Z</time>
      </trkpt>
      <trkpt lat="45.81416" lon="4.34857">
        <ele>679.30859</ele>
        <time>2011-07-09T09:19:48Z</time>
      </trkpt>
      <trkpt lat="45.8141" lon="4.34886">
        <ele>680.27001</ele>
        <time>2011-07-09T09:19:55Z</time>
      </trkpt>
      <trkpt lat="45.81401" lon="4.3491">
        <ele>680.27001</ele>
        <time>2011-07-09T09:20:01Z</time>
      </trkpt>
      <trkpt lat="45.81393" lon="4.34934">
        <ele>681.23144</ele>
        <time>2011-07-09T09:20:07Z</time>
      </trkpt>
      <trkpt lat="45.81382" lon="4.34957">
        <ele>681.23144</ele>
        <time>2011-07-09T09:20:13Z</time>
      </trkpt>
      <trkpt lat="45.81365" lon="4.34993">
        <ele>681.23144</ele>
        <time>2011-07-09T09:20:22Z</time>
      </trkpt>
      <trkpt lat="45.81353" lon="4.35017">
        <ele>681.71191</ele>
        <time>2011-07-09T09:20:29Z</time>
      </trkpt>
      <trkpt lat="45.81337" lon="4.35051">
        <ele>683.63452</ele>
        <time>2011-07-09T09:20:41Z</time>
      </trkpt>
      <trkpt lat="45.81325" lon="4.35079">
        <ele>685.55737</ele>
        <time>2011-07-09T09:20:50Z</time>
      </trkpt>
      <trkpt lat="45.81314" lon="4.35105">
        <ele>686.99926</ele>
        <time>2011-07-09T09:20:58Z</time>
      </trkpt>
      <trkpt lat="45.81303" lon="4.35129">
        <ele>687.96069</ele>
        <time>2011-07-09T09:21:06Z</time>
      </trkpt>
      <trkpt lat="45.81288" lon="4.35157">
        <ele>688.4414</ele>
        <time>2011-07-09T09:21:15Z</time>
      </trkpt>
      <trkpt lat="45.81275" lon="4.35181">
        <ele>688.92211</ele>
        <time>2011-07-09T09:21:23Z</time>
      </trkpt>
      <trkpt lat="45.81272" lon="4.35192">
        <ele>690.36401</ele>
        <time>2011-07-09T09:21:26Z</time>
      </trkpt>
      <trkpt lat="45.81267" lon="4.35215">
        <ele>691.8059</ele>
        <time>2011-07-09T09:21:33Z</time>
      </trkpt>
      <trkpt lat="45.81262" lon="4.35242">
        <ele>693.2478</ele>
        <time>2011-07-09T09:21:42Z</time>
      </trkpt>
      <trkpt lat="45.8126" lon="4.35264">
        <ele>695.17041</ele>
        <time>2011-07-09T09:21:49Z</time>
      </trkpt>
      <trkpt lat="45.81256" lon="4.35287">
        <ele>697.57373</ele>
        <time>2011-07-09T09:21:57Z</time>
      </trkpt>
      <trkpt lat="45.81253" lon="4.3531">
        <ele>700.458</ele>
        <time>2011-07-09T09:22:05Z</time>
      </trkpt>
      <trkpt lat="45.81251" lon="4.35337">
        <ele>701.41918</ele>
        <time>2011-07-09T09:22:14Z</time>
      </trkpt>
      <trkpt lat="45.81244" lon="4.35372">
        <ele>702.86108</ele>
        <time>2011-07-09T09:22:25Z</time>
      </trkpt>
      <trkpt lat="45.81241" lon="4.35387">
        <ele>704.78369</ele>
        <time>2011-07-09T09:22:30Z</time>
      </trkpt>
      <trkpt lat="45.81239" lon="4.35407">
        <ele>706.22558</ele>
        <time>2011-07-09T09:22:37Z</time>
      </trkpt>
      <trkpt lat="45.81236" lon="4.35429">
        <ele>707.18701</ele>
        <time>2011-07-09T09:22:44Z</time>
      </trkpt>
      <trkpt lat="45.81231" lon="4.35456">
        <ele>709.10961</ele>
        <time>2011-07-09T09:22:53Z</time>
      </trkpt>
      <trkpt lat="45.81224" lon="4.35486">
        <ele>710.0708</ele>
        <time>2011-07-09T09:23:02Z</time>
      </trkpt>
      <trkpt lat="45.8122" lon="4.35521">
        <ele>711.51293</ele>
        <time>2011-07-09T09:23:11Z</time>
      </trkpt>
      <trkpt lat="45.81217" lon="4.35559">
        <ele>712.47412</ele>
        <time>2011-07-09T09:23:20Z</time>
      </trkpt>
      <trkpt lat="45.81211" lon="4.35589">
        <ele>712.95483</ele>
        <time>2011-07-09T09:23:27Z</time>
      </trkpt>
      <trkpt lat="45.81207" lon="4.3562">
        <ele>713.43554</ele>
        <time>2011-07-09T09:23:34Z</time>
      </trkpt>
      <trkpt lat="45.81206" lon="4.35637">
        <ele>714.39672</ele>
        <time>2011-07-09T09:23:38Z</time>
      </trkpt>
      <trkpt lat="45.812" lon="4.35661">
        <ele>717.76147</ele>
        <time>2011-07-09T09:23:45Z</time>
      </trkpt>
      <trkpt lat="45.81195" lon="4.35671">
        <ele>718.7229</ele>
        <time>2011-07-09T09:23:50Z</time>
      </trkpt>
      <trkpt lat="45.81186" lon="4.35681">
        <ele>720.16479</ele>
        <time>2011-07-09T09:23:55Z</time>
      </trkpt>
      <trkpt lat="45.81182" lon="4.35693">
        <ele>721.12622</ele>
        <time>2011-07-09T09:24:01Z</time>
      </trkpt>
      <trkpt lat="45.8118" lon="4.35706">
        <ele>722.0874</ele>
        <time>2011-07-09T09:24:10Z</time>
      </trkpt>
      <trkpt lat="45.81179" lon="4.35707">
        <ele>721.60668</ele>
        <time>2011-07-09T09:24:16Z</time>
      </trkpt>
      <trkpt lat="45.81178" lon="4.35703">
        <ele>721.60668</ele>
        <time>2011-07-09T09:24:35Z</time>
      </trkpt>
      <trkpt lat="45.81179" lon="4.35707">
        <ele>721.60668</ele>
        <time>2011-07-09T09:24:56Z</time>
      </trkpt>
      <trkpt lat="45.81177" lon="4.35699">
        <ele>721.60668</ele>
        <time>2011-07-09T09:25:36Z</time>
      </trkpt>
      <trkpt lat="45.81174" lon="4.35699">
        <ele>721.12622</ele>
        <time>2011-07-09T09:26:16Z</time>
      </trkpt>
      <trkpt lat="45.81177" lon="4.35712">
        <ele>721.60668</ele>
        <time>2011-07-09T09:27:04Z</time>
      </trkpt>
      <trkpt lat="45.81179" lon="4.35708">
        <ele>721.60668</ele>
        <time>2011-07-09T09:27:45Z</time>
      </trkpt>
      <trkpt lat="45.81182" lon="4.3571">
        <ele>721.60668</ele>
        <time>2011-07-09T09:28:05Z</time>
      </trkpt>
      <trkpt lat="45.81178" lon="4.35713">
        <ele>722.0874</ele>
        <time>2011-07-09T09:28:22Z</time>
      </trkpt>
      <trkpt lat="45.81177" lon="4.35715">
        <ele>722.56811</ele>
        <time>2011-07-09T09:28:43Z</time>
      </trkpt>
      <trkpt lat="45.81175" lon="4.35729">
        <ele>723.52954</ele>
        <time>2011-07-09T09:28:50Z</time>
      </trkpt>
      <trkpt lat="45.81175" lon="4.35734">
        <ele>724.01</ele>
        <time>2011-07-09T09:28:52Z</time>
      </trkpt>
      <trkpt lat="45.81176" lon="4.35751">
        <ele>724.01</ele>
        <time>2011-07-09T09:28:58Z</time>
      </trkpt>
      <trkpt lat="45.81177" lon="4.35763">
        <ele>725.93261</ele>
        <time>2011-07-09T09:29:02Z</time>
      </trkpt>
      <trkpt lat="45.81181" lon="4.35784">
        <ele>726.89404</ele>
        <time>2011-07-09T09:29:08Z</time>
      </trkpt>
      <trkpt lat="45.81184" lon="4.35803">
        <ele>727.37475</ele>
        <time>2011-07-09T09:29:13Z</time>
      </trkpt>
      <trkpt lat="45.81188" lon="4.35824">
        <ele>727.85522</ele>
        <time>2011-07-09T09:29:19Z</time>
      </trkpt>
      <trkpt lat="45.81189" lon="4.3585">
        <ele>728.81665</ele>
        <time>2011-07-09T09:29:24Z</time>
      </trkpt>
      <trkpt lat="45.81191" lon="4.35871">
        <ele>728.81665</ele>
        <time>2011-07-09T09:29:29Z</time>
      </trkpt>
      <trkpt lat="45.81198" lon="4.35893">
        <ele>727.37475</ele>
        <time>2011-07-09T09:29:33Z</time>
      </trkpt>
      <trkpt lat="45.81206" lon="4.35917">
        <ele>724.01</ele>
        <time>2011-07-09T09:29:36Z</time>
      </trkpt>
      <trkpt lat="45.81214" lon="4.35932">
        <ele>723.04882</ele>
        <time>2011-07-09T09:29:38Z</time>
      </trkpt>
      <trkpt lat="45.81231" lon="4.35949">
        <ele>724.01</ele>
        <time>2011-07-09T09:29:42Z</time>
      </trkpt>
      <trkpt lat="45.8124" lon="4.35928">
        <ele>723.52954</ele>
        <time>2011-07-09T09:29:46Z</time>
      </trkpt>
      <trkpt lat="45.8126" lon="4.35904">
        <ele>723.52954</ele>
        <time>2011-07-09T09:29:52Z</time>
      </trkpt>
      <trkpt lat="45.81276" lon="4.35892">
        <ele>724.01</ele>
        <time>2011-07-09T09:29:56Z</time>
      </trkpt>
      <trkpt lat="45.81291" lon="4.3588">
        <ele>724.97143</ele>
        <time>2011-07-09T09:30:01Z</time>
      </trkpt>
      <trkpt lat="45.81303" lon="4.35862">
        <ele>725.93261</ele>
        <time>2011-07-09T09:30:07Z</time>
      </trkpt>
      <trkpt lat="45.8132" lon="4.35841">
        <ele>725.93261</ele>
        <time>2011-07-09T09:30:13Z</time>
      </trkpt>
      <trkpt lat="45.81328" lon="4.3583">
        <ele>726.41333</ele>
        <time>2011-07-09T09:30:16Z</time>
      </trkpt>
      <trkpt lat="45.81349" lon="4.35807">
        <ele>725.93261</ele>
        <time>2011-07-09T09:30:22Z</time>
      </trkpt>
      <trkpt lat="45.81352" lon="4.35804">
        <ele>726.41333</ele>
        <time>2011-07-09T09:30:23Z</time>
      </trkpt>
      <trkpt lat="45.81372" lon="4.35787">
        <ele>727.37475</ele>
        <time>2011-07-09T09:30:29Z</time>
      </trkpt>
      <trkpt lat="45.81392" lon="4.35773">
        <ele>726.89404</ele>
        <time>2011-07-09T09:30:35Z</time>
      </trkpt>
      <trkpt lat="45.81415" lon="4.3577">
        <ele>728.81665</ele>
        <time>2011-07-09T09:30:41Z</time>
      </trkpt>
      <trkpt lat="45.81418" lon="4.3577">
        <ele>729.29711</ele>
        <time>2011-07-09T09:30:42Z</time>
      </trkpt>
      <trkpt lat="45.81423" lon="4.35768">
        <ele>729.77783</ele>
        <time>2011-07-09T09:30:44Z</time>
      </trkpt>
      <trkpt lat="45.81432" lon="4.35767">
        <ele>731.70043</ele>
        <time>2011-07-09T09:30:49Z</time>
      </trkpt>
      <trkpt lat="45.81443" lon="4.35763">
        <ele>731.70043</ele>
        <time>2011-07-09T09:30:54Z</time>
      </trkpt>
      <trkpt lat="45.81455" lon="4.35759">
        <ele>732.18139</ele>
        <time>2011-07-09T09:30:59Z</time>
      </trkpt>
      <trkpt lat="45.8147" lon="4.35748">
        <ele>732.18139</ele>
        <time>2011-07-09T09:31:04Z</time>
      </trkpt>
      <trkpt lat="45.81493" lon="4.35738">
        <ele>733.14257</ele>
        <time>2011-07-09T09:31:10Z</time>
      </trkpt>
      <trkpt lat="45.81511" lon="4.35732">
        <ele>733.62329</ele>
        <time>2011-07-09T09:31:15Z</time>
      </trkpt>
      <trkpt lat="45.81532" lon="4.35725">
        <ele>733.62329</ele>
        <time>2011-07-09T09:31:21Z</time>
      </trkpt>
      <trkpt lat="45.8155" lon="4.35722">
        <ele>735.06542</ele>
        <time>2011-07-09T09:31:27Z</time>
      </trkpt>
      <trkpt lat="45.81553" lon="4.35723">
        <ele>735.06542</ele>
        <time>2011-07-09T09:31:28Z</time>
      </trkpt>
      <trkpt lat="45.8156" lon="4.35727">
        <ele>736.50732</ele>
        <time>2011-07-09T09:31:32Z</time>
      </trkpt>
      <trkpt lat="45.81564" lon="4.35742">
        <ele>739.39111</ele>
        <time>2011-07-09T09:31:39Z</time>
      </trkpt>
      <trkpt lat="45.81565" lon="4.35746">
        <ele>739.87182</ele>
        <time>2011-07-09T09:31:41Z</time>
      </trkpt>
      <trkpt lat="45.81565" lon="4.35755">
        <ele>741.31372</ele>
        <time>2011-07-09T09:31:45Z</time>
      </trkpt>
      <trkpt lat="45.81566" lon="4.35768">
        <ele>744.19775</ele>
        <time>2011-07-09T09:31:52Z</time>
      </trkpt>
      <trkpt lat="45.81565" lon="4.35785">
        <ele>745.63964</ele>
        <time>2011-07-09T09:31:59Z</time>
      </trkpt>
      <trkpt lat="45.81564" lon="4.35802">
        <ele>748.04321</ele>
        <time>2011-07-09T09:32:06Z</time>
      </trkpt>
      <trkpt lat="45.81565" lon="4.35808">
        <ele>748.52368</ele>
        <time>2011-07-09T09:32:09Z</time>
      </trkpt>
      <trkpt lat="45.81564" lon="4.35822">
        <ele>749.4851</ele>
        <time>2011-07-09T09:32:16Z</time>
      </trkpt>
      <trkpt lat="45.81562" lon="4.35836">
        <ele>750.927</ele>
        <time>2011-07-09T09:32:24Z</time>
      </trkpt>
      <trkpt lat="45.81563" lon="4.35845">
        <ele>751.40771</ele>
        <time>2011-07-09T09:32:29Z</time>
      </trkpt>
      <trkpt lat="45.81563" lon="4.35865">
        <ele>753.33032</ele>
        <time>2011-07-09T09:32:36Z</time>
      </trkpt>
      <trkpt lat="45.8156" lon="4.35877">
        <ele>754.77221</ele>
        <time>2011-07-09T09:32:42Z</time>
      </trkpt>
      <trkpt lat="45.81557" lon="4.35887">
        <ele>756.21411</ele>
        <time>2011-07-09T09:32:48Z</time>
      </trkpt>
      <trkpt lat="45.81555" lon="4.35892">
        <ele>757.17553</ele>
        <time>2011-07-09T09:32:50Z</time>
      </trkpt>
      <trkpt lat="45.81548" lon="4.35905">
        <ele>758.13696</ele>
        <time>2011-07-09T09:32:55Z</time>
      </trkpt>
      <trkpt lat="45.81541" lon="4.3592">
        <ele>760.05932</ele>
        <time>2011-07-09T09:33:03Z</time>
      </trkpt>
      <trkpt lat="45.81539" lon="4.35932">
        <ele>760.54003</ele>
        <time>2011-07-09T09:33:08Z</time>
      </trkpt>
      <trkpt lat="45.81533" lon="4.35946">
        <ele>761.98217</ele>
        <time>2011-07-09T09:33:15Z</time>
      </trkpt>
      <trkpt lat="45.81524" lon="4.35966">
        <ele>763.42407</ele>
        <time>2011-07-09T09:33:23Z</time>
      </trkpt>
      <trkpt lat="45.81517" lon="4.35984">
        <ele>765.82763</ele>
        <time>2011-07-09T09:33:30Z</time>
      </trkpt>
      <trkpt lat="45.81508" lon="4.36003">
        <ele>766.3081</ele>
        <time>2011-07-09T09:33:37Z</time>
      </trkpt>
      <trkpt lat="45.81506" lon="4.36009">
        <ele>767.26953</ele>
        <time>2011-07-09T09:33:43Z</time>
      </trkpt>
      <trkpt lat="45.81502" lon="4.36004">
        <ele>767.26953</ele>
        <time>2011-07-09T09:34:47Z</time>
      </trkpt>
      <trkpt lat="45.81502" lon="4.36007">
        <ele>767.26953</ele>
        <time>2011-07-09T09:34:57Z</time>
      </trkpt>
      <trkpt lat="45.81503" lon="4.36008">
        <ele>767.26953</ele>
        <time>2011-07-09T09:35:06Z</time>
      </trkpt>
      <trkpt lat="45.815" lon="4.36007">
        <ele>767.26953</ele>
        <time>2011-07-09T09:35:13Z</time>
      </trkpt>
      <trkpt lat="45.81503" lon="4.36014">
        <ele>768.23071</ele>
        <time>2011-07-09T09:35:32Z</time>
      </trkpt>
      <trkpt lat="45.81512" lon="4.36029">
        <ele>765.82763</ele>
        <time>2011-07-09T09:35:38Z</time>
      </trkpt>
      <trkpt lat="45.8153" lon="4.36048">
        <ele>764.38549</ele>
        <time>2011-07-09T09:35:42Z</time>
      </trkpt>
      <trkpt lat="45.81534" lon="4.36055">
        <ele>763.90454</ele>
        <time>2011-07-09T09:35:43Z</time>
      </trkpt>
      <trkpt lat="45.81551" lon="4.36088">
        <ele>762.94335</ele>
        <time>2011-07-09T09:35:49Z</time>
      </trkpt>
      <trkpt lat="45.81573" lon="4.36104">
        <ele>761.50146</ele>
        <time>2011-07-09T09:35:54Z</time>
      </trkpt>
      <trkpt lat="45.81591" lon="4.36107">
        <ele>760.05932</ele>
        <time>2011-07-09T09:35:57Z</time>
      </trkpt>
      <trkpt lat="45.81608" lon="4.36105">
        <ele>759.57885</ele>
        <time>2011-07-09T09:36:00Z</time>
      </trkpt>
      <trkpt lat="45.81648" lon="4.36108">
        <ele>755.73364</ele>
        <time>2011-07-09T09:36:05Z</time>
      </trkpt>
      <trkpt lat="45.81655" lon="4.36107">
        <ele>756.21411</ele>
        <time>2011-07-09T09:36:06Z</time>
      </trkpt>
      <trkpt lat="45.81676" lon="4.36104">
        <ele>755.25292</ele>
        <time>2011-07-09T09:36:08Z</time>
      </trkpt>
      <trkpt lat="45.81731" lon="4.36088">
        <ele>751.88842</ele>
        <time>2011-07-09T09:36:14Z</time>
      </trkpt>
      <trkpt lat="45.81746" lon="4.3608">
        <ele>751.88842</ele>
        <time>2011-07-09T09:36:17Z</time>
      </trkpt>
      <trkpt lat="45.81754" lon="4.36073">
        <ele>751.40771</ele>
        <time>2011-07-09T09:36:19Z</time>
      </trkpt>
      <trkpt lat="45.81763" lon="4.36063">
        <ele>750.44653</ele>
        <time>2011-07-09T09:36:21Z</time>
      </trkpt>
      <trkpt lat="45.81793" lon="4.36043">
        <ele>748.52368</ele>
        <time>2011-07-09T09:36:26Z</time>
      </trkpt>
      <trkpt lat="45.81806" lon="4.36039">
        <ele>748.52368</ele>
        <time>2011-07-09T09:36:28Z</time>
      </trkpt>
      <trkpt lat="45.81836" lon="4.36037">
        <ele>747.56225</ele>
        <time>2011-07-09T09:36:34Z</time>
      </trkpt>
      <trkpt lat="45.81855" lon="4.36037">
        <ele>748.04321</ele>
        <time>2011-07-09T09:36:39Z</time>
      </trkpt>
      <trkpt lat="45.81873" lon="4.3604">
        <ele>747.56225</ele>
        <time>2011-07-09T09:36:45Z</time>
      </trkpt>
      <trkpt lat="45.8189" lon="4.36043">
        <ele>745.15893</ele>
        <time>2011-07-09T09:36:50Z</time>
      </trkpt>
      <trkpt lat="45.81896" lon="4.36045">
        <ele>744.67822</ele>
        <time>2011-07-09T09:36:51Z</time>
      </trkpt>
      <trkpt lat="45.81922" lon="4.36057">
        <ele>742.75585</ele>
        <time>2011-07-09T09:36:55Z</time>
      </trkpt>
      <trkpt lat="45.81964" lon="4.3609">
        <ele>740.833</ele>
        <time>2011-07-09T09:37:02Z</time>
      </trkpt>
      <trkpt lat="45.81993" lon="4.36119">
        <ele>738.42993</ele>
        <time>2011-07-09T09:37:07Z</time>
      </trkpt>
      <trkpt lat="45.82033" lon="4.3615">
        <ele>736.02661</ele>
        <time>2011-07-09T09:37:13Z</time>
      </trkpt>
      <trkpt lat="45.82066" lon="4.36177">
        <ele>735.54589</ele>
        <time>2011-07-09T09:37:18Z</time>
      </trkpt>
      <trkpt lat="45.82075" lon="4.36185">
        <ele>734.58471</ele>
        <time>2011-07-09T09:37:21Z</time>
      </trkpt>
      <trkpt lat="45.82076" lon="4.36197">
        <ele>735.54589</ele>
        <time>2011-07-09T09:37:26Z</time>
      </trkpt>
      <trkpt lat="45.82075" lon="4.36207">
        <ele>736.98779</ele>
        <time>2011-07-09T09:37:31Z</time>
      </trkpt>
      <trkpt lat="45.82071" lon="4.36217">
        <ele>737.94921</ele>
        <time>2011-07-09T09:37:37Z</time>
      </trkpt>
      <trkpt lat="45.82063" lon="4.36222">
        <ele>739.87182</ele>
        <time>2011-07-09T09:37:45Z</time>
      </trkpt>
      <trkpt lat="45.82059" lon="4.36223">
        <ele>741.31372</ele>
        <time>2011-07-09T09:37:49Z</time>
      </trkpt>
      <trkpt lat="45.82052" lon="4.36223">
        <ele>742.75585</ele>
        <time>2011-07-09T09:37:55Z</time>
      </trkpt>
      <trkpt lat="45.82042" lon="4.36226">
        <ele>744.67822</ele>
        <time>2011-07-09T09:38:01Z</time>
      </trkpt>
      <trkpt lat="45.8203" lon="4.36229">
        <ele>745.63964</ele>
        <time>2011-07-09T09:38:06Z</time>
      </trkpt>
      <trkpt lat="45.8202" lon="4.36231">
        <ele>747.08154</ele>
        <time>2011-07-09T09:38:12Z</time>
      </trkpt>
      <trkpt lat="45.82019" lon="4.36232">
        <ele>747.08154</ele>
        <time>2011-07-09T09:38:13Z</time>
      </trkpt>
      <trkpt lat="45.82019" lon="4.36233">
        <ele>747.08154</ele>
        <time>2011-07-09T09:38:14Z</time>
      </trkpt>
      <trkpt lat="45.8201" lon="4.36234">
        <ele>749.4851</ele>
        <time>2011-07-09T09:38:22Z</time>
      </trkpt>
      <trkpt lat="45.82001" lon="4.36235">
        <ele>751.40771</ele>
        <time>2011-07-09T09:38:29Z</time>
      </trkpt>
      <trkpt lat="45.81992" lon="4.36236">
        <ele>752.36889</ele>
        <time>2011-07-09T09:38:34Z</time>
      </trkpt>
      <trkpt lat="45.81984" lon="4.36236">
        <ele>753.33032</ele>
        <time>2011-07-09T09:38:41Z</time>
      </trkpt>
      <trkpt lat="45.81974" lon="4.36237">
        <ele>754.29174</ele>
        <time>2011-07-09T09:38:48Z</time>
      </trkpt>
      <trkpt lat="45.81972" lon="4.36237">
        <ele>755.73364</ele>
        <time>2011-07-09T09:38:51Z</time>
      </trkpt>
      <trkpt lat="45.81965" lon="4.36239">
        <ele>757.65625</ele>
        <time>2011-07-09T09:38:56Z</time>
      </trkpt>
      <trkpt lat="45.81959" lon="4.3624">
        <ele>758.61743</ele>
        <time>2011-07-09T09:39:02Z</time>
      </trkpt>
      <trkpt lat="45.81957" lon="4.36241">
        <ele>760.05932</ele>
        <time>2011-07-09T09:39:04Z</time>
      </trkpt>
      <trkpt lat="45.81948" lon="4.36241">
        <ele>761.98217</ele>
        <time>2011-07-09T09:39:11Z</time>
      </trkpt>
      <trkpt lat="45.8194" lon="4.36243">
        <ele>762.94335</ele>
        <time>2011-07-09T09:39:18Z</time>
      </trkpt>
      <trkpt lat="45.81933" lon="4.36247">
        <ele>764.86621</ele>
        <time>2011-07-09T09:39:25Z</time>
      </trkpt>
      <trkpt lat="45.81932" lon="4.36247">
        <ele>764.86621</ele>
        <time>2011-07-09T09:39:26Z</time>
      </trkpt>
      <trkpt lat="45.81922" lon="4.36253">
        <ele>766.78881</ele>
        <time>2011-07-09T09:39:33Z</time>
      </trkpt>
      <trkpt lat="45.81912" lon="4.36264">
        <ele>768.71142</ele>
        <time>2011-07-09T09:39:40Z</time>
      </trkpt>
      <trkpt lat="45.81906" lon="4.36272">
        <ele>769.67285</ele>
        <time>2011-07-09T09:39:45Z</time>
      </trkpt>
      <trkpt lat="45.81902" lon="4.36278">
        <ele>773.03735</ele>
        <time>2011-07-09T09:39:51Z</time>
      </trkpt>
      <trkpt lat="45.81894" lon="4.36282">
        <ele>774.95996</ele>
        <time>2011-07-09T09:39:57Z</time>
      </trkpt>
      <trkpt lat="45.8189" lon="4.36282">
        <ele>776.40185</ele>
        <time>2011-07-09T09:40:01Z</time>
      </trkpt>
      <trkpt lat="45.81887" lon="4.36283">
        <ele>777.36328</ele>
        <time>2011-07-09T09:40:03Z</time>
      </trkpt>
      <trkpt lat="45.81877" lon="4.36287">
        <ele>778.32446</ele>
        <time>2011-07-09T09:40:12Z</time>
      </trkpt>
      <trkpt lat="45.81874" lon="4.36288">
        <ele>779.28564</ele>
        <time>2011-07-09T09:40:14Z</time>
      </trkpt>
      <trkpt lat="45.8187" lon="4.36288">
        <ele>779.76635</ele>
        <time>2011-07-09T09:40:17Z</time>
      </trkpt>
      <trkpt lat="45.81862" lon="4.36293">
        <ele>780.72802</ele>
        <time>2011-07-09T09:40:23Z</time>
      </trkpt>
      <trkpt lat="45.81856" lon="4.36297">
        <ele>782.16992</ele>
        <time>2011-07-09T09:40:29Z</time>
      </trkpt>
      <trkpt lat="45.81849" lon="4.36302">
        <ele>782.65063</ele>
        <time>2011-07-09T09:40:36Z</time>
      </trkpt>
      <trkpt lat="45.81841" lon="4.36305">
        <ele>784.09252</ele>
        <time>2011-07-09T09:40:43Z</time>
      </trkpt>
      <trkpt lat="45.81834" lon="4.36308">
        <ele>784.09252</ele>
        <time>2011-07-09T09:40:50Z</time>
      </trkpt>
      <trkpt lat="45.81833" lon="4.36308">
        <ele>784.09252</ele>
        <time>2011-07-09T09:40:51Z</time>
      </trkpt>
      <trkpt lat="45.81823" lon="4.36316">
        <ele>784.57324</ele>
        <time>2011-07-09T09:40:58Z</time>
      </trkpt>
      <trkpt lat="45.81819" lon="4.3632">
        <ele>785.05395</ele>
        <time>2011-07-09T09:41:01Z</time>
      </trkpt>
      <trkpt lat="45.81816" lon="4.36324">
        <ele>786.49584</ele>
        <time>2011-07-09T09:41:05Z</time>
      </trkpt>
      <trkpt lat="45.81808" lon="4.36335">
        <ele>788.41845</ele>
        <time>2011-07-09T09:41:10Z</time>
      </trkpt>
      <trkpt lat="45.81801" lon="4.3634">
        <ele>789.37963</ele>
        <time>2011-07-09T09:41:13Z</time>
      </trkpt>
      <trkpt lat="45.81787" lon="4.36354">
        <ele>791.78295</ele>
        <time>2011-07-09T09:41:20Z</time>
      </trkpt>
      <trkpt lat="45.81777" lon="4.36363">
        <ele>792.74438</ele>
        <time>2011-07-09T09:41:26Z</time>
      </trkpt>
      <trkpt lat="45.8177" lon="4.36372">
        <ele>793.70556</ele>
        <time>2011-07-09T09:41:32Z</time>
      </trkpt>
      <trkpt lat="45.81761" lon="4.36382">
        <ele>794.18627</ele>
        <time>2011-07-09T09:41:38Z</time>
      </trkpt>
      <trkpt lat="45.81749" lon="4.36396">
        <ele>794.66674</ele>
        <time>2011-07-09T09:41:44Z</time>
      </trkpt>
      <trkpt lat="45.81737" lon="4.36402">
        <ele>795.14746</ele>
        <time>2011-07-09T09:41:50Z</time>
      </trkpt>
      <trkpt lat="45.8172" lon="4.36405">
        <ele>796.58984</ele>
        <time>2011-07-09T09:41:56Z</time>
      </trkpt>
      <trkpt lat="45.81706" lon="4.36409">
        <ele>798.5122</ele>
        <time>2011-07-09T09:42:00Z</time>
      </trkpt>
      <trkpt lat="45.81689" lon="4.36413">
        <ele>799.47363</ele>
        <time>2011-07-09T09:42:06Z</time>
      </trkpt>
      <trkpt lat="45.81678" lon="4.3642">
        <ele>799.47363</ele>
        <time>2011-07-09T09:42:11Z</time>
      </trkpt>
      <trkpt lat="45.8167" lon="4.3643">
        <ele>800.43505</ele>
        <time>2011-07-09T09:42:16Z</time>
      </trkpt>
      <trkpt lat="45.81657" lon="4.36445">
        <ele>801.39624</ele>
        <time>2011-07-09T09:42:21Z</time>
      </trkpt>
      <trkpt lat="45.81645" lon="4.36461">
        <ele>802.83813</ele>
        <time>2011-07-09T09:42:28Z</time>
      </trkpt>
      <trkpt lat="45.81629" lon="4.36478">
        <ele>803.31884</ele>
        <time>2011-07-09T09:42:32Z</time>
      </trkpt>
      <trkpt lat="45.81608" lon="4.36503">
        <ele>803.79956</ele>
        <time>2011-07-09T09:42:38Z</time>
      </trkpt>
      <trkpt lat="45.81595" lon="4.36529">
        <ele>804.28027</ele>
        <time>2011-07-09T09:42:44Z</time>
      </trkpt>
      <trkpt lat="45.81584" lon="4.36549">
        <ele>803.79956</ele>
        <time>2011-07-09T09:42:48Z</time>
      </trkpt>
      <trkpt lat="45.81579" lon="4.36555">
        <ele>804.28027</ele>
        <time>2011-07-09T09:42:49Z</time>
      </trkpt>
      <trkpt lat="45.81568" lon="4.3657">
        <ele>803.79956</ele>
        <time>2011-07-09T09:42:51Z</time>
      </trkpt>
      <trkpt lat="45.81542" lon="4.36608">
        <ele>802.83813</ele>
        <time>2011-07-09T09:42:57Z</time>
      </trkpt>
      <trkpt lat="45.81536" lon="4.36615">
        <ele>802.35742</ele>
        <time>2011-07-09T09:42:59Z</time>
      </trkpt>
      <trkpt lat="45.81524" lon="4.36628">
        <ele>802.83813</ele>
        <time>2011-07-09T09:43:02Z</time>
      </trkpt>
      <trkpt lat="45.81516" lon="4.36656">
        <ele>802.83813</ele>
        <time>2011-07-09T09:43:06Z</time>
      </trkpt>
      <trkpt lat="45.81521" lon="4.3669">
        <ele>803.79956</ele>
        <time>2011-07-09T09:43:10Z</time>
      </trkpt>
      <trkpt lat="45.81517" lon="4.36714">
        <ele>804.28027</ele>
        <time>2011-07-09T09:43:13Z</time>
      </trkpt>
      <trkpt lat="45.81513" lon="4.36744">
        <ele>805.72216</ele>
        <time>2011-07-09T09:43:20Z</time>
      </trkpt>
      <trkpt lat="45.81512" lon="4.36768">
        <ele>807.16406</ele>
        <time>2011-07-09T09:43:27Z</time>
      </trkpt>
      <trkpt lat="45.81512" lon="4.36778">
        <ele>807.64477</ele>
        <time>2011-07-09T09:43:32Z</time>
      </trkpt>
      <trkpt lat="45.8151" lon="4.36793">
        <ele>808.60595</ele>
        <time>2011-07-09T09:43:41Z</time>
      </trkpt>
      <trkpt lat="45.81509" lon="4.36806">
        <ele>811.00927</ele>
        <time>2011-07-09T09:43:48Z</time>
      </trkpt>
      <trkpt lat="45.81508" lon="4.36821">
        <ele>811.48999</ele>
        <time>2011-07-09T09:43:56Z</time>
      </trkpt>
      <trkpt lat="45.81507" lon="4.36836">
        <ele>812.45141</ele>
        <time>2011-07-09T09:44:03Z</time>
      </trkpt>
      <trkpt lat="45.81506" lon="4.36856">
        <ele>813.41284</ele>
        <time>2011-07-09T09:44:12Z</time>
      </trkpt>
      <trkpt lat="45.81505" lon="4.36875">
        <ele>813.89331</ele>
        <time>2011-07-09T09:44:20Z</time>
      </trkpt>
      <trkpt lat="45.81504" lon="4.36891">
        <ele>814.85473</ele>
        <time>2011-07-09T09:44:27Z</time>
      </trkpt>
      <trkpt lat="45.81502" lon="4.36905">
        <ele>816.29663</ele>
        <time>2011-07-09T09:44:34Z</time>
      </trkpt>
      <trkpt lat="45.81501" lon="4.36913">
        <ele>816.77734</ele>
        <time>2011-07-09T09:44:38Z</time>
      </trkpt>
      <trkpt lat="45.815" lon="4.36918">
        <ele>817.25805</ele>
        <time>2011-07-09T09:44:45Z</time>
      </trkpt>
      <trkpt lat="45.815" lon="4.36918">
        <ele>816.77734</ele>
        <time>2011-07-09T09:45:07Z</time>
      </trkpt>
      <trkpt lat="45.815" lon="4.36916">
        <ele>815.81616</ele>
        <time>2011-07-09T09:46:35Z</time>
      </trkpt>
      <trkpt lat="45.815" lon="4.36922">
        <ele>816.77734</ele>
        <time>2011-07-09T09:47:45Z</time>
      </trkpt>
      <trkpt lat="45.81499" lon="4.36938">
        <ele>817.73852</ele>
        <time>2011-07-09T09:47:51Z</time>
      </trkpt>
      <trkpt lat="45.81497" lon="4.36954">
        <ele>818.69995</ele>
        <time>2011-07-09T09:47:56Z</time>
      </trkpt>
      <trkpt lat="45.8149" lon="4.36972">
        <ele>818.21923</ele>
        <time>2011-07-09T09:48:04Z</time>
      </trkpt>
      <trkpt lat="45.81483" lon="4.36984">
        <ele>819.66137</ele>
        <time>2011-07-09T09:48:10Z</time>
      </trkpt>
      <trkpt lat="45.81475" lon="4.36999">
        <ele>819.66137</ele>
        <time>2011-07-09T09:48:17Z</time>
      </trkpt>
      <trkpt lat="45.81469" lon="4.37016">
        <ele>820.14184</ele>
        <time>2011-07-09T09:48:24Z</time>
      </trkpt>
      <trkpt lat="45.81463" lon="4.37031">
        <ele>820.14184</ele>
        <time>2011-07-09T09:48:30Z</time>
      </trkpt>
      <trkpt lat="45.81459" lon="4.37044">
        <ele>820.14184</ele>
        <time>2011-07-09T09:48:35Z</time>
      </trkpt>
      <trkpt lat="45.81454" lon="4.37063">
        <ele>820.62255</ele>
        <time>2011-07-09T09:48:41Z</time>
      </trkpt>
      <trkpt lat="45.81443" lon="4.37083">
        <ele>819.18066</ele>
        <time>2011-07-09T09:48:46Z</time>
      </trkpt>
      <trkpt lat="45.81447" lon="4.37098">
        <ele>818.69995</ele>
        <time>2011-07-09T09:48:51Z</time>
      </trkpt>
      <trkpt lat="45.8145" lon="4.371">
        <ele>818.69995</ele>
        <time>2011-07-09T09:48:52Z</time>
      </trkpt>
      <trkpt lat="45.81472" lon="4.3711">
        <ele>821.10327</ele>
        <time>2011-07-09T09:49:00Z</time>
      </trkpt>
      <trkpt lat="45.81487" lon="4.37117">
        <ele>823.02587</ele>
        <time>2011-07-09T09:49:08Z</time>
      </trkpt>
      <trkpt lat="45.8149" lon="4.37118">
        <ele>823.50659</ele>
        <time>2011-07-09T09:49:10Z</time>
      </trkpt>
      <trkpt lat="45.81493" lon="4.37119">
        <ele>823.02587</ele>
        <time>2011-07-09T09:49:12Z</time>
      </trkpt>
      <trkpt lat="45.81507" lon="4.37129">
        <ele>824.46777</ele>
        <time>2011-07-09T09:49:21Z</time>
      </trkpt>
      <trkpt lat="45.81524" lon="4.37133">
        <ele>825.90966</ele>
        <time>2011-07-09T09:49:28Z</time>
      </trkpt>
      <trkpt lat="45.81536" lon="4.37133">
        <ele>826.39038</ele>
        <time>2011-07-09T09:49:34Z</time>
      </trkpt>
      <trkpt lat="45.81537" lon="4.37133">
        <ele>826.87109</ele>
        <time>2011-07-09T09:49:35Z</time>
      </trkpt>
      <trkpt lat="45.81548" lon="4.37134">
        <ele>826.87109</ele>
        <time>2011-07-09T09:49:40Z</time>
      </trkpt>
      <trkpt lat="45.81562" lon="4.37138">
        <ele>826.87109</ele>
        <time>2011-07-09T09:49:45Z</time>
      </trkpt>
      <trkpt lat="45.81576" lon="4.37138">
        <ele>828.31323</ele>
        <time>2011-07-09T09:49:53Z</time>
      </trkpt>
      <trkpt lat="45.81587" lon="4.3714">
        <ele>829.27441</ele>
        <time>2011-07-09T09:50:00Z</time>
      </trkpt>
      <trkpt lat="45.816" lon="4.37142">
        <ele>830.23583</ele>
        <time>2011-07-09T09:50:06Z</time>
      </trkpt>
      <trkpt lat="45.81616" lon="4.37146">
        <ele>831.67773</ele>
        <time>2011-07-09T09:50:12Z</time>
      </trkpt>
      <trkpt lat="45.81623" lon="4.37155">
        <ele>833.11962</ele>
        <time>2011-07-09T09:50:17Z</time>
      </trkpt>
      <trkpt lat="45.81635" lon="4.37165">
        <ele>834.08105</ele>
        <time>2011-07-09T09:50:22Z</time>
      </trkpt>
      <trkpt lat="45.81653" lon="4.37174">
        <ele>834.56176</ele>
        <time>2011-07-09T09:50:28Z</time>
      </trkpt>
      <trkpt lat="45.81667" lon="4.37178">
        <ele>833.60034</ele>
        <time>2011-07-09T09:50:33Z</time>
      </trkpt>
      <trkpt lat="45.81682" lon="4.37192">
        <ele>835.04248</ele>
        <time>2011-07-09T09:50:39Z</time>
      </trkpt>
      <trkpt lat="45.81686" lon="4.37197">
        <ele>834.56176</ele>
        <time>2011-07-09T09:50:41Z</time>
      </trkpt>
      <trkpt lat="45.81701" lon="4.37213">
        <ele>834.56176</ele>
        <time>2011-07-09T09:50:48Z</time>
      </trkpt>
      <trkpt lat="45.81716" lon="4.37232">
        <ele>834.56176</ele>
        <time>2011-07-09T09:50:54Z</time>
      </trkpt>
      <trkpt lat="45.81732" lon="4.37256">
        <ele>835.52294</ele>
        <time>2011-07-09T09:51:00Z</time>
      </trkpt>
      <trkpt lat="45.81744" lon="4.37275">
        <ele>836.96484</ele>
        <time>2011-07-09T09:51:06Z</time>
      </trkpt>
      <trkpt lat="45.81754" lon="4.3729">
        <ele>838.40698</ele>
        <time>2011-07-09T09:51:11Z</time>
      </trkpt>
      <trkpt lat="45.81764" lon="4.37305">
        <ele>838.40698</ele>
        <time>2011-07-09T09:51:17Z</time>
      </trkpt>
      <trkpt lat="45.81776" lon="4.37333">
        <ele>837.44555</ele>
        <time>2011-07-09T09:51:23Z</time>
      </trkpt>
      <trkpt lat="45.8178" lon="4.37351">
        <ele>836.96484</ele>
        <time>2011-07-09T09:51:26Z</time>
      </trkpt>
      <trkpt lat="45.81786" lon="4.37372">
        <ele>835.04248</ele>
        <time>2011-07-09T09:51:29Z</time>
      </trkpt>
      <trkpt lat="45.81799" lon="4.37399">
        <ele>834.56176</ele>
        <time>2011-07-09T09:51:33Z</time>
      </trkpt>
      <trkpt lat="45.81807" lon="4.37416">
        <ele>833.11962</ele>
        <time>2011-07-09T09:51:35Z</time>
      </trkpt>
      <trkpt lat="45.8181" lon="4.37426">
        <ele>832.15844</ele>
        <time>2011-07-09T09:51:36Z</time>
      </trkpt>
      <trkpt lat="45.81828" lon="4.37471">
        <ele>829.75512</ele>
        <time>2011-07-09T09:51:40Z</time>
      </trkpt>
      <trkpt lat="45.81838" lon="4.3751">
        <ele>828.79394</ele>
        <time>2011-07-09T09:51:43Z</time>
      </trkpt>
      <trkpt lat="45.81854" lon="4.37573">
        <ele>827.83227</ele>
        <time>2011-07-09T09:51:48Z</time>
      </trkpt>
      <trkpt lat="45.81863" lon="4.37613">
        <ele>825.90966</ele>
        <time>2011-07-09T09:51:52Z</time>
      </trkpt>
      <trkpt lat="45.81874" lon="4.37658">
        <ele>823.50659</ele>
        <time>2011-07-09T09:51:56Z</time>
      </trkpt>
      <trkpt lat="45.81876" lon="4.37715">
        <ele>820.14184</ele>
        <time>2011-07-09T09:52:00Z</time>
      </trkpt>
      <trkpt lat="45.8187" lon="4.37754">
        <ele>816.77734</ele>
        <time>2011-07-09T09:52:03Z</time>
      </trkpt>
      <trkpt lat="45.81865" lon="4.37782">
        <ele>811.9707</ele>
        <time>2011-07-09T09:52:05Z</time>
      </trkpt>
      <trkpt lat="45.81858" lon="4.37808">
        <ele>808.60595</ele>
        <time>2011-07-09T09:52:07Z</time>
      </trkpt>
      <trkpt lat="45.81848" lon="4.3785">
        <ele>806.20263</ele>
        <time>2011-07-09T09:52:10Z</time>
      </trkpt>
      <trkpt lat="45.81859" lon="4.37903">
        <ele>802.83813</ele>
        <time>2011-07-09T09:52:14Z</time>
      </trkpt>
      <trkpt lat="45.81861" lon="4.37916">
        <ele>802.35742</ele>
        <time>2011-07-09T09:52:15Z</time>
      </trkpt>
      <trkpt lat="45.81865" lon="4.37952">
        <ele>799.47363</ele>
        <time>2011-07-09T09:52:18Z</time>
      </trkpt>
      <trkpt lat="45.81853" lon="4.37975">
        <ele>797.55102</ele>
        <time>2011-07-09T09:52:21Z</time>
      </trkpt>
      <trkpt lat="45.81842" lon="4.37994">
        <ele>795.62817</ele>
        <time>2011-07-09T09:52:24Z</time>
      </trkpt>
      <trkpt lat="45.8184" lon="4.38014">
        <ele>795.62817</ele>
        <time>2011-07-09T09:52:27Z</time>
      </trkpt>
      <trkpt lat="45.81826" lon="4.38068">
        <ele>794.66674</ele>
        <time>2011-07-09T09:52:36Z</time>
      </trkpt>
      <trkpt lat="45.81812" lon="4.38115">
        <ele>794.66674</ele>
        <time>2011-07-09T09:52:44Z</time>
      </trkpt>
      <trkpt lat="45.81799" lon="4.38161">
        <ele>794.66674</ele>
        <time>2011-07-09T09:52:52Z</time>
      </trkpt>
      <trkpt lat="45.81789" lon="4.38188">
        <ele>795.14746</ele>
        <time>2011-07-09T09:52:57Z</time>
      </trkpt>
      <trkpt lat="45.81771" lon="4.38223">
        <ele>793.70556</ele>
        <time>2011-07-09T09:53:04Z</time>
      </trkpt>
      <trkpt lat="45.8176" lon="4.3824">
        <ele>792.26367</ele>
        <time>2011-07-09T09:53:07Z</time>
      </trkpt>
      <trkpt lat="45.81755" lon="4.38267">
        <ele>791.30224</ele>
        <time>2011-07-09T09:53:10Z</time>
      </trkpt>
      <trkpt lat="45.81764" lon="4.38294">
        <ele>789.86035</ele>
        <time>2011-07-09T09:53:13Z</time>
      </trkpt>
      <trkpt lat="45.81784" lon="4.38308">
        <ele>786.97631</ele>
        <time>2011-07-09T09:53:16Z</time>
      </trkpt>
      <trkpt lat="45.818" lon="4.38315">
        <ele>786.49584</ele>
        <time>2011-07-09T09:53:18Z</time>
      </trkpt>
      <trkpt lat="45.81835" lon="4.38345">
        <ele>785.05395</ele>
        <time>2011-07-09T09:53:23Z</time>
      </trkpt>
      <trkpt lat="45.8185" lon="4.38378">
        <ele>785.05395</ele>
        <time>2011-07-09T09:53:27Z</time>
      </trkpt>
      <trkpt lat="45.81856" lon="4.38405">
        <ele>783.61181</ele>
        <time>2011-07-09T09:53:32Z</time>
      </trkpt>
      <trkpt lat="45.81857" lon="4.38417">
        <ele>784.09252</ele>
        <time>2011-07-09T09:53:34Z</time>
      </trkpt>
      <trkpt lat="45.8186" lon="4.38457">
        <ele>785.53442</ele>
        <time>2011-07-09T09:53:41Z</time>
      </trkpt>
      <trkpt lat="45.81871" lon="4.38483">
        <ele>786.49584</ele>
        <time>2011-07-09T09:53:48Z</time>
      </trkpt>
      <trkpt lat="45.81884" lon="4.38504">
        <ele>787.45703</ele>
        <time>2011-07-09T09:53:54Z</time>
      </trkpt>
      <trkpt lat="45.81904" lon="4.38526">
        <ele>788.89916</ele>
        <time>2011-07-09T09:54:02Z</time>
      </trkpt>
      <trkpt lat="45.81922" lon="4.38551">
        <ele>789.86035</ele>
        <time>2011-07-09T09:54:10Z</time>
      </trkpt>
      <trkpt lat="45.81928" lon="4.38564">
        <ele>790.82153</ele>
        <time>2011-07-09T09:54:15Z</time>
      </trkpt>
      <trkpt lat="45.81928" lon="4.38566">
        <ele>790.82153</ele>
        <time>2011-07-09T09:54:16Z</time>
      </trkpt>
      <trkpt lat="45.81937" lon="4.38574">
        <ele>792.26367</ele>
        <time>2011-07-09T09:54:24Z</time>
      </trkpt>
      <trkpt lat="45.81941" lon="4.38573">
        <ele>790.82153</ele>
        <time>2011-07-09T09:54:31Z</time>
      </trkpt>
      <trkpt lat="45.81942" lon="4.38574">
        <ele>790.82153</ele>
        <time>2011-07-09T09:54:38Z</time>
      </trkpt>
      <trkpt lat="45.81936" lon="4.38576">
        <ele>790.34106</ele>
        <time>2011-07-09T09:54:54Z</time>
      </trkpt>
      <trkpt lat="45.8195" lon="4.38572">
        <ele>790.82153</ele>
        <time>2011-07-09T09:55:01Z</time>
      </trkpt>
      <trkpt lat="45.81947" lon="4.38573">
        <ele>790.82153</ele>
        <time>2011-07-09T09:55:06Z</time>
      </trkpt>
      <trkpt lat="45.81945" lon="4.38574">
        <ele>790.82153</ele>
        <time>2011-07-09T09:55:09Z</time>
      </trkpt>
      <trkpt lat="45.81944" lon="4.38575">
        <ele>790.82153</ele>
        <time>2011-07-09T09:55:16Z</time>
      </trkpt>
      <trkpt lat="45.81941" lon="4.38579">
        <ele>790.34106</ele>
        <time>2011-07-09T09:55:29Z</time>
      </trkpt>
      <trkpt lat="45.8194" lon="4.3858">
        <ele>790.82153</ele>
        <time>2011-07-09T09:55:39Z</time>
      </trkpt>
      <trkpt lat="45.81941" lon="4.38578">
        <ele>791.30224</ele>
        <time>2011-07-09T09:55:47Z</time>
      </trkpt>
      <trkpt lat="45.81946" lon="4.3858">
        <ele>791.30224</ele>
        <time>2011-07-09T09:55:51Z</time>
      </trkpt>
      <trkpt lat="45.8196" lon="4.38588">
        <ele>793.22485</ele>
        <time>2011-07-09T09:55:58Z</time>
      </trkpt>
      <trkpt lat="45.81973" lon="4.38581">
        <ele>793.70556</ele>
        <time>2011-07-09T09:56:04Z</time>
      </trkpt>
      <trkpt lat="45.81988" lon="4.38571">
        <ele>793.70556</ele>
        <time>2011-07-09T09:56:11Z</time>
      </trkpt>
      <trkpt lat="45.8199" lon="4.38571">
        <ele>794.18627</ele>
        <time>2011-07-09T09:56:12Z</time>
      </trkpt>
      <trkpt lat="45.81997" lon="4.38577">
        <ele>794.66674</ele>
        <time>2011-07-09T09:56:16Z</time>
      </trkpt>
      <trkpt lat="45.82008" lon="4.3859">
        <ele>796.10913</ele>
        <time>2011-07-09T09:56:24Z</time>
      </trkpt>
      <trkpt lat="45.82019" lon="4.38598">
        <ele>797.55102</ele>
        <time>2011-07-09T09:56:31Z</time>
      </trkpt>
      <trkpt lat="45.82024" lon="4.38602">
        <ele>798.99291</ele>
        <time>2011-07-09T09:56:34Z</time>
      </trkpt>
      <trkpt lat="45.82039" lon="4.38615">
        <ele>800.91552</ele>
        <time>2011-07-09T09:56:43Z</time>
      </trkpt>
      <trkpt lat="45.82045" lon="4.38626">
        <ele>801.87695</ele>
        <time>2011-07-09T09:56:49Z</time>
      </trkpt>
      <trkpt lat="45.82048" lon="4.38632">
        <ele>803.31884</ele>
        <time>2011-07-09T09:56:53Z</time>
      </trkpt>
      <trkpt lat="45.82052" lon="4.38638">
        <ele>805.24145</ele>
        <time>2011-07-09T09:56:57Z</time>
      </trkpt>
      <trkpt lat="45.82057" lon="4.38647">
        <ele>806.20263</ele>
        <time>2011-07-09T09:57:03Z</time>
      </trkpt>
      <trkpt lat="45.82062" lon="4.38656">
        <ele>808.12548</ele>
        <time>2011-07-09T09:57:10Z</time>
      </trkpt>
      <trkpt lat="45.82065" lon="4.3867">
        <ele>809.56738</ele>
        <time>2011-07-09T09:57:17Z</time>
      </trkpt>
      <trkpt lat="45.82071" lon="4.3868">
        <ele>810.04785</ele>
        <time>2011-07-09T09:57:24Z</time>
      </trkpt>
      <trkpt lat="45.82076" lon="4.38686">
        <ele>811.9707</ele>
        <time>2011-07-09T09:57:29Z</time>
      </trkpt>
      <trkpt lat="45.82079" lon="4.38692">
        <ele>813.89331</ele>
        <time>2011-07-09T09:57:32Z</time>
      </trkpt>
      <trkpt lat="45.82085" lon="4.38699">
        <ele>814.85473</ele>
        <time>2011-07-09T09:57:38Z</time>
      </trkpt>
      <trkpt lat="45.8209" lon="4.38706">
        <ele>816.77734</ele>
        <time>2011-07-09T09:57:48Z</time>
      </trkpt>
      <trkpt lat="45.82099" lon="4.38711">
        <ele>818.21923</ele>
        <time>2011-07-09T09:57:56Z</time>
      </trkpt>
      <trkpt lat="45.82102" lon="4.38719">
        <ele>818.69995</ele>
        <time>2011-07-09T09:58:05Z</time>
      </trkpt>
      <trkpt lat="45.82106" lon="4.38723">
        <ele>820.14184</ele>
        <time>2011-07-09T09:58:11Z</time>
      </trkpt>
      <trkpt lat="45.82109" lon="4.38725">
        <ele>821.58374</ele>
        <time>2011-07-09T09:58:19Z</time>
      </trkpt>
      <trkpt lat="45.82114" lon="4.38731">
        <ele>822.54516</ele>
        <time>2011-07-09T09:58:26Z</time>
      </trkpt>
      <trkpt lat="45.82118" lon="4.38739">
        <ele>823.50659</ele>
        <time>2011-07-09T09:58:33Z</time>
      </trkpt>
      <trkpt lat="45.82125" lon="4.38747">
        <ele>825.42895</ele>
        <time>2011-07-09T09:58:43Z</time>
      </trkpt>
      <trkpt lat="45.82127" lon="4.38752">
        <ele>826.39038</ele>
        <time>2011-07-09T09:58:49Z</time>
      </trkpt>
      <trkpt lat="45.82128" lon="4.38757">
        <ele>826.87109</ele>
        <time>2011-07-09T09:58:55Z</time>
      </trkpt>
      <trkpt lat="45.8213" lon="4.3876">
        <ele>827.83227</ele>
        <time>2011-07-09T09:59:00Z</time>
      </trkpt>
      <trkpt lat="45.8213" lon="4.38767">
        <ele>828.31323</ele>
        <time>2011-07-09T09:59:06Z</time>
      </trkpt>
      <trkpt lat="45.8213" lon="4.3877">
        <ele>828.31323</ele>
        <time>2011-07-09T09:59:10Z</time>
      </trkpt>
      <trkpt lat="45.82132" lon="4.38779">
        <ele>829.75512</ele>
        <time>2011-07-09T09:59:15Z</time>
      </trkpt>
      <trkpt lat="45.82136" lon="4.38789">
        <ele>831.19726</ele>
        <time>2011-07-09T09:59:21Z</time>
      </trkpt>
      <trkpt lat="45.82142" lon="4.38798">
        <ele>832.63916</ele>
        <time>2011-07-09T09:59:26Z</time>
      </trkpt>
      <trkpt lat="45.82145" lon="4.38804">
        <ele>833.11962</ele>
        <time>2011-07-09T09:59:29Z</time>
      </trkpt>
      <trkpt lat="45.82153" lon="4.38811">
        <ele>834.56176</ele>
        <time>2011-07-09T09:59:36Z</time>
      </trkpt>
      <trkpt lat="45.82157" lon="4.38816">
        <ele>836.96484</ele>
        <time>2011-07-09T09:59:41Z</time>
      </trkpt>
      <trkpt lat="45.82159" lon="4.38818">
        <ele>836.48437</ele>
        <time>2011-07-09T09:59:42Z</time>
      </trkpt>
      <trkpt lat="45.82164" lon="4.38823">
        <ele>837.92626</ele>
        <time>2011-07-09T09:59:46Z</time>
      </trkpt>
      <trkpt lat="45.82173" lon="4.38833">
        <ele>838.88769</ele>
        <time>2011-07-09T09:59:52Z</time>
      </trkpt>
      <trkpt lat="45.82181" lon="4.3885">
        <ele>839.84887</ele>
        <time>2011-07-09T09:59:58Z</time>
      </trkpt>
      <trkpt lat="45.82186" lon="4.38868">
        <ele>839.36816</ele>
        <time>2011-07-09T10:00:04Z</time>
      </trkpt>
      <trkpt lat="45.8219" lon="4.38883">
        <ele>840.32958</ele>
        <time>2011-07-09T10:00:09Z</time>
      </trkpt>
      <trkpt lat="45.82197" lon="4.38906">
        <ele>842.25219</ele>
        <time>2011-07-09T10:00:16Z</time>
      </trkpt>
      <trkpt lat="45.82206" lon="4.38932">
        <ele>844.17504</ele>
        <time>2011-07-09T10:00:24Z</time>
      </trkpt>
      <trkpt lat="45.82212" lon="4.38953">
        <ele>845.13623</ele>
        <time>2011-07-09T10:00:30Z</time>
      </trkpt>
      <trkpt lat="45.82214" lon="4.38969">
        <ele>846.57836</ele>
        <time>2011-07-09T10:00:36Z</time>
      </trkpt>
      <trkpt lat="45.8222" lon="4.38989">
        <ele>848.02026</ele>
        <time>2011-07-09T10:00:43Z</time>
      </trkpt>
      <trkpt lat="45.82224" lon="4.39006">
        <ele>849.46215</ele>
        <time>2011-07-09T10:00:50Z</time>
      </trkpt>
      <trkpt lat="45.82227" lon="4.39023">
        <ele>850.42358</ele>
        <time>2011-07-09T10:00:55Z</time>
      </trkpt>
      <trkpt lat="45.8223" lon="4.39042">
        <ele>851.38476</ele>
        <time>2011-07-09T10:01:01Z</time>
      </trkpt>
      <trkpt lat="45.82232" lon="4.39062">
        <ele>851.86547</ele>
        <time>2011-07-09T10:01:07Z</time>
      </trkpt>
      <trkpt lat="45.82236" lon="4.39085">
        <ele>852.82666</ele>
        <time>2011-07-09T10:01:13Z</time>
      </trkpt>
      <trkpt lat="45.82241" lon="4.3911">
        <ele>854.26879</ele>
        <time>2011-07-09T10:01:18Z</time>
      </trkpt>
      <trkpt lat="45.82248" lon="4.39133">
        <ele>855.22998</ele>
        <time>2011-07-09T10:01:23Z</time>
      </trkpt>
      <trkpt lat="45.82251" lon="4.39153">
        <ele>856.19116</ele>
        <time>2011-07-09T10:01:28Z</time>
      </trkpt>
      <trkpt lat="45.82262" lon="4.39177">
        <ele>856.67187</ele>
        <time>2011-07-09T10:01:35Z</time>
      </trkpt>
      <trkpt lat="45.8227" lon="4.3919">
        <ele>858.11401</ele>
        <time>2011-07-09T10:01:41Z</time>
      </trkpt>
      <trkpt lat="45.8227" lon="4.39206">
        <ele>860.03662</ele>
        <time>2011-07-09T10:01:48Z</time>
      </trkpt>
      <trkpt lat="45.82274" lon="4.39221">
        <ele>861.47875</ele>
        <time>2011-07-09T10:01:54Z</time>
      </trkpt>
      <trkpt lat="45.82276" lon="4.39227">
        <ele>862.43994</ele>
        <time>2011-07-09T10:01:56Z</time>
      </trkpt>
      <trkpt lat="45.82274" lon="4.39237">
        <ele>863.40136</ele>
        <time>2011-07-09T10:02:01Z</time>
      </trkpt>
      <trkpt lat="45.82279" lon="4.3926">
        <ele>865.32397</ele>
        <time>2011-07-09T10:02:09Z</time>
      </trkpt>
      <trkpt lat="45.82284" lon="4.39279">
        <ele>866.76586</ele>
        <time>2011-07-09T10:02:16Z</time>
      </trkpt>
      <trkpt lat="45.82286" lon="4.39283">
        <ele>867.24658</ele>
        <time>2011-07-09T10:02:18Z</time>
      </trkpt>
      <trkpt lat="45.8229" lon="4.39296">
        <ele>868.68847</ele>
        <time>2011-07-09T10:02:25Z</time>
      </trkpt>
      <trkpt lat="45.82292" lon="4.39299">
        <ele>869.16918</ele>
        <time>2011-07-09T10:02:27Z</time>
      </trkpt>
      <trkpt lat="45.82293" lon="4.39316">
        <ele>870.13037</ele>
        <time>2011-07-09T10:02:35Z</time>
      </trkpt>
      <trkpt lat="45.82291" lon="4.39328">
        <ele>871.09179</ele>
        <time>2011-07-09T10:02:40Z</time>
      </trkpt>
      <trkpt lat="45.82295" lon="4.39343">
        <ele>871.57226</ele>
        <time>2011-07-09T10:02:47Z</time>
      </trkpt>
      <trkpt lat="45.82299" lon="4.39351">
        <ele>873.0144</ele>
        <time>2011-07-09T10:02:50Z</time>
      </trkpt>
      <trkpt lat="45.823" lon="4.39358">
        <ele>873.0144</ele>
        <time>2011-07-09T10:02:55Z</time>
      </trkpt>
      <trkpt lat="45.82305" lon="4.39366">
        <ele>874.93701</ele>
        <time>2011-07-09T10:03:02Z</time>
      </trkpt>
      <trkpt lat="45.82312" lon="4.39376">
        <ele>875.89819</ele>
        <time>2011-07-09T10:03:07Z</time>
      </trkpt>
      <trkpt lat="45.82324" lon="4.39388">
        <ele>876.85986</ele>
        <time>2011-07-09T10:03:13Z</time>
      </trkpt>
      <trkpt lat="45.82338" lon="4.39408">
        <ele>878.30175</ele>
        <time>2011-07-09T10:03:21Z</time>
      </trkpt>
      <trkpt lat="45.82352" lon="4.39425">
        <ele>878.78247</ele>
        <time>2011-07-09T10:03:28Z</time>
      </trkpt>
      <trkpt lat="45.82357" lon="4.39434">
        <ele>877.82104</ele>
        <time>2011-07-09T10:03:32Z</time>
      </trkpt>
      <trkpt lat="45.82369" lon="4.39446">
        <ele>877.82104</ele>
        <time>2011-07-09T10:03:39Z</time>
      </trkpt>
      <trkpt lat="45.8237" lon="4.3945">
        <ele>878.30175</ele>
        <time>2011-07-09T10:03:44Z</time>
      </trkpt>
      <trkpt lat="45.82371" lon="4.39455">
        <ele>878.30175</ele>
        <time>2011-07-09T10:03:47Z</time>
      </trkpt>
      <trkpt lat="45.82378" lon="4.39477">
        <ele>878.78247</ele>
        <time>2011-07-09T10:03:55Z</time>
      </trkpt>
      <trkpt lat="45.82386" lon="4.39491">
        <ele>879.26293</ele>
        <time>2011-07-09T10:04:00Z</time>
      </trkpt>
      <trkpt lat="45.82393" lon="4.39509">
        <ele>879.74365</ele>
        <time>2011-07-09T10:04:06Z</time>
      </trkpt>
      <trkpt lat="45.82406" lon="4.39525">
        <ele>881.18579</ele>
        <time>2011-07-09T10:04:13Z</time>
      </trkpt>
      <trkpt lat="45.8242" lon="4.3954">
        <ele>881.18579</ele>
        <time>2011-07-09T10:04:20Z</time>
      </trkpt>
      <trkpt lat="45.82433" lon="4.39551">
        <ele>883.10815</ele>
        <time>2011-07-09T10:04:26Z</time>
      </trkpt>
      <trkpt lat="45.82438" lon="4.39556">
        <ele>883.58886</ele>
        <time>2011-07-09T10:04:31Z</time>
      </trkpt>
      <trkpt lat="45.8245" lon="4.39565">
        <ele>886.4729</ele>
        <time>2011-07-09T10:04:39Z</time>
      </trkpt>
      <trkpt lat="45.82455" lon="4.39571">
        <ele>887.91479</ele>
        <time>2011-07-09T10:04:45Z</time>
      </trkpt>
      <trkpt lat="45.82465" lon="4.39585">
        <ele>890.31811</ele>
        <time>2011-07-09T10:04:53Z</time>
      </trkpt>
      <trkpt lat="45.82471" lon="4.39592">
        <ele>891.76</ele>
        <time>2011-07-09T10:04:58Z</time>
      </trkpt>
      <trkpt lat="45.82477" lon="4.39597">
        <ele>893.20214</ele>
        <time>2011-07-09T10:05:04Z</time>
      </trkpt>
      <trkpt lat="45.82481" lon="4.39607">
        <ele>895.12475</ele>
        <time>2011-07-09T10:05:11Z</time>
      </trkpt>
      <trkpt lat="45.8248" lon="4.39616">
        <ele>896.56689</ele>
        <time>2011-07-09T10:05:17Z</time>
      </trkpt>
      <trkpt lat="45.82482" lon="4.39622">
        <ele>897.52807</ele>
        <time>2011-07-09T10:05:21Z</time>
      </trkpt>
      <trkpt lat="45.82487" lon="4.39631">
        <ele>900.89257</ele>
        <time>2011-07-09T10:05:28Z</time>
      </trkpt>
      <trkpt lat="45.82494" lon="4.39637">
        <ele>902.33447</ele>
        <time>2011-07-09T10:05:35Z</time>
      </trkpt>
      <trkpt lat="45.82497" lon="4.39638">
        <ele>902.81518</ele>
        <time>2011-07-09T10:05:39Z</time>
      </trkpt>
      <trkpt lat="45.82511" lon="4.39639">
        <ele>902.33447</ele>
        <time>2011-07-09T10:05:47Z</time>
      </trkpt>
      <trkpt lat="45.82519" lon="4.39639">
        <ele>902.81518</ele>
        <time>2011-07-09T10:05:53Z</time>
      </trkpt>
      <trkpt lat="45.82529" lon="4.39643">
        <ele>904.25732</ele>
        <time>2011-07-09T10:05:59Z</time>
      </trkpt>
      <trkpt lat="45.8254" lon="4.39641">
        <ele>905.69921</ele>
        <time>2011-07-09T10:06:07Z</time>
      </trkpt>
      <trkpt lat="45.82545" lon="4.39642">
        <ele>905.69921</ele>
        <time>2011-07-09T10:06:10Z</time>
      </trkpt>
      <trkpt lat="45.82557" lon="4.39651">
        <ele>906.17968</ele>
        <time>2011-07-09T10:06:18Z</time>
      </trkpt>
      <trkpt lat="45.82559" lon="4.39652">
        <ele>906.17968</ele>
        <time>2011-07-09T10:06:19Z</time>
      </trkpt>
      <trkpt lat="45.82568" lon="4.39663">
        <ele>905.2185</ele>
        <time>2011-07-09T10:06:24Z</time>
      </trkpt>
      <trkpt lat="45.82573" lon="4.39675">
        <ele>905.2185</ele>
        <time>2011-07-09T10:06:30Z</time>
      </trkpt>
      <trkpt lat="45.82577" lon="4.39675">
        <ele>905.69921</ele>
        <time>2011-07-09T10:06:34Z</time>
      </trkpt>
      <trkpt lat="45.82581" lon="4.39677">
        <ele>904.73779</ele>
        <time>2011-07-09T10:06:41Z</time>
      </trkpt>
      <trkpt lat="45.82585" lon="4.39679">
        <ele>904.73779</ele>
        <time>2011-07-09T10:06:55Z</time>
      </trkpt>
      <trkpt lat="45.82586" lon="4.39678">
        <ele>904.25732</ele>
        <time>2011-07-09T10:07:05Z</time>
      </trkpt>
      <trkpt lat="45.82589" lon="4.39683">
        <ele>904.25732</ele>
        <time>2011-07-09T10:07:14Z</time>
      </trkpt>
      <trkpt lat="45.8259" lon="4.39684">
        <ele>905.2185</ele>
        <time>2011-07-09T10:07:23Z</time>
      </trkpt>
      <trkpt lat="45.82577" lon="4.39682">
        <ele>905.2185</ele>
        <time>2011-07-09T10:07:47Z</time>
      </trkpt>
      <trkpt lat="45.82583" lon="4.39684">
        <ele>905.2185</ele>
        <time>2011-07-09T10:07:56Z</time>
      </trkpt>
      <trkpt lat="45.82581" lon="4.39682">
        <ele>905.69921</ele>
        <time>2011-07-09T10:08:10Z</time>
      </trkpt>
      <trkpt lat="45.82583" lon="4.39681">
        <ele>904.73779</ele>
        <time>2011-07-09T10:08:21Z</time>
      </trkpt>
      <trkpt lat="45.82583" lon="4.3968">
        <ele>905.2185</ele>
        <time>2011-07-09T10:08:31Z</time>
      </trkpt>
      <trkpt lat="45.82583" lon="4.39679">
        <ele>905.2185</ele>
        <time>2011-07-09T10:08:39Z</time>
      </trkpt>
      <trkpt lat="45.82584" lon="4.3968">
        <ele>905.69921</ele>
        <time>2011-07-09T10:08:48Z</time>
      </trkpt>
      <trkpt lat="45.82586" lon="4.39681">
        <ele>905.69921</ele>
        <time>2011-07-09T10:08:57Z</time>
      </trkpt>
      <trkpt lat="45.8259" lon="4.39683">
        <ele>905.69921</ele>
        <time>2011-07-09T10:09:18Z</time>
      </trkpt>
      <trkpt lat="45.82577" lon="4.39678">
        <ele>906.6604</ele>
        <time>2011-07-09T10:10:04Z</time>
      </trkpt>
      <trkpt lat="45.82576" lon="4.39678">
        <ele>905.69921</ele>
        <time>2011-07-09T10:10:14Z</time>
      </trkpt>
      <trkpt lat="45.82573" lon="4.3968">
        <ele>906.17968</ele>
        <time>2011-07-09T10:10:26Z</time>
      </trkpt>
      <trkpt lat="45.82572" lon="4.39682">
        <ele>906.6604</ele>
        <time>2011-07-09T10:10:33Z</time>
      </trkpt>
      <trkpt lat="45.82573" lon="4.39684">
        <ele>906.17968</ele>
        <time>2011-07-09T10:10:48Z</time>
      </trkpt>
      <trkpt lat="45.82575" lon="4.39681">
        <ele>906.6604</ele>
        <time>2011-07-09T10:11:18Z</time>
      </trkpt>
      <trkpt lat="45.82578" lon="4.39679">
        <ele>906.6604</ele>
        <time>2011-07-09T10:11:30Z</time>
      </trkpt>
      <trkpt lat="45.8258" lon="4.39679">
        <ele>906.6604</ele>
        <time>2011-07-09T10:11:51Z</time>
      </trkpt>
      <trkpt lat="45.82582" lon="4.39676">
        <ele>906.6604</ele>
        <time>2011-07-09T10:12:25Z</time>
      </trkpt>
      <trkpt lat="45.82589" lon="4.39682">
        <ele>905.69921</ele>
        <time>2011-07-09T10:12:36Z</time>
      </trkpt>
      <trkpt lat="45.82592" lon="4.3969">
        <ele>902.81518</ele>
        <time>2011-07-09T10:12:39Z</time>
      </trkpt>
      <trkpt lat="45.82599" lon="4.39701">
        <ele>899.93139</ele>
        <time>2011-07-09T10:12:42Z</time>
      </trkpt>
      <trkpt lat="45.82606" lon="4.39716">
        <ele>898.96997</ele>
        <time>2011-07-09T10:12:45Z</time>
      </trkpt>
      <trkpt lat="45.82599" lon="4.39742">
        <ele>894.64404</ele>
        <time>2011-07-09T10:12:50Z</time>
      </trkpt>
      <trkpt lat="45.82597" lon="4.39761">
        <ele>889.35668</ele>
        <time>2011-07-09T10:12:54Z</time>
      </trkpt>
      <trkpt lat="45.82598" lon="4.39777">
        <ele>890.79858</ele>
        <time>2011-07-09T10:13:00Z</time>
      </trkpt>
      <trkpt lat="45.82608" lon="4.39786">
        <ele>892.72167</ele>
        <time>2011-07-09T10:13:05Z</time>
      </trkpt>
      <trkpt lat="45.82618" lon="4.39786">
        <ele>894.16357</ele>
        <time>2011-07-09T10:13:10Z</time>
      </trkpt>
      <trkpt lat="45.82635" lon="4.39783">
        <ele>894.16357</ele>
        <time>2011-07-09T10:13:16Z</time>
      </trkpt>
      <trkpt lat="45.82649" lon="4.39787">
        <ele>892.72167</ele>
        <time>2011-07-09T10:13:20Z</time>
      </trkpt>
      <trkpt lat="45.82666" lon="4.39793">
        <ele>889.35668</ele>
        <time>2011-07-09T10:13:24Z</time>
      </trkpt>
      <trkpt lat="45.82678" lon="4.39798">
        <ele>888.3955</ele>
        <time>2011-07-09T10:13:26Z</time>
      </trkpt>
      <trkpt lat="45.82689" lon="4.39802">
        <ele>886.4729</ele>
        <time>2011-07-09T10:13:28Z</time>
      </trkpt>
      <trkpt lat="45.82702" lon="4.3981">
        <ele>881.66625</ele>
        <time>2011-07-09T10:13:31Z</time>
      </trkpt>
      <trkpt lat="45.82709" lon="4.39819">
        <ele>878.78247</ele>
        <time>2011-07-09T10:13:33Z</time>
      </trkpt>
      <trkpt lat="45.82715" lon="4.3983">
        <ele>873.97558</ele>
        <time>2011-07-09T10:13:35Z</time>
      </trkpt>
      <trkpt lat="45.8272" lon="4.3984">
        <ele>870.13037</ele>
        <time>2011-07-09T10:13:37Z</time>
      </trkpt>
      <trkpt lat="45.82735" lon="4.39869">
        <ele>866.76586</ele>
        <time>2011-07-09T10:13:41Z</time>
      </trkpt>
      <trkpt lat="45.82737" lon="4.39874">
        <ele>866.76586</ele>
        <time>2011-07-09T10:13:42Z</time>
      </trkpt>
      <trkpt lat="45.82748" lon="4.39887">
        <ele>866.28515</ele>
        <time>2011-07-09T10:13:47Z</time>
      </trkpt>
      <trkpt lat="45.82768" lon="4.39898">
        <ele>866.76586</ele>
        <time>2011-07-09T10:13:56Z</time>
      </trkpt>
      <trkpt lat="45.8278" lon="4.39907">
        <ele>866.76586</ele>
        <time>2011-07-09T10:14:05Z</time>
      </trkpt>
      <trkpt lat="45.82781" lon="4.3991">
        <ele>866.76586</ele>
        <time>2011-07-09T10:14:17Z</time>
      </trkpt>
      <trkpt lat="45.82785" lon="4.39911">
        <ele>867.24658</ele>
        <time>2011-07-09T10:14:30Z</time>
      </trkpt>
      <trkpt lat="45.82784" lon="4.39911">
        <ele>867.24658</ele>
        <time>2011-07-09T10:14:37Z</time>
      </trkpt>
      <trkpt lat="45.82781" lon="4.39912">
        <ele>867.72705</ele>
        <time>2011-07-09T10:15:08Z</time>
      </trkpt>
      <trkpt lat="45.82787" lon="4.39918">
        <ele>866.76586</ele>
        <time>2011-07-09T10:15:15Z</time>
      </trkpt>
      <trkpt lat="45.82802" lon="4.39929">
        <ele>864.36254</ele>
        <time>2011-07-09T10:15:20Z</time>
      </trkpt>
      <trkpt lat="45.82817" lon="4.39946">
        <ele>861.47875</ele>
        <time>2011-07-09T10:15:24Z</time>
      </trkpt>
      <trkpt lat="45.82825" lon="4.39953">
        <ele>860.51733</ele>
        <time>2011-07-09T10:15:26Z</time>
      </trkpt>
      <trkpt lat="45.82835" lon="4.39957">
        <ele>859.07519</ele>
        <time>2011-07-09T10:15:28Z</time>
      </trkpt>
      <trkpt lat="45.82852" lon="4.39958">
        <ele>856.19116</ele>
        <time>2011-07-09T10:15:32Z</time>
      </trkpt>
      <trkpt lat="45.82862" lon="4.3996">
        <ele>854.26879</ele>
        <time>2011-07-09T10:15:34Z</time>
      </trkpt>
      <trkpt lat="45.82882" lon="4.39974">
        <ele>849.46215</ele>
        <time>2011-07-09T10:15:39Z</time>
      </trkpt>
      <trkpt lat="45.82896" lon="4.39981">
        <ele>844.65551</ele>
        <time>2011-07-09T10:15:42Z</time>
      </trkpt>
      <trkpt lat="45.82914" lon="4.39991">
        <ele>842.73291</ele>
        <time>2011-07-09T10:15:45Z</time>
      </trkpt>
      <trkpt lat="45.82949" lon="4.40003">
        <ele>838.40698</ele>
        <time>2011-07-09T10:15:51Z</time>
      </trkpt>
      <trkpt lat="45.8297" lon="4.40008">
        <ele>836.00366</ele>
        <time>2011-07-09T10:15:55Z</time>
      </trkpt>
      <trkpt lat="45.82983" lon="4.40014">
        <ele>835.04248</ele>
        <time>2011-07-09T10:15:58Z</time>
      </trkpt>
      <trkpt lat="45.82997" lon="4.40028">
        <ele>835.52294</ele>
        <time>2011-07-09T10:16:02Z</time>
      </trkpt>
      <trkpt lat="45.82998" lon="4.40053">
        <ele>834.08105</ele>
        <time>2011-07-09T10:16:10Z</time>
      </trkpt>
      <trkpt lat="45.82996" lon="4.40074">
        <ele>832.63916</ele>
        <time>2011-07-09T10:16:14Z</time>
      </trkpt>
      <trkpt lat="45.82987" lon="4.40107">
        <ele>831.67773</ele>
        <time>2011-07-09T10:16:20Z</time>
      </trkpt>
      <trkpt lat="45.82985" lon="4.40112">
        <ele>831.67773</ele>
        <time>2011-07-09T10:16:21Z</time>
      </trkpt>
      <trkpt lat="45.82975" lon="4.40135">
        <ele>830.23583</ele>
        <time>2011-07-09T10:16:25Z</time>
      </trkpt>
      <trkpt lat="45.82963" lon="4.40154">
        <ele>828.31323</ele>
        <time>2011-07-09T10:16:29Z</time>
      </trkpt>
      <trkpt lat="45.82949" lon="4.40172">
        <ele>827.3518</ele>
        <time>2011-07-09T10:16:34Z</time>
      </trkpt>
      <trkpt lat="45.82955" lon="4.4018">
        <ele>825.90966</ele>
        <time>2011-07-09T10:16:39Z</time>
      </trkpt>
      <trkpt lat="45.82963" lon="4.40179">
        <ele>825.90966</ele>
        <time>2011-07-09T10:16:43Z</time>
      </trkpt>
      <trkpt lat="45.82981" lon="4.40164">
        <ele>826.87109</ele>
        <time>2011-07-09T10:16:51Z</time>
      </trkpt>
      <trkpt lat="45.82993" lon="4.4015">
        <ele>827.83227</ele>
        <time>2011-07-09T10:16:56Z</time>
      </trkpt>
      <trkpt lat="45.8301" lon="4.40136">
        <ele>827.83227</ele>
        <time>2011-07-09T10:17:02Z</time>
      </trkpt>
      <trkpt lat="45.83024" lon="4.40123">
        <ele>826.39038</ele>
        <time>2011-07-09T10:17:06Z</time>
      </trkpt>
      <trkpt lat="45.83038" lon="4.40103">
        <ele>826.39038</ele>
        <time>2011-07-09T10:17:11Z</time>
      </trkpt>
      <trkpt lat="45.83047" lon="4.40082">
        <ele>826.39038</ele>
        <time>2011-07-09T10:17:16Z</time>
      </trkpt>
      <trkpt lat="45.8306" lon="4.40058">
        <ele>826.39038</ele>
        <time>2011-07-09T10:17:21Z</time>
      </trkpt>
      <trkpt lat="45.83073" lon="4.40033">
        <ele>825.90966</ele>
        <time>2011-07-09T10:17:25Z</time>
      </trkpt>
      <trkpt lat="45.83088" lon="4.40002">
        <ele>825.42895</ele>
        <time>2011-07-09T10:17:30Z</time>
      </trkpt>
      <trkpt lat="45.83091" lon="4.39995">
        <ele>824.94848</ele>
        <time>2011-07-09T10:17:31Z</time>
      </trkpt>
      <trkpt lat="45.83107" lon="4.39967">
        <ele>824.94848</ele>
        <time>2011-07-09T10:17:36Z</time>
      </trkpt>
      <trkpt lat="45.83123" lon="4.39945">
        <ele>822.06445</ele>
        <time>2011-07-09T10:17:40Z</time>
      </trkpt>
      <trkpt lat="45.83129" lon="4.3994">
        <ele>821.10327</ele>
        <time>2011-07-09T10:17:41Z</time>
      </trkpt>
      <trkpt lat="45.83157" lon="4.3992">
        <ele>821.10327</ele>
        <time>2011-07-09T10:17:47Z</time>
      </trkpt>
      <trkpt lat="45.83169" lon="4.39911">
        <ele>821.58374</ele>
        <time>2011-07-09T10:17:50Z</time>
      </trkpt>
      <trkpt lat="45.83184" lon="4.39887">
        <ele>823.02587</ele>
        <time>2011-07-09T10:17:55Z</time>
      </trkpt>
      <trkpt lat="45.83197" lon="4.39861">
        <ele>824.94848</ele>
        <time>2011-07-09T10:18:01Z</time>
      </trkpt>
      <trkpt lat="45.83204" lon="4.3984">
        <ele>826.87109</ele>
        <time>2011-07-09T10:18:07Z</time>
      </trkpt>
      <trkpt lat="45.83212" lon="4.39827">
        <ele>827.3518</ele>
        <time>2011-07-09T10:18:11Z</time>
      </trkpt>
      <trkpt lat="45.83215" lon="4.39822">
        <ele>828.31323</ele>
        <time>2011-07-09T10:18:13Z</time>
      </trkpt>
      <trkpt lat="45.83228" lon="4.39809">
        <ele>829.75512</ele>
        <time>2011-07-09T10:18:21Z</time>
      </trkpt>
      <trkpt lat="45.83245" lon="4.39791">
        <ele>829.27441</ele>
        <time>2011-07-09T10:18:28Z</time>
      </trkpt>
      <trkpt lat="45.83259" lon="4.39779">
        <ele>828.79394</ele>
        <time>2011-07-09T10:18:33Z</time>
      </trkpt>
      <trkpt lat="45.83274" lon="4.39761">
        <ele>827.83227</ele>
        <time>2011-07-09T10:18:38Z</time>
      </trkpt>
      <trkpt lat="45.83291" lon="4.39746">
        <ele>828.31323</ele>
        <time>2011-07-09T10:18:43Z</time>
      </trkpt>
      <trkpt lat="45.83301" lon="4.39737">
        <ele>828.31323</ele>
        <time>2011-07-09T10:18:47Z</time>
      </trkpt>
      <trkpt lat="45.83311" lon="4.39724">
        <ele>828.31323</ele>
        <time>2011-07-09T10:18:52Z</time>
      </trkpt>
      <trkpt lat="45.83321" lon="4.39709">
        <ele>828.31323</ele>
        <time>2011-07-09T10:18:57Z</time>
      </trkpt>
      <trkpt lat="45.83336" lon="4.39685">
        <ele>828.31323</ele>
        <time>2011-07-09T10:19:03Z</time>
      </trkpt>
      <trkpt lat="45.83346" lon="4.39661">
        <ele>827.83227</ele>
        <time>2011-07-09T10:19:08Z</time>
      </trkpt>
      <trkpt lat="45.83356" lon="4.39627">
        <ele>826.39038</ele>
        <time>2011-07-09T10:19:14Z</time>
      </trkpt>
      <trkpt lat="45.83362" lon="4.39598">
        <ele>823.50659</ele>
        <time>2011-07-09T10:19:19Z</time>
      </trkpt>
      <trkpt lat="45.8337" lon="4.3959">
        <ele>822.54516</ele>
        <time>2011-07-09T10:19:22Z</time>
      </trkpt>
      <trkpt lat="45.83394" lon="4.39605">
        <ele>823.02587</ele>
        <time>2011-07-09T10:19:27Z</time>
      </trkpt>
      <trkpt lat="45.8341" lon="4.39613">
        <ele>825.90966</ele>
        <time>2011-07-09T10:19:33Z</time>
      </trkpt>
      <trkpt lat="45.83416" lon="4.39615">
        <ele>826.87109</ele>
        <time>2011-07-09T10:19:36Z</time>
      </trkpt>
      <trkpt lat="45.83427" lon="4.39618">
        <ele>828.79394</ele>
        <time>2011-07-09T10:19:43Z</time>
      </trkpt>
      <trkpt lat="45.83438" lon="4.39619">
        <ele>830.71655</ele>
        <time>2011-07-09T10:19:52Z</time>
      </trkpt>
      <trkpt lat="45.83448" lon="4.39619">
        <ele>833.11962</ele>
        <time>2011-07-09T10:19:59Z</time>
      </trkpt>
      <trkpt lat="45.8346" lon="4.39619">
        <ele>835.04248</ele>
        <time>2011-07-09T10:20:07Z</time>
      </trkpt>
      <trkpt lat="45.83466" lon="4.39621">
        <ele>837.44555</ele>
        <time>2011-07-09T10:20:13Z</time>
      </trkpt>
      <trkpt lat="45.83473" lon="4.39621">
        <ele>838.88769</ele>
        <time>2011-07-09T10:20:20Z</time>
      </trkpt>
      <trkpt lat="45.83475" lon="4.39623">
        <ele>838.40698</ele>
        <time>2011-07-09T10:20:22Z</time>
      </trkpt>
      <trkpt lat="45.83488" lon="4.39626">
        <ele>840.81005</ele>
        <time>2011-07-09T10:20:31Z</time>
      </trkpt>
      <trkpt lat="45.83494" lon="4.39635">
        <ele>841.29077</ele>
        <time>2011-07-09T10:20:38Z</time>
      </trkpt>
      <trkpt lat="45.83496" lon="4.39637">
        <ele>844.65551</ele>
        <time>2011-07-09T10:20:40Z</time>
      </trkpt>
      <trkpt lat="45.83497" lon="4.39637">
        <ele>844.65551</ele>
        <time>2011-07-09T10:20:41Z</time>
      </trkpt>
      <trkpt lat="45.83507" lon="4.39642">
        <ele>845.61694</ele>
        <time>2011-07-09T10:20:48Z</time>
      </trkpt>
      <trkpt lat="45.83514" lon="4.39646">
        <ele>846.09765</ele>
        <time>2011-07-09T10:20:53Z</time>
      </trkpt>
      <trkpt lat="45.8352" lon="4.39656">
        <ele>848.02026</ele>
        <time>2011-07-09T10:21:00Z</time>
      </trkpt>
      <trkpt lat="45.83527" lon="4.3966">
        <ele>849.94287</ele>
        <time>2011-07-09T10:21:08Z</time>
      </trkpt>
      <trkpt lat="45.83534" lon="4.39665">
        <ele>850.90405</ele>
        <time>2011-07-09T10:21:13Z</time>
      </trkpt>
      <trkpt lat="45.83541" lon="4.3967">
        <ele>851.38476</ele>
        <time>2011-07-09T10:21:17Z</time>
      </trkpt>
      <trkpt lat="45.8355" lon="4.39681">
        <ele>852.82666</ele>
        <time>2011-07-09T10:21:25Z</time>
      </trkpt>
      <trkpt lat="45.83559" lon="4.39688">
        <ele>853.30737</ele>
        <time>2011-07-09T10:21:32Z</time>
      </trkpt>
      <trkpt lat="45.83565" lon="4.39694">
        <ele>853.78808</ele>
        <time>2011-07-09T10:21:37Z</time>
      </trkpt>
      <trkpt lat="45.8358" lon="4.39707">
        <ele>853.30737</ele>
        <time>2011-07-09T10:21:44Z</time>
      </trkpt>
      <trkpt lat="45.83594" lon="4.39709">
        <ele>854.26879</ele>
        <time>2011-07-09T10:21:50Z</time>
      </trkpt>
      <trkpt lat="45.83604" lon="4.39696">
        <ele>854.26879</ele>
        <time>2011-07-09T10:21:56Z</time>
      </trkpt>
      <trkpt lat="45.83617" lon="4.39679">
        <ele>854.26879</ele>
        <time>2011-07-09T10:22:04Z</time>
      </trkpt>
      <trkpt lat="45.83633" lon="4.39655">
        <ele>855.71069</ele>
        <time>2011-07-09T10:22:15Z</time>
      </trkpt>
      <trkpt lat="45.83643" lon="4.39638">
        <ele>854.74926</ele>
        <time>2011-07-09T10:22:23Z</time>
      </trkpt>
      <trkpt lat="45.83655" lon="4.39616">
        <ele>855.22998</ele>
        <time>2011-07-09T10:22:31Z</time>
      </trkpt>
      <trkpt lat="45.83669" lon="4.39592">
        <ele>856.67187</ele>
        <time>2011-07-09T10:22:40Z</time>
      </trkpt>
      <trkpt lat="45.83678" lon="4.39577">
        <ele>857.15258</ele>
        <time>2011-07-09T10:22:47Z</time>
      </trkpt>
      <trkpt lat="45.83687" lon="4.39563">
        <ele>859.07519</ele>
        <time>2011-07-09T10:22:54Z</time>
      </trkpt>
      <trkpt lat="45.83692" lon="4.39552">
        <ele>861.47875</ele>
        <time>2011-07-09T10:23:01Z</time>
      </trkpt>
      <trkpt lat="45.83691" lon="4.39554">
        <ele>861.47875</ele>
        <time>2011-07-09T10:23:07Z</time>
      </trkpt>
      <trkpt lat="45.8369" lon="4.39554">
        <ele>860.51733</ele>
        <time>2011-07-09T10:23:17Z</time>
      </trkpt>
      <trkpt lat="45.83691" lon="4.39556">
        <ele>860.51733</ele>
        <time>2011-07-09T10:23:42Z</time>
      </trkpt>
      <trkpt lat="45.83693" lon="4.39557">
        <ele>860.99804</ele>
        <time>2011-07-09T10:24:02Z</time>
      </trkpt>
      <trkpt lat="45.83693" lon="4.39556">
        <ele>860.03662</ele>
        <time>2011-07-09T10:24:19Z</time>
      </trkpt>
      <trkpt lat="45.83691" lon="4.39558">
        <ele>859.07519</ele>
        <time>2011-07-09T10:25:08Z</time>
      </trkpt>
      <trkpt lat="45.83685" lon="4.39568">
        <ele>858.59448</ele>
        <time>2011-07-09T10:25:12Z</time>
      </trkpt>
      <trkpt lat="45.83679" lon="4.39579">
        <ele>857.6333</ele>
        <time>2011-07-09T10:25:14Z</time>
      </trkpt>
      <trkpt lat="45.83675" lon="4.39586">
        <ele>857.15258</ele>
        <time>2011-07-09T10:25:15Z</time>
      </trkpt>
      <trkpt lat="45.83647" lon="4.3963">
        <ele>855.71069</ele>
        <time>2011-07-09T10:25:21Z</time>
      </trkpt>
      <trkpt lat="45.83624" lon="4.39669">
        <ele>854.74926</ele>
        <time>2011-07-09T10:25:27Z</time>
      </trkpt>
      <trkpt lat="45.83605" lon="4.39703">
        <ele>854.26879</ele>
        <time>2011-07-09T10:25:32Z</time>
      </trkpt>
      <trkpt lat="45.83594" lon="4.39713">
        <ele>853.30737</ele>
        <time>2011-07-09T10:25:36Z</time>
      </trkpt>
      <trkpt lat="45.83591" lon="4.39712">
        <ele>853.30737</ele>
        <time>2011-07-09T10:25:37Z</time>
      </trkpt>
      <trkpt lat="45.83574" lon="4.39702">
        <ele>852.82666</ele>
        <time>2011-07-09T10:25:43Z</time>
      </trkpt>
      <trkpt lat="45.83556" lon="4.39687">
        <ele>851.38476</ele>
        <time>2011-07-09T10:25:49Z</time>
      </trkpt>
      <trkpt lat="45.83541" lon="4.39672">
        <ele>850.90405</ele>
        <time>2011-07-09T10:25:52Z</time>
      </trkpt>
      <trkpt lat="45.83533" lon="4.39667">
        <ele>849.46215</ele>
        <time>2011-07-09T10:25:54Z</time>
      </trkpt>
      <trkpt lat="45.83517" lon="4.39649">
        <ele>844.65551</ele>
        <time>2011-07-09T10:25:58Z</time>
      </trkpt>
      <trkpt lat="45.83512" lon="4.39645">
        <ele>843.69409</ele>
        <time>2011-07-09T10:26:01Z</time>
      </trkpt>
      <trkpt lat="45.83512" lon="4.39646">
        <ele>843.69409</ele>
        <time>2011-07-09T10:26:07Z</time>
      </trkpt>
      <trkpt lat="45.83504" lon="4.39641">
        <ele>842.25219</ele>
        <time>2011-07-09T10:26:10Z</time>
      </trkpt>
      <trkpt lat="45.83479" lon="4.39624">
        <ele>838.40698</ele>
        <time>2011-07-09T10:26:14Z</time>
      </trkpt>
      <trkpt lat="45.83465" lon="4.39621">
        <ele>835.52294</ele>
        <time>2011-07-09T10:26:16Z</time>
      </trkpt>
      <trkpt lat="45.83446" lon="4.39622">
        <ele>830.71655</ele>
        <time>2011-07-09T10:26:19Z</time>
      </trkpt>
      <trkpt lat="45.83428" lon="4.39623">
        <ele>826.39038</ele>
        <time>2011-07-09T10:26:22Z</time>
      </trkpt>
      <trkpt lat="45.83411" lon="4.39619">
        <ele>822.06445</ele>
        <time>2011-07-09T10:26:25Z</time>
      </trkpt>
      <trkpt lat="45.834" lon="4.39612">
        <ele>819.18066</ele>
        <time>2011-07-09T10:26:28Z</time>
      </trkpt>
      <trkpt lat="45.83396" lon="4.39607">
        <ele>819.18066</ele>
        <time>2011-07-09T10:26:32Z</time>
      </trkpt>
      <trkpt lat="45.83395" lon="4.39607">
        <ele>819.18066</ele>
        <time>2011-07-09T10:26:34Z</time>
      </trkpt>
      <trkpt lat="45.8341" lon="4.39609">
        <ele>819.18066</ele>
        <time>2011-07-09T10:26:42Z</time>
      </trkpt>
      <trkpt lat="45.83411" lon="4.3961">
        <ele>819.18066</ele>
        <time>2011-07-09T10:26:46Z</time>
      </trkpt>
      <trkpt lat="45.83405" lon="4.39611">
        <ele>820.14184</ele>
        <time>2011-07-09T10:29:01Z</time>
      </trkpt>
      <trkpt lat="45.83403" lon="4.39612">
        <ele>821.10327</ele>
        <time>2011-07-09T10:29:10Z</time>
      </trkpt>
      <trkpt lat="45.83413" lon="4.39617">
        <ele>823.02587</ele>
        <time>2011-07-09T10:29:16Z</time>
      </trkpt>
      <trkpt lat="45.83421" lon="4.39618">
        <ele>824.94848</ele>
        <time>2011-07-09T10:29:21Z</time>
      </trkpt>
      <trkpt lat="45.8343" lon="4.3962">
        <ele>827.3518</ele>
        <time>2011-07-09T10:29:27Z</time>
      </trkpt>
      <trkpt lat="45.83439" lon="4.39621">
        <ele>828.31323</ele>
        <time>2011-07-09T10:29:33Z</time>
      </trkpt>
      <trkpt lat="45.83448" lon="4.39618">
        <ele>831.67773</ele>
        <time>2011-07-09T10:29:40Z</time>
      </trkpt>
      <trkpt lat="45.83462" lon="4.3962">
        <ele>833.11962</ele>
        <time>2011-07-09T10:29:48Z</time>
      </trkpt>
      <trkpt lat="45.83474" lon="4.39623">
        <ele>835.52294</ele>
        <time>2011-07-09T10:29:56Z</time>
      </trkpt>
      <trkpt lat="45.83485" lon="4.39625">
        <ele>838.40698</ele>
        <time>2011-07-09T10:30:04Z</time>
      </trkpt>
      <trkpt lat="45.83488" lon="4.39627">
        <ele>839.36816</ele>
        <time>2011-07-09T10:30:06Z</time>
      </trkpt>
      <trkpt lat="45.83494" lon="4.39634">
        <ele>841.29077</ele>
        <time>2011-07-09T10:30:13Z</time>
      </trkpt>
      <trkpt lat="45.83495" lon="4.39635">
        <ele>841.77148</ele>
        <time>2011-07-09T10:30:19Z</time>
      </trkpt>
      <trkpt lat="45.83498" lon="4.39639">
        <ele>841.29077</ele>
        <time>2011-07-09T10:30:29Z</time>
      </trkpt>
      <trkpt lat="45.83508" lon="4.39643">
        <ele>842.25219</ele>
        <time>2011-07-09T10:30:36Z</time>
      </trkpt>
      <trkpt lat="45.83516" lon="4.39649">
        <ele>844.17504</ele>
        <time>2011-07-09T10:30:43Z</time>
      </trkpt>
      <trkpt lat="45.83517" lon="4.3965">
        <ele>844.65551</ele>
        <time>2011-07-09T10:30:44Z</time>
      </trkpt>
      <trkpt lat="45.83524" lon="4.39657">
        <ele>846.09765</ele>
        <time>2011-07-09T10:30:53Z</time>
      </trkpt>
      <trkpt lat="45.83527" lon="4.39659">
        <ele>847.05883</ele>
        <time>2011-07-09T10:30:56Z</time>
      </trkpt>
      <trkpt lat="45.83533" lon="4.39663">
        <ele>847.53955</ele>
        <time>2011-07-09T10:31:02Z</time>
      </trkpt>
      <trkpt lat="45.83547" lon="4.39677">
        <ele>849.94287</ele>
        <time>2011-07-09T10:31:11Z</time>
      </trkpt>
      <trkpt lat="45.83554" lon="4.39683">
        <ele>851.38476</ele>
        <time>2011-07-09T10:31:18Z</time>
      </trkpt>
      <trkpt lat="45.83563" lon="4.39691">
        <ele>851.86547</ele>
        <time>2011-07-09T10:31:26Z</time>
      </trkpt>
      <trkpt lat="45.83576" lon="4.39702">
        <ele>851.86547</ele>
        <time>2011-07-09T10:31:32Z</time>
      </trkpt>
      <trkpt lat="45.83585" lon="4.39706">
        <ele>851.86547</ele>
        <time>2011-07-09T10:31:37Z</time>
      </trkpt>
      <trkpt lat="45.836" lon="4.39691">
        <ele>851.86547</ele>
        <time>2011-07-09T10:31:44Z</time>
      </trkpt>
      <trkpt lat="45.83614" lon="4.3967">
        <ele>852.34594</ele>
        <time>2011-07-09T10:31:52Z</time>
      </trkpt>
      <trkpt lat="45.83632" lon="4.39645">
        <ele>853.78808</ele>
        <time>2011-07-09T10:32:01Z</time>
      </trkpt>
      <trkpt lat="45.83648" lon="4.39618">
        <ele>853.30737</ele>
        <time>2011-07-09T10:32:09Z</time>
      </trkpt>
      <trkpt lat="45.83665" lon="4.39592">
        <ele>853.78808</ele>
        <time>2011-07-09T10:32:17Z</time>
      </trkpt>
      <trkpt lat="45.8368" lon="4.39572">
        <ele>857.15258</ele>
        <time>2011-07-09T10:32:24Z</time>
      </trkpt>
      <trkpt lat="45.8369" lon="4.39555">
        <ele>859.07519</ele>
        <time>2011-07-09T10:32:30Z</time>
      </trkpt>
      <trkpt lat="45.83691" lon="4.39551">
        <ele>860.03662</ele>
        <time>2011-07-09T10:32:34Z</time>
      </trkpt>
      <trkpt lat="45.83693" lon="4.39554">
        <ele>859.5559</ele>
        <time>2011-07-09T10:34:35Z</time>
      </trkpt>
      <trkpt lat="45.83704" lon="4.39543">
        <ele>860.51733</ele>
        <time>2011-07-09T10:34:43Z</time>
      </trkpt>
      <trkpt lat="45.83713" lon="4.39532">
        <ele>861.95947</ele>
        <time>2011-07-09T10:34:49Z</time>
      </trkpt>
      <trkpt lat="45.83723" lon="4.39525">
        <ele>862.43994</ele>
        <time>2011-07-09T10:34:55Z</time>
      </trkpt>
      <trkpt lat="45.83733" lon="4.39518">
        <ele>863.88183</ele>
        <time>2011-07-09T10:35:02Z</time>
      </trkpt>
      <trkpt lat="45.83746" lon="4.39509">
        <ele>866.28515</ele>
        <time>2011-07-09T10:35:10Z</time>
      </trkpt>
      <trkpt lat="45.83758" lon="4.39505">
        <ele>868.68847</ele>
        <time>2011-07-09T10:35:16Z</time>
      </trkpt>
      <trkpt lat="45.83771" lon="4.39501">
        <ele>870.61108</ele>
        <time>2011-07-09T10:35:23Z</time>
      </trkpt>
      <trkpt lat="45.83785" lon="4.39495">
        <ele>873.0144</ele>
        <time>2011-07-09T10:35:30Z</time>
      </trkpt>
      <trkpt lat="45.83792" lon="4.39491">
        <ele>874.45629</ele>
        <time>2011-07-09T10:35:33Z</time>
      </trkpt>
      <trkpt lat="45.83798" lon="4.39486">
        <ele>874.93701</ele>
        <time>2011-07-09T10:35:36Z</time>
      </trkpt>
      <trkpt lat="45.83805" lon="4.39476">
        <ele>875.89819</ele>
        <time>2011-07-09T10:35:41Z</time>
      </trkpt>
      <trkpt lat="45.83823" lon="4.39464">
        <ele>876.85986</ele>
        <time>2011-07-09T10:35:48Z</time>
      </trkpt>
      <trkpt lat="45.83842" lon="4.39448">
        <ele>878.30175</ele>
        <time>2011-07-09T10:35:55Z</time>
      </trkpt>
      <trkpt lat="45.83857" lon="4.39438">
        <ele>878.30175</ele>
        <time>2011-07-09T10:36:00Z</time>
      </trkpt>
      <trkpt lat="45.83876" lon="4.39418">
        <ele>876.85986</ele>
        <time>2011-07-09T10:36:06Z</time>
      </trkpt>
      <trkpt lat="45.83886" lon="4.39406">
        <ele>876.85986</ele>
        <time>2011-07-09T10:36:09Z</time>
      </trkpt>
      <trkpt lat="45.83912" lon="4.39366">
        <ele>875.41748</ele>
        <time>2011-07-09T10:36:16Z</time>
      </trkpt>
      <trkpt lat="45.83916" lon="4.39359">
        <ele>875.41748</ele>
        <time>2011-07-09T10:36:17Z</time>
      </trkpt>
      <trkpt lat="45.8393" lon="4.39335">
        <ele>875.41748</ele>
        <time>2011-07-09T10:36:21Z</time>
      </trkpt>
      <trkpt lat="45.83958" lon="4.39303">
        <ele>876.37915</ele>
        <time>2011-07-09T10:36:28Z</time>
      </trkpt>
      <trkpt lat="45.83969" lon="4.39292">
        <ele>877.82104</ele>
        <time>2011-07-09T10:36:31Z</time>
      </trkpt>
      <trkpt lat="45.84004" lon="4.39266">
        <ele>879.26293</ele>
        <time>2011-07-09T10:36:40Z</time>
      </trkpt>
      <trkpt lat="45.84036" lon="4.39249">
        <ele>879.74365</ele>
        <time>2011-07-09T10:36:47Z</time>
      </trkpt>
      <trkpt lat="45.84075" lon="4.39228">
        <ele>881.66625</ele>
        <time>2011-07-09T10:36:56Z</time>
      </trkpt>
      <trkpt lat="45.84104" lon="4.39209">
        <ele>883.10815</ele>
        <time>2011-07-09T10:37:04Z</time>
      </trkpt>
      <trkpt lat="45.8412" lon="4.39196">
        <ele>885.031</ele>
        <time>2011-07-09T10:37:11Z</time>
      </trkpt>
      <trkpt lat="45.84136" lon="4.39184">
        <ele>886.4729</ele>
        <time>2011-07-09T10:37:19Z</time>
      </trkpt>
      <trkpt lat="45.84149" lon="4.39175">
        <ele>888.87622</ele>
        <time>2011-07-09T10:37:26Z</time>
      </trkpt>
      <trkpt lat="45.84161" lon="4.39165">
        <ele>890.79858</ele>
        <time>2011-07-09T10:37:33Z</time>
      </trkpt>
      <trkpt lat="45.84165" lon="4.3916">
        <ele>892.24096</ele>
        <time>2011-07-09T10:37:36Z</time>
      </trkpt>
      <trkpt lat="45.84171" lon="4.39151">
        <ele>893.68286</ele>
        <time>2011-07-09T10:37:41Z</time>
      </trkpt>
      <trkpt lat="45.84179" lon="4.39141">
        <ele>894.64404</ele>
        <time>2011-07-09T10:37:48Z</time>
      </trkpt>
      <trkpt lat="45.84187" lon="4.39129">
        <ele>896.08618</ele>
        <time>2011-07-09T10:37:55Z</time>
      </trkpt>
      <trkpt lat="45.8419" lon="4.39117">
        <ele>897.52807</ele>
        <time>2011-07-09T10:38:00Z</time>
      </trkpt>
      <trkpt lat="45.84198" lon="4.39102">
        <ele>899.45068</ele>
        <time>2011-07-09T10:38:07Z</time>
      </trkpt>
      <trkpt lat="45.84204" lon="4.39093">
        <ele>900.4121</ele>
        <time>2011-07-09T10:38:12Z</time>
      </trkpt>
      <trkpt lat="45.84206" lon="4.39088">
        <ele>901.854</ele>
        <time>2011-07-09T10:38:15Z</time>
      </trkpt>
      <trkpt lat="45.84211" lon="4.39082">
        <ele>902.81518</ele>
        <time>2011-07-09T10:38:18Z</time>
      </trkpt>
      <trkpt lat="45.84218" lon="4.39069">
        <ele>904.25732</ele>
        <time>2011-07-09T10:38:26Z</time>
      </trkpt>
      <trkpt lat="45.84227" lon="4.39055">
        <ele>906.17968</ele>
        <time>2011-07-09T10:38:33Z</time>
      </trkpt>
      <trkpt lat="45.84228" lon="4.39051">
        <ele>906.17968</ele>
        <time>2011-07-09T10:38:35Z</time>
      </trkpt>
      <trkpt lat="45.84229" lon="4.39046">
        <ele>906.6604</ele>
        <time>2011-07-09T10:38:37Z</time>
      </trkpt>
      <trkpt lat="45.84232" lon="4.39031">
        <ele>907.14111</ele>
        <time>2011-07-09T10:38:43Z</time>
      </trkpt>
      <trkpt lat="45.84234" lon="4.39008">
        <ele>909.06396</ele>
        <time>2011-07-09T10:38:52Z</time>
      </trkpt>
      <trkpt lat="45.84238" lon="4.38989">
        <ele>910.50585</ele>
        <time>2011-07-09T10:38:58Z</time>
      </trkpt>
      <trkpt lat="45.84245" lon="4.38972">
        <ele>911.46728</ele>
        <time>2011-07-09T10:39:04Z</time>
      </trkpt>
      <trkpt lat="45.84247" lon="4.38964">
        <ele>912.42846</ele>
        <time>2011-07-09T10:39:07Z</time>
      </trkpt>
      <trkpt lat="45.84246" lon="4.38957">
        <ele>913.38989</ele>
        <time>2011-07-09T10:39:10Z</time>
      </trkpt>
      <trkpt lat="45.84252" lon="4.38948">
        <ele>913.87036</ele>
        <time>2011-07-09T10:39:15Z</time>
      </trkpt>
      <trkpt lat="45.84254" lon="4.38938">
        <ele>915.3125</ele>
        <time>2011-07-09T10:39:19Z</time>
      </trkpt>
      <trkpt lat="45.84261" lon="4.3892">
        <ele>916.27368</ele>
        <time>2011-07-09T10:39:26Z</time>
      </trkpt>
      <trkpt lat="45.84265" lon="4.38906">
        <ele>917.2351</ele>
        <time>2011-07-09T10:39:31Z</time>
      </trkpt>
      <trkpt lat="45.8427" lon="4.38885">
        <ele>918.677</ele>
        <time>2011-07-09T10:39:37Z</time>
      </trkpt>
      <trkpt lat="45.84275" lon="4.38863">
        <ele>918.677</ele>
        <time>2011-07-09T10:39:42Z</time>
      </trkpt>
      <trkpt lat="45.84287" lon="4.38836">
        <ele>917.71557</ele>
        <time>2011-07-09T10:39:48Z</time>
      </trkpt>
      <trkpt lat="45.84301" lon="4.38812">
        <ele>914.35107</ele>
        <time>2011-07-09T10:39:52Z</time>
      </trkpt>
      <trkpt lat="45.8431" lon="4.38795">
        <ele>913.38989</ele>
        <time>2011-07-09T10:39:54Z</time>
      </trkpt>
      <trkpt lat="45.84314" lon="4.38787">
        <ele>912.90917</ele>
        <time>2011-07-09T10:39:55Z</time>
      </trkpt>
      <trkpt lat="45.84342" lon="4.38777">
        <ele>911.94799</ele>
        <time>2011-07-09T10:39:59Z</time>
      </trkpt>
      <trkpt lat="45.84354" lon="4.38779">
        <ele>912.42846</ele>
        <time>2011-07-09T10:40:01Z</time>
      </trkpt>
      <trkpt lat="45.84383" lon="4.38786">
        <ele>912.42846</ele>
        <time>2011-07-09T10:40:06Z</time>
      </trkpt>
      <trkpt lat="45.84406" lon="4.38797">
        <ele>913.87036</ele>
        <time>2011-07-09T10:40:12Z</time>
      </trkpt>
      <trkpt lat="45.84419" lon="4.38806">
        <ele>915.3125</ele>
        <time>2011-07-09T10:40:17Z</time>
      </trkpt>
      <trkpt lat="45.84437" lon="4.38817">
        <ele>916.27368</ele>
        <time>2011-07-09T10:40:23Z</time>
      </trkpt>
      <trkpt lat="45.84444" lon="4.38822">
        <ele>917.71557</ele>
        <time>2011-07-09T10:40:27Z</time>
      </trkpt>
      <trkpt lat="45.84456" lon="4.38827">
        <ele>920.11889</ele>
        <time>2011-07-09T10:40:34Z</time>
      </trkpt>
      <trkpt lat="45.84467" lon="4.38832">
        <ele>922.0415</ele>
        <time>2011-07-09T10:40:41Z</time>
      </trkpt>
      <trkpt lat="45.84476" lon="4.38833">
        <ele>923.48364</ele>
        <time>2011-07-09T10:40:47Z</time>
      </trkpt>
      <trkpt lat="45.84489" lon="4.38837">
        <ele>925.40625</ele>
        <time>2011-07-09T10:40:55Z</time>
      </trkpt>
      <trkpt lat="45.845" lon="4.38836">
        <ele>926.84838</ele>
        <time>2011-07-09T10:41:02Z</time>
      </trkpt>
      <trkpt lat="45.84515" lon="4.38839">
        <ele>929.25146</ele>
        <time>2011-07-09T10:41:10Z</time>
      </trkpt>
      <trkpt lat="45.84532" lon="4.38843">
        <ele>930.21289</ele>
        <time>2011-07-09T10:41:18Z</time>
      </trkpt>
      <trkpt lat="45.84542" lon="4.38847">
        <ele>931.65478</ele>
        <time>2011-07-09T10:41:23Z</time>
      </trkpt>
      <trkpt lat="45.84548" lon="4.38851">
        <ele>932.61621</ele>
        <time>2011-07-09T10:41:27Z</time>
      </trkpt>
      <trkpt lat="45.84567" lon="4.38849">
        <ele>932.13549</ele>
        <time>2011-07-09T10:41:34Z</time>
      </trkpt>
      <trkpt lat="45.84578" lon="4.38846">
        <ele>931.65478</ele>
        <time>2011-07-09T10:41:37Z</time>
      </trkpt>
      <trkpt lat="45.84604" lon="4.38834">
        <ele>932.61621</ele>
        <time>2011-07-09T10:41:44Z</time>
      </trkpt>
      <trkpt lat="45.84624" lon="4.38823">
        <ele>932.13549</ele>
        <time>2011-07-09T10:41:50Z</time>
      </trkpt>
      <trkpt lat="45.84649" lon="4.38817">
        <ele>932.61621</ele>
        <time>2011-07-09T10:41:56Z</time>
      </trkpt>
      <trkpt lat="45.84664" lon="4.38803">
        <ele>934.0581</ele>
        <time>2011-07-09T10:42:02Z</time>
      </trkpt>
      <trkpt lat="45.84678" lon="4.38798">
        <ele>935.5</ele>
        <time>2011-07-09T10:42:08Z</time>
      </trkpt>
      <trkpt lat="45.84691" lon="4.38796">
        <ele>935.98071</ele>
        <time>2011-07-09T10:42:15Z</time>
      </trkpt>
      <trkpt lat="45.84712" lon="4.38794">
        <ele>935.98071</ele>
        <time>2011-07-09T10:42:22Z</time>
      </trkpt>
      <trkpt lat="45.84726" lon="4.38795">
        <ele>936.46142</ele>
        <time>2011-07-09T10:42:28Z</time>
      </trkpt>
      <trkpt lat="45.84731" lon="4.38797">
        <ele>935.98071</ele>
        <time>2011-07-09T10:42:32Z</time>
      </trkpt>
      <trkpt lat="45.84747" lon="4.38798">
        <ele>936.94189</ele>
        <time>2011-07-09T10:42:38Z</time>
      </trkpt>
      <trkpt lat="45.84752" lon="4.38786">
        <ele>937.90332</ele>
        <time>2011-07-09T10:42:46Z</time>
      </trkpt>
      <trkpt lat="45.84752" lon="4.38783">
        <ele>938.38403</ele>
        <time>2011-07-09T10:42:47Z</time>
      </trkpt>
      <trkpt lat="45.84756" lon="4.38763">
        <ele>940.78735</ele>
        <time>2011-07-09T10:42:54Z</time>
      </trkpt>
      <trkpt lat="45.84755" lon="4.38756">
        <ele>942.7102</ele>
        <time>2011-07-09T10:42:56Z</time>
      </trkpt>
      <trkpt lat="45.84756" lon="4.3874">
        <ele>943.19067</ele>
        <time>2011-07-09T10:43:01Z</time>
      </trkpt>
      <trkpt lat="45.84752" lon="4.38728">
        <ele>943.67138</ele>
        <time>2011-07-09T10:43:05Z</time>
      </trkpt>
      <trkpt lat="45.84751" lon="4.38722">
        <ele>944.15209</ele>
        <time>2011-07-09T10:43:07Z</time>
      </trkpt>
      <trkpt lat="45.84753" lon="4.38714">
        <ele>945.11328</ele>
        <time>2011-07-09T10:43:11Z</time>
      </trkpt>
      <trkpt lat="45.84758" lon="4.38694">
        <ele>945.59399</ele>
        <time>2011-07-09T10:43:18Z</time>
      </trkpt>
      <trkpt lat="45.84762" lon="4.38671">
        <ele>947.03588</ele>
        <time>2011-07-09T10:43:23Z</time>
      </trkpt>
      <trkpt lat="45.84767" lon="4.38647">
        <ele>948.47778</ele>
        <time>2011-07-09T10:43:28Z</time>
      </trkpt>
      <trkpt lat="45.84769" lon="4.38619">
        <ele>949.91992</ele>
        <time>2011-07-09T10:43:34Z</time>
      </trkpt>
      <trkpt lat="45.84768" lon="4.38593">
        <ele>951.36181</ele>
        <time>2011-07-09T10:43:40Z</time>
      </trkpt>
      <trkpt lat="45.84768" lon="4.38576">
        <ele>952.80371</ele>
        <time>2011-07-09T10:43:45Z</time>
      </trkpt>
      <trkpt lat="45.84765" lon="4.38541">
        <ele>953.76513</ele>
        <time>2011-07-09T10:43:52Z</time>
      </trkpt>
      <trkpt lat="45.84768" lon="4.38511">
        <ele>954.24584</ele>
        <time>2011-07-09T10:43:58Z</time>
      </trkpt>
      <trkpt lat="45.84775" lon="4.38471">
        <ele>954.24584</ele>
        <time>2011-07-09T10:44:05Z</time>
      </trkpt>
      <trkpt lat="45.84793" lon="4.38433">
        <ele>953.28442</ele>
        <time>2011-07-09T10:44:10Z</time>
      </trkpt>
      <trkpt lat="45.84803" lon="4.384">
        <ele>951.84252</ele>
        <time>2011-07-09T10:44:14Z</time>
      </trkpt>
      <trkpt lat="45.84811" lon="4.38368">
        <ele>951.36181</ele>
        <time>2011-07-09T10:44:20Z</time>
      </trkpt>
      <trkpt lat="45.84816" lon="4.3835">
        <ele>951.36181</ele>
        <time>2011-07-09T10:44:23Z</time>
      </trkpt>
      <trkpt lat="45.84815" lon="4.38317">
        <ele>951.36181</ele>
        <time>2011-07-09T10:44:27Z</time>
      </trkpt>
      <trkpt lat="45.84813" lon="4.38275">
        <ele>950.8811</ele>
        <time>2011-07-09T10:44:33Z</time>
      </trkpt>
      <trkpt lat="45.84804" lon="4.38227">
        <ele>952.32299</ele>
        <time>2011-07-09T10:44:40Z</time>
      </trkpt>
      <trkpt lat="45.84802" lon="4.38176">
        <ele>953.28442</ele>
        <time>2011-07-09T10:44:47Z</time>
      </trkpt>
      <trkpt lat="45.84797" lon="4.38133">
        <ele>953.76513</ele>
        <time>2011-07-09T10:44:53Z</time>
      </trkpt>
      <trkpt lat="45.84797" lon="4.381">
        <ele>954.72631</ele>
        <time>2011-07-09T10:44:58Z</time>
      </trkpt>
      <trkpt lat="45.84795" lon="4.38068">
        <ele>956.64916</ele>
        <time>2011-07-09T10:45:03Z</time>
      </trkpt>
      <trkpt lat="45.84795" lon="4.38026">
        <ele>958.57177</ele>
        <time>2011-07-09T10:45:10Z</time>
      </trkpt>
      <trkpt lat="45.84801" lon="4.38001">
        <ele>960.49438</ele>
        <time>2011-07-09T10:45:15Z</time>
      </trkpt>
      <trkpt lat="45.84808" lon="4.37973">
        <ele>961.45581</ele>
        <time>2011-07-09T10:45:20Z</time>
      </trkpt>
      <trkpt lat="45.84816" lon="4.37945">
        <ele>962.8977</ele>
        <time>2011-07-09T10:45:26Z</time>
      </trkpt>
      <trkpt lat="45.84824" lon="4.37919">
        <ele>963.37841</ele>
        <time>2011-07-09T10:45:31Z</time>
      </trkpt>
      <trkpt lat="45.84832" lon="4.37894">
        <ele>964.33959</ele>
        <time>2011-07-09T10:45:37Z</time>
      </trkpt>
      <trkpt lat="45.84842" lon="4.37862">
        <ele>965.78173</ele>
        <time>2011-07-09T10:45:44Z</time>
      </trkpt>
      <trkpt lat="45.8485" lon="4.37845">
        <ele>966.74291</ele>
        <time>2011-07-09T10:45:48Z</time>
      </trkpt>
      <trkpt lat="45.84861" lon="4.37813">
        <ele>967.22363</ele>
        <time>2011-07-09T10:45:55Z</time>
      </trkpt>
      <trkpt lat="45.84868" lon="4.37786">
        <ele>968.18481</ele>
        <time>2011-07-09T10:46:01Z</time>
      </trkpt>
      <trkpt lat="45.84872" lon="4.37774">
        <ele>969.62695</ele>
        <time>2011-07-09T10:46:05Z</time>
      </trkpt>
      <trkpt lat="45.8488" lon="4.37778">
        <ele>971.54931</ele>
        <time>2011-07-09T10:46:10Z</time>
      </trkpt>
      <trkpt lat="45.84881" lon="4.37779">
        <ele>972.03027</ele>
        <time>2011-07-09T10:46:11Z</time>
      </trkpt>
      <trkpt lat="45.84885" lon="4.3779">
        <ele>973.95288</ele>
        <time>2011-07-09T10:46:16Z</time>
      </trkpt>
      <trkpt lat="45.84889" lon="4.37802">
        <ele>974.9143</ele>
        <time>2011-07-09T10:46:21Z</time>
      </trkpt>
      <trkpt lat="45.84892" lon="4.3781">
        <ele>975.39477</ele>
        <time>2011-07-09T10:46:25Z</time>
      </trkpt>
      <trkpt lat="45.84897" lon="4.3782">
        <ele>976.83691</ele>
        <time>2011-07-09T10:46:28Z</time>
      </trkpt>
      <trkpt lat="45.849" lon="4.37838">
        <ele>978.75952</ele>
        <time>2011-07-09T10:46:34Z</time>
      </trkpt>
      <trkpt lat="45.84903" lon="4.3785">
        <ele>980.68212</ele>
        <time>2011-07-09T10:46:37Z</time>
      </trkpt>
      <trkpt lat="45.84912" lon="4.3787">
        <ele>981.64331</ele>
        <time>2011-07-09T10:46:42Z</time>
      </trkpt>
      <trkpt lat="45.8492" lon="4.37895">
        <ele>984.04663</ele>
        <time>2011-07-09T10:46:49Z</time>
      </trkpt>
      <trkpt lat="45.84925" lon="4.37913">
        <ele>985.48852</ele>
        <time>2011-07-09T10:46:54Z</time>
      </trkpt>
      <trkpt lat="45.84931" lon="4.37931">
        <ele>987.41113</ele>
        <time>2011-07-09T10:46:59Z</time>
      </trkpt>
      <trkpt lat="45.84937" lon="4.37946">
        <ele>989.81469</ele>
        <time>2011-07-09T10:47:05Z</time>
      </trkpt>
      <trkpt lat="45.84943" lon="4.37953">
        <ele>990.29541</ele>
        <time>2011-07-09T10:47:09Z</time>
      </trkpt>
      <trkpt lat="45.84959" lon="4.37969">
        <ele>993.65991</ele>
        <time>2011-07-09T10:47:19Z</time>
      </trkpt>
      <trkpt lat="45.84964" lon="4.37973">
        <ele>994.62109</ele>
        <time>2011-07-09T10:47:21Z</time>
      </trkpt>
      <trkpt lat="45.84979" lon="4.37983">
        <ele>996.06323</ele>
        <time>2011-07-09T10:47:27Z</time>
      </trkpt>
      <trkpt lat="45.8499" lon="4.37992">
        <ele>997.50512</ele>
        <time>2011-07-09T10:47:34Z</time>
      </trkpt>
      <trkpt lat="45.85012" lon="4.38007">
        <ele>998.4663</ele>
        <time>2011-07-09T10:47:41Z</time>
      </trkpt>
      <trkpt lat="45.85015" lon="4.38008">
        <ele>998.94702</ele>
        <time>2011-07-09T10:47:42Z</time>
      </trkpt>
      <trkpt lat="45.85023" lon="4.38011">
        <ele>1000.3891</ele>
        <time>2011-07-09T10:47:46Z</time>
      </trkpt>
      <trkpt lat="45.85036" lon="4.38015">
        <ele>999.90844</ele>
        <time>2011-07-09T10:47:54Z</time>
      </trkpt>
      <trkpt lat="45.85047" lon="4.38015">
        <ele>1000.8696</ele>
        <time>2011-07-09T10:48:01Z</time>
      </trkpt>
      <trkpt lat="45.85056" lon="4.38012">
        <ele>1000.8696</ele>
        <time>2011-07-09T10:48:07Z</time>
      </trkpt>
      <trkpt lat="45.85063" lon="4.38013">
        <ele>1000.8696</ele>
        <time>2011-07-09T10:48:14Z</time>
      </trkpt>
      <trkpt lat="45.85069" lon="4.38019">
        <ele>1001.3503</ele>
        <time>2011-07-09T10:48:45Z</time>
      </trkpt>
      <trkpt lat="45.85074" lon="4.38016">
        <ele>1001.3503</ele>
        <time>2011-07-09T10:49:11Z</time>
      </trkpt>
      <trkpt lat="45.8507" lon="4.38016">
        <ele>1001.3503</ele>
        <time>2011-07-09T10:49:46Z</time>
      </trkpt>
      <trkpt lat="45.85068" lon="4.38015">
        <ele>1000.8696</ele>
        <time>2011-07-09T10:50:22Z</time>
      </trkpt>
      <trkpt lat="45.85068" lon="4.38014">
        <ele>1001.3503</ele>
        <time>2011-07-09T10:50:46Z</time>
      </trkpt>
      <trkpt lat="45.85069" lon="4.38014">
        <ele>1001.3503</ele>
        <time>2011-07-09T10:51:07Z</time>
      </trkpt>
      <trkpt lat="45.85069" lon="4.38013">
        <ele>1001.831</ele>
        <time>2011-07-09T10:51:21Z</time>
      </trkpt>
      <trkpt lat="45.8507" lon="4.38013">
        <ele>1001.3503</ele>
        <time>2011-07-09T10:51:35Z</time>
      </trkpt>
      <trkpt lat="45.85071" lon="4.38014">
        <ele>1000.8696</ele>
        <time>2011-07-09T10:52:01Z</time>
      </trkpt>
      <trkpt lat="45.85072" lon="4.38014">
        <ele>1000.8696</ele>
        <time>2011-07-09T10:52:15Z</time>
      </trkpt>
      <trkpt lat="45.85073" lon="4.38015">
        <ele>1000.3891</ele>
        <time>2011-07-09T10:52:31Z</time>
      </trkpt>
      <trkpt lat="45.85073" lon="4.38017">
        <ele>1001.3503</ele>
        <time>2011-07-09T10:52:42Z</time>
      </trkpt>
      <trkpt lat="45.85074" lon="4.38018">
        <ele>1000.8696</ele>
        <time>2011-07-09T10:53:00Z</time>
      </trkpt>
      <trkpt lat="45.85068" lon="4.38016">
        <ele>1000.8696</ele>
        <time>2011-07-09T10:53:23Z</time>
      </trkpt>
      <trkpt lat="45.85067" lon="4.38016">
        <ele>1001.3503</ele>
        <time>2011-07-09T10:53:28Z</time>
      </trkpt>
      <trkpt lat="45.85067" lon="4.38015">
        <ele>1000.8696</ele>
        <time>2011-07-09T10:53:34Z</time>
      </trkpt>
      <trkpt lat="45.85063" lon="4.38008">
        <ele>1000.3891</ele>
        <time>2011-07-09T10:55:37Z</time>
      </trkpt>
      <trkpt lat="45.85061" lon="4.38008">
        <ele>1000.8696</ele>
        <time>2011-07-09T10:55:54Z</time>
      </trkpt>
      <trkpt lat="45.85063" lon="4.38006">
        <ele>1000.3891</ele>
        <time>2011-07-09T10:56:08Z</time>
      </trkpt>
      <trkpt lat="45.85063" lon="4.38011">
        <ele>1000.3891</ele>
        <time>2011-07-09T10:56:20Z</time>
      </trkpt>
      <trkpt lat="45.85063" lon="4.38012">
        <ele>1000.3891</ele>
        <time>2011-07-09T10:56:29Z</time>
      </trkpt>
      <trkpt lat="45.85064" lon="4.38016">
        <ele>1000.3891</ele>
        <time>2011-07-09T10:56:49Z</time>
      </trkpt>
      <trkpt lat="45.85065" lon="4.38015">
        <ele>1000.3891</ele>
        <time>2011-07-09T10:57:00Z</time>
      </trkpt>
      <trkpt lat="45.85064" lon="4.38012">
        <ele>1000.3891</ele>
        <time>2011-07-09T10:57:11Z</time>
      </trkpt>
      <trkpt lat="45.85064" lon="4.38013">
        <ele>1001.3503</ele>
        <time>2011-07-09T10:57:28Z</time>
      </trkpt>
      <trkpt lat="45.85057" lon="4.38009">
        <ele>1001.831</ele>
        <time>2011-07-09T10:57:44Z</time>
      </trkpt>
      <trkpt lat="45.85061" lon="4.3801">
        <ele>1001.3503</ele>
        <time>2011-07-09T10:58:03Z</time>
      </trkpt>
      <trkpt lat="45.85064" lon="4.38012">
        <ele>1001.831</ele>
        <time>2011-07-09T10:58:14Z</time>
      </trkpt>
      <trkpt lat="45.85067" lon="4.38003">
        <ele>1001.3503</ele>
        <time>2011-07-09T11:00:38Z</time>
      </trkpt>
      <trkpt lat="45.85067" lon="4.38004">
        <ele>1002.3115</ele>
        <time>2011-07-09T11:00:50Z</time>
      </trkpt>
      <trkpt lat="45.85067" lon="4.38007">
        <ele>1002.7922</ele>
        <time>2011-07-09T11:01:11Z</time>
      </trkpt>
      <trkpt lat="45.85068" lon="4.3801">
        <ele>1001.831</ele>
        <time>2011-07-09T11:02:17Z</time>
      </trkpt>
      <trkpt lat="45.85064" lon="4.38015">
        <ele>1002.7922</ele>
        <time>2011-07-09T11:02:25Z</time>
      </trkpt>
      <trkpt lat="45.85063" lon="4.38012">
        <ele>1002.3115</ele>
        <time>2011-07-09T11:02:36Z</time>
      </trkpt>
      <trkpt lat="45.85062" lon="4.3801">
        <ele>1002.7922</ele>
        <time>2011-07-09T11:02:50Z</time>
      </trkpt>
      <trkpt lat="45.85066" lon="4.3801">
        <ele>1002.3115</ele>
        <time>2011-07-09T11:03:19Z</time>
      </trkpt>
      <trkpt lat="45.85064" lon="4.38018">
        <ele>1001.3503</ele>
        <time>2011-07-09T11:04:09Z</time>
      </trkpt>
      <trkpt lat="45.85064" lon="4.38011">
        <ele>1001.3503</ele>
        <time>2011-07-09T11:04:42Z</time>
      </trkpt>
      <trkpt lat="45.8506" lon="4.38006">
        <ele>1001.3503</ele>
        <time>2011-07-09T11:04:51Z</time>
      </trkpt>
      <trkpt lat="45.85057" lon="4.38004">
        <ele>1001.3503</ele>
        <time>2011-07-09T11:05:01Z</time>
      </trkpt>
      <trkpt lat="45.85055" lon="4.38005">
        <ele>1001.3503</ele>
        <time>2011-07-09T11:05:15Z</time>
      </trkpt>
      <trkpt lat="45.85061" lon="4.38012">
        <ele>1001.831</ele>
        <time>2011-07-09T11:05:29Z</time>
      </trkpt>
      <trkpt lat="45.85068" lon="4.38021">
        <ele>1001.3503</ele>
        <time>2011-07-09T11:06:21Z</time>
      </trkpt>
      <trkpt lat="45.85058" lon="4.38015">
        <ele>1002.3115</ele>
        <time>2011-07-09T11:07:17Z</time>
      </trkpt>
      <trkpt lat="45.85065" lon="4.38015">
        <ele>1002.7922</ele>
        <time>2011-07-09T11:08:32Z</time>
      </trkpt>
      <trkpt lat="45.85066" lon="4.38015">
        <ele>1002.3115</ele>
        <time>2011-07-09T11:08:50Z</time>
      </trkpt>
      <trkpt lat="45.85067" lon="4.38013">
        <ele>1002.3115</ele>
        <time>2011-07-09T11:09:26Z</time>
      </trkpt>
      <trkpt lat="45.85069" lon="4.38014">
        <ele>1002.7922</ele>
        <time>2011-07-09T11:10:00Z</time>
      </trkpt>
      <trkpt lat="45.85073" lon="4.38008">
        <ele>1002.3115</ele>
        <time>2011-07-09T11:11:09Z</time>
      </trkpt>
      <trkpt lat="45.85073" lon="4.38009">
        <ele>1002.3115</ele>
        <time>2011-07-09T11:11:20Z</time>
      </trkpt>
      <trkpt lat="45.85071" lon="4.38013">
        <ele>1002.7922</ele>
        <time>2011-07-09T11:11:29Z</time>
      </trkpt>
      <trkpt lat="45.85067" lon="4.38005">
        <ele>1002.7922</ele>
        <time>2011-07-09T11:12:30Z</time>
      </trkpt>
      <trkpt lat="45.85065" lon="4.38004">
        <ele>1002.7922</ele>
        <time>2011-07-09T11:13:02Z</time>
      </trkpt>
      <trkpt lat="45.85064" lon="4.38004">
        <ele>1003.2729</ele>
        <time>2011-07-09T11:13:17Z</time>
      </trkpt>
      <trkpt lat="45.85064" lon="4.38004">
        <ele>1002.7922</ele>
        <time>2011-07-09T11:13:38Z</time>
      </trkpt>
      <trkpt lat="45.85064" lon="4.38006">
        <ele>1002.3115</ele>
        <time>2011-07-09T11:14:00Z</time>
      </trkpt>
      <trkpt lat="45.85063" lon="4.38007">
        <ele>1002.7922</ele>
        <time>2011-07-09T11:14:19Z</time>
      </trkpt>
      <trkpt lat="45.85059" lon="4.38">
        <ele>1002.7922</ele>
        <time>2011-07-09T11:14:43Z</time>
      </trkpt>
      <trkpt lat="45.8506" lon="4.38005">
        <ele>1003.7536</ele>
        <time>2011-07-09T11:17:06Z</time>
      </trkpt>
      <trkpt lat="45.85066" lon="4.3801">
        <ele>1003.2729</ele>
        <time>2011-07-09T11:19:21Z</time>
      </trkpt>
      <trkpt lat="45.85062" lon="4.38005">
        <ele>1003.2729</ele>
        <time>2011-07-09T11:20:01Z</time>
      </trkpt>
      <trkpt lat="45.85061" lon="4.38006">
        <ele>1003.2729</ele>
        <time>2011-07-09T11:20:18Z</time>
      </trkpt>
      <trkpt lat="45.85065" lon="4.3801">
        <ele>1003.2729</ele>
        <time>2011-07-09T11:20:52Z</time>
      </trkpt>
      <trkpt lat="45.85063" lon="4.38006">
        <ele>1002.7922</ele>
        <time>2011-07-09T11:22:38Z</time>
      </trkpt>
      <trkpt lat="45.85063" lon="4.38005">
        <ele>1002.7922</ele>
        <time>2011-07-09T11:22:50Z</time>
      </trkpt>
      <trkpt lat="45.85065" lon="4.38006">
        <ele>1002.3115</ele>
        <time>2011-07-09T11:23:22Z</time>
      </trkpt>
      <trkpt lat="45.85064" lon="4.3801">
        <ele>1002.3115</ele>
        <time>2011-07-09T11:23:37Z</time>
      </trkpt>
      <trkpt lat="45.85064" lon="4.38012">
        <ele>1002.3115</ele>
        <time>2011-07-09T11:26:24Z</time>
      </trkpt>
      <trkpt lat="45.85064" lon="4.38011">
        <ele>1002.7922</ele>
        <time>2011-07-09T11:29:16Z</time>
      </trkpt>
      <trkpt lat="45.85065" lon="4.38016">
        <ele>1002.7922</ele>
        <time>2011-07-09T11:29:42Z</time>
      </trkpt>
      <trkpt lat="45.85062" lon="4.38012">
        <ele>1003.2729</ele>
        <time>2011-07-09T11:30:18Z</time>
      </trkpt>
      <trkpt lat="45.85062" lon="4.38008">
        <ele>1004.2346</ele>
        <time>2011-07-09T11:30:54Z</time>
      </trkpt>
      <trkpt lat="45.85062" lon="4.38007">
        <ele>1004.2346</ele>
        <time>2011-07-09T11:31:13Z</time>
      </trkpt>
      <trkpt lat="45.85063" lon="4.38009">
        <ele>1003.7536</ele>
        <time>2011-07-09T11:31:56Z</time>
      </trkpt>
      <trkpt lat="45.85063" lon="4.3801">
        <ele>1004.2346</ele>
        <time>2011-07-09T11:32:11Z</time>
      </trkpt>
      <trkpt lat="45.85062" lon="4.38008">
        <ele>1003.2729</ele>
        <time>2011-07-09T11:32:30Z</time>
      </trkpt>
      <trkpt lat="45.85066" lon="4.38018">
        <ele>1003.7536</ele>
        <time>2011-07-09T11:32:54Z</time>
      </trkpt>
      <trkpt lat="45.85067" lon="4.38019">
        <ele>1004.2346</ele>
        <time>2011-07-09T11:33:23Z</time>
      </trkpt>
      <trkpt lat="45.85069" lon="4.38016">
        <ele>1004.715</ele>
        <time>2011-07-09T11:34:47Z</time>
      </trkpt>
      <trkpt lat="45.85069" lon="4.38015">
        <ele>1004.715</ele>
        <time>2011-07-09T11:35:11Z</time>
      </trkpt>
      <trkpt lat="45.85068" lon="4.38015">
        <ele>1004.715</ele>
        <time>2011-07-09T11:35:25Z</time>
      </trkpt>
      <trkpt lat="45.85064" lon="4.38016">
        <ele>1005.1958</ele>
        <time>2011-07-09T11:37:14Z</time>
      </trkpt>
      <trkpt lat="45.85063" lon="4.38018">
        <ele>1005.1958</ele>
        <time>2011-07-09T11:37:45Z</time>
      </trkpt>
      <trkpt lat="45.85064" lon="4.38017">
        <ele>1005.1958</ele>
        <time>2011-07-09T11:37:56Z</time>
      </trkpt>
      <trkpt lat="45.8507" lon="4.38012">
        <ele>1005.1958</ele>
        <time>2011-07-09T11:38:55Z</time>
      </trkpt>
      <trkpt lat="45.85069" lon="4.38012">
        <ele>1004.715</ele>
        <time>2011-07-09T11:39:11Z</time>
      </trkpt>
      <trkpt lat="45.85068" lon="4.38013">
        <ele>1004.715</ele>
        <time>2011-07-09T11:39:33Z</time>
      </trkpt>
      <trkpt lat="45.85068" lon="4.38013">
        <ele>1005.1958</ele>
        <time>2011-07-09T11:39:50Z</time>
      </trkpt>
      <trkpt lat="45.85068" lon="4.38014">
        <ele>1005.1958</ele>
        <time>2011-07-09T11:40:09Z</time>
      </trkpt>
      <trkpt lat="45.85068" lon="4.38014">
        <ele>1005.1958</ele>
        <time>2011-07-09T11:40:47Z</time>
      </trkpt>
      <trkpt lat="45.85067" lon="4.38013">
        <ele>1004.715</ele>
        <time>2011-07-09T11:40:58Z</time>
      </trkpt>
      <trkpt lat="45.85067" lon="4.38013">
        <ele>1005.1958</ele>
        <time>2011-07-09T11:41:10Z</time>
      </trkpt>
      <trkpt lat="45.85066" lon="4.38013">
        <ele>1005.1958</ele>
        <time>2011-07-09T11:42:03Z</time>
      </trkpt>
      <trkpt lat="45.85066" lon="4.38013">
        <ele>1004.715</ele>
        <time>2011-07-09T11:42:40Z</time>
      </trkpt>
      <trkpt lat="45.85066" lon="4.38013">
        <ele>1004.715</ele>
        <time>2011-07-09T11:42:52Z</time>
      </trkpt>
      <trkpt lat="45.85067" lon="4.38012">
        <ele>1004.715</ele>
        <time>2011-07-09T11:43:13Z</time>
      </trkpt>
      <trkpt lat="45.85068" lon="4.38011">
        <ele>1004.715</ele>
        <time>2011-07-09T11:43:40Z</time>
      </trkpt>
      <trkpt lat="45.85068" lon="4.38012">
        <ele>1004.715</ele>
        <time>2011-07-09T11:43:56Z</time>
      </trkpt>
      <trkpt lat="45.85067" lon="4.38012">
        <ele>1004.715</ele>
        <time>2011-07-09T11:44:10Z</time>
      </trkpt>
      <trkpt lat="45.85068" lon="4.38013">
        <ele>1004.715</ele>
        <time>2011-07-09T11:44:34Z</time>
      </trkpt>
      <trkpt lat="45.85068" lon="4.38013">
        <ele>1005.1958</ele>
        <time>2011-07-09T11:44:49Z</time>
      </trkpt>
      <trkpt lat="45.85065" lon="4.38014">
        <ele>1005.1958</ele>
        <time>2011-07-09T11:44:59Z</time>
      </trkpt>
      <trkpt lat="45.85064" lon="4.38013">
        <ele>1005.1958</ele>
        <time>2011-07-09T11:45:16Z</time>
      </trkpt>
      <trkpt lat="45.85063" lon="4.38012">
        <ele>1005.1958</ele>
        <time>2011-07-09T11:45:28Z</time>
      </trkpt>
      <trkpt lat="45.85064" lon="4.38012">
        <ele>1005.1958</ele>
        <time>2011-07-09T11:45:58Z</time>
      </trkpt>
      <trkpt lat="45.85065" lon="4.38012">
        <ele>1004.715</ele>
        <time>2011-07-09T11:46:22Z</time>
      </trkpt>
      <trkpt lat="45.85066" lon="4.38012">
        <ele>1004.715</ele>
        <time>2011-07-09T11:46:38Z</time>
      </trkpt>
      <trkpt lat="45.85066" lon="4.38012">
        <ele>1004.715</ele>
        <time>2011-07-09T11:46:56Z</time>
      </trkpt>
      <trkpt lat="45.85062" lon="4.38025">
        <ele>1005.1958</ele>
        <time>2011-07-09T11:48:11Z</time>
      </trkpt>
      <trkpt lat="45.85061" lon="4.38025">
        <ele>1005.1958</ele>
        <time>2011-07-09T11:48:34Z</time>
      </trkpt>
      <trkpt lat="45.85062" lon="4.38024">
        <ele>1004.715</ele>
        <time>2011-07-09T11:48:47Z</time>
      </trkpt>
      <trkpt lat="45.8506" lon="4.38027">
        <ele>1004.715</ele>
        <time>2011-07-09T11:49:05Z</time>
      </trkpt>
      <trkpt lat="45.85063" lon="4.38019">
        <ele>1004.715</ele>
        <time>2011-07-09T11:49:27Z</time>
      </trkpt>
      <trkpt lat="45.85065" lon="4.38013">
        <ele>1005.6765</ele>
        <time>2011-07-09T11:52:07Z</time>
      </trkpt>
      <trkpt lat="45.85063" lon="4.38011">
        <ele>1005.6765</ele>
        <time>2011-07-09T11:52:32Z</time>
      </trkpt>
      <trkpt lat="45.85063" lon="4.38013">
        <ele>1005.6765</ele>
        <time>2011-07-09T11:52:48Z</time>
      </trkpt>
      <trkpt lat="45.85063" lon="4.38016">
        <ele>1005.6765</ele>
        <time>2011-07-09T11:53:07Z</time>
      </trkpt>
      <trkpt lat="45.85063" lon="4.38015">
        <ele>1005.6765</ele>
        <time>2011-07-09T11:53:17Z</time>
      </trkpt>
      <trkpt lat="45.85062" lon="4.38012">
        <ele>1005.6765</ele>
        <time>2011-07-09T11:53:27Z</time>
      </trkpt>
      <trkpt lat="45.85066" lon="4.37996">
        <ele>1004.715</ele>
        <time>2011-07-09T11:53:33Z</time>
      </trkpt>
      <trkpt lat="45.85065" lon="4.37988">
        <ele>1003.2729</ele>
        <time>2011-07-09T11:53:36Z</time>
      </trkpt>
      <trkpt lat="45.85057" lon="4.37959">
        <ele>1002.3115</ele>
        <time>2011-07-09T11:53:41Z</time>
      </trkpt>
      <trkpt lat="45.85053" lon="4.37922">
        <ele>1000.3891</ele>
        <time>2011-07-09T11:53:45Z</time>
      </trkpt>
      <trkpt lat="45.85042" lon="4.37879">
        <ele>996.06323</ele>
        <time>2011-07-09T11:53:49Z</time>
      </trkpt>
      <trkpt lat="45.85039" lon="4.37868">
        <ele>996.06323</ele>
        <time>2011-07-09T11:53:50Z</time>
      </trkpt>
      <trkpt lat="45.85029" lon="4.37828">
        <ele>994.14062</ele>
        <time>2011-07-09T11:53:54Z</time>
      </trkpt>
      <trkpt lat="45.85028" lon="4.37807">
        <ele>992.69873</ele>
        <time>2011-07-09T11:53:56Z</time>
      </trkpt>
      <trkpt lat="45.85029" lon="4.37775">
        <ele>991.25659</ele>
        <time>2011-07-09T11:53:59Z</time>
      </trkpt>
      <trkpt lat="45.85028" lon="4.37757">
        <ele>990.29541</ele>
        <time>2011-07-09T11:54:01Z</time>
      </trkpt>
      <trkpt lat="45.85023" lon="4.37744">
        <ele>990.29541</ele>
        <time>2011-07-09T11:54:03Z</time>
      </trkpt>
      <trkpt lat="45.85018" lon="4.37721">
        <ele>988.85351</ele>
        <time>2011-07-09T11:54:06Z</time>
      </trkpt>
      <trkpt lat="45.85007" lon="4.37697">
        <ele>987.41113</ele>
        <time>2011-07-09T11:54:10Z</time>
      </trkpt>
      <trkpt lat="45.85002" lon="4.37694">
        <ele>985.96923</ele>
        <time>2011-07-09T11:54:11Z</time>
      </trkpt>
      <trkpt lat="45.84963" lon="4.37663">
        <ele>985.00805</ele>
        <time>2011-07-09T11:54:19Z</time>
      </trkpt>
      <trkpt lat="45.84934" lon="4.37639">
        <ele>984.52734</ele>
        <time>2011-07-09T11:54:25Z</time>
      </trkpt>
      <trkpt lat="45.84916" lon="4.37616">
        <ele>983.56591</ele>
        <time>2011-07-09T11:54:30Z</time>
      </trkpt>
      <trkpt lat="45.84919" lon="4.37605">
        <ele>982.60473</ele>
        <time>2011-07-09T11:54:33Z</time>
      </trkpt>
      <trkpt lat="45.84928" lon="4.3758">
        <ele>980.20141</ele>
        <time>2011-07-09T11:54:38Z</time>
      </trkpt>
      <trkpt lat="45.8493" lon="4.37573">
        <ele>980.20141</ele>
        <time>2011-07-09T11:54:39Z</time>
      </trkpt>
      <trkpt lat="45.84937" lon="4.37558">
        <ele>979.23999</ele>
        <time>2011-07-09T11:54:41Z</time>
      </trkpt>
      <trkpt lat="45.84962" lon="4.37519">
        <ele>973.95288</ele>
        <time>2011-07-09T11:54:46Z</time>
      </trkpt>
      <trkpt lat="45.84984" lon="4.3748">
        <ele>968.18481</ele>
        <time>2011-07-09T11:54:50Z</time>
      </trkpt>
      <trkpt lat="45.84994" lon="4.37462">
        <ele>963.85888</ele>
        <time>2011-07-09T11:54:52Z</time>
      </trkpt>
      <trkpt lat="45.85007" lon="4.37442">
        <ele>959.5332</ele>
        <time>2011-07-09T11:54:54Z</time>
      </trkpt>
      <trkpt lat="45.85025" lon="4.37408">
        <ele>957.61059</ele>
        <time>2011-07-09T11:54:57Z</time>
      </trkpt>
      <trkpt lat="45.85032" lon="4.37397">
        <ele>952.80371</ele>
        <time>2011-07-09T11:54:58Z</time>
      </trkpt>
      <trkpt lat="45.85058" lon="4.3735">
        <ele>948.47778</ele>
        <time>2011-07-09T11:55:02Z</time>
      </trkpt>
      <trkpt lat="45.85071" lon="4.37326">
        <ele>945.11328</ele>
        <time>2011-07-09T11:55:04Z</time>
      </trkpt>
      <trkpt lat="45.85077" lon="4.37315">
        <ele>943.19067</ele>
        <time>2011-07-09T11:55:05Z</time>
      </trkpt>
      <trkpt lat="45.851" lon="4.37257">
        <ele>938.38403</ele>
        <time>2011-07-09T11:55:10Z</time>
      </trkpt>
      <trkpt lat="45.85116" lon="4.372">
        <ele>935.5</ele>
        <time>2011-07-09T11:55:14Z</time>
      </trkpt>
      <trkpt lat="45.85129" lon="4.37139">
        <ele>933.09667</ele>
        <time>2011-07-09T11:55:18Z</time>
      </trkpt>
      <trkpt lat="45.85148" lon="4.37066">
        <ele>930.21289</ele>
        <time>2011-07-09T11:55:23Z</time>
      </trkpt>
      <trkpt lat="45.85151" lon="4.37054">
        <ele>930.21289</ele>
        <time>2011-07-09T11:55:24Z</time>
      </trkpt>
      <trkpt lat="45.85158" lon="4.37029">
        <ele>929.25146</ele>
        <time>2011-07-09T11:55:26Z</time>
      </trkpt>
      <trkpt lat="45.85179" lon="4.36987">
        <ele>927.80957</ele>
        <time>2011-07-09T11:55:30Z</time>
      </trkpt>
      <trkpt lat="45.85207" lon="4.36934">
        <ele>923.48364</ele>
        <time>2011-07-09T11:55:35Z</time>
      </trkpt>
      <trkpt lat="45.85245" lon="4.36867">
        <ele>919.63842</ele>
        <time>2011-07-09T11:55:41Z</time>
      </trkpt>
      <trkpt lat="45.85267" lon="4.3683">
        <ele>916.27368</ele>
        <time>2011-07-09T11:55:44Z</time>
      </trkpt>
      <trkpt lat="45.85293" lon="4.36792">
        <ele>913.38989</ele>
        <time>2011-07-09T11:55:47Z</time>
      </trkpt>
      <trkpt lat="45.85332" lon="4.36737">
        <ele>910.02514</ele>
        <time>2011-07-09T11:55:51Z</time>
      </trkpt>
      <trkpt lat="45.85348" lon="4.36713">
        <ele>908.58325</ele>
        <time>2011-07-09T11:55:53Z</time>
      </trkpt>
      <trkpt lat="45.85373" lon="4.36676">
        <ele>906.17968</ele>
        <time>2011-07-09T11:55:56Z</time>
      </trkpt>
      <trkpt lat="45.85399" lon="4.36639">
        <ele>901.37329</ele>
        <time>2011-07-09T11:55:59Z</time>
      </trkpt>
      <trkpt lat="45.85415" lon="4.36614">
        <ele>900.89257</ele>
        <time>2011-07-09T11:56:01Z</time>
      </trkpt>
      <trkpt lat="45.85439" lon="4.36576">
        <ele>898.48925</ele>
        <time>2011-07-09T11:56:04Z</time>
      </trkpt>
      <trkpt lat="45.85455" lon="4.36531">
        <ele>892.24096</ele>
        <time>2011-07-09T11:56:07Z</time>
      </trkpt>
      <trkpt lat="45.85459" lon="4.36514">
        <ele>890.79858</ele>
        <time>2011-07-09T11:56:08Z</time>
      </trkpt>
      <trkpt lat="45.85471" lon="4.36459">
        <ele>885.99218</ele>
        <time>2011-07-09T11:56:11Z</time>
      </trkpt>
      <trkpt lat="45.85482" lon="4.36411">
        <ele>882.14697</ele>
        <time>2011-07-09T11:56:14Z</time>
      </trkpt>
      <trkpt lat="45.85507" lon="4.36364">
        <ele>879.26293</ele>
        <time>2011-07-09T11:56:18Z</time>
      </trkpt>
      <trkpt lat="45.85532" lon="4.36345">
        <ele>878.78247</ele>
        <time>2011-07-09T11:56:21Z</time>
      </trkpt>
      <trkpt lat="45.85548" lon="4.36344">
        <ele>879.26293</ele>
        <time>2011-07-09T11:56:23Z</time>
      </trkpt>
      <trkpt lat="45.85584" lon="4.36339">
        <ele>879.74365</ele>
        <time>2011-07-09T11:56:29Z</time>
      </trkpt>
      <trkpt lat="45.85608" lon="4.36333">
        <ele>881.66625</ele>
        <time>2011-07-09T11:56:35Z</time>
      </trkpt>
      <trkpt lat="45.85621" lon="4.36324">
        <ele>882.62768</ele>
        <time>2011-07-09T11:56:40Z</time>
      </trkpt>
      <trkpt lat="45.85636" lon="4.36309">
        <ele>883.58886</ele>
        <time>2011-07-09T11:56:48Z</time>
      </trkpt>
      <trkpt lat="45.85653" lon="4.3629">
        <ele>885.031</ele>
        <time>2011-07-09T11:56:56Z</time>
      </trkpt>
      <trkpt lat="45.85673" lon="4.36263">
        <ele>886.4729</ele>
        <time>2011-07-09T11:57:05Z</time>
      </trkpt>
      <trkpt lat="45.85692" lon="4.36242">
        <ele>888.87622</ele>
        <time>2011-07-09T11:57:13Z</time>
      </trkpt>
      <trkpt lat="45.85716" lon="4.3622">
        <ele>889.8374</ele>
        <time>2011-07-09T11:57:22Z</time>
      </trkpt>
      <trkpt lat="45.8574" lon="4.36203">
        <ele>890.31811</ele>
        <time>2011-07-09T11:57:30Z</time>
      </trkpt>
      <trkpt lat="45.85762" lon="4.36188">
        <ele>889.8374</ele>
        <time>2011-07-09T11:57:36Z</time>
      </trkpt>
      <trkpt lat="45.85782" lon="4.36181">
        <ele>889.35668</ele>
        <time>2011-07-09T11:57:41Z</time>
      </trkpt>
      <trkpt lat="45.85821" lon="4.36185">
        <ele>887.91479</ele>
        <time>2011-07-09T11:57:49Z</time>
      </trkpt>
      <trkpt lat="45.85867" lon="4.36197">
        <ele>886.95336</ele>
        <time>2011-07-09T11:57:57Z</time>
      </trkpt>
      <trkpt lat="45.85905" lon="4.36208">
        <ele>885.99218</ele>
        <time>2011-07-09T11:58:04Z</time>
      </trkpt>
      <trkpt lat="45.8592" lon="4.36211">
        <ele>885.99218</ele>
        <time>2011-07-09T11:58:07Z</time>
      </trkpt>
      <trkpt lat="45.85948" lon="4.36216">
        <ele>886.4729</ele>
        <time>2011-07-09T11:58:13Z</time>
      </trkpt>
      <trkpt lat="45.85984" lon="4.3623">
        <ele>888.87622</ele>
        <time>2011-07-09T11:58:22Z</time>
      </trkpt>
      <trkpt lat="45.86015" lon="4.36242">
        <ele>891.27929</ele>
        <time>2011-07-09T11:58:30Z</time>
      </trkpt>
      <trkpt lat="45.86031" lon="4.36246">
        <ele>891.27929</ele>
        <time>2011-07-09T11:58:34Z</time>
      </trkpt>
      <trkpt lat="45.86063" lon="4.36252">
        <ele>890.79858</ele>
        <time>2011-07-09T11:58:41Z</time>
      </trkpt>
      <trkpt lat="45.86078" lon="4.36255">
        <ele>890.79858</ele>
        <time>2011-07-09T11:58:44Z</time>
      </trkpt>
      <trkpt lat="45.86105" lon="4.36263">
        <ele>888.87622</ele>
        <time>2011-07-09T11:58:49Z</time>
      </trkpt>
      <trkpt lat="45.86137" lon="4.36276">
        <ele>888.87622</ele>
        <time>2011-07-09T11:58:55Z</time>
      </trkpt>
      <trkpt lat="45.86178" lon="4.36294">
        <ele>889.35668</ele>
        <time>2011-07-09T11:59:03Z</time>
      </trkpt>
      <trkpt lat="45.86211" lon="4.3631">
        <ele>888.3955</ele>
        <time>2011-07-09T11:59:10Z</time>
      </trkpt>
      <trkpt lat="45.86251" lon="4.36326">
        <ele>887.43408</ele>
        <time>2011-07-09T11:59:18Z</time>
      </trkpt>
      <trkpt lat="45.86285" lon="4.36334">
        <ele>885.51147</ele>
        <time>2011-07-09T11:59:24Z</time>
      </trkpt>
      <trkpt lat="45.86315" lon="4.36334">
        <ele>883.10815</ele>
        <time>2011-07-09T11:59:29Z</time>
      </trkpt>
      <trkpt lat="45.86336" lon="4.36331">
        <ele>882.14697</ele>
        <time>2011-07-09T11:59:32Z</time>
      </trkpt>
      <trkpt lat="45.86385" lon="4.36332">
        <ele>882.14697</ele>
        <time>2011-07-09T11:59:40Z</time>
      </trkpt>
      <trkpt lat="45.86413" lon="4.36332">
        <ele>882.14697</ele>
        <time>2011-07-09T11:59:45Z</time>
      </trkpt>
      <trkpt lat="45.86418" lon="4.36332">
        <ele>882.14697</ele>
        <time>2011-07-09T11:59:46Z</time>
      </trkpt>
      <trkpt lat="45.86441" lon="4.3632">
        <ele>882.62768</ele>
        <time>2011-07-09T11:59:51Z</time>
      </trkpt>
      <trkpt lat="45.86472" lon="4.36288">
        <ele>885.031</ele>
        <time>2011-07-09T11:59:59Z</time>
      </trkpt>
      <trkpt lat="45.86497" lon="4.36258">
        <ele>885.99218</ele>
        <time>2011-07-09T12:00:06Z</time>
      </trkpt>
      <trkpt lat="45.86516" lon="4.36236">
        <ele>885.51147</ele>
        <time>2011-07-09T12:00:12Z</time>
      </trkpt>
      <trkpt lat="45.86527" lon="4.36225">
        <ele>884.55029</ele>
        <time>2011-07-09T12:00:15Z</time>
      </trkpt>
      <trkpt lat="45.86536" lon="4.36214">
        <ele>883.58886</ele>
        <time>2011-07-09T12:00:17Z</time>
      </trkpt>
      <trkpt lat="45.86568" lon="4.36168">
        <ele>882.14697</ele>
        <time>2011-07-09T12:00:24Z</time>
      </trkpt>
      <trkpt lat="45.8658" lon="4.36147">
        <ele>880.70507</ele>
        <time>2011-07-09T12:00:27Z</time>
      </trkpt>
      <trkpt lat="45.86599" lon="4.3611">
        <ele>877.34057</ele>
        <time>2011-07-09T12:00:32Z</time>
      </trkpt>
      <trkpt lat="45.86629" lon="4.36054">
        <ele>874.45629</ele>
        <time>2011-07-09T12:00:39Z</time>
      </trkpt>
      <trkpt lat="45.86656" lon="4.36006">
        <ele>870.61108</ele>
        <time>2011-07-09T12:00:45Z</time>
      </trkpt>
      <trkpt lat="45.8666" lon="4.35998">
        <ele>871.09179</ele>
        <time>2011-07-09T12:00:46Z</time>
      </trkpt>
      <trkpt lat="45.86696" lon="4.35928">
        <ele>869.16918</ele>
        <time>2011-07-09T12:00:55Z</time>
      </trkpt>
      <trkpt lat="45.86716" lon="4.35889">
        <ele>868.20776</ele>
        <time>2011-07-09T12:01:00Z</time>
      </trkpt>
      <trkpt lat="45.86752" lon="4.35817">
        <ele>869.16918</ele>
        <time>2011-07-09T12:01:10Z</time>
      </trkpt>
      <trkpt lat="45.8678" lon="4.3577">
        <ele>870.13037</ele>
        <time>2011-07-09T12:01:18Z</time>
      </trkpt>
      <trkpt lat="45.86792" lon="4.35748">
        <ele>870.61108</ele>
        <time>2011-07-09T12:01:22Z</time>
      </trkpt>
      <trkpt lat="45.86801" lon="4.35727">
        <ele>872.05297</ele>
        <time>2011-07-09T12:01:26Z</time>
      </trkpt>
      <trkpt lat="45.86812" lon="4.35693">
        <ele>872.05297</ele>
        <time>2011-07-09T12:01:32Z</time>
      </trkpt>
      <trkpt lat="45.86828" lon="4.35653">
        <ele>871.09179</ele>
        <time>2011-07-09T12:01:39Z</time>
      </trkpt>
      <trkpt lat="45.86853" lon="4.3561">
        <ele>869.6499</ele>
        <time>2011-07-09T12:01:47Z</time>
      </trkpt>
      <trkpt lat="45.86863" lon="4.35596">
        <ele>868.68847</ele>
        <time>2011-07-09T12:01:50Z</time>
      </trkpt>
      <trkpt lat="45.8689" lon="4.35554">
        <ele>866.28515</ele>
        <time>2011-07-09T12:01:57Z</time>
      </trkpt>
      <trkpt lat="45.8691" lon="4.35513">
        <ele>864.36254</ele>
        <time>2011-07-09T12:02:02Z</time>
      </trkpt>
      <trkpt lat="45.86928" lon="4.35461">
        <ele>861.47875</ele>
        <time>2011-07-09T12:02:07Z</time>
      </trkpt>
      <trkpt lat="45.86946" lon="4.35414">
        <ele>860.99804</ele>
        <time>2011-07-09T12:02:12Z</time>
      </trkpt>
      <trkpt lat="45.86961" lon="4.3538">
        <ele>859.5559</ele>
        <time>2011-07-09T12:02:16Z</time>
      </trkpt>
      <trkpt lat="45.86983" lon="4.3532">
        <ele>857.15258</ele>
        <time>2011-07-09T12:02:23Z</time>
      </trkpt>
      <trkpt lat="45.87" lon="4.35275">
        <ele>856.19116</ele>
        <time>2011-07-09T12:02:29Z</time>
      </trkpt>
      <trkpt lat="45.87013" lon="4.35233">
        <ele>855.22998</ele>
        <time>2011-07-09T12:02:35Z</time>
      </trkpt>
      <trkpt lat="45.87015" lon="4.35227">
        <ele>855.71069</ele>
        <time>2011-07-09T12:02:36Z</time>
      </trkpt>
      <trkpt lat="45.8702" lon="4.35207">
        <ele>854.26879</ele>
        <time>2011-07-09T12:02:39Z</time>
      </trkpt>
      <trkpt lat="45.87023" lon="4.35193">
        <ele>854.26879</ele>
        <time>2011-07-09T12:02:41Z</time>
      </trkpt>
      <trkpt lat="45.87038" lon="4.35168">
        <ele>851.86547</ele>
        <time>2011-07-09T12:02:45Z</time>
      </trkpt>
      <trkpt lat="45.87052" lon="4.35143">
        <ele>849.46215</ele>
        <time>2011-07-09T12:02:48Z</time>
      </trkpt>
      <trkpt lat="45.87061" lon="4.3512">
        <ele>847.53955</ele>
        <time>2011-07-09T12:02:50Z</time>
      </trkpt>
      <trkpt lat="45.87071" lon="4.3508">
        <ele>843.69409</ele>
        <time>2011-07-09T12:02:53Z</time>
      </trkpt>
      <trkpt lat="45.87075" lon="4.35067">
        <ele>843.69409</ele>
        <time>2011-07-09T12:02:54Z</time>
      </trkpt>
      <trkpt lat="45.87079" lon="4.35055">
        <ele>842.25219</ele>
        <time>2011-07-09T12:02:55Z</time>
      </trkpt>
      <trkpt lat="45.87102" lon="4.35016">
        <ele>838.40698</ele>
        <time>2011-07-09T12:02:59Z</time>
      </trkpt>
      <trkpt lat="45.87141" lon="4.34977">
        <ele>836.00366</ele>
        <time>2011-07-09T12:03:04Z</time>
      </trkpt>
      <trkpt lat="45.87182" lon="4.34929">
        <ele>833.11962</ele>
        <time>2011-07-09T12:03:10Z</time>
      </trkpt>
      <trkpt lat="45.87194" lon="4.34912">
        <ele>832.63916</ele>
        <time>2011-07-09T12:03:12Z</time>
      </trkpt>
      <trkpt lat="45.87208" lon="4.34886">
        <ele>832.15844</ele>
        <time>2011-07-09T12:03:15Z</time>
      </trkpt>
      <trkpt lat="45.87223" lon="4.34864">
        <ele>832.15844</ele>
        <time>2011-07-09T12:03:18Z</time>
      </trkpt>
      <trkpt lat="45.87242" lon="4.34848">
        <ele>832.15844</ele>
        <time>2011-07-09T12:03:22Z</time>
      </trkpt>
      <trkpt lat="45.87278" lon="4.34835">
        <ele>833.11962</ele>
        <time>2011-07-09T12:03:30Z</time>
      </trkpt>
      <trkpt lat="45.87297" lon="4.34832">
        <ele>834.56176</ele>
        <time>2011-07-09T12:03:35Z</time>
      </trkpt>
      <trkpt lat="45.87321" lon="4.34829">
        <ele>836.96484</ele>
        <time>2011-07-09T12:03:42Z</time>
      </trkpt>
      <trkpt lat="45.87342" lon="4.34829">
        <ele>837.92626</ele>
        <time>2011-07-09T12:03:49Z</time>
      </trkpt>
      <trkpt lat="45.87366" lon="4.34827">
        <ele>838.88769</ele>
        <time>2011-07-09T12:03:57Z</time>
      </trkpt>
      <trkpt lat="45.87385" lon="4.34824">
        <ele>840.81005</ele>
        <time>2011-07-09T12:04:04Z</time>
      </trkpt>
      <trkpt lat="45.87404" lon="4.34823">
        <ele>841.29077</ele>
        <time>2011-07-09T12:04:12Z</time>
      </trkpt>
      <trkpt lat="45.87417" lon="4.34827">
        <ele>843.69409</ele>
        <time>2011-07-09T12:04:19Z</time>
      </trkpt>
      <trkpt lat="45.87431" lon="4.34823">
        <ele>846.09765</ele>
        <time>2011-07-09T12:04:26Z</time>
      </trkpt>
      <trkpt lat="45.87433" lon="4.34822">
        <ele>846.09765</ele>
        <time>2011-07-09T12:04:27Z</time>
      </trkpt>
      <trkpt lat="45.87439" lon="4.34816">
        <ele>848.02026</ele>
        <time>2011-07-09T12:04:30Z</time>
      </trkpt>
      <trkpt lat="45.87448" lon="4.3481">
        <ele>849.94287</ele>
        <time>2011-07-09T12:04:35Z</time>
      </trkpt>
      <trkpt lat="45.87453" lon="4.34807">
        <ele>849.94287</ele>
        <time>2011-07-09T12:04:38Z</time>
      </trkpt>
      <trkpt lat="45.87468" lon="4.34787">
        <ele>851.86547</ele>
        <time>2011-07-09T12:04:48Z</time>
      </trkpt>
      <trkpt lat="45.87473" lon="4.34774">
        <ele>852.34594</ele>
        <time>2011-07-09T12:04:53Z</time>
      </trkpt>
      <trkpt lat="45.87476" lon="4.34767">
        <ele>853.30737</ele>
        <time>2011-07-09T12:04:56Z</time>
      </trkpt>
      <trkpt lat="45.87486" lon="4.34755">
        <ele>852.34594</ele>
        <time>2011-07-09T12:05:03Z</time>
      </trkpt>
      <trkpt lat="45.87495" lon="4.34743">
        <ele>851.38476</ele>
        <time>2011-07-09T12:05:06Z</time>
      </trkpt>
      <trkpt lat="45.87515" lon="4.34697">
        <ele>849.94287</ele>
        <time>2011-07-09T12:05:13Z</time>
      </trkpt>
      <trkpt lat="45.87517" lon="4.3469">
        <ele>849.94287</ele>
        <time>2011-07-09T12:05:14Z</time>
      </trkpt>
      <trkpt lat="45.8752" lon="4.34676">
        <ele>849.94287</ele>
        <time>2011-07-09T12:05:16Z</time>
      </trkpt>
      <trkpt lat="45.87531" lon="4.34638">
        <ele>849.94287</ele>
        <time>2011-07-09T12:05:23Z</time>
      </trkpt>
      <trkpt lat="45.87546" lon="4.34589">
        <ele>850.42358</ele>
        <time>2011-07-09T12:05:32Z</time>
      </trkpt>
      <trkpt lat="45.87566" lon="4.34534">
        <ele>850.42358</ele>
        <time>2011-07-09T12:05:42Z</time>
      </trkpt>
      <trkpt lat="45.87581" lon="4.34502">
        <ele>850.42358</ele>
        <time>2011-07-09T12:05:48Z</time>
      </trkpt>
      <trkpt lat="45.87602" lon="4.3446">
        <ele>850.42358</ele>
        <time>2011-07-09T12:05:56Z</time>
      </trkpt>
      <trkpt lat="45.87625" lon="4.34419">
        <ele>849.94287</ele>
        <time>2011-07-09T12:06:04Z</time>
      </trkpt>
      <trkpt lat="45.87643" lon="4.3438">
        <ele>849.94287</ele>
        <time>2011-07-09T12:06:11Z</time>
      </trkpt>
      <trkpt lat="45.87655" lon="4.34352">
        <ele>849.94287</ele>
        <time>2011-07-09T12:06:16Z</time>
      </trkpt>
      <trkpt lat="45.8767" lon="4.34315">
        <ele>850.42358</ele>
        <time>2011-07-09T12:06:23Z</time>
      </trkpt>
      <trkpt lat="45.87682" lon="4.34282">
        <ele>851.86547</ele>
        <time>2011-07-09T12:06:30Z</time>
      </trkpt>
      <trkpt lat="45.87687" lon="4.34263">
        <ele>852.82666</ele>
        <time>2011-07-09T12:06:36Z</time>
      </trkpt>
      <trkpt lat="45.87687" lon="4.34262">
        <ele>852.82666</ele>
        <time>2011-07-09T12:06:54Z</time>
      </trkpt>
      <trkpt lat="45.87686" lon="4.34263">
        <ele>852.34594</ele>
        <time>2011-07-09T12:07:43Z</time>
      </trkpt>
      <trkpt lat="45.87688" lon="4.34258">
        <ele>852.82666</ele>
        <time>2011-07-09T12:07:52Z</time>
      </trkpt>
      <trkpt lat="45.87687" lon="4.34258">
        <ele>853.30737</ele>
        <time>2011-07-09T12:07:58Z</time>
      </trkpt>
      <trkpt lat="45.87685" lon="4.3426">
        <ele>853.30737</ele>
        <time>2011-07-09T12:08:10Z</time>
      </trkpt>
      <trkpt lat="45.87688" lon="4.34258">
        <ele>852.82666</ele>
        <time>2011-07-09T12:08:35Z</time>
      </trkpt>
      <trkpt lat="45.87698" lon="4.3425">
        <ele>852.34594</ele>
        <time>2011-07-09T12:08:42Z</time>
      </trkpt>
      <trkpt lat="45.87714" lon="4.34245">
        <ele>852.34594</ele>
        <time>2011-07-09T12:08:48Z</time>
      </trkpt>
      <trkpt lat="45.87733" lon="4.34239">
        <ele>851.86547</ele>
        <time>2011-07-09T12:08:54Z</time>
      </trkpt>
      <trkpt lat="45.87747" lon="4.34235">
        <ele>852.34594</ele>
        <time>2011-07-09T12:08:59Z</time>
      </trkpt>
      <trkpt lat="45.87768" lon="4.34222">
        <ele>851.38476</ele>
        <time>2011-07-09T12:09:04Z</time>
      </trkpt>
      <trkpt lat="45.87772" lon="4.3422">
        <ele>851.38476</ele>
        <time>2011-07-09T12:09:05Z</time>
      </trkpt>
      <trkpt lat="45.87793" lon="4.34207">
        <ele>849.46215</ele>
        <time>2011-07-09T12:09:09Z</time>
      </trkpt>
      <trkpt lat="45.8781" lon="4.34198">
        <ele>848.02026</ele>
        <time>2011-07-09T12:09:12Z</time>
      </trkpt>
      <trkpt lat="45.87834" lon="4.34184">
        <ele>847.05883</ele>
        <time>2011-07-09T12:09:16Z</time>
      </trkpt>
      <trkpt lat="45.87853" lon="4.34175">
        <ele>846.09765</ele>
        <time>2011-07-09T12:09:19Z</time>
      </trkpt>
      <trkpt lat="45.87865" lon="4.34171">
        <ele>845.61694</ele>
        <time>2011-07-09T12:09:21Z</time>
      </trkpt>
      <trkpt lat="45.87892" lon="4.34159">
        <ele>845.61694</ele>
        <time>2011-07-09T12:09:27Z</time>
      </trkpt>
      <trkpt lat="45.87915" lon="4.34146">
        <ele>847.05883</ele>
        <time>2011-07-09T12:09:33Z</time>
      </trkpt>
      <trkpt lat="45.87924" lon="4.34134">
        <ele>848.50073</ele>
        <time>2011-07-09T12:09:39Z</time>
      </trkpt>
      <trkpt lat="45.87931" lon="4.34122">
        <ele>849.94287</ele>
        <time>2011-07-09T12:09:47Z</time>
      </trkpt>
      <trkpt lat="45.87937" lon="4.34111">
        <ele>852.82666</ele>
        <time>2011-07-09T12:09:56Z</time>
      </trkpt>
      <trkpt lat="45.87941" lon="4.34104">
        <ele>854.26879</ele>
        <time>2011-07-09T12:10:02Z</time>
      </trkpt>
      <trkpt lat="45.87947" lon="4.34096">
        <ele>856.19116</ele>
        <time>2011-07-09T12:10:08Z</time>
      </trkpt>
      <trkpt lat="45.87951" lon="4.34089">
        <ele>857.6333</ele>
        <time>2011-07-09T12:10:14Z</time>
      </trkpt>
      <trkpt lat="45.87956" lon="4.34082">
        <ele>858.59448</ele>
        <time>2011-07-09T12:10:20Z</time>
      </trkpt>
      <trkpt lat="45.87963" lon="4.34074">
        <ele>860.99804</ele>
        <time>2011-07-09T12:10:27Z</time>
      </trkpt>
      <trkpt lat="45.87967" lon="4.34067">
        <ele>861.47875</ele>
        <time>2011-07-09T12:10:34Z</time>
      </trkpt>
      <trkpt lat="45.87972" lon="4.34062">
        <ele>862.43994</ele>
        <time>2011-07-09T12:10:40Z</time>
      </trkpt>
      <trkpt lat="45.87973" lon="4.3406">
        <ele>862.92065</ele>
        <time>2011-07-09T12:10:46Z</time>
      </trkpt>
      <trkpt lat="45.87977" lon="4.34056">
        <ele>862.92065</ele>
        <time>2011-07-09T12:10:51Z</time>
      </trkpt>
      <trkpt lat="45.8798" lon="4.34052">
        <ele>864.84326</ele>
        <time>2011-07-09T12:10:58Z</time>
      </trkpt>
      <trkpt lat="45.87982" lon="4.34048">
        <ele>865.80468</ele>
        <time>2011-07-09T12:11:04Z</time>
      </trkpt>
      <trkpt lat="45.87983" lon="4.34046">
        <ele>866.76586</ele>
        <time>2011-07-09T12:11:10Z</time>
      </trkpt>
      <trkpt lat="45.87988" lon="4.34043">
        <ele>867.72705</ele>
        <time>2011-07-09T12:11:15Z</time>
      </trkpt>
      <trkpt lat="45.87992" lon="4.3404">
        <ele>868.68847</ele>
        <time>2011-07-09T12:11:21Z</time>
      </trkpt>
      <trkpt lat="45.88" lon="4.34035">
        <ele>870.13037</ele>
        <time>2011-07-09T12:11:28Z</time>
      </trkpt>
      <trkpt lat="45.88003" lon="4.34032">
        <ele>872.53369</ele>
        <time>2011-07-09T12:11:31Z</time>
      </trkpt>
      <trkpt lat="45.88009" lon="4.3403">
        <ele>874.93701</ele>
        <time>2011-07-09T12:11:37Z</time>
      </trkpt>
      <trkpt lat="45.88016" lon="4.34026">
        <ele>875.89819</ele>
        <time>2011-07-09T12:11:43Z</time>
      </trkpt>
      <trkpt lat="45.88023" lon="4.34022">
        <ele>876.85986</ele>
        <time>2011-07-09T12:11:48Z</time>
      </trkpt>
      <trkpt lat="45.88027" lon="4.34019">
        <ele>877.34057</ele>
        <time>2011-07-09T12:11:53Z</time>
      </trkpt>
      <trkpt lat="45.88034" lon="4.34016">
        <ele>877.82104</ele>
        <time>2011-07-09T12:12:00Z</time>
      </trkpt>
      <trkpt lat="45.88041" lon="4.34013">
        <ele>879.26293</ele>
        <time>2011-07-09T12:12:06Z</time>
      </trkpt>
      <trkpt lat="45.88045" lon="4.34011">
        <ele>879.26293</ele>
        <time>2011-07-09T12:12:09Z</time>
      </trkpt>
      <trkpt lat="45.88061" lon="4.3401">
        <ele>880.22436</ele>
        <time>2011-07-09T12:12:18Z</time>
      </trkpt>
      <trkpt lat="45.88072" lon="4.34009">
        <ele>881.66625</ele>
        <time>2011-07-09T12:12:25Z</time>
      </trkpt>
      <trkpt lat="45.88086" lon="4.34003">
        <ele>882.14697</ele>
        <time>2011-07-09T12:12:32Z</time>
      </trkpt>
      <trkpt lat="45.88101" lon="4.34001">
        <ele>883.10815</ele>
        <time>2011-07-09T12:12:39Z</time>
      </trkpt>
      <trkpt lat="45.88102" lon="4.34">
        <ele>882.62768</ele>
        <time>2011-07-09T12:12:40Z</time>
      </trkpt>
      <trkpt lat="45.88121" lon="4.33996">
        <ele>884.06958</ele>
        <time>2011-07-09T12:12:49Z</time>
      </trkpt>
      <trkpt lat="45.88139" lon="4.33989">
        <ele>885.51147</ele>
        <time>2011-07-09T12:12:57Z</time>
      </trkpt>
      <trkpt lat="45.88141" lon="4.33988">
        <ele>885.031</ele>
        <time>2011-07-09T12:12:58Z</time>
      </trkpt>
      <trkpt lat="45.88157" lon="4.33983">
        <ele>885.51147</ele>
        <time>2011-07-09T12:13:05Z</time>
      </trkpt>
      <trkpt lat="45.88171" lon="4.33985">
        <ele>886.4729</ele>
        <time>2011-07-09T12:13:11Z</time>
      </trkpt>
      <trkpt lat="45.88189" lon="4.33986">
        <ele>887.91479</ele>
        <time>2011-07-09T12:13:19Z</time>
      </trkpt>
      <trkpt lat="45.882" lon="4.33985">
        <ele>889.8374</ele>
        <time>2011-07-09T12:13:25Z</time>
      </trkpt>
      <trkpt lat="45.88215" lon="4.33981">
        <ele>890.79858</ele>
        <time>2011-07-09T12:13:31Z</time>
      </trkpt>
      <trkpt lat="45.88234" lon="4.33978">
        <ele>892.24096</ele>
        <time>2011-07-09T12:13:38Z</time>
      </trkpt>
      <trkpt lat="45.88252" lon="4.33973">
        <ele>893.20214</ele>
        <time>2011-07-09T12:13:45Z</time>
      </trkpt>
      <trkpt lat="45.88269" lon="4.33971">
        <ele>894.16357</ele>
        <time>2011-07-09T12:13:52Z</time>
      </trkpt>
      <trkpt lat="45.88289" lon="4.33968">
        <ele>895.12475</ele>
        <time>2011-07-09T12:14:00Z</time>
      </trkpt>
      <trkpt lat="45.883" lon="4.33964">
        <ele>896.56689</ele>
        <time>2011-07-09T12:14:06Z</time>
      </trkpt>
      <trkpt lat="45.88316" lon="4.33961">
        <ele>899.45068</ele>
        <time>2011-07-09T12:14:13Z</time>
      </trkpt>
      <trkpt lat="45.88326" lon="4.33957">
        <ele>900.4121</ele>
        <time>2011-07-09T12:14:18Z</time>
      </trkpt>
      <trkpt lat="45.8834" lon="4.33952">
        <ele>901.37329</ele>
        <time>2011-07-09T12:14:23Z</time>
      </trkpt>
      <trkpt lat="45.88357" lon="4.33954">
        <ele>902.33447</ele>
        <time>2011-07-09T12:14:29Z</time>
      </trkpt>
      <trkpt lat="45.88375" lon="4.33954">
        <ele>903.29589</ele>
        <time>2011-07-09T12:14:36Z</time>
      </trkpt>
      <trkpt lat="45.88393" lon="4.33955">
        <ele>903.29589</ele>
        <time>2011-07-09T12:14:42Z</time>
      </trkpt>
      <trkpt lat="45.88416" lon="4.3395">
        <ele>903.29589</ele>
        <time>2011-07-09T12:14:48Z</time>
      </trkpt>
      <trkpt lat="45.8843" lon="4.33947">
        <ele>902.81518</ele>
        <time>2011-07-09T12:14:51Z</time>
      </trkpt>
      <trkpt lat="45.8846" lon="4.33933">
        <ele>901.854</ele>
        <time>2011-07-09T12:14:57Z</time>
      </trkpt>
      <trkpt lat="45.88483" lon="4.33917">
        <ele>900.4121</ele>
        <time>2011-07-09T12:15:01Z</time>
      </trkpt>
      <trkpt lat="45.88495" lon="4.33906">
        <ele>899.45068</ele>
        <time>2011-07-09T12:15:03Z</time>
      </trkpt>
      <trkpt lat="45.88519" lon="4.33893">
        <ele>896.56689</ele>
        <time>2011-07-09T12:15:06Z</time>
      </trkpt>
      <trkpt lat="45.88535" lon="4.33887">
        <ele>895.60546</ele>
        <time>2011-07-09T12:15:08Z</time>
      </trkpt>
      <trkpt lat="45.88552" lon="4.33877">
        <ele>894.16357</ele>
        <time>2011-07-09T12:15:10Z</time>
      </trkpt>
      <trkpt lat="45.88581" lon="4.3387">
        <ele>891.76</ele>
        <time>2011-07-09T12:15:13Z</time>
      </trkpt>
      <trkpt lat="45.88591" lon="4.33869">
        <ele>890.31811</ele>
        <time>2011-07-09T12:15:14Z</time>
      </trkpt>
      <trkpt lat="45.8861" lon="4.33868">
        <ele>889.35668</ele>
        <time>2011-07-09T12:15:16Z</time>
      </trkpt>
      <trkpt lat="45.88647" lon="4.33857">
        <ele>886.95336</ele>
        <time>2011-07-09T12:15:20Z</time>
      </trkpt>
      <trkpt lat="45.88665" lon="4.33854">
        <ele>885.99218</ele>
        <time>2011-07-09T12:15:22Z</time>
      </trkpt>
      <trkpt lat="45.88713" lon="4.33842">
        <ele>882.62768</ele>
        <time>2011-07-09T12:15:28Z</time>
      </trkpt>
      <trkpt lat="45.88756" lon="4.33836">
        <ele>882.14697</ele>
        <time>2011-07-09T12:15:34Z</time>
      </trkpt>
      <trkpt lat="45.88769" lon="4.33833">
        <ele>881.18579</ele>
        <time>2011-07-09T12:15:36Z</time>
      </trkpt>
      <trkpt lat="45.88793" lon="4.3384">
        <ele>880.70507</ele>
        <time>2011-07-09T12:15:41Z</time>
      </trkpt>
      <trkpt lat="45.88804" lon="4.33832">
        <ele>880.70507</ele>
        <time>2011-07-09T12:15:44Z</time>
      </trkpt>
      <trkpt lat="45.88814" lon="4.33819">
        <ele>881.18579</ele>
        <time>2011-07-09T12:15:48Z</time>
      </trkpt>
      <trkpt lat="45.88826" lon="4.33818">
        <ele>879.74365</ele>
        <time>2011-07-09T12:15:51Z</time>
      </trkpt>
      <trkpt lat="45.88834" lon="4.33818">
        <ele>879.26293</ele>
        <time>2011-07-09T12:15:53Z</time>
      </trkpt>
      <trkpt lat="45.88862" lon="4.33816">
        <ele>877.82104</ele>
        <time>2011-07-09T12:15:58Z</time>
      </trkpt>
      <trkpt lat="45.88868" lon="4.33816">
        <ele>877.34057</ele>
        <time>2011-07-09T12:15:59Z</time>
      </trkpt>
      <trkpt lat="45.88879" lon="4.33819">
        <ele>877.34057</ele>
        <time>2011-07-09T12:16:01Z</time>
      </trkpt>
      <trkpt lat="45.88897" lon="4.33812">
        <ele>876.85986</ele>
        <time>2011-07-09T12:16:05Z</time>
      </trkpt>
      <trkpt lat="45.88905" lon="4.3381">
        <ele>876.85986</ele>
        <time>2011-07-09T12:16:07Z</time>
      </trkpt>
      <trkpt lat="45.88928" lon="4.33804">
        <ele>877.82104</ele>
        <time>2011-07-09T12:16:13Z</time>
      </trkpt>
      <trkpt lat="45.88954" lon="4.33784">
        <ele>879.26293</ele>
        <time>2011-07-09T12:16:21Z</time>
      </trkpt>
      <trkpt lat="45.88976" lon="4.33761">
        <ele>878.30175</ele>
        <time>2011-07-09T12:16:27Z</time>
      </trkpt>
      <trkpt lat="45.89" lon="4.33733">
        <ele>876.37915</ele>
        <time>2011-07-09T12:16:32Z</time>
      </trkpt>
      <trkpt lat="45.89015" lon="4.33711">
        <ele>874.45629</ele>
        <time>2011-07-09T12:16:35Z</time>
      </trkpt>
      <trkpt lat="45.89034" lon="4.33676">
        <ele>870.61108</ele>
        <time>2011-07-09T12:16:39Z</time>
      </trkpt>
      <trkpt lat="45.8905" lon="4.33634">
        <ele>867.24658</ele>
        <time>2011-07-09T12:16:43Z</time>
      </trkpt>
      <trkpt lat="45.89061" lon="4.33598">
        <ele>864.36254</ele>
        <time>2011-07-09T12:16:46Z</time>
      </trkpt>
      <trkpt lat="45.89081" lon="4.33535">
        <ele>861.47875</ele>
        <time>2011-07-09T12:16:51Z</time>
      </trkpt>
      <trkpt lat="45.89084" lon="4.33524">
        <ele>861.47875</ele>
        <time>2011-07-09T12:16:52Z</time>
      </trkpt>
      <trkpt lat="45.89102" lon="4.33484">
        <ele>857.15258</ele>
        <time>2011-07-09T12:16:56Z</time>
      </trkpt>
      <trkpt lat="45.89118" lon="4.33456">
        <ele>855.22998</ele>
        <time>2011-07-09T12:16:59Z</time>
      </trkpt>
      <trkpt lat="45.89135" lon="4.33429">
        <ele>853.78808</ele>
        <time>2011-07-09T12:17:02Z</time>
      </trkpt>
      <trkpt lat="45.89175" lon="4.33379">
        <ele>852.34594</ele>
        <time>2011-07-09T12:17:09Z</time>
      </trkpt>
      <trkpt lat="45.89181" lon="4.33373">
        <ele>851.86547</ele>
        <time>2011-07-09T12:17:10Z</time>
      </trkpt>
      <trkpt lat="45.89209" lon="4.33342">
        <ele>850.42358</ele>
        <time>2011-07-09T12:17:15Z</time>
      </trkpt>
      <trkpt lat="45.89235" lon="4.33313">
        <ele>848.98144</ele>
        <time>2011-07-09T12:17:20Z</time>
      </trkpt>
      <trkpt lat="45.89258" lon="4.33291">
        <ele>846.09765</ele>
        <time>2011-07-09T12:17:24Z</time>
      </trkpt>
      <trkpt lat="45.89293" lon="4.33256">
        <ele>843.21337</ele>
        <time>2011-07-09T12:17:29Z</time>
      </trkpt>
      <trkpt lat="45.89311" lon="4.33223">
        <ele>838.40698</ele>
        <time>2011-07-09T12:17:34Z</time>
      </trkpt>
      <trkpt lat="45.89317" lon="4.33203">
        <ele>836.48437</ele>
        <time>2011-07-09T12:17:37Z</time>
      </trkpt>
      <trkpt lat="45.8933" lon="4.33177">
        <ele>831.67773</ele>
        <time>2011-07-09T12:17:41Z</time>
      </trkpt>
      <trkpt lat="45.89338" lon="4.33166">
        <ele>830.23583</ele>
        <time>2011-07-09T12:17:43Z</time>
      </trkpt>
      <trkpt lat="45.89344" lon="4.33155">
        <ele>828.31323</ele>
        <time>2011-07-09T12:17:45Z</time>
      </trkpt>
      <trkpt lat="45.89353" lon="4.33133">
        <ele>825.42895</ele>
        <time>2011-07-09T12:17:48Z</time>
      </trkpt>
      <trkpt lat="45.89361" lon="4.33118">
        <ele>821.58374</ele>
        <time>2011-07-09T12:17:50Z</time>
      </trkpt>
      <trkpt lat="45.89379" lon="4.33096">
        <ele>819.18066</ele>
        <time>2011-07-09T12:17:53Z</time>
      </trkpt>
      <trkpt lat="45.89396" lon="4.3308">
        <ele>815.33544</ele>
        <time>2011-07-09T12:17:56Z</time>
      </trkpt>
      <trkpt lat="45.89407" lon="4.33069">
        <ele>814.37402</ele>
        <time>2011-07-09T12:17:58Z</time>
      </trkpt>
      <trkpt lat="45.89413" lon="4.33062">
        <ele>813.41284</ele>
        <time>2011-07-09T12:17:59Z</time>
      </trkpt>
      <trkpt lat="45.8943" lon="4.33047">
        <ele>811.00927</ele>
        <time>2011-07-09T12:18:02Z</time>
      </trkpt>
      <trkpt lat="45.89443" lon="4.33035">
        <ele>808.60595</ele>
        <time>2011-07-09T12:18:04Z</time>
      </trkpt>
      <trkpt lat="45.89459" lon="4.33014">
        <ele>807.64477</ele>
        <time>2011-07-09T12:18:07Z</time>
      </trkpt>
      <trkpt lat="45.895" lon="4.32972">
        <ele>803.79956</ele>
        <time>2011-07-09T12:18:14Z</time>
      </trkpt>
      <trkpt lat="45.89521" lon="4.3295">
        <ele>802.83813</ele>
        <time>2011-07-09T12:18:19Z</time>
      </trkpt>
      <trkpt lat="45.89521" lon="4.32949">
        <ele>802.83813</ele>
        <time>2011-07-09T12:18:23Z</time>
      </trkpt>
      <trkpt lat="45.8952" lon="4.3295">
        <ele>802.35742</ele>
        <time>2011-07-09T12:18:46Z</time>
      </trkpt>
      <trkpt lat="45.89526" lon="4.32945">
        <ele>802.83813</ele>
        <time>2011-07-09T12:18:56Z</time>
      </trkpt>
      <trkpt lat="45.89537" lon="4.32933">
        <ele>801.39624</ele>
        <time>2011-07-09T12:19:00Z</time>
      </trkpt>
      <trkpt lat="45.8956" lon="4.329">
        <ele>799.95434</ele>
        <time>2011-07-09T12:19:06Z</time>
      </trkpt>
      <trkpt lat="45.89584" lon="4.32868">
        <ele>797.07031</ele>
        <time>2011-07-09T12:19:11Z</time>
      </trkpt>
      <trkpt lat="45.89612" lon="4.32832">
        <ele>795.14746</ele>
        <time>2011-07-09T12:19:17Z</time>
      </trkpt>
      <trkpt lat="45.89635" lon="4.32791">
        <ele>794.66674</ele>
        <time>2011-07-09T12:19:23Z</time>
      </trkpt>
      <trkpt lat="45.89661" lon="4.32739">
        <ele>794.18627</ele>
        <time>2011-07-09T12:19:29Z</time>
      </trkpt>
      <trkpt lat="45.89673" lon="4.32711">
        <ele>791.78295</ele>
        <time>2011-07-09T12:19:32Z</time>
      </trkpt>
      <trkpt lat="45.8968" lon="4.32692">
        <ele>790.34106</ele>
        <time>2011-07-09T12:19:34Z</time>
      </trkpt>
      <trkpt lat="45.89701" lon="4.32668">
        <ele>790.82153</ele>
        <time>2011-07-09T12:19:38Z</time>
      </trkpt>
      <trkpt lat="45.89707" lon="4.32665">
        <ele>790.34106</ele>
        <time>2011-07-09T12:19:39Z</time>
      </trkpt>
      <trkpt lat="45.89737" lon="4.32641">
        <ele>792.74438</ele>
        <time>2011-07-09T12:19:45Z</time>
      </trkpt>
      <trkpt lat="45.89768" lon="4.32614">
        <ele>792.74438</ele>
        <time>2011-07-09T12:19:52Z</time>
      </trkpt>
      <trkpt lat="45.89799" lon="4.32591">
        <ele>793.22485</ele>
        <time>2011-07-09T12:19:59Z</time>
      </trkpt>
      <trkpt lat="45.89829" lon="4.32571">
        <ele>792.74438</ele>
        <time>2011-07-09T12:20:06Z</time>
      </trkpt>
      <trkpt lat="45.89853" lon="4.32551">
        <ele>793.22485</ele>
        <time>2011-07-09T12:20:12Z</time>
      </trkpt>
      <trkpt lat="45.89861" lon="4.32545">
        <ele>793.22485</ele>
        <time>2011-07-09T12:20:14Z</time>
      </trkpt>
      <trkpt lat="45.89886" lon="4.32526">
        <ele>793.22485</ele>
        <time>2011-07-09T12:20:21Z</time>
      </trkpt>
      <trkpt lat="45.89919" lon="4.32503">
        <ele>794.66674</ele>
        <time>2011-07-09T12:20:30Z</time>
      </trkpt>
      <trkpt lat="45.89939" lon="4.32488">
        <ele>795.62817</ele>
        <time>2011-07-09T12:20:37Z</time>
      </trkpt>
      <trkpt lat="45.89954" lon="4.32475">
        <ele>795.62817</ele>
        <time>2011-07-09T12:20:42Z</time>
      </trkpt>
      <trkpt lat="45.8997" lon="4.32459">
        <ele>797.07031</ele>
        <time>2011-07-09T12:20:48Z</time>
      </trkpt>
      <trkpt lat="45.8999" lon="4.32439">
        <ele>798.5122</ele>
        <time>2011-07-09T12:20:55Z</time>
      </trkpt>
      <trkpt lat="45.90005" lon="4.32425">
        <ele>799.47363</ele>
        <time>2011-07-09T12:21:02Z</time>
      </trkpt>
      <trkpt lat="45.90019" lon="4.32415">
        <ele>799.95434</ele>
        <time>2011-07-09T12:21:08Z</time>
      </trkpt>
      <trkpt lat="45.9003" lon="4.32407">
        <ele>800.91552</ele>
        <time>2011-07-09T12:21:13Z</time>
      </trkpt>
      <trkpt lat="45.90045" lon="4.32401">
        <ele>801.87695</ele>
        <time>2011-07-09T12:21:19Z</time>
      </trkpt>
      <trkpt lat="45.90064" lon="4.3239">
        <ele>802.83813</ele>
        <time>2011-07-09T12:21:27Z</time>
      </trkpt>
      <trkpt lat="45.90081" lon="4.32377">
        <ele>804.28027</ele>
        <time>2011-07-09T12:21:35Z</time>
      </trkpt>
      <trkpt lat="45.90095" lon="4.32368">
        <ele>806.20263</ele>
        <time>2011-07-09T12:21:42Z</time>
      </trkpt>
      <trkpt lat="45.90099" lon="4.32364">
        <ele>805.72216</ele>
        <time>2011-07-09T12:21:47Z</time>
      </trkpt>
      <trkpt lat="45.90098" lon="4.32364">
        <ele>805.24145</ele>
        <time>2011-07-09T12:22:00Z</time>
      </trkpt>
      <trkpt lat="45.90096" lon="4.32362">
        <ele>805.72216</ele>
        <time>2011-07-09T12:22:17Z</time>
      </trkpt>
      <trkpt lat="45.90094" lon="4.32361">
        <ele>806.20263</ele>
        <time>2011-07-09T12:22:34Z</time>
      </trkpt>
      <trkpt lat="45.90094" lon="4.32364">
        <ele>806.68334</ele>
        <time>2011-07-09T12:23:03Z</time>
      </trkpt>
      <trkpt lat="45.90094" lon="4.32365">
        <ele>806.68334</ele>
        <time>2011-07-09T12:23:17Z</time>
      </trkpt>
      <trkpt lat="45.90095" lon="4.32364">
        <ele>807.16406</ele>
        <time>2011-07-09T12:23:35Z</time>
      </trkpt>
      <trkpt lat="45.90095" lon="4.32364">
        <ele>806.68334</ele>
        <time>2011-07-09T12:23:49Z</time>
      </trkpt>
      <trkpt lat="45.90098" lon="4.32362">
        <ele>807.16406</ele>
        <time>2011-07-09T12:24:11Z</time>
      </trkpt>
      <trkpt lat="45.90102" lon="4.32362">
        <ele>806.68334</ele>
        <time>2011-07-09T12:24:17Z</time>
      </trkpt>
      <trkpt lat="45.90108" lon="4.3236">
        <ele>807.16406</ele>
        <time>2011-07-09T12:24:21Z</time>
      </trkpt>
      <trkpt lat="45.90121" lon="4.32358">
        <ele>808.60595</ele>
        <time>2011-07-09T12:24:26Z</time>
      </trkpt>
      <trkpt lat="45.90134" lon="4.32358">
        <ele>810.52856</ele>
        <time>2011-07-09T12:24:31Z</time>
      </trkpt>
      <trkpt lat="45.90148" lon="4.32361">
        <ele>811.9707</ele>
        <time>2011-07-09T12:24:36Z</time>
      </trkpt>
      <trkpt lat="45.90161" lon="4.32366">
        <ele>811.9707</ele>
        <time>2011-07-09T12:24:41Z</time>
      </trkpt>
      <trkpt lat="45.90184" lon="4.32372">
        <ele>813.41284</ele>
        <time>2011-07-09T12:24:49Z</time>
      </trkpt>
      <trkpt lat="45.90201" lon="4.32374">
        <ele>813.89331</ele>
        <time>2011-07-09T12:24:55Z</time>
      </trkpt>
      <trkpt lat="45.90215" lon="4.32372">
        <ele>814.37402</ele>
        <time>2011-07-09T12:25:01Z</time>
      </trkpt>
      <trkpt lat="45.90231" lon="4.32373">
        <ele>814.37402</ele>
        <time>2011-07-09T12:25:07Z</time>
      </trkpt>
      <trkpt lat="45.90249" lon="4.32372">
        <ele>813.89331</ele>
        <time>2011-07-09T12:25:13Z</time>
      </trkpt>
      <trkpt lat="45.90271" lon="4.32364">
        <ele>813.89331</ele>
        <time>2011-07-09T12:25:19Z</time>
      </trkpt>
      <trkpt lat="45.90295" lon="4.32351">
        <ele>813.89331</ele>
        <time>2011-07-09T12:25:25Z</time>
      </trkpt>
      <trkpt lat="45.90313" lon="4.32346">
        <ele>814.37402</ele>
        <time>2011-07-09T12:25:31Z</time>
      </trkpt>
      <trkpt lat="45.90331" lon="4.3234">
        <ele>813.89331</ele>
        <time>2011-07-09T12:25:37Z</time>
      </trkpt>
      <trkpt lat="45.90351" lon="4.32339">
        <ele>813.41284</ele>
        <time>2011-07-09T12:25:43Z</time>
      </trkpt>
      <trkpt lat="45.90369" lon="4.32339">
        <ele>813.89331</ele>
        <time>2011-07-09T12:25:48Z</time>
      </trkpt>
      <trkpt lat="45.90387" lon="4.32338">
        <ele>814.37402</ele>
        <time>2011-07-09T12:25:53Z</time>
      </trkpt>
      <trkpt lat="45.90404" lon="4.32345">
        <ele>814.85473</ele>
        <time>2011-07-09T12:25:58Z</time>
      </trkpt>
      <trkpt lat="45.90412" lon="4.32347">
        <ele>814.85473</ele>
        <time>2011-07-09T12:26:00Z</time>
      </trkpt>
      <trkpt lat="45.90414" lon="4.32334">
        <ele>815.33544</ele>
        <time>2011-07-09T12:26:05Z</time>
      </trkpt>
      <trkpt lat="45.90406" lon="4.32319">
        <ele>815.81616</ele>
        <time>2011-07-09T12:26:09Z</time>
      </trkpt>
      <trkpt lat="45.90394" lon="4.32291">
        <ele>815.33544</ele>
        <time>2011-07-09T12:26:15Z</time>
      </trkpt>
      <trkpt lat="45.90393" lon="4.32281">
        <ele>815.81616</ele>
        <time>2011-07-09T12:26:17Z</time>
      </trkpt>
      <trkpt lat="45.9038" lon="4.32261">
        <ele>815.81616</ele>
        <time>2011-07-09T12:26:22Z</time>
      </trkpt>
      <trkpt lat="45.9038" lon="4.32255">
        <ele>814.85473</ele>
        <time>2011-07-09T12:26:23Z</time>
      </trkpt>
      <trkpt lat="45.90368" lon="4.32218">
        <ele>814.85473</ele>
        <time>2011-07-09T12:26:30Z</time>
      </trkpt>
      <trkpt lat="45.90362" lon="4.3219">
        <ele>814.85473</ele>
        <time>2011-07-09T12:26:35Z</time>
      </trkpt>
      <trkpt lat="45.90357" lon="4.32164">
        <ele>813.89331</ele>
        <time>2011-07-09T12:26:40Z</time>
      </trkpt>
      <trkpt lat="45.90354" lon="4.32149">
        <ele>813.41284</ele>
        <time>2011-07-09T12:26:44Z</time>
      </trkpt>
      <trkpt lat="45.90354" lon="4.32144">
        <ele>813.41284</ele>
        <time>2011-07-09T12:26:45Z</time>
      </trkpt>
      <trkpt lat="45.90355" lon="4.32115">
        <ele>812.93212</ele>
        <time>2011-07-09T12:26:50Z</time>
      </trkpt>
      <trkpt lat="45.90352" lon="4.32076">
        <ele>812.93212</ele>
        <time>2011-07-09T12:26:55Z</time>
      </trkpt>
      <trkpt lat="45.90348" lon="4.32037">
        <ele>810.04785</ele>
        <time>2011-07-09T12:26:59Z</time>
      </trkpt>
      <trkpt lat="45.90346" lon="4.31987">
        <ele>805.24145</ele>
        <time>2011-07-09T12:27:04Z</time>
      </trkpt>
      <trkpt lat="45.90345" lon="4.3197">
        <ele>803.79956</ele>
        <time>2011-07-09T12:27:06Z</time>
      </trkpt>
      <trkpt lat="45.9035" lon="4.31927">
        <ele>800.91552</ele>
        <time>2011-07-09T12:27:10Z</time>
      </trkpt>
      <trkpt lat="45.90373" lon="4.31859">
        <ele>797.07031</ele>
        <time>2011-07-09T12:27:15Z</time>
      </trkpt>
      <trkpt lat="45.90392" lon="4.31826">
        <ele>796.10913</ele>
        <time>2011-07-09T12:27:18Z</time>
      </trkpt>
      <trkpt lat="45.90426" lon="4.31772">
        <ele>793.22485</ele>
        <time>2011-07-09T12:27:22Z</time>
      </trkpt>
      <trkpt lat="45.90438" lon="4.31749">
        <ele>791.78295</ele>
        <time>2011-07-09T12:27:24Z</time>
      </trkpt>
      <trkpt lat="45.90446" lon="4.31733">
        <ele>791.78295</ele>
        <time>2011-07-09T12:27:25Z</time>
      </trkpt>
      <trkpt lat="45.90465" lon="4.31671">
        <ele>790.82153</ele>
        <time>2011-07-09T12:27:30Z</time>
      </trkpt>
      <trkpt lat="45.90474" lon="4.31639">
        <ele>792.26367</ele>
        <time>2011-07-09T12:27:34Z</time>
      </trkpt>
      <trkpt lat="45.90479" lon="4.31619">
        <ele>792.74438</ele>
        <time>2011-07-09T12:27:37Z</time>
      </trkpt>
      <trkpt lat="45.90485" lon="4.316">
        <ele>793.70556</ele>
        <time>2011-07-09T12:27:40Z</time>
      </trkpt>
      <trkpt lat="45.90492" lon="4.31586">
        <ele>795.62817</ele>
        <time>2011-07-09T12:27:43Z</time>
      </trkpt>
      <trkpt lat="45.90494" lon="4.31575">
        <ele>797.55102</ele>
        <time>2011-07-09T12:27:46Z</time>
      </trkpt>
      <trkpt lat="45.90495" lon="4.31558">
        <ele>797.07031</ele>
        <time>2011-07-09T12:27:52Z</time>
      </trkpt>
      <trkpt lat="45.90494" lon="4.31552">
        <ele>797.55102</ele>
        <time>2011-07-09T12:27:56Z</time>
      </trkpt>
      <trkpt lat="45.90494" lon="4.3155">
        <ele>798.03173</ele>
        <time>2011-07-09T12:28:03Z</time>
      </trkpt>
      <trkpt lat="45.90497" lon="4.31548">
        <ele>797.55102</ele>
        <time>2011-07-09T12:28:18Z</time>
      </trkpt>
      <trkpt lat="45.90497" lon="4.3155">
        <ele>797.07031</ele>
        <time>2011-07-09T12:28:26Z</time>
      </trkpt>
      <trkpt lat="45.90494" lon="4.31548">
        <ele>796.58984</ele>
        <time>2011-07-09T12:28:33Z</time>
      </trkpt>
      <trkpt lat="45.90493" lon="4.31545">
        <ele>796.58984</ele>
        <time>2011-07-09T12:28:46Z</time>
      </trkpt>
      <trkpt lat="45.90478" lon="4.31539">
        <ele>796.10913</ele>
        <time>2011-07-09T12:29:23Z</time>
      </trkpt>
      <trkpt lat="45.9048" lon="4.31522">
        <ele>794.66674</ele>
        <time>2011-07-09T12:29:26Z</time>
      </trkpt>
      <trkpt lat="45.9049" lon="4.31496">
        <ele>791.30224</ele>
        <time>2011-07-09T12:29:31Z</time>
      </trkpt>
      <trkpt lat="45.90492" lon="4.31478">
        <ele>789.37963</ele>
        <time>2011-07-09T12:29:34Z</time>
      </trkpt>
      <trkpt lat="45.90496" lon="4.31468">
        <ele>788.41845</ele>
        <time>2011-07-09T12:29:36Z</time>
      </trkpt>
      <trkpt lat="45.90501" lon="4.3144">
        <ele>786.49584</ele>
        <time>2011-07-09T12:29:40Z</time>
      </trkpt>
      <trkpt lat="45.90505" lon="4.31423">
        <ele>784.09252</ele>
        <time>2011-07-09T12:29:42Z</time>
      </trkpt>
      <trkpt lat="45.90509" lon="4.31401">
        <ele>779.76635</ele>
        <time>2011-07-09T12:29:44Z</time>
      </trkpt>
      <trkpt lat="45.90518" lon="4.31354">
        <ele>776.88256</ele>
        <time>2011-07-09T12:29:48Z</time>
      </trkpt>
      <trkpt lat="45.90524" lon="4.3133">
        <ele>773.51806</ele>
        <time>2011-07-09T12:29:50Z</time>
      </trkpt>
      <trkpt lat="45.90532" lon="4.31298">
        <ele>770.15332</ele>
        <time>2011-07-09T12:29:53Z</time>
      </trkpt>
      <trkpt lat="45.90538" lon="4.31279">
        <ele>769.19213</ele>
        <time>2011-07-09T12:29:55Z</time>
      </trkpt>
      <trkpt lat="45.90538" lon="4.31249">
        <ele>764.38549</ele>
        <time>2011-07-09T12:29:58Z</time>
      </trkpt>
      <trkpt lat="45.90532" lon="4.31233">
        <ele>761.50146</ele>
        <time>2011-07-09T12:30:00Z</time>
      </trkpt>
      <trkpt lat="45.90524" lon="4.31216">
        <ele>759.57885</ele>
        <time>2011-07-09T12:30:03Z</time>
      </trkpt>
      <trkpt lat="45.90526" lon="4.31209">
        <ele>758.61743</ele>
        <time>2011-07-09T12:30:05Z</time>
      </trkpt>
      <trkpt lat="45.90531" lon="4.31201">
        <ele>758.61743</ele>
        <time>2011-07-09T12:30:07Z</time>
      </trkpt>
      <trkpt lat="45.90531" lon="4.31182">
        <ele>756.21411</ele>
        <time>2011-07-09T12:30:10Z</time>
      </trkpt>
      <trkpt lat="45.90527" lon="4.31152">
        <ele>751.40771</ele>
        <time>2011-07-09T12:30:14Z</time>
      </trkpt>
      <trkpt lat="45.90526" lon="4.3114">
        <ele>750.44653</ele>
        <time>2011-07-09T12:30:16Z</time>
      </trkpt>
      <trkpt lat="45.90519" lon="4.31115">
        <ele>749.96582</ele>
        <time>2011-07-09T12:30:21Z</time>
      </trkpt>
      <trkpt lat="45.90518" lon="4.31109">
        <ele>749.96582</ele>
        <time>2011-07-09T12:30:22Z</time>
      </trkpt>
      <trkpt lat="45.90514" lon="4.31091">
        <ele>749.4851</ele>
        <time>2011-07-09T12:30:25Z</time>
      </trkpt>
      <trkpt lat="45.90508" lon="4.31074">
        <ele>749.96582</ele>
        <time>2011-07-09T12:30:28Z</time>
      </trkpt>
      <trkpt lat="45.90487" lon="4.31052">
        <ele>750.927</ele>
        <time>2011-07-09T12:30:34Z</time>
      </trkpt>
      <trkpt lat="45.90466" lon="4.31029">
        <ele>752.36889</ele>
        <time>2011-07-09T12:30:41Z</time>
      </trkpt>
      <trkpt lat="45.9045" lon="4.30998">
        <ele>752.36889</ele>
        <time>2011-07-09T12:30:48Z</time>
      </trkpt>
      <trkpt lat="45.90441" lon="4.30965">
        <ele>752.8496</ele>
        <time>2011-07-09T12:30:55Z</time>
      </trkpt>
      <trkpt lat="45.90435" lon="4.3094">
        <ele>751.40771</ele>
        <time>2011-07-09T12:30:59Z</time>
      </trkpt>
      <trkpt lat="45.9043" lon="4.30925">
        <ele>750.44653</ele>
        <time>2011-07-09T12:31:01Z</time>
      </trkpt>
      <trkpt lat="45.90425" lon="4.30895">
        <ele>748.04321</ele>
        <time>2011-07-09T12:31:04Z</time>
      </trkpt>
      <trkpt lat="45.90425" lon="4.3083">
        <ele>744.19775</ele>
        <time>2011-07-09T12:31:09Z</time>
      </trkpt>
      <trkpt lat="45.90426" lon="4.30815">
        <ele>744.19775</ele>
        <time>2011-07-09T12:31:10Z</time>
      </trkpt>
      <trkpt lat="45.90425" lon="4.30753">
        <ele>740.833</ele>
        <time>2011-07-09T12:31:14Z</time>
      </trkpt>
      <trkpt lat="45.90416" lon="4.3067">
        <ele>737.94921</ele>
        <time>2011-07-09T12:31:20Z</time>
      </trkpt>
      <trkpt lat="45.90415" lon="4.30657">
        <ele>737.4685</ele>
        <time>2011-07-09T12:31:21Z</time>
      </trkpt>
      <trkpt lat="45.904" lon="4.30611">
        <ele>734.58471</ele>
        <time>2011-07-09T12:31:25Z</time>
      </trkpt>
      <trkpt lat="45.90391" lon="4.30562">
        <ele>732.6621</ele>
        <time>2011-07-09T12:31:29Z</time>
      </trkpt>
      <trkpt lat="45.90394" lon="4.3048">
        <ele>731.21997</ele>
        <time>2011-07-09T12:31:36Z</time>
      </trkpt>
      <trkpt lat="45.90397" lon="4.30401">
        <ele>730.73925</ele>
        <time>2011-07-09T12:31:44Z</time>
      </trkpt>
      <trkpt lat="45.90397" lon="4.30366">
        <ele>732.18139</ele>
        <time>2011-07-09T12:31:48Z</time>
      </trkpt>
      <trkpt lat="45.90402" lon="4.30306">
        <ele>730.73925</ele>
        <time>2011-07-09T12:31:55Z</time>
      </trkpt>
      <trkpt lat="45.90413" lon="4.30242">
        <ele>728.81665</ele>
        <time>2011-07-09T12:32:02Z</time>
      </trkpt>
      <trkpt lat="45.90421" lon="4.3019">
        <ele>728.81665</ele>
        <time>2011-07-09T12:32:08Z</time>
      </trkpt>
      <trkpt lat="45.90424" lon="4.30175">
        <ele>728.81665</ele>
        <time>2011-07-09T12:32:10Z</time>
      </trkpt>
      <trkpt lat="45.90441" lon="4.3012">
        <ele>727.85522</ele>
        <time>2011-07-09T12:32:17Z</time>
      </trkpt>
      <trkpt lat="45.90455" lon="4.3006">
        <ele>726.41333</ele>
        <time>2011-07-09T12:32:24Z</time>
      </trkpt>
      <trkpt lat="45.90458" lon="4.30045">
        <ele>726.89404</ele>
        <time>2011-07-09T12:32:26Z</time>
      </trkpt>
      <trkpt lat="45.90461" lon="4.30012">
        <ele>726.41333</ele>
        <time>2011-07-09T12:32:30Z</time>
      </trkpt>
      <trkpt lat="45.90444" lon="4.29948">
        <ele>725.4519</ele>
        <time>2011-07-09T12:32:38Z</time>
      </trkpt>
      <trkpt lat="45.90425" lon="4.299">
        <ele>724.01</ele>
        <time>2011-07-09T12:32:44Z</time>
      </trkpt>
      <trkpt lat="45.904" lon="4.29848">
        <ele>723.52954</ele>
        <time>2011-07-09T12:32:51Z</time>
      </trkpt>
      <trkpt lat="45.90381" lon="4.29803">
        <ele>724.01</ele>
        <time>2011-07-09T12:32:58Z</time>
      </trkpt>
      <trkpt lat="45.90371" lon="4.29785">
        <ele>722.56811</ele>
        <time>2011-07-09T12:33:01Z</time>
      </trkpt>
      <trkpt lat="45.90366" lon="4.29779">
        <ele>721.60668</ele>
        <time>2011-07-09T12:33:02Z</time>
      </trkpt>
      <trkpt lat="45.90358" lon="4.29762">
        <ele>720.16479</ele>
        <time>2011-07-09T12:33:04Z</time>
      </trkpt>
      <trkpt lat="45.90325" lon="4.29712">
        <ele>716.80029</ele>
        <time>2011-07-09T12:33:10Z</time>
      </trkpt>
      <trkpt lat="45.90302" lon="4.2968">
        <ele>714.87744</ele>
        <time>2011-07-09T12:33:14Z</time>
      </trkpt>
      <trkpt lat="45.90276" lon="4.29651">
        <ele>713.91601</ele>
        <time>2011-07-09T12:33:19Z</time>
      </trkpt>
      <trkpt lat="45.90273" lon="4.2965">
        <ele>713.91601</ele>
        <time>2011-07-09T12:33:22Z</time>
      </trkpt>
      <trkpt lat="45.90274" lon="4.29651">
        <ele>713.91601</ele>
        <time>2011-07-09T12:33:35Z</time>
      </trkpt>
      <trkpt lat="45.90275" lon="4.29652">
        <ele>712.95483</ele>
        <time>2011-07-09T12:34:33Z</time>
      </trkpt>
      <trkpt lat="45.90275" lon="4.29651">
        <ele>713.91601</ele>
        <time>2011-07-09T12:34:39Z</time>
      </trkpt>
      <trkpt lat="45.90272" lon="4.29648">
        <ele>712.47412</ele>
        <time>2011-07-09T12:34:45Z</time>
      </trkpt>
      <trkpt lat="45.90262" lon="4.2964">
        <ele>712.47412</ele>
        <time>2011-07-09T12:34:50Z</time>
      </trkpt>
      <trkpt lat="45.90248" lon="4.2963">
        <ele>711.51293</ele>
        <time>2011-07-09T12:34:54Z</time>
      </trkpt>
      <trkpt lat="45.9022" lon="4.29614">
        <ele>709.59033</ele>
        <time>2011-07-09T12:34:59Z</time>
      </trkpt>
      <trkpt lat="45.90207" lon="4.29606">
        <ele>708.6289</ele>
        <time>2011-07-09T12:35:01Z</time>
      </trkpt>
      <trkpt lat="45.90195" lon="4.29598">
        <ele>708.14843</ele>
        <time>2011-07-09T12:35:03Z</time>
      </trkpt>
      <trkpt lat="45.9017" lon="4.29582">
        <ele>702.38037</ele>
        <time>2011-07-09T12:35:07Z</time>
      </trkpt>
      <trkpt lat="45.90156" lon="4.29573">
        <ele>699.97705</ele>
        <time>2011-07-09T12:35:09Z</time>
      </trkpt>
      <trkpt lat="45.90128" lon="4.29552">
        <ele>696.61254</ele>
        <time>2011-07-09T12:35:13Z</time>
      </trkpt>
      <trkpt lat="45.90099" lon="4.29533">
        <ele>693.2478</ele>
        <time>2011-07-09T12:35:17Z</time>
      </trkpt>
      <trkpt lat="45.90081" lon="4.29518">
        <ele>689.40258</ele>
        <time>2011-07-09T12:35:20Z</time>
      </trkpt>
      <trkpt lat="45.90064" lon="4.29501">
        <ele>686.03808</ele>
        <time>2011-07-09T12:35:23Z</time>
      </trkpt>
      <trkpt lat="45.90058" lon="4.29494">
        <ele>685.0769</ele>
        <time>2011-07-09T12:35:24Z</time>
      </trkpt>
      <trkpt lat="45.90047" lon="4.29476">
        <ele>683.63452</ele>
        <time>2011-07-09T12:35:26Z</time>
      </trkpt>
      <trkpt lat="45.90037" lon="4.29456">
        <ele>681.71191</ele>
        <time>2011-07-09T12:35:28Z</time>
      </trkpt>
      <trkpt lat="45.90026" lon="4.29416">
        <ele>679.30859</ele>
        <time>2011-07-09T12:35:32Z</time>
      </trkpt>
      <trkpt lat="45.90025" lon="4.29408">
        <ele>678.82812</ele>
        <time>2011-07-09T12:35:33Z</time>
      </trkpt>
      <trkpt lat="45.90024" lon="4.29345">
        <ele>676.90551</ele>
        <time>2011-07-09T12:35:40Z</time>
      </trkpt>
      <trkpt lat="45.90036" lon="4.29283">
        <ele>676.4248</ele>
        <time>2011-07-09T12:35:48Z</time>
      </trkpt>
      <trkpt lat="45.90042" lon="4.29265">
        <ele>676.4248</ele>
        <time>2011-07-09T12:35:51Z</time>
      </trkpt>
      <trkpt lat="45.90068" lon="4.29213">
        <ele>677.86669</ele>
        <time>2011-07-09T12:36:01Z</time>
      </trkpt>
      <trkpt lat="45.90073" lon="4.29203">
        <ele>678.34741</ele>
        <time>2011-07-09T12:36:03Z</time>
      </trkpt>
      <trkpt lat="45.90081" lon="4.29167">
        <ele>679.30859</ele>
        <time>2011-07-09T12:36:10Z</time>
      </trkpt>
      <trkpt lat="45.90084" lon="4.29135">
        <ele>678.82812</ele>
        <time>2011-07-09T12:36:16Z</time>
      </trkpt>
      <trkpt lat="45.90084" lon="4.29114">
        <ele>676.90551</ele>
        <time>2011-07-09T12:36:19Z</time>
      </trkpt>
      <trkpt lat="45.90081" lon="4.29098">
        <ele>675.94409</ele>
        <time>2011-07-09T12:36:21Z</time>
      </trkpt>
      <trkpt lat="45.90077" lon="4.29042">
        <ele>672.57958</ele>
        <time>2011-07-09T12:36:26Z</time>
      </trkpt>
      <trkpt lat="45.90078" lon="4.29015">
        <ele>669.6958</ele>
        <time>2011-07-09T12:36:28Z</time>
      </trkpt>
      <trkpt lat="45.9008" lon="4.28989">
        <ele>668.73437</ele>
        <time>2011-07-09T12:36:30Z</time>
      </trkpt>
      <trkpt lat="45.90081" lon="4.28961">
        <ele>666.81152</ele>
        <time>2011-07-09T12:36:33Z</time>
      </trkpt>
      <trkpt lat="45.90081" lon="4.28957">
        <ele>666.81152</ele>
        <time>2011-07-09T12:36:34Z</time>
      </trkpt>
      <trkpt lat="45.90082" lon="4.28941">
        <ele>665.36962</ele>
        <time>2011-07-09T12:36:40Z</time>
      </trkpt>
      <trkpt lat="45.9008" lon="4.28937">
        <ele>664.88891</ele>
        <time>2011-07-09T12:36:43Z</time>
      </trkpt>
      <trkpt lat="45.90082" lon="4.28917">
        <ele>663.92749</ele>
        <time>2011-07-09T12:36:49Z</time>
      </trkpt>
      <trkpt lat="45.90083" lon="4.28906">
        <ele>663.44702</ele>
        <time>2011-07-09T12:36:51Z</time>
      </trkpt>
      <trkpt lat="45.90084" lon="4.28894">
        <ele>662.9663</ele>
        <time>2011-07-09T12:36:53Z</time>
      </trkpt>
      <trkpt lat="45.90086" lon="4.28847">
        <ele>661.0437</ele>
        <time>2011-07-09T12:37:00Z</time>
      </trkpt>
      <trkpt lat="45.90086" lon="4.28822">
        <ele>660.08227</ele>
        <time>2011-07-09T12:37:04Z</time>
      </trkpt>
      <trkpt lat="45.90087" lon="4.28803">
        <ele>659.6018</ele>
        <time>2011-07-09T12:37:07Z</time>
      </trkpt>
      <trkpt lat="45.90094" lon="4.28762">
        <ele>657.19848</ele>
        <time>2011-07-09T12:37:12Z</time>
      </trkpt>
      <trkpt lat="45.90096" lon="4.28752">
        <ele>656.23706</ele>
        <time>2011-07-09T12:37:13Z</time>
      </trkpt>
      <trkpt lat="45.901" lon="4.28716">
        <ele>654.31469</ele>
        <time>2011-07-09T12:37:16Z</time>
      </trkpt>
      <trkpt lat="45.90103" lon="4.2865">
        <ele>650.9497</ele>
        <time>2011-07-09T12:37:21Z</time>
      </trkpt>
      <trkpt lat="45.90107" lon="4.28605">
        <ele>647.10449</ele>
        <time>2011-07-09T12:37:24Z</time>
      </trkpt>
      <trkpt lat="45.90106" lon="4.28574">
        <ele>646.14331</ele>
        <time>2011-07-09T12:37:26Z</time>
      </trkpt>
      <trkpt lat="45.90103" lon="4.28528">
        <ele>642.7788</ele>
        <time>2011-07-09T12:37:29Z</time>
      </trkpt>
      <trkpt lat="45.90101" lon="4.28513">
        <ele>642.7788</ele>
        <time>2011-07-09T12:37:30Z</time>
      </trkpt>
      <trkpt lat="45.90091" lon="4.2846">
        <ele>640.37548</ele>
        <time>2011-07-09T12:37:34Z</time>
      </trkpt>
      <trkpt lat="45.90082" lon="4.28389">
        <ele>639.41406</ele>
        <time>2011-07-09T12:37:40Z</time>
      </trkpt>
      <trkpt lat="45.90072" lon="4.28342">
        <ele>639.89477</ele>
        <time>2011-07-09T12:37:45Z</time>
      </trkpt>
      <trkpt lat="45.90059" lon="4.28297">
        <ele>639.41406</ele>
        <time>2011-07-09T12:37:51Z</time>
      </trkpt>
      <trkpt lat="45.90055" lon="4.28284">
        <ele>640.85595</ele>
        <time>2011-07-09T12:37:53Z</time>
      </trkpt>
      <trkpt lat="45.90042" lon="4.28264">
        <ele>640.37548</ele>
        <time>2011-07-09T12:37:57Z</time>
      </trkpt>
      <trkpt lat="45.90015" lon="4.28244">
        <ele>639.41406</ele>
        <time>2011-07-09T12:38:03Z</time>
      </trkpt>
      <trkpt lat="45.89975" lon="4.28223">
        <ele>639.41406</ele>
        <time>2011-07-09T12:38:11Z</time>
      </trkpt>
      <trkpt lat="45.8997" lon="4.2822">
        <ele>639.41406</ele>
        <time>2011-07-09T12:38:12Z</time>
      </trkpt>
      <trkpt lat="45.89936" lon="4.28188">
        <ele>639.89477</ele>
        <time>2011-07-09T12:38:20Z</time>
      </trkpt>
      <trkpt lat="45.89919" lon="4.2815">
        <ele>639.41406</ele>
        <time>2011-07-09T12:38:26Z</time>
      </trkpt>
      <trkpt lat="45.89909" lon="4.28126">
        <ele>637.97216</ele>
        <time>2011-07-09T12:38:29Z</time>
      </trkpt>
      <trkpt lat="45.89889" lon="4.28069">
        <ele>635.5686</ele>
        <time>2011-07-09T12:38:35Z</time>
      </trkpt>
      <trkpt lat="45.89867" lon="4.28006">
        <ele>631.72338</ele>
        <time>2011-07-09T12:38:41Z</time>
      </trkpt>
      <trkpt lat="45.89863" lon="4.27995">
        <ele>632.2041</ele>
        <time>2011-07-09T12:38:42Z</time>
      </trkpt>
      <trkpt lat="45.89846" lon="4.27954">
        <ele>629.80078</ele>
        <time>2011-07-09T12:38:46Z</time>
      </trkpt>
      <trkpt lat="45.89841" lon="4.27943">
        <ele>628.35888</ele>
        <time>2011-07-09T12:38:47Z</time>
      </trkpt>
      <trkpt lat="45.89817" lon="4.27906">
        <ele>626.43627</ele>
        <time>2011-07-09T12:38:51Z</time>
      </trkpt>
      <trkpt lat="45.89772" lon="4.27853">
        <ele>623.55249</ele>
        <time>2011-07-09T12:38:57Z</time>
      </trkpt>
      <trkpt lat="45.89751" lon="4.27825">
        <ele>621.62963</ele>
        <time>2011-07-09T12:39:00Z</time>
      </trkpt>
      <trkpt lat="45.89737" lon="4.27804">
        <ele>620.66845</ele>
        <time>2011-07-09T12:39:02Z</time>
      </trkpt>
      <trkpt lat="45.89726" lon="4.27781">
        <ele>618.7456</ele>
        <time>2011-07-09T12:39:04Z</time>
      </trkpt>
      <trkpt lat="45.89722" lon="4.2777">
        <ele>617.30371</ele>
        <time>2011-07-09T12:39:05Z</time>
      </trkpt>
      <trkpt lat="45.89714" lon="4.27733">
        <ele>615.3811</ele>
        <time>2011-07-09T12:39:08Z</time>
      </trkpt>
      <trkpt lat="45.89708" lon="4.27691">
        <ele>611.53588</ele>
        <time>2011-07-09T12:39:11Z</time>
      </trkpt>
      <trkpt lat="45.89705" lon="4.27677">
        <ele>611.53588</ele>
        <time>2011-07-09T12:39:12Z</time>
      </trkpt>
      <trkpt lat="45.89676" lon="4.27642">
        <ele>609.61328</ele>
        <time>2011-07-09T12:39:16Z</time>
      </trkpt>
      <trkpt lat="45.89649" lon="4.27613">
        <ele>608.65185</ele>
        <time>2011-07-09T12:39:20Z</time>
      </trkpt>
      <trkpt lat="45.89629" lon="4.276">
        <ele>609.13256</ele>
        <time>2011-07-09T12:39:23Z</time>
      </trkpt>
      <trkpt lat="45.89609" lon="4.27579">
        <ele>609.61328</ele>
        <time>2011-07-09T12:39:28Z</time>
      </trkpt>
      <trkpt lat="45.89599" lon="4.27572">
        <ele>610.09375</ele>
        <time>2011-07-09T12:39:31Z</time>
      </trkpt>
      <trkpt lat="45.89591" lon="4.27562">
        <ele>610.57446</ele>
        <time>2011-07-09T12:39:35Z</time>
      </trkpt>
      <trkpt lat="45.89578" lon="4.27548">
        <ele>611.05517</ele>
        <time>2011-07-09T12:39:41Z</time>
      </trkpt>
      <trkpt lat="45.8956" lon="4.27529">
        <ele>611.53588</ele>
        <time>2011-07-09T12:39:49Z</time>
      </trkpt>
      <trkpt lat="45.89546" lon="4.2751">
        <ele>612.0166</ele>
        <time>2011-07-09T12:39:57Z</time>
      </trkpt>
      <trkpt lat="45.89535" lon="4.2749">
        <ele>613.93896</ele>
        <time>2011-07-09T12:40:04Z</time>
      </trkpt>
      <trkpt lat="45.89524" lon="4.27469">
        <ele>614.90039</ele>
        <time>2011-07-09T12:40:12Z</time>
      </trkpt>
      <trkpt lat="45.89516" lon="4.27452">
        <ele>614.90039</ele>
        <time>2011-07-09T12:40:18Z</time>
      </trkpt>
      <trkpt lat="45.89506" lon="4.27429">
        <ele>614.90039</ele>
        <time>2011-07-09T12:40:25Z</time>
      </trkpt>
      <trkpt lat="45.89496" lon="4.27398">
        <ele>616.34228</ele>
        <time>2011-07-09T12:40:33Z</time>
      </trkpt>
      <trkpt lat="45.8948" lon="4.27368">
        <ele>615.86181</ele>
        <time>2011-07-09T12:40:41Z</time>
      </trkpt>
      <trkpt lat="45.89471" lon="4.27342">
        <ele>615.86181</ele>
        <time>2011-07-09T12:40:47Z</time>
      </trkpt>
      <trkpt lat="45.89463" lon="4.27315">
        <ele>616.82299</ele>
        <time>2011-07-09T12:40:53Z</time>
      </trkpt>
      <trkpt lat="45.89458" lon="4.27292">
        <ele>616.82299</ele>
        <time>2011-07-09T12:40:58Z</time>
      </trkpt>
      <trkpt lat="45.89447" lon="4.27248">
        <ele>614.90039</ele>
        <time>2011-07-09T12:41:04Z</time>
      </trkpt>
      <trkpt lat="45.89434" lon="4.27211">
        <ele>614.41967</ele>
        <time>2011-07-09T12:41:09Z</time>
      </trkpt>
      <trkpt lat="45.89422" lon="4.27171">
        <ele>613.45849</ele>
        <time>2011-07-09T12:41:15Z</time>
      </trkpt>
      <trkpt lat="45.89409" lon="4.27136">
        <ele>612.49707</ele>
        <time>2011-07-09T12:41:21Z</time>
      </trkpt>
      <trkpt lat="45.89399" lon="4.27103">
        <ele>612.49707</ele>
        <time>2011-07-09T12:41:26Z</time>
      </trkpt>
      <trkpt lat="45.8939" lon="4.27076">
        <ele>612.0166</ele>
        <time>2011-07-09T12:41:30Z</time>
      </trkpt>
      <trkpt lat="45.8938" lon="4.27038">
        <ele>611.53588</ele>
        <time>2011-07-09T12:41:36Z</time>
      </trkpt>
      <trkpt lat="45.89378" lon="4.27031">
        <ele>612.0166</ele>
        <time>2011-07-09T12:41:37Z</time>
      </trkpt>
      <trkpt lat="45.89363" lon="4.26998">
        <ele>610.09375</ele>
        <time>2011-07-09T12:41:42Z</time>
      </trkpt>
      <trkpt lat="45.89359" lon="4.2699">
        <ele>609.61328</ele>
        <time>2011-07-09T12:41:43Z</time>
      </trkpt>
      <trkpt lat="45.89346" lon="4.26969">
        <ele>608.17138</ele>
        <time>2011-07-09T12:41:46Z</time>
      </trkpt>
      <trkpt lat="45.89334" lon="4.26933">
        <ele>607.20996</ele>
        <time>2011-07-09T12:41:50Z</time>
      </trkpt>
      <trkpt lat="45.89332" lon="4.26911">
        <ele>606.24853</ele>
        <time>2011-07-09T12:41:52Z</time>
      </trkpt>
      <trkpt lat="45.89327" lon="4.26849">
        <ele>603.84521</ele>
        <time>2011-07-09T12:41:57Z</time>
      </trkpt>
      <trkpt lat="45.89321" lon="4.26818">
        <ele>603.3645</ele>
        <time>2011-07-09T12:42:00Z</time>
      </trkpt>
      <trkpt lat="45.8931" lon="4.26763">
        <ele>601.9226</ele>
        <time>2011-07-09T12:42:06Z</time>
      </trkpt>
      <trkpt lat="45.89306" lon="4.2674">
        <ele>600.96118</ele>
        <time>2011-07-09T12:42:09Z</time>
      </trkpt>
      <trkpt lat="45.89303" lon="4.26692">
        <ele>599.51928</ele>
        <time>2011-07-09T12:42:15Z</time>
      </trkpt>
      <trkpt lat="45.89304" lon="4.26667">
        <ele>597.11596</ele>
        <time>2011-07-09T12:42:18Z</time>
      </trkpt>
      <trkpt lat="45.8932" lon="4.26621">
        <ele>592.30957</ele>
        <time>2011-07-09T12:42:24Z</time>
      </trkpt>
      <trkpt lat="45.89318" lon="4.26585">
        <ele>588.94506</ele>
        <time>2011-07-09T12:42:28Z</time>
      </trkpt>
      <trkpt lat="45.89313" lon="4.26563">
        <ele>588.46435</ele>
        <time>2011-07-09T12:42:30Z</time>
      </trkpt>
      <trkpt lat="45.8931" lon="4.26508">
        <ele>587.50268</ele>
        <time>2011-07-09T12:42:35Z</time>
      </trkpt>
      <trkpt lat="45.89313" lon="4.26488">
        <ele>587.50268</ele>
        <time>2011-07-09T12:42:37Z</time>
      </trkpt>
      <trkpt lat="45.89313" lon="4.26435">
        <ele>588.94506</ele>
        <time>2011-07-09T12:42:43Z</time>
      </trkpt>
      <trkpt lat="45.89312" lon="4.26428">
        <ele>588.94506</ele>
        <time>2011-07-09T12:42:44Z</time>
      </trkpt>
      <trkpt lat="45.89307" lon="4.26407">
        <ele>589.42553</ele>
        <time>2011-07-09T12:42:48Z</time>
      </trkpt>
      <trkpt lat="45.89303" lon="4.26398">
        <ele>589.42553</ele>
        <time>2011-07-09T12:42:50Z</time>
      </trkpt>
      <trkpt lat="45.89293" lon="4.26381">
        <ele>587.98339</ele>
        <time>2011-07-09T12:42:53Z</time>
      </trkpt>
      <trkpt lat="45.89277" lon="4.26353">
        <ele>585.58007</ele>
        <time>2011-07-09T12:42:57Z</time>
      </trkpt>
      <trkpt lat="45.89249" lon="4.26306">
        <ele>581.25439</ele>
        <time>2011-07-09T12:43:02Z</time>
      </trkpt>
      <trkpt lat="45.8923" lon="4.26271">
        <ele>577.40917</ele>
        <time>2011-07-09T12:43:05Z</time>
      </trkpt>
      <trkpt lat="45.89218" lon="4.26247">
        <ele>574.04443</ele>
        <time>2011-07-09T12:43:07Z</time>
      </trkpt>
      <trkpt lat="45.89209" lon="4.26224">
        <ele>571.64086</ele>
        <time>2011-07-09T12:43:09Z</time>
      </trkpt>
      <trkpt lat="45.892" lon="4.26175">
        <ele>567.79565</ele>
        <time>2011-07-09T12:43:13Z</time>
      </trkpt>
      <trkpt lat="45.89188" lon="4.26121">
        <ele>564.43115</ele>
        <time>2011-07-09T12:43:17Z</time>
      </trkpt>
      <trkpt lat="45.89181" lon="4.26082">
        <ele>562.98925</ele>
        <time>2011-07-09T12:43:20Z</time>
      </trkpt>
      <trkpt lat="45.89159" lon="4.26041">
        <ele>558.66333</ele>
        <time>2011-07-09T12:43:24Z</time>
      </trkpt>
      <trkpt lat="45.89127" lon="4.26001">
        <ele>555.29858</ele>
        <time>2011-07-09T12:43:28Z</time>
      </trkpt>
      <trkpt lat="45.89083" lon="4.25947">
        <ele>551.93408</ele>
        <time>2011-07-09T12:43:33Z</time>
      </trkpt>
      <trkpt lat="45.89053" lon="4.25915">
        <ele>548.56933</ele>
        <time>2011-07-09T12:43:36Z</time>
      </trkpt>
      <trkpt lat="45.89032" lon="4.25894">
        <ele>545.68554</ele>
        <time>2011-07-09T12:43:38Z</time>
      </trkpt>
      <trkpt lat="45.8901" lon="4.25873">
        <ele>544.72424</ele>
        <time>2011-07-09T12:43:40Z</time>
      </trkpt>
      <trkpt lat="45.88959" lon="4.25833">
        <ele>543.2821</ele>
        <time>2011-07-09T12:43:45Z</time>
      </trkpt>
      <trkpt lat="45.88915" lon="4.25803">
        <ele>541.84021</ele>
        <time>2011-07-09T12:43:50Z</time>
      </trkpt>
      <trkpt lat="45.88898" lon="4.25787">
        <ele>539.9176</ele>
        <time>2011-07-09T12:43:52Z</time>
      </trkpt>
      <trkpt lat="45.88876" lon="4.25741">
        <ele>535.59155</ele>
        <time>2011-07-09T12:43:56Z</time>
      </trkpt>
      <trkpt lat="45.88871" lon="4.25729">
        <ele>534.63037</ele>
        <time>2011-07-09T12:43:57Z</time>
      </trkpt>
      <trkpt lat="45.8885" lon="4.25698">
        <ele>532.22705</ele>
        <time>2011-07-09T12:44:00Z</time>
      </trkpt>
      <trkpt lat="45.88823" lon="4.25682">
        <ele>528.86254</ele>
        <time>2011-07-09T12:44:03Z</time>
      </trkpt>
      <trkpt lat="45.88793" lon="4.25686">
        <ele>525.4978</ele>
        <time>2011-07-09T12:44:06Z</time>
      </trkpt>
      <trkpt lat="45.88783" lon="4.25691">
        <ele>524.53649</ele>
        <time>2011-07-09T12:44:07Z</time>
      </trkpt>
      <trkpt lat="45.88735" lon="4.25719">
        <ele>520.69128</ele>
        <time>2011-07-09T12:44:12Z</time>
      </trkpt>
      <trkpt lat="45.88714" lon="4.25738">
        <ele>517.32666</ele>
        <time>2011-07-09T12:44:15Z</time>
      </trkpt>
      <trkpt lat="45.88706" lon="4.25753">
        <ele>514.44262</ele>
        <time>2011-07-09T12:44:17Z</time>
      </trkpt>
      <trkpt lat="45.8869" lon="4.25766">
        <ele>510.11669</ele>
        <time>2011-07-09T12:44:22Z</time>
      </trkpt>
      <trkpt lat="45.88688" lon="4.25754">
        <ele>509.15539</ele>
        <time>2011-07-09T12:44:25Z</time>
      </trkpt>
      <trkpt lat="45.8869" lon="4.25739">
        <ele>507.7135</ele>
        <time>2011-07-09T12:44:28Z</time>
      </trkpt>
      <trkpt lat="45.887" lon="4.25706">
        <ele>506.75207</ele>
        <time>2011-07-09T12:44:33Z</time>
      </trkpt>
      <trkpt lat="45.8871" lon="4.25671">
        <ele>504.34887</ele>
        <time>2011-07-09T12:44:37Z</time>
      </trkpt>
      <trkpt lat="45.88722" lon="4.25648">
        <ele>503.38745</ele>
        <time>2011-07-09T12:44:40Z</time>
      </trkpt>
      <trkpt lat="45.88726" lon="4.25641">
        <ele>501.94555</ele>
        <time>2011-07-09T12:44:41Z</time>
      </trkpt>
      <trkpt lat="45.88729" lon="4.25605">
        <ele>501.46484</ele>
        <time>2011-07-09T12:44:45Z</time>
      </trkpt>
      <trkpt lat="45.8872" lon="4.25563">
        <ele>500.98413</ele>
        <time>2011-07-09T12:44:50Z</time>
      </trkpt>
      <trkpt lat="45.88714" lon="4.25539">
        <ele>500.50354</ele>
        <time>2011-07-09T12:44:53Z</time>
      </trkpt>
      <trkpt lat="45.88714" lon="4.25508">
        <ele>502.42614</ele>
        <time>2011-07-09T12:44:58Z</time>
      </trkpt>
      <trkpt lat="45.88718" lon="4.255">
        <ele>503.38745</ele>
        <time>2011-07-09T12:45:00Z</time>
      </trkpt>
      <trkpt lat="45.88737" lon="4.25485">
        <ele>503.86816</ele>
        <time>2011-07-09T12:45:06Z</time>
      </trkpt>
      <trkpt lat="45.88755" lon="4.25464">
        <ele>504.82946</ele>
        <time>2011-07-09T12:45:13Z</time>
      </trkpt>
      <trkpt lat="45.88773" lon="4.25442">
        <ele>506.27148</ele>
        <time>2011-07-09T12:45:20Z</time>
      </trkpt>
      <trkpt lat="45.88771" lon="4.2543">
        <ele>507.23278</ele>
        <time>2011-07-09T12:45:24Z</time>
      </trkpt>
      <trkpt lat="45.88756" lon="4.2543">
        <ele>508.67468</ele>
        <time>2011-07-09T12:45:30Z</time>
      </trkpt>
      <trkpt lat="45.88741" lon="4.2543">
        <ele>510.59729</ele>
        <time>2011-07-09T12:45:36Z</time>
      </trkpt>
      <trkpt lat="45.88728" lon="4.25431">
        <ele>513.00073</ele>
        <time>2011-07-09T12:45:41Z</time>
      </trkpt>
      <trkpt lat="45.88726" lon="4.2543">
        <ele>513.00073</ele>
        <time>2011-07-09T12:45:42Z</time>
      </trkpt>
      <trkpt lat="45.88716" lon="4.25418">
        <ele>514.44262</ele>
        <time>2011-07-09T12:45:48Z</time>
      </trkpt>
      <trkpt lat="45.88715" lon="4.25415">
        <ele>514.44262</ele>
        <time>2011-07-09T12:45:49Z</time>
      </trkpt>
      <trkpt lat="45.88719" lon="4.25394">
        <ele>514.92333</ele>
        <time>2011-07-09T12:45:57Z</time>
      </trkpt>
      <trkpt lat="45.88719" lon="4.25388">
        <ele>514.92333</ele>
        <time>2011-07-09T12:45:59Z</time>
      </trkpt>
      <trkpt lat="45.88725" lon="4.25378">
        <ele>514.92333</ele>
        <time>2011-07-09T12:46:04Z</time>
      </trkpt>
      <trkpt lat="45.88733" lon="4.2536">
        <ele>515.40405</ele>
        <time>2011-07-09T12:46:11Z</time>
      </trkpt>
      <trkpt lat="45.88743" lon="4.25342">
        <ele>518.28784</ele>
        <time>2011-07-09T12:46:18Z</time>
      </trkpt>
      <trkpt lat="45.88749" lon="4.25328">
        <ele>519.24926</ele>
        <time>2011-07-09T12:46:24Z</time>
      </trkpt>
      <trkpt lat="45.88759" lon="4.25311">
        <ele>520.21057</ele>
        <time>2011-07-09T12:46:32Z</time>
      </trkpt>
      <trkpt lat="45.88765" lon="4.25298">
        <ele>522.13317</ele>
        <time>2011-07-09T12:46:38Z</time>
      </trkpt>
      <trkpt lat="45.8877" lon="4.25285">
        <ele>524.05578</ele>
        <time>2011-07-09T12:46:44Z</time>
      </trkpt>
      <trkpt lat="45.88777" lon="4.25269">
        <ele>525.4978</ele>
        <time>2011-07-09T12:46:51Z</time>
      </trkpt>
      <trkpt lat="45.88786" lon="4.2525">
        <ele>527.42041</ele>
        <time>2011-07-09T12:47:00Z</time>
      </trkpt>
      <trkpt lat="45.88793" lon="4.25236">
        <ele>530.30444</ele>
        <time>2011-07-09T12:47:08Z</time>
      </trkpt>
      <trkpt lat="45.88796" lon="4.25226">
        <ele>531.74633</ele>
        <time>2011-07-09T12:47:13Z</time>
      </trkpt>
      <trkpt lat="45.88795" lon="4.25214">
        <ele>533.66894</ele>
        <time>2011-07-09T12:47:19Z</time>
      </trkpt>
      <trkpt lat="45.88792" lon="4.25201">
        <ele>535.11096</ele>
        <time>2011-07-09T12:47:27Z</time>
      </trkpt>
      <trkpt lat="45.88789" lon="4.25191">
        <ele>535.59155</ele>
        <time>2011-07-09T12:47:35Z</time>
      </trkpt>
      <trkpt lat="45.88785" lon="4.2518">
        <ele>538.4757</ele>
        <time>2011-07-09T12:47:43Z</time>
      </trkpt>
      <trkpt lat="45.88778" lon="4.25163">
        <ele>539.9176</ele>
        <time>2011-07-09T12:47:51Z</time>
      </trkpt>
      <trkpt lat="45.88772" lon="4.25149">
        <ele>540.39831</ele>
        <time>2011-07-09T12:47:59Z</time>
      </trkpt>
      <trkpt lat="45.88769" lon="4.2513">
        <ele>540.39831</ele>
        <time>2011-07-09T12:48:06Z</time>
      </trkpt>
      <trkpt lat="45.88765" lon="4.25117">
        <ele>542.32092</ele>
        <time>2011-07-09T12:48:11Z</time>
      </trkpt>
      <trkpt lat="45.88759" lon="4.25093">
        <ele>544.72424</ele>
        <time>2011-07-09T12:48:20Z</time>
      </trkpt>
      <trkpt lat="45.88762" lon="4.25066">
        <ele>546.64685</ele>
        <time>2011-07-09T12:48:29Z</time>
      </trkpt>
      <trkpt lat="45.88763" lon="4.25051">
        <ele>547.12744</ele>
        <time>2011-07-09T12:48:34Z</time>
      </trkpt>
      <trkpt lat="45.88768" lon="4.25026">
        <ele>547.12744</ele>
        <time>2011-07-09T12:48:41Z</time>
      </trkpt>
      <trkpt lat="45.88774" lon="4.25007">
        <ele>546.64685</ele>
        <time>2011-07-09T12:48:46Z</time>
      </trkpt>
      <trkpt lat="45.88781" lon="4.24984">
        <ele>547.12744</ele>
        <time>2011-07-09T12:48:52Z</time>
      </trkpt>
      <trkpt lat="45.88789" lon="4.24953">
        <ele>547.12744</ele>
        <time>2011-07-09T12:49:00Z</time>
      </trkpt>
      <trkpt lat="45.88793" lon="4.2493">
        <ele>547.60815</ele>
        <time>2011-07-09T12:49:06Z</time>
      </trkpt>
      <trkpt lat="45.88798" lon="4.24903">
        <ele>548.56933</ele>
        <time>2011-07-09T12:49:13Z</time>
      </trkpt>
      <trkpt lat="45.888" lon="4.24873">
        <ele>550.49218</ele>
        <time>2011-07-09T12:49:21Z</time>
      </trkpt>
      <trkpt lat="45.88802" lon="4.24853">
        <ele>550.49218</ele>
        <time>2011-07-09T12:49:27Z</time>
      </trkpt>
      <trkpt lat="45.88807" lon="4.24833">
        <ele>550.97265</ele>
        <time>2011-07-09T12:49:33Z</time>
      </trkpt>
      <trkpt lat="45.88808" lon="4.24831">
        <ele>551.45336</ele>
        <time>2011-07-09T12:49:42Z</time>
      </trkpt>
      <trkpt lat="45.88807" lon="4.24833">
        <ele>551.45336</ele>
        <time>2011-07-09T12:49:53Z</time>
      </trkpt>
      <trkpt lat="45.88806" lon="4.24833">
        <ele>550.49218</ele>
        <time>2011-07-09T12:50:25Z</time>
      </trkpt>
      <trkpt lat="45.88808" lon="4.24829">
        <ele>550.49218</ele>
        <time>2011-07-09T12:50:39Z</time>
      </trkpt>
      <trkpt lat="45.88809" lon="4.24811">
        <ele>550.49218</ele>
        <time>2011-07-09T12:50:45Z</time>
      </trkpt>
      <trkpt lat="45.88808" lon="4.24788">
        <ele>550.49218</ele>
        <time>2011-07-09T12:50:51Z</time>
      </trkpt>
      <trkpt lat="45.88804" lon="4.24767">
        <ele>550.97265</ele>
        <time>2011-07-09T12:50:57Z</time>
      </trkpt>
      <trkpt lat="45.88802" lon="4.24739">
        <ele>550.49218</ele>
        <time>2011-07-09T12:51:04Z</time>
      </trkpt>
      <trkpt lat="45.88801" lon="4.24717">
        <ele>550.49218</ele>
        <time>2011-07-09T12:51:09Z</time>
      </trkpt>
      <trkpt lat="45.88795" lon="4.24703">
        <ele>550.01147</ele>
        <time>2011-07-09T12:51:13Z</time>
      </trkpt>
      <trkpt lat="45.88784" lon="4.24694">
        <ele>550.01147</ele>
        <time>2011-07-09T12:51:18Z</time>
      </trkpt>
      <trkpt lat="45.88778" lon="4.24686">
        <ele>549.53076</ele>
        <time>2011-07-09T12:51:22Z</time>
      </trkpt>
      <trkpt lat="45.88778" lon="4.24684">
        <ele>549.05004</ele>
        <time>2011-07-09T12:51:29Z</time>
      </trkpt>
      <trkpt lat="45.88783" lon="4.24669">
        <ele>548.56933</ele>
        <time>2011-07-09T12:51:34Z</time>
      </trkpt>
      <trkpt lat="45.88785" lon="4.24664">
        <ele>548.56933</ele>
        <time>2011-07-09T12:51:35Z</time>
      </trkpt>
      <trkpt lat="45.88802" lon="4.24622">
        <ele>547.60815</ele>
        <time>2011-07-09T12:51:42Z</time>
      </trkpt>
      <trkpt lat="45.88803" lon="4.24617">
        <ele>548.08886</ele>
        <time>2011-07-09T12:51:43Z</time>
      </trkpt>
      <trkpt lat="45.88803" lon="4.24594">
        <ele>548.56933</ele>
        <time>2011-07-09T12:51:47Z</time>
      </trkpt>
      <trkpt lat="45.88795" lon="4.24559">
        <ele>547.60815</ele>
        <time>2011-07-09T12:51:53Z</time>
      </trkpt>
      <trkpt lat="45.88776" lon="4.24529">
        <ele>547.60815</ele>
        <time>2011-07-09T12:52:00Z</time>
      </trkpt>
      <trkpt lat="45.88761" lon="4.24509">
        <ele>548.08886</ele>
        <time>2011-07-09T12:52:06Z</time>
      </trkpt>
      <trkpt lat="45.88748" lon="4.24485">
        <ele>549.53076</ele>
        <time>2011-07-09T12:52:12Z</time>
      </trkpt>
      <trkpt lat="45.88741" lon="4.24467">
        <ele>550.97265</ele>
        <time>2011-07-09T12:52:17Z</time>
      </trkpt>
      <trkpt lat="45.88729" lon="4.24432">
        <ele>550.97265</ele>
        <time>2011-07-09T12:52:26Z</time>
      </trkpt>
      <trkpt lat="45.88728" lon="4.24429">
        <ele>550.97265</ele>
        <time>2011-07-09T12:52:30Z</time>
      </trkpt>
      <trkpt lat="45.88727" lon="4.24427">
        <ele>550.97265</ele>
        <time>2011-07-09T12:52:52Z</time>
      </trkpt>
      <trkpt lat="45.88727" lon="4.24426">
        <ele>550.97265</ele>
        <time>2011-07-09T12:53:03Z</time>
      </trkpt>
      <trkpt lat="45.88728" lon="4.24427">
        <ele>550.97265</ele>
        <time>2011-07-09T12:53:15Z</time>
      </trkpt>
      <trkpt lat="45.88732" lon="4.24443">
        <ele>550.97265</ele>
        <time>2011-07-09T12:53:21Z</time>
      </trkpt>
      <trkpt lat="45.88743" lon="4.24474">
        <ele>550.01147</ele>
        <time>2011-07-09T12:53:28Z</time>
      </trkpt>
      <trkpt lat="45.88751" lon="4.24493">
        <ele>548.56933</ele>
        <time>2011-07-09T12:53:31Z</time>
      </trkpt>
      <trkpt lat="45.88764" lon="4.24517">
        <ele>547.60815</ele>
        <time>2011-07-09T12:53:35Z</time>
      </trkpt>
      <trkpt lat="45.88791" lon="4.24551">
        <ele>547.60815</ele>
        <time>2011-07-09T12:53:42Z</time>
      </trkpt>
      <trkpt lat="45.88795" lon="4.24556">
        <ele>547.12744</ele>
        <time>2011-07-09T12:53:43Z</time>
      </trkpt>
      <trkpt lat="45.88802" lon="4.24582">
        <ele>547.12744</ele>
        <time>2011-07-09T12:53:47Z</time>
      </trkpt>
      <trkpt lat="45.888" lon="4.24624">
        <ele>547.12744</ele>
        <time>2011-07-09T12:53:53Z</time>
      </trkpt>
      <trkpt lat="45.88798" lon="4.2463">
        <ele>546.64685</ele>
        <time>2011-07-09T12:53:54Z</time>
      </trkpt>
      <trkpt lat="45.88792" lon="4.24644">
        <ele>546.64685</ele>
        <time>2011-07-09T12:53:56Z</time>
      </trkpt>
      <trkpt lat="45.88785" lon="4.24658">
        <ele>547.12744</ele>
        <time>2011-07-09T12:53:58Z</time>
      </trkpt>
      <trkpt lat="45.8878" lon="4.24671">
        <ele>547.60815</ele>
        <time>2011-07-09T12:54:00Z</time>
      </trkpt>
      <trkpt lat="45.88781" lon="4.24691">
        <ele>548.56933</ele>
        <time>2011-07-09T12:54:04Z</time>
      </trkpt>
      <trkpt lat="45.88798" lon="4.24709">
        <ele>549.05004</ele>
        <time>2011-07-09T12:54:09Z</time>
      </trkpt>
      <trkpt lat="45.888" lon="4.24722">
        <ele>548.56933</ele>
        <time>2011-07-09T12:54:11Z</time>
      </trkpt>
      <trkpt lat="45.88801" lon="4.24758">
        <ele>549.05004</ele>
        <time>2011-07-09T12:54:17Z</time>
      </trkpt>
      <trkpt lat="45.888" lon="4.24761">
        <ele>549.53076</ele>
        <time>2011-07-09T12:54:18Z</time>
      </trkpt>
      <trkpt lat="45.88801" lon="4.24765">
        <ele>549.05004</ele>
        <time>2011-07-09T12:54:23Z</time>
      </trkpt>
      <trkpt lat="45.88804" lon="4.24759">
        <ele>548.56933</ele>
        <time>2011-07-09T12:54:27Z</time>
      </trkpt>
      <trkpt lat="45.88804" lon="4.24733">
        <ele>548.56933</ele>
        <time>2011-07-09T12:54:34Z</time>
      </trkpt>
      <trkpt lat="45.88803" lon="4.24716">
        <ele>549.05004</ele>
        <time>2011-07-09T12:54:37Z</time>
      </trkpt>
      <trkpt lat="45.88794" lon="4.24699">
        <ele>548.56933</ele>
        <time>2011-07-09T12:54:41Z</time>
      </trkpt>
      <trkpt lat="45.88787" lon="4.24694">
        <ele>548.56933</ele>
        <time>2011-07-09T12:54:43Z</time>
      </trkpt>
      <trkpt lat="45.8878" lon="4.24676">
        <ele>548.08886</ele>
        <time>2011-07-09T12:54:47Z</time>
      </trkpt>
      <trkpt lat="45.88784" lon="4.24661">
        <ele>547.60815</ele>
        <time>2011-07-09T12:54:49Z</time>
      </trkpt>
      <trkpt lat="45.88792" lon="4.24646">
        <ele>547.12744</ele>
        <time>2011-07-09T12:54:51Z</time>
      </trkpt>
      <trkpt lat="45.88802" lon="4.24624">
        <ele>547.12744</ele>
        <time>2011-07-09T12:54:54Z</time>
      </trkpt>
      <trkpt lat="45.88803" lon="4.24593">
        <ele>547.12744</ele>
        <time>2011-07-09T12:54:58Z</time>
      </trkpt>
      <trkpt lat="45.88801" lon="4.24578">
        <ele>547.12744</ele>
        <time>2011-07-09T12:55:00Z</time>
      </trkpt>
      <trkpt lat="45.88789" lon="4.24543">
        <ele>546.64685</ele>
        <time>2011-07-09T12:55:05Z</time>
      </trkpt>
      <trkpt lat="45.88785" lon="4.24538">
        <ele>547.12744</ele>
        <time>2011-07-09T12:55:06Z</time>
      </trkpt>
      <trkpt lat="45.88756" lon="4.245">
        <ele>547.60815</ele>
        <time>2011-07-09T12:55:14Z</time>
      </trkpt>
      <trkpt lat="45.88744" lon="4.24469">
        <ele>549.05004</ele>
        <time>2011-07-09T12:55:20Z</time>
      </trkpt>
      <trkpt lat="45.88728" lon="4.24427">
        <ele>550.01147</ele>
        <time>2011-07-09T12:55:28Z</time>
      </trkpt>
      <trkpt lat="45.88726" lon="4.24403">
        <ele>550.01147</ele>
        <time>2011-07-09T12:55:33Z</time>
      </trkpt>
      <trkpt lat="45.88725" lon="4.2439">
        <ele>550.01147</ele>
        <time>2011-07-09T12:55:38Z</time>
      </trkpt>
      <trkpt lat="45.88725" lon="4.24388">
        <ele>549.53076</ele>
        <time>2011-07-09T12:55:44Z</time>
      </trkpt>
      <trkpt lat="45.88725" lon="4.24387">
        <ele>549.53076</ele>
        <time>2011-07-09T12:55:54Z</time>
      </trkpt>
      <trkpt lat="45.88727" lon="4.24386">
        <ele>549.53076</ele>
        <time>2011-07-09T12:56:07Z</time>
      </trkpt>
      <trkpt lat="45.88728" lon="4.24386">
        <ele>549.53076</ele>
        <time>2011-07-09T12:56:23Z</time>
      </trkpt>
      <trkpt lat="45.88726" lon="4.24393">
        <ele>549.05004</ele>
        <time>2011-07-09T12:56:28Z</time>
      </trkpt>
      <trkpt lat="45.88722" lon="4.24395">
        <ele>549.05004</ele>
        <time>2011-07-09T12:56:32Z</time>
      </trkpt>
      <trkpt lat="45.88709" lon="4.24399">
        <ele>549.05004</ele>
        <time>2011-07-09T12:56:39Z</time>
      </trkpt>
      <trkpt lat="45.88695" lon="4.24403">
        <ele>548.56933</ele>
        <time>2011-07-09T12:56:45Z</time>
      </trkpt>
      <trkpt lat="45.88676" lon="4.24408">
        <ele>548.08886</ele>
        <time>2011-07-09T12:56:51Z</time>
      </trkpt>
      <trkpt lat="45.88649" lon="4.24412">
        <ele>546.64685</ele>
        <time>2011-07-09T12:56:57Z</time>
      </trkpt>
      <trkpt lat="45.88607" lon="4.24421">
        <ele>545.20483</ele>
        <time>2011-07-09T12:57:04Z</time>
      </trkpt>
      <trkpt lat="45.88594" lon="4.24424">
        <ele>544.72424</ele>
        <time>2011-07-09T12:57:06Z</time>
      </trkpt>
      <trkpt lat="45.88551" lon="4.24438">
        <ele>542.32092</ele>
        <time>2011-07-09T12:57:12Z</time>
      </trkpt>
      <trkpt lat="45.885" lon="4.24456">
        <ele>538.95629</ele>
        <time>2011-07-09T12:57:18Z</time>
      </trkpt>
      <trkpt lat="45.88491" lon="4.24459">
        <ele>538.95629</ele>
        <time>2011-07-09T12:57:19Z</time>
      </trkpt>
      <trkpt lat="45.88446" lon="4.24486">
        <ele>535.59155</ele>
        <time>2011-07-09T12:57:24Z</time>
      </trkpt>
      <trkpt lat="45.88384" lon="4.24522">
        <ele>532.70776</ele>
        <time>2011-07-09T12:57:31Z</time>
      </trkpt>
      <trkpt lat="45.88367" lon="4.24531">
        <ele>529.34313</ele>
        <time>2011-07-09T12:57:33Z</time>
      </trkpt>
      <trkpt lat="45.88358" lon="4.24535">
        <ele>529.34313</ele>
        <time>2011-07-09T12:57:34Z</time>
      </trkpt>
      <trkpt lat="45.88344" lon="4.24539">
        <ele>527.901</ele>
        <time>2011-07-09T12:57:36Z</time>
      </trkpt>
      <trkpt lat="45.88319" lon="4.24556">
        <ele>524.05578</ele>
        <time>2011-07-09T12:57:41Z</time>
      </trkpt>
      <trkpt lat="45.88295" lon="4.24575">
        <ele>523.0946</ele>
        <time>2011-07-09T12:57:45Z</time>
      </trkpt>
      <trkpt lat="45.88283" lon="4.24586">
        <ele>521.65258</ele>
        <time>2011-07-09T12:57:47Z</time>
      </trkpt>
      <trkpt lat="45.88263" lon="4.24605">
        <ele>517.80725</ele>
        <time>2011-07-09T12:57:50Z</time>
      </trkpt>
      <trkpt lat="45.88236" lon="4.24628">
        <ele>515.88464</ele>
        <time>2011-07-09T12:57:54Z</time>
      </trkpt>
      <trkpt lat="45.88217" lon="4.24638">
        <ele>514.44262</ele>
        <time>2011-07-09T12:57:56Z</time>
      </trkpt>
      <trkpt lat="45.8819" lon="4.24651">
        <ele>511.078</ele>
        <time>2011-07-09T12:57:59Z</time>
      </trkpt>
      <trkpt lat="45.88165" lon="4.2467">
        <ele>507.23278</ele>
        <time>2011-07-09T12:58:02Z</time>
      </trkpt>
      <trkpt lat="45.88134" lon="4.24697">
        <ele>504.34887</ele>
        <time>2011-07-09T12:58:06Z</time>
      </trkpt>
      <trkpt lat="45.88127" lon="4.24704">
        <ele>503.86816</ele>
        <time>2011-07-09T12:58:07Z</time>
      </trkpt>
      <trkpt lat="45.88112" lon="4.24718">
        <ele>502.42614</ele>
        <time>2011-07-09T12:58:09Z</time>
      </trkpt>
      <trkpt lat="45.8809" lon="4.2475">
        <ele>502.90673</ele>
        <time>2011-07-09T12:58:13Z</time>
      </trkpt>
      <trkpt lat="45.88079" lon="4.24776">
        <ele>503.38745</ele>
        <time>2011-07-09T12:58:16Z</time>
      </trkpt>
      <trkpt lat="45.88073" lon="4.24799">
        <ele>504.82946</ele>
        <time>2011-07-09T12:58:21Z</time>
      </trkpt>
      <trkpt lat="45.88064" lon="4.24813">
        <ele>506.75207</ele>
        <time>2011-07-09T12:58:27Z</time>
      </trkpt>
      <trkpt lat="45.8805" lon="4.24817">
        <ele>507.7135</ele>
        <time>2011-07-09T12:58:34Z</time>
      </trkpt>
      <trkpt lat="45.88032" lon="4.24824">
        <ele>510.11669</ele>
        <time>2011-07-09T12:58:43Z</time>
      </trkpt>
      <trkpt lat="45.88019" lon="4.24828">
        <ele>513.00073</ele>
        <time>2011-07-09T12:58:50Z</time>
      </trkpt>
      <trkpt lat="45.88004" lon="4.24836">
        <ele>514.92333</ele>
        <time>2011-07-09T12:58:56Z</time>
      </trkpt>
      <trkpt lat="45.87993" lon="4.24847">
        <ele>517.32666</ele>
        <time>2011-07-09T12:59:02Z</time>
      </trkpt>
      <trkpt lat="45.87982" lon="4.24859">
        <ele>518.76855</ele>
        <time>2011-07-09T12:59:08Z</time>
      </trkpt>
      <trkpt lat="45.87971" lon="4.24877">
        <ele>519.24926</ele>
        <time>2011-07-09T12:59:16Z</time>
      </trkpt>
      <trkpt lat="45.8796" lon="4.24893">
        <ele>520.21057</ele>
        <time>2011-07-09T12:59:23Z</time>
      </trkpt>
      <trkpt lat="45.87951" lon="4.24915">
        <ele>521.65258</ele>
        <time>2011-07-09T12:59:31Z</time>
      </trkpt>
      <trkpt lat="45.87942" lon="4.24934">
        <ele>523.0946</ele>
        <time>2011-07-09T12:59:39Z</time>
      </trkpt>
      <trkpt lat="45.87938" lon="4.2494">
        <ele>522.61389</ele>
        <time>2011-07-09T12:59:42Z</time>
      </trkpt>
      <trkpt lat="45.87922" lon="4.24942">
        <ele>521.17199</ele>
        <time>2011-07-09T12:59:48Z</time>
      </trkpt>
      <trkpt lat="45.8791" lon="4.24943">
        <ele>520.69128</ele>
        <time>2011-07-09T12:59:53Z</time>
      </trkpt>
      <trkpt lat="45.87909" lon="4.24943">
        <ele>520.69128</ele>
        <time>2011-07-09T13:00:01Z</time>
      </trkpt>
      <trkpt lat="45.87906" lon="4.24942">
        <ele>520.69128</ele>
        <time>2011-07-09T13:00:13Z</time>
      </trkpt>
      <trkpt lat="45.87893" lon="4.24941">
        <ele>520.21057</ele>
        <time>2011-07-09T13:00:18Z</time>
      </trkpt>
      <trkpt lat="45.87884" lon="4.24929">
        <ele>520.21057</ele>
        <time>2011-07-09T13:00:22Z</time>
      </trkpt>
      <trkpt lat="45.87866" lon="4.24888">
        <ele>517.32666</ele>
        <time>2011-07-09T13:00:30Z</time>
      </trkpt>
      <trkpt lat="45.87857" lon="4.2485">
        <ele>516.84594</ele>
        <time>2011-07-09T13:00:37Z</time>
      </trkpt>
      <trkpt lat="45.87848" lon="4.24826">
        <ele>515.88464</ele>
        <time>2011-07-09T13:00:42Z</time>
      </trkpt>
      <trkpt lat="45.87846" lon="4.24821">
        <ele>516.36523</ele>
        <time>2011-07-09T13:00:43Z</time>
      </trkpt>
      <trkpt lat="45.87835" lon="4.24795">
        <ele>513.48144</ele>
        <time>2011-07-09T13:00:48Z</time>
      </trkpt>
      <trkpt lat="45.87832" lon="4.24789">
        <ele>513.48144</ele>
        <time>2011-07-09T13:00:49Z</time>
      </trkpt>
      <trkpt lat="45.87822" lon="4.24769">
        <ele>511.55871</ele>
        <time>2011-07-09T13:00:52Z</time>
      </trkpt>
      <trkpt lat="45.87792" lon="4.24722">
        <ele>508.67468</ele>
        <time>2011-07-09T13:00:58Z</time>
      </trkpt>
      <trkpt lat="45.87757" lon="4.24675">
        <ele>506.75207</ele>
        <time>2011-07-09T13:01:04Z</time>
      </trkpt>
      <trkpt lat="45.87731" lon="4.24644">
        <ele>505.79089</ele>
        <time>2011-07-09T13:01:09Z</time>
      </trkpt>
      <trkpt lat="45.87713" lon="4.2462">
        <ele>504.82946</ele>
        <time>2011-07-09T13:01:13Z</time>
      </trkpt>
      <trkpt lat="45.87695" lon="4.24599">
        <ele>503.38745</ele>
        <time>2011-07-09T13:01:17Z</time>
      </trkpt>
      <trkpt lat="45.87673" lon="4.24575">
        <ele>499.54223</ele>
        <time>2011-07-09T13:01:22Z</time>
      </trkpt>
      <trkpt lat="45.87663" lon="4.24565">
        <ele>497.61962</ele>
        <time>2011-07-09T13:01:24Z</time>
      </trkpt>
      <trkpt lat="45.87646" lon="4.2454">
        <ele>493.29357</ele>
        <time>2011-07-09T13:01:28Z</time>
      </trkpt>
      <trkpt lat="45.8764" lon="4.24534">
        <ele>493.29357</ele>
        <time>2011-07-09T13:01:29Z</time>
      </trkpt>
      <trkpt lat="45.87632" lon="4.24524">
        <ele>492.33239</ele>
        <time>2011-07-09T13:01:31Z</time>
      </trkpt>
      <trkpt lat="45.87603" lon="4.24498">
        <ele>488.00646</ele>
        <time>2011-07-09T13:01:36Z</time>
      </trkpt>
      <trkpt lat="45.87572" lon="4.24467">
        <ele>484.64184</ele>
        <time>2011-07-09T13:01:41Z</time>
      </trkpt>
      <trkpt lat="45.87556" lon="4.24454">
        <ele>483.68041</ele>
        <time>2011-07-09T13:01:43Z</time>
      </trkpt>
      <trkpt lat="45.87534" lon="4.24435">
        <ele>481.75781</ele>
        <time>2011-07-09T13:01:46Z</time>
      </trkpt>
      <trkpt lat="45.87513" lon="4.24419">
        <ele>480.79663</ele>
        <time>2011-07-09T13:01:49Z</time>
      </trkpt>
      <trkpt lat="45.87483" lon="4.24404">
        <ele>479.35449</ele>
        <time>2011-07-09T13:01:53Z</time>
      </trkpt>
      <trkpt lat="45.87456" lon="4.24391">
        <ele>478.8739</ele>
        <time>2011-07-09T13:01:57Z</time>
      </trkpt>
      <trkpt lat="45.87451" lon="4.24385">
        <ele>478.8739</ele>
        <time>2011-07-09T13:01:58Z</time>
      </trkpt>
      <trkpt lat="45.87427" lon="4.24352">
        <ele>478.8739</ele>
        <time>2011-07-09T13:02:04Z</time>
      </trkpt>
      <trkpt lat="45.87401" lon="4.24314">
        <ele>478.39318</ele>
        <time>2011-07-09T13:02:11Z</time>
      </trkpt>
      <trkpt lat="45.87375" lon="4.24283">
        <ele>478.8739</ele>
        <time>2011-07-09T13:02:18Z</time>
      </trkpt>
      <trkpt lat="45.87349" lon="4.24266">
        <ele>477.91247</ele>
        <time>2011-07-09T13:02:24Z</time>
      </trkpt>
      <trkpt lat="45.87341" lon="4.24261">
        <ele>477.43188</ele>
        <time>2011-07-09T13:02:26Z</time>
      </trkpt>
      <trkpt lat="45.87321" lon="4.24239">
        <ele>477.91247</ele>
        <time>2011-07-09T13:02:32Z</time>
      </trkpt>
      <trkpt lat="45.87299" lon="4.24198">
        <ele>476.95129</ele>
        <time>2011-07-09T13:02:40Z</time>
      </trkpt>
      <trkpt lat="45.87294" lon="4.24187">
        <ele>477.43188</ele>
        <time>2011-07-09T13:02:42Z</time>
      </trkpt>
      <trkpt lat="45.87276" lon="4.24159">
        <ele>477.43188</ele>
        <time>2011-07-09T13:02:48Z</time>
      </trkpt>
      <trkpt lat="45.8727" lon="4.24148">
        <ele>476.95129</ele>
        <time>2011-07-09T13:02:50Z</time>
      </trkpt>
      <trkpt lat="45.87264" lon="4.24138">
        <ele>475.98986</ele>
        <time>2011-07-09T13:02:52Z</time>
      </trkpt>
      <trkpt lat="45.87236" lon="4.241">
        <ele>475.02868</ele>
        <time>2011-07-09T13:03:00Z</time>
      </trkpt>
      <trkpt lat="45.8721" lon="4.24064">
        <ele>474.54797</ele>
        <time>2011-07-09T13:03:07Z</time>
      </trkpt>
      <trkpt lat="45.87206" lon="4.24058">
        <ele>474.54797</ele>
        <time>2011-07-09T13:03:08Z</time>
      </trkpt>
      <trkpt lat="45.87198" lon="4.24049">
        <ele>474.06726</ele>
        <time>2011-07-09T13:03:10Z</time>
      </trkpt>
      <trkpt lat="45.87189" lon="4.24028">
        <ele>472.14465</ele>
        <time>2011-07-09T13:03:14Z</time>
      </trkpt>
      <trkpt lat="45.87197" lon="4.24018">
        <ele>472.14465</ele>
        <time>2011-07-09T13:03:17Z</time>
      </trkpt>
      <trkpt lat="45.8721" lon="4.24006">
        <ele>472.62536</ele>
        <time>2011-07-09T13:03:21Z</time>
      </trkpt>
      <trkpt lat="45.87216" lon="4.2398">
        <ele>472.62536</ele>
        <time>2011-07-09T13:03:26Z</time>
      </trkpt>
      <trkpt lat="45.87211" lon="4.23949">
        <ele>472.62536</ele>
        <time>2011-07-09T13:03:32Z</time>
      </trkpt>
      <trkpt lat="45.87199" lon="4.23913">
        <ele>474.54797</ele>
        <time>2011-07-09T13:03:40Z</time>
      </trkpt>
      <trkpt lat="45.87193" lon="4.23887">
        <ele>475.50927</ele>
        <time>2011-07-09T13:03:46Z</time>
      </trkpt>
      <trkpt lat="45.87192" lon="4.23854">
        <ele>475.98986</ele>
        <time>2011-07-09T13:03:53Z</time>
      </trkpt>
      <trkpt lat="45.87195" lon="4.23841">
        <ele>477.43188</ele>
        <time>2011-07-09T13:03:56Z</time>
      </trkpt>
      <trkpt lat="45.87208" lon="4.23821">
        <ele>479.35449</ele>
        <time>2011-07-09T13:04:02Z</time>
      </trkpt>
      <trkpt lat="45.87226" lon="4.23796">
        <ele>481.75781</ele>
        <time>2011-07-09T13:04:10Z</time>
      </trkpt>
      <trkpt lat="45.87235" lon="4.23772">
        <ele>482.23852</ele>
        <time>2011-07-09T13:04:16Z</time>
      </trkpt>
      <trkpt lat="45.87233" lon="4.23744">
        <ele>483.19982</ele>
        <time>2011-07-09T13:04:22Z</time>
      </trkpt>
      <trkpt lat="45.87231" lon="4.23735">
        <ele>484.64184</ele>
        <time>2011-07-09T13:04:24Z</time>
      </trkpt>
      <trkpt lat="45.87223" lon="4.23696">
        <ele>486.08374</ele>
        <time>2011-07-09T13:04:33Z</time>
      </trkpt>
      <trkpt lat="45.87229" lon="4.23669">
        <ele>487.52563</ele>
        <time>2011-07-09T13:04:39Z</time>
      </trkpt>
      <trkpt lat="45.8725" lon="4.23638">
        <ele>488.48718</ele>
        <time>2011-07-09T13:04:48Z</time>
      </trkpt>
      <trkpt lat="45.87268" lon="4.23609">
        <ele>489.92907</ele>
        <time>2011-07-09T13:04:56Z</time>
      </trkpt>
      <trkpt lat="45.87276" lon="4.23573">
        <ele>492.81298</ele>
        <time>2011-07-09T13:05:04Z</time>
      </trkpt>
      <trkpt lat="45.87283" lon="4.23529">
        <ele>494.73559</ele>
        <time>2011-07-09T13:05:13Z</time>
      </trkpt>
      <trkpt lat="45.8729" lon="4.23495">
        <ele>495.21618</ele>
        <time>2011-07-09T13:05:20Z</time>
      </trkpt>
      <trkpt lat="45.87303" lon="4.23459">
        <ele>495.69689</ele>
        <time>2011-07-09T13:05:28Z</time>
      </trkpt>
      <trkpt lat="45.87312" lon="4.23432">
        <ele>496.17773</ele>
        <time>2011-07-09T13:05:35Z</time>
      </trkpt>
      <trkpt lat="45.8731" lon="4.23424">
        <ele>495.69689</ele>
        <time>2011-07-09T13:05:41Z</time>
      </trkpt>
      <trkpt lat="45.87299" lon="4.23417">
        <ele>495.21618</ele>
        <time>2011-07-09T13:05:46Z</time>
      </trkpt>
      <trkpt lat="45.8729" lon="4.23413">
        <ele>495.21618</ele>
        <time>2011-07-09T13:05:48Z</time>
      </trkpt>
      <trkpt lat="45.87258" lon="4.23398">
        <ele>493.29357</ele>
        <time>2011-07-09T13:05:53Z</time>
      </trkpt>
      <trkpt lat="45.8721" lon="4.23373">
        <ele>488.48718</ele>
        <time>2011-07-09T13:05:59Z</time>
      </trkpt>
      <trkpt lat="45.87173" lon="4.23354">
        <ele>486.08374</ele>
        <time>2011-07-09T13:06:03Z</time>
      </trkpt>
      <trkpt lat="45.87135" lon="4.23333">
        <ele>484.16113</ele>
        <time>2011-07-09T13:06:07Z</time>
      </trkpt>
      <trkpt lat="45.87125" lon="4.23328">
        <ele>482.23852</ele>
        <time>2011-07-09T13:06:08Z</time>
      </trkpt>
      <trkpt lat="45.87104" lon="4.23295">
        <ele>479.35449</ele>
        <time>2011-07-09T13:06:12Z</time>
      </trkpt>
      <trkpt lat="45.87092" lon="4.23256">
        <ele>475.50927</ele>
        <time>2011-07-09T13:06:16Z</time>
      </trkpt>
      <trkpt lat="45.87072" lon="4.23212">
        <ele>472.14465</ele>
        <time>2011-07-09T13:06:20Z</time>
      </trkpt>
      <trkpt lat="45.87045" lon="4.23172">
        <ele>467.33813</ele>
        <time>2011-07-09T13:06:24Z</time>
      </trkpt>
      <trkpt lat="45.87021" lon="4.23144">
        <ele>463.97338</ele>
        <time>2011-07-09T13:06:27Z</time>
      </trkpt>
      <trkpt lat="45.87012" lon="4.23135">
        <ele>463.49279</ele>
        <time>2011-07-09T13:06:28Z</time>
      </trkpt>
      <trkpt lat="45.87004" lon="4.23126">
        <ele>462.53137</ele>
        <time>2011-07-09T13:06:29Z</time>
      </trkpt>
      <trkpt lat="45.86961" lon="4.23098">
        <ele>462.53137</ele>
        <time>2011-07-09T13:06:34Z</time>
      </trkpt>
      <trkpt lat="45.86926" lon="4.23089">
        <ele>462.53137</ele>
        <time>2011-07-09T13:06:39Z</time>
      </trkpt>
      <trkpt lat="45.86915" lon="4.23085">
        <ele>462.53137</ele>
        <time>2011-07-09T13:06:41Z</time>
      </trkpt>
      <trkpt lat="45.86899" lon="4.23065">
        <ele>463.01208</ele>
        <time>2011-07-09T13:06:46Z</time>
      </trkpt>
      <trkpt lat="45.86891" lon="4.23039">
        <ele>463.49279</ele>
        <time>2011-07-09T13:06:51Z</time>
      </trkpt>
      <trkpt lat="45.86887" lon="4.2303">
        <ele>462.53137</ele>
        <time>2011-07-09T13:06:53Z</time>
      </trkpt>
      <trkpt lat="45.86872" lon="4.22994">
        <ele>461.57019</ele>
        <time>2011-07-09T13:07:00Z</time>
      </trkpt>
      <trkpt lat="45.8687" lon="4.2299">
        <ele>461.08947</ele>
        <time>2011-07-09T13:07:01Z</time>
      </trkpt>
      <trkpt lat="45.86865" lon="4.22979">
        <ele>461.57019</ele>
        <time>2011-07-09T13:07:05Z</time>
      </trkpt>
      <trkpt lat="45.86865" lon="4.22977">
        <ele>461.57019</ele>
        <time>2011-07-09T13:07:06Z</time>
      </trkpt>
      <trkpt lat="45.86868" lon="4.22974">
        <ele>462.53137</ele>
        <time>2011-07-09T13:07:11Z</time>
      </trkpt>
      <trkpt lat="45.86874" lon="4.22969">
        <ele>463.97338</ele>
        <time>2011-07-09T13:07:18Z</time>
      </trkpt>
      <trkpt lat="45.86879" lon="4.22966">
        <ele>464.4541</ele>
        <time>2011-07-09T13:07:21Z</time>
      </trkpt>
      <trkpt lat="45.86889" lon="4.22957">
        <ele>464.93481</ele>
        <time>2011-07-09T13:07:28Z</time>
      </trkpt>
      <trkpt lat="45.86891" lon="4.22956">
        <ele>465.89611</ele>
        <time>2011-07-09T13:07:29Z</time>
      </trkpt>
      <trkpt lat="45.86902" lon="4.22952">
        <ele>466.3767</ele>
        <time>2011-07-09T13:07:35Z</time>
      </trkpt>
      <trkpt lat="45.86917" lon="4.22946">
        <ele>467.81872</ele>
        <time>2011-07-09T13:07:43Z</time>
      </trkpt>
      <trkpt lat="45.86931" lon="4.22939">
        <ele>468.78002</ele>
        <time>2011-07-09T13:07:50Z</time>
      </trkpt>
      <trkpt lat="45.86943" lon="4.22933">
        <ele>469.74133</ele>
        <time>2011-07-09T13:07:57Z</time>
      </trkpt>
      <trkpt lat="45.8695" lon="4.22928">
        <ele>471.18334</ele>
        <time>2011-07-09T13:08:03Z</time>
      </trkpt>
      <trkpt lat="45.86952" lon="4.22925">
        <ele>472.14465</ele>
        <time>2011-07-09T13:08:05Z</time>
      </trkpt>
      <trkpt lat="45.86966" lon="4.22911">
        <ele>473.58666</ele>
        <time>2011-07-09T13:08:13Z</time>
      </trkpt>
      <trkpt lat="45.8697" lon="4.22888">
        <ele>475.50927</ele>
        <time>2011-07-09T13:08:21Z</time>
      </trkpt>
      <trkpt lat="45.86975" lon="4.22872">
        <ele>476.47058</ele>
        <time>2011-07-09T13:08:27Z</time>
      </trkpt>
      <trkpt lat="45.86979" lon="4.2286">
        <ele>476.95129</ele>
        <time>2011-07-09T13:08:33Z</time>
      </trkpt>
      <trkpt lat="45.86987" lon="4.2285">
        <ele>477.43188</ele>
        <time>2011-07-09T13:08:39Z</time>
      </trkpt>
      <trkpt lat="45.86988" lon="4.22848">
        <ele>477.91247</ele>
        <time>2011-07-09T13:08:40Z</time>
      </trkpt>
      <trkpt lat="45.86996" lon="4.22846">
        <ele>478.39318</ele>
        <time>2011-07-09T13:08:44Z</time>
      </trkpt>
      <trkpt lat="45.87008" lon="4.22841">
        <ele>480.31591</ele>
        <time>2011-07-09T13:08:50Z</time>
      </trkpt>
      <trkpt lat="45.87022" lon="4.22837">
        <ele>481.27722</ele>
        <time>2011-07-09T13:08:57Z</time>
      </trkpt>
      <trkpt lat="45.87026" lon="4.22835">
        <ele>482.71923</ele>
        <time>2011-07-09T13:09:01Z</time>
      </trkpt>
      <trkpt lat="45.87036" lon="4.22829">
        <ele>484.16113</ele>
        <time>2011-07-09T13:09:07Z</time>
      </trkpt>
      <trkpt lat="45.87047" lon="4.2282">
        <ele>484.64184</ele>
        <time>2011-07-09T13:09:14Z</time>
      </trkpt>
      <trkpt lat="45.8706" lon="4.22813">
        <ele>485.60302</ele>
        <time>2011-07-09T13:09:20Z</time>
      </trkpt>
      <trkpt lat="45.87074" lon="4.22801">
        <ele>485.60302</ele>
        <time>2011-07-09T13:09:27Z</time>
      </trkpt>
      <trkpt lat="45.87081" lon="4.22795">
        <ele>486.56445</ele>
        <time>2011-07-09T13:09:33Z</time>
      </trkpt>
      <trkpt lat="45.87095" lon="4.22788">
        <ele>487.04504</ele>
        <time>2011-07-09T13:09:40Z</time>
      </trkpt>
      <trkpt lat="45.87101" lon="4.22785">
        <ele>487.52563</ele>
        <time>2011-07-09T13:09:43Z</time>
      </trkpt>
      <trkpt lat="45.87116" lon="4.22778">
        <ele>488.48718</ele>
        <time>2011-07-09T13:09:50Z</time>
      </trkpt>
      <trkpt lat="45.87121" lon="4.22774">
        <ele>488.48718</ele>
        <time>2011-07-09T13:09:52Z</time>
      </trkpt>
      <trkpt lat="45.87137" lon="4.22769">
        <ele>489.44836</ele>
        <time>2011-07-09T13:09:59Z</time>
      </trkpt>
      <trkpt lat="45.87156" lon="4.2276">
        <ele>491.37097</ele>
        <time>2011-07-09T13:10:07Z</time>
      </trkpt>
      <trkpt lat="45.87177" lon="4.22746">
        <ele>491.37097</ele>
        <time>2011-07-09T13:10:15Z</time>
      </trkpt>
      <trkpt lat="45.87193" lon="4.22738">
        <ele>491.37097</ele>
        <time>2011-07-09T13:10:22Z</time>
      </trkpt>
      <trkpt lat="45.87204" lon="4.22733">
        <ele>491.85168</ele>
        <time>2011-07-09T13:10:27Z</time>
      </trkpt>
      <trkpt lat="45.87218" lon="4.22728">
        <ele>492.33239</ele>
        <time>2011-07-09T13:10:33Z</time>
      </trkpt>
      <trkpt lat="45.87235" lon="4.22723">
        <ele>492.81298</ele>
        <time>2011-07-09T13:10:39Z</time>
      </trkpt>
      <trkpt lat="45.87255" lon="4.22716">
        <ele>492.81298</ele>
        <time>2011-07-09T13:10:46Z</time>
      </trkpt>
      <trkpt lat="45.87273" lon="4.22708">
        <ele>494.73559</ele>
        <time>2011-07-09T13:10:53Z</time>
      </trkpt>
      <trkpt lat="45.87285" lon="4.22703">
        <ele>495.69689</ele>
        <time>2011-07-09T13:10:58Z</time>
      </trkpt>
      <trkpt lat="45.87301" lon="4.227">
        <ele>496.17773</ele>
        <time>2011-07-09T13:11:03Z</time>
      </trkpt>
      <trkpt lat="45.87318" lon="4.22695">
        <ele>497.61962</ele>
        <time>2011-07-09T13:11:09Z</time>
      </trkpt>
      <trkpt lat="45.87338" lon="4.22691">
        <ele>498.58093</ele>
        <time>2011-07-09T13:11:16Z</time>
      </trkpt>
      <trkpt lat="45.87357" lon="4.22685">
        <ele>498.58093</ele>
        <time>2011-07-09T13:11:22Z</time>
      </trkpt>
      <trkpt lat="45.87387" lon="4.22674">
        <ele>498.58093</ele>
        <time>2011-07-09T13:11:30Z</time>
      </trkpt>
      <trkpt lat="45.87408" lon="4.22665">
        <ele>498.58093</ele>
        <time>2011-07-09T13:11:36Z</time>
      </trkpt>
      <trkpt lat="45.87427" lon="4.22651">
        <ele>498.58093</ele>
        <time>2011-07-09T13:11:42Z</time>
      </trkpt>
      <trkpt lat="45.87445" lon="4.22635">
        <ele>498.58093</ele>
        <time>2011-07-09T13:11:48Z</time>
      </trkpt>
      <trkpt lat="45.87471" lon="4.22615">
        <ele>500.50354</ele>
        <time>2011-07-09T13:11:56Z</time>
      </trkpt>
      <trkpt lat="45.8749" lon="4.22601">
        <ele>500.98413</ele>
        <time>2011-07-09T13:12:02Z</time>
      </trkpt>
      <trkpt lat="45.87509" lon="4.22591">
        <ele>501.46484</ele>
        <time>2011-07-09T13:12:08Z</time>
      </trkpt>
      <trkpt lat="45.87526" lon="4.22587">
        <ele>502.90673</ele>
        <time>2011-07-09T13:12:14Z</time>
      </trkpt>
      <trkpt lat="45.87539" lon="4.22586">
        <ele>502.90673</ele>
        <time>2011-07-09T13:12:20Z</time>
      </trkpt>
      <trkpt lat="45.87557" lon="4.22582">
        <ele>502.90673</ele>
        <time>2011-07-09T13:12:28Z</time>
      </trkpt>
      <trkpt lat="45.87573" lon="4.22579">
        <ele>503.86816</ele>
        <time>2011-07-09T13:12:35Z</time>
      </trkpt>
      <trkpt lat="45.87578" lon="4.22578">
        <ele>505.79089</ele>
        <time>2011-07-09T13:12:37Z</time>
      </trkpt>
      <trkpt lat="45.87588" lon="4.22574">
        <ele>507.7135</ele>
        <time>2011-07-09T13:12:41Z</time>
      </trkpt>
      <trkpt lat="45.87601" lon="4.22567">
        <ele>510.11669</ele>
        <time>2011-07-09T13:12:47Z</time>
      </trkpt>
      <trkpt lat="45.87618" lon="4.22556">
        <ele>511.078</ele>
        <time>2011-07-09T13:12:55Z</time>
      </trkpt>
      <trkpt lat="45.87633" lon="4.22549">
        <ele>512.03942</ele>
        <time>2011-07-09T13:13:01Z</time>
      </trkpt>
      <trkpt lat="45.87646" lon="4.22542">
        <ele>513.00073</ele>
        <time>2011-07-09T13:13:07Z</time>
      </trkpt>
      <trkpt lat="45.87656" lon="4.22535">
        <ele>514.44262</ele>
        <time>2011-07-09T13:13:12Z</time>
      </trkpt>
      <trkpt lat="45.87658" lon="4.22527">
        <ele>514.92333</ele>
        <time>2011-07-09T13:13:16Z</time>
      </trkpt>
      <trkpt lat="45.87646" lon="4.22517">
        <ele>514.92333</ele>
        <time>2011-07-09T13:13:23Z</time>
      </trkpt>
      <trkpt lat="45.87634" lon="4.22503">
        <ele>514.44262</ele>
        <time>2011-07-09T13:13:29Z</time>
      </trkpt>
      <trkpt lat="45.87617" lon="4.22489">
        <ele>513.96203</ele>
        <time>2011-07-09T13:13:35Z</time>
      </trkpt>
      <trkpt lat="45.87598" lon="4.22474">
        <ele>513.48144</ele>
        <time>2011-07-09T13:13:41Z</time>
      </trkpt>
      <trkpt lat="45.87578" lon="4.22457">
        <ele>513.48144</ele>
        <time>2011-07-09T13:13:47Z</time>
      </trkpt>
      <trkpt lat="45.87562" lon="4.22445">
        <ele>513.00073</ele>
        <time>2011-07-09T13:13:52Z</time>
      </trkpt>
      <trkpt lat="45.87536" lon="4.22432">
        <ele>512.03942</ele>
        <time>2011-07-09T13:13:59Z</time>
      </trkpt>
      <trkpt lat="45.87519" lon="4.2243">
        <ele>512.03942</ele>
        <time>2011-07-09T13:14:05Z</time>
      </trkpt>
      <trkpt lat="45.87518" lon="4.22431">
        <ele>512.03942</ele>
        <time>2011-07-09T13:14:14Z</time>
      </trkpt>
      <trkpt lat="45.87518" lon="4.22431">
        <ele>511.55871</ele>
        <time>2011-07-09T13:14:32Z</time>
      </trkpt>
      <trkpt lat="45.87517" lon="4.22433">
        <ele>511.078</ele>
        <time>2011-07-09T13:14:50Z</time>
      </trkpt>
      <trkpt lat="45.87516" lon="4.22433">
        <ele>511.078</ele>
        <time>2011-07-09T13:14:58Z</time>
      </trkpt>
      <trkpt lat="45.87515" lon="4.22433">
        <ele>511.55871</ele>
        <time>2011-07-09T13:15:17Z</time>
      </trkpt>
      <trkpt lat="45.87515" lon="4.22433">
        <ele>512.03942</ele>
        <time>2011-07-09T13:15:33Z</time>
      </trkpt>
      <trkpt lat="45.87515" lon="4.22433">
        <ele>512.52001</ele>
        <time>2011-07-09T13:15:41Z</time>
      </trkpt>
      <trkpt lat="45.87514" lon="4.22434">
        <ele>511.55871</ele>
        <time>2011-07-09T13:15:58Z</time>
      </trkpt>
      <trkpt lat="45.87513" lon="4.22433">
        <ele>512.52001</ele>
        <time>2011-07-09T13:16:15Z</time>
      </trkpt>
      <trkpt lat="45.87512" lon="4.22433">
        <ele>512.03942</ele>
        <time>2011-07-09T13:16:43Z</time>
      </trkpt>
      <trkpt lat="45.87513" lon="4.22433">
        <ele>511.55871</ele>
        <time>2011-07-09T13:16:58Z</time>
      </trkpt>
      <trkpt lat="45.87515" lon="4.22434">
        <ele>511.078</ele>
        <time>2011-07-09T13:17:05Z</time>
      </trkpt>
      <trkpt lat="45.87517" lon="4.22435">
        <ele>511.078</ele>
        <time>2011-07-09T13:17:11Z</time>
      </trkpt>
      <trkpt lat="45.87518" lon="4.22437">
        <ele>511.078</ele>
        <time>2011-07-09T13:17:27Z</time>
      </trkpt>
      <trkpt lat="45.87518" lon="4.22438">
        <ele>511.078</ele>
        <time>2011-07-09T13:17:37Z</time>
      </trkpt>
      <trkpt lat="45.87518" lon="4.22436">
        <ele>511.078</ele>
        <time>2011-07-09T13:17:49Z</time>
      </trkpt>
      <trkpt lat="45.87517" lon="4.22434">
        <ele>512.03942</ele>
        <time>2011-07-09T13:17:56Z</time>
      </trkpt>
      <trkpt lat="45.87517" lon="4.22434">
        <ele>511.55871</ele>
        <time>2011-07-09T13:18:05Z</time>
      </trkpt>
      <trkpt lat="45.87517" lon="4.22433">
        <ele>512.52001</ele>
        <time>2011-07-09T13:18:13Z</time>
      </trkpt>
      <trkpt lat="45.87517" lon="4.22436">
        <ele>512.03942</ele>
        <time>2011-07-09T13:18:15Z</time>
      </trkpt>
      <trkpt lat="45.87505" lon="4.22444">
        <ele>511.55871</ele>
        <time>2011-07-09T13:18:22Z</time>
      </trkpt>
      <trkpt lat="45.87487" lon="4.22455">
        <ele>511.078</ele>
        <time>2011-07-09T13:18:28Z</time>
      </trkpt>
      <trkpt lat="45.87462" lon="4.22468">
        <ele>510.11669</ele>
        <time>2011-07-09T13:18:34Z</time>
      </trkpt>
      <trkpt lat="45.87425" lon="4.22486">
        <ele>508.67468</ele>
        <time>2011-07-09T13:18:41Z</time>
      </trkpt>
      <trkpt lat="45.87385" lon="4.22501">
        <ele>507.7135</ele>
        <time>2011-07-09T13:18:48Z</time>
      </trkpt>
      <trkpt lat="45.87347" lon="4.22506">
        <ele>506.75207</ele>
        <time>2011-07-09T13:18:54Z</time>
      </trkpt>
      <trkpt lat="45.87311" lon="4.22501">
        <ele>505.31018</ele>
        <time>2011-07-09T13:18:59Z</time>
      </trkpt>
      <trkpt lat="45.87279" lon="4.22493">
        <ele>503.38745</ele>
        <time>2011-07-09T13:19:03Z</time>
      </trkpt>
      <trkpt lat="45.87264" lon="4.22489">
        <ele>502.42614</ele>
        <time>2011-07-09T13:19:05Z</time>
      </trkpt>
      <trkpt lat="45.87225" lon="4.2247">
        <ele>500.02294</ele>
        <time>2011-07-09T13:19:10Z</time>
      </trkpt>
      <trkpt lat="45.87209" lon="4.22461">
        <ele>499.06152</ele>
        <time>2011-07-09T13:19:12Z</time>
      </trkpt>
      <trkpt lat="45.87177" lon="4.22434">
        <ele>496.17773</ele>
        <time>2011-07-09T13:19:16Z</time>
      </trkpt>
      <trkpt lat="45.87123" lon="4.22392">
        <ele>493.77429</ele>
        <time>2011-07-09T13:19:22Z</time>
      </trkpt>
      <trkpt lat="45.87084" lon="4.22356">
        <ele>492.33239</ele>
        <time>2011-07-09T13:19:27Z</time>
      </trkpt>
      <trkpt lat="45.87045" lon="4.22334">
        <ele>491.85168</ele>
        <time>2011-07-09T13:19:32Z</time>
      </trkpt>
      <trkpt lat="45.87015" lon="4.22304">
        <ele>490.89038</ele>
        <time>2011-07-09T13:19:37Z</time>
      </trkpt>
      <trkpt lat="45.87004" lon="4.22289">
        <ele>489.44836</ele>
        <time>2011-07-09T13:19:39Z</time>
      </trkpt>
      <trkpt lat="45.86958" lon="4.22217">
        <ele>488.96777</ele>
        <time>2011-07-09T13:19:48Z</time>
      </trkpt>
      <trkpt lat="45.86921" lon="4.22157">
        <ele>487.04504</ele>
        <time>2011-07-09T13:19:55Z</time>
      </trkpt>
      <trkpt lat="45.86898" lon="4.22117">
        <ele>486.56445</ele>
        <time>2011-07-09T13:20:00Z</time>
      </trkpt>
      <trkpt lat="45.86871" lon="4.22074">
        <ele>488.00646</ele>
        <time>2011-07-09T13:20:07Z</time>
      </trkpt>
      <trkpt lat="45.86851" lon="4.22035">
        <ele>488.48718</ele>
        <time>2011-07-09T13:20:13Z</time>
      </trkpt>
      <trkpt lat="45.86833" lon="4.21988">
        <ele>489.44836</ele>
        <time>2011-07-09T13:20:20Z</time>
      </trkpt>
      <trkpt lat="45.86812" lon="4.21924">
        <ele>490.40979</ele>
        <time>2011-07-09T13:20:30Z</time>
      </trkpt>
      <trkpt lat="45.86787" lon="4.21862">
        <ele>491.85168</ele>
        <time>2011-07-09T13:20:40Z</time>
      </trkpt>
      <trkpt lat="45.86773" lon="4.21816">
        <ele>490.89038</ele>
        <time>2011-07-09T13:20:48Z</time>
      </trkpt>
      <trkpt lat="45.86759" lon="4.2178">
        <ele>489.92907</ele>
        <time>2011-07-09T13:20:53Z</time>
      </trkpt>
      <trkpt lat="45.86735" lon="4.21752">
        <ele>486.08374</ele>
        <time>2011-07-09T13:20:57Z</time>
      </trkpt>
      <trkpt lat="45.86703" lon="4.21733">
        <ele>484.16113</ele>
        <time>2011-07-09T13:21:01Z</time>
      </trkpt>
      <trkpt lat="45.86669" lon="4.21728">
        <ele>483.68041</ele>
        <time>2011-07-09T13:21:05Z</time>
      </trkpt>
      <trkpt lat="45.86633" lon="4.21729">
        <ele>482.23852</ele>
        <time>2011-07-09T13:21:10Z</time>
      </trkpt>
      <trkpt lat="45.86584" lon="4.21727">
        <ele>480.79663</ele>
        <time>2011-07-09T13:21:17Z</time>
      </trkpt>
      <trkpt lat="45.86543" lon="4.21718">
        <ele>477.43188</ele>
        <time>2011-07-09T13:21:23Z</time>
      </trkpt>
      <trkpt lat="45.8651" lon="4.21706">
        <ele>474.06726</ele>
        <time>2011-07-09T13:21:27Z</time>
      </trkpt>
      <trkpt lat="45.86486" lon="4.2169">
        <ele>472.62536</ele>
        <time>2011-07-09T13:21:30Z</time>
      </trkpt>
      <trkpt lat="45.86465" lon="4.2167">
        <ele>469.74133</ele>
        <time>2011-07-09T13:21:33Z</time>
      </trkpt>
      <trkpt lat="45.86437" lon="4.21634">
        <ele>465.89611</ele>
        <time>2011-07-09T13:21:37Z</time>
      </trkpt>
      <trkpt lat="45.86418" lon="4.21594">
        <ele>462.53137</ele>
        <time>2011-07-09T13:21:41Z</time>
      </trkpt>
      <trkpt lat="45.86396" lon="4.21576">
        <ele>460.12817</ele>
        <time>2011-07-09T13:21:45Z</time>
      </trkpt>
      <trkpt lat="45.8638" lon="4.21555">
        <ele>455.32153</ele>
        <time>2011-07-09T13:21:49Z</time>
      </trkpt>
      <trkpt lat="45.8638" lon="4.21547">
        <ele>454.84082</ele>
        <time>2011-07-09T13:21:50Z</time>
      </trkpt>
      <trkpt lat="45.86379" lon="4.21515">
        <ele>454.36022</ele>
        <time>2011-07-09T13:21:54Z</time>
      </trkpt>
      <trkpt lat="45.86374" lon="4.21485">
        <ele>454.84082</ele>
        <time>2011-07-09T13:21:58Z</time>
      </trkpt>
      <trkpt lat="45.86358" lon="4.21431">
        <ele>453.39892</ele>
        <time>2011-07-09T13:22:05Z</time>
      </trkpt>
      <trkpt lat="45.86355" lon="4.21422">
        <ele>452.91821</ele>
        <time>2011-07-09T13:22:06Z</time>
      </trkpt>
      <trkpt lat="45.86342" lon="4.21385">
        <ele>448.5924</ele>
        <time>2011-07-09T13:22:11Z</time>
      </trkpt>
      <trkpt lat="45.8634" lon="4.2138">
        <ele>448.5924</ele>
        <time>2011-07-09T13:22:12Z</time>
      </trkpt>
      <trkpt lat="45.86336" lon="4.21337">
        <ele>445.22766</ele>
        <time>2011-07-09T13:22:18Z</time>
      </trkpt>
      <trkpt lat="45.86332" lon="4.21311">
        <ele>444.26647</ele>
        <time>2011-07-09T13:22:21Z</time>
      </trkpt>
      <trkpt lat="45.86328" lon="4.21293">
        <ele>442.82446</ele>
        <time>2011-07-09T13:22:23Z</time>
      </trkpt>
      <trkpt lat="45.86317" lon="4.21271">
        <ele>438.97912</ele>
        <time>2011-07-09T13:22:26Z</time>
      </trkpt>
      <trkpt lat="45.86307" lon="4.21257">
        <ele>436.09521</ele>
        <time>2011-07-09T13:22:29Z</time>
      </trkpt>
      <trkpt lat="45.86302" lon="4.21241">
        <ele>436.09521</ele>
        <time>2011-07-09T13:22:33Z</time>
      </trkpt>
      <trkpt lat="45.86301" lon="4.21226">
        <ele>436.57592</ele>
        <time>2011-07-09T13:22:36Z</time>
      </trkpt>
      <trkpt lat="45.86301" lon="4.212">
        <ele>433.2113</ele>
        <time>2011-07-09T13:22:40Z</time>
      </trkpt>
      <trkpt lat="45.86307" lon="4.21167">
        <ele>430.32727</ele>
        <time>2011-07-09T13:22:43Z</time>
      </trkpt>
      <trkpt lat="45.86302" lon="4.2113">
        <ele>429.36596</ele>
        <time>2011-07-09T13:22:47Z</time>
      </trkpt>
      <trkpt lat="45.86293" lon="4.21125">
        <ele>430.80798</ele>
        <time>2011-07-09T13:22:50Z</time>
      </trkpt>
      <trkpt lat="45.86287" lon="4.21119">
        <ele>432.73071</ele>
        <time>2011-07-09T13:22:54Z</time>
      </trkpt>
      <trkpt lat="45.86286" lon="4.2111">
        <ele>434.1726</ele>
        <time>2011-07-09T13:22:58Z</time>
      </trkpt>
      <trkpt lat="45.86288" lon="4.21101">
        <ele>435.13391</ele>
        <time>2011-07-09T13:23:04Z</time>
      </trkpt>
      <trkpt lat="45.86288" lon="4.21098">
        <ele>435.13391</ele>
        <time>2011-07-09T13:23:11Z</time>
      </trkpt>
      <trkpt lat="45.8629" lon="4.21093">
        <ele>437.5371</ele>
        <time>2011-07-09T13:23:20Z</time>
      </trkpt>
      <trkpt lat="45.86293" lon="4.21088">
        <ele>439.94042</ele>
        <time>2011-07-09T13:23:28Z</time>
      </trkpt>
      <trkpt lat="45.86297" lon="4.21087">
        <ele>440.90185</ele>
        <time>2011-07-09T13:23:35Z</time>
      </trkpt>
      <trkpt lat="45.86299" lon="4.21086">
        <ele>440.90185</ele>
        <time>2011-07-09T13:23:43Z</time>
      </trkpt>
      <trkpt lat="45.86301" lon="4.21085">
        <ele>441.38244</ele>
        <time>2011-07-09T13:23:45Z</time>
      </trkpt>
      <trkpt lat="45.86309" lon="4.21075">
        <ele>444.74707</ele>
        <time>2011-07-09T13:23:54Z</time>
      </trkpt>
      <trkpt lat="45.8631" lon="4.21074">
        <ele>444.74707</ele>
        <time>2011-07-09T13:23:55Z</time>
      </trkpt>
      <trkpt lat="45.86311" lon="4.21071">
        <ele>445.70837</ele>
        <time>2011-07-09T13:23:57Z</time>
      </trkpt>
      <trkpt lat="45.86321" lon="4.21057">
        <ele>447.15026</ele>
        <time>2011-07-09T13:24:08Z</time>
      </trkpt>
      <trkpt lat="45.86327" lon="4.21045">
        <ele>449.07299</ele>
        <time>2011-07-09T13:24:14Z</time>
      </trkpt>
      <trkpt lat="45.86331" lon="4.21038">
        <ele>451.95703</ele>
        <time>2011-07-09T13:24:19Z</time>
      </trkpt>
      <trkpt lat="45.86338" lon="4.21033">
        <ele>453.39892</ele>
        <time>2011-07-09T13:24:26Z</time>
      </trkpt>
      <trkpt lat="45.86344" lon="4.21027">
        <ele>454.84082</ele>
        <time>2011-07-09T13:24:34Z</time>
      </trkpt>
      <trkpt lat="45.8635" lon="4.2102">
        <ele>455.80224</ele>
        <time>2011-07-09T13:24:41Z</time>
      </trkpt>
      <trkpt lat="45.86353" lon="4.21018">
        <ele>456.76354</ele>
        <time>2011-07-09T13:24:44Z</time>
      </trkpt>
      <trkpt lat="45.8636" lon="4.21011">
        <ele>457.72497</ele>
        <time>2011-07-09T13:24:53Z</time>
      </trkpt>
      <trkpt lat="45.86367" lon="4.21004">
        <ele>460.12817</ele>
        <time>2011-07-09T13:25:02Z</time>
      </trkpt>
      <trkpt lat="45.86372" lon="4.20998">
        <ele>461.57019</ele>
        <time>2011-07-09T13:25:09Z</time>
      </trkpt>
      <trkpt lat="45.86377" lon="4.20992">
        <ele>463.49279</ele>
        <time>2011-07-09T13:25:17Z</time>
      </trkpt>
      <trkpt lat="45.86387" lon="4.20988">
        <ele>464.93481</ele>
        <time>2011-07-09T13:25:25Z</time>
      </trkpt>
      <trkpt lat="45.86388" lon="4.20986">
        <ele>465.41552</ele>
        <time>2011-07-09T13:25:27Z</time>
      </trkpt>
      <trkpt lat="45.8639" lon="4.20981">
        <ele>465.89611</ele>
        <time>2011-07-09T13:25:31Z</time>
      </trkpt>
      <trkpt lat="45.8639" lon="4.20965">
        <ele>465.89611</ele>
        <time>2011-07-09T13:25:41Z</time>
      </trkpt>
      <trkpt lat="45.86394" lon="4.20949">
        <ele>465.89611</ele>
        <time>2011-07-09T13:25:48Z</time>
      </trkpt>
      <trkpt lat="45.86401" lon="4.20936">
        <ele>467.33813</ele>
        <time>2011-07-09T13:25:55Z</time>
      </trkpt>
      <trkpt lat="45.86408" lon="4.20926">
        <ele>468.78002</ele>
        <time>2011-07-09T13:26:02Z</time>
      </trkpt>
      <trkpt lat="45.86418" lon="4.2091">
        <ele>469.74133</ele>
        <time>2011-07-09T13:26:11Z</time>
      </trkpt>
      <trkpt lat="45.86431" lon="4.20889">
        <ele>471.66394</ele>
        <time>2011-07-09T13:26:22Z</time>
      </trkpt>
      <trkpt lat="45.86442" lon="4.2087">
        <ele>474.54797</ele>
        <time>2011-07-09T13:26:33Z</time>
      </trkpt>
      <trkpt lat="45.86451" lon="4.20851">
        <ele>475.98986</ele>
        <time>2011-07-09T13:26:43Z</time>
      </trkpt>
      <trkpt lat="45.86458" lon="4.20834">
        <ele>478.8739</ele>
        <time>2011-07-09T13:26:52Z</time>
      </trkpt>
      <trkpt lat="45.86463" lon="4.20819">
        <ele>480.79663</ele>
        <time>2011-07-09T13:27:00Z</time>
      </trkpt>
      <trkpt lat="45.86467" lon="4.20806">
        <ele>483.68041</ele>
        <time>2011-07-09T13:27:07Z</time>
      </trkpt>
      <trkpt lat="45.86468" lon="4.20804">
        <ele>483.68041</ele>
        <time>2011-07-09T13:27:08Z</time>
      </trkpt>
      <trkpt lat="45.86471" lon="4.2079">
        <ele>486.56445</ele>
        <time>2011-07-09T13:27:16Z</time>
      </trkpt>
      <trkpt lat="45.86473" lon="4.20778">
        <ele>488.48718</ele>
        <time>2011-07-09T13:27:23Z</time>
      </trkpt>
      <trkpt lat="45.86476" lon="4.20761">
        <ele>490.89038</ele>
        <time>2011-07-09T13:27:32Z</time>
      </trkpt>
      <trkpt lat="45.86483" lon="4.20748">
        <ele>493.77429</ele>
        <time>2011-07-09T13:27:40Z</time>
      </trkpt>
      <trkpt lat="45.86484" lon="4.20744">
        <ele>494.73559</ele>
        <time>2011-07-09T13:27:42Z</time>
      </trkpt>
      <trkpt lat="45.86492" lon="4.20731">
        <ele>495.69689</ele>
        <time>2011-07-09T13:27:49Z</time>
      </trkpt>
      <trkpt lat="45.86499" lon="4.20719">
        <ele>496.17773</ele>
        <time>2011-07-09T13:27:56Z</time>
      </trkpt>
      <trkpt lat="45.86507" lon="4.20702">
        <ele>495.69689</ele>
        <time>2011-07-09T13:28:03Z</time>
      </trkpt>
      <trkpt lat="45.86517" lon="4.20678">
        <ele>497.13891</ele>
        <time>2011-07-09T13:28:12Z</time>
      </trkpt>
      <trkpt lat="45.86525" lon="4.20662">
        <ele>497.13891</ele>
        <time>2011-07-09T13:28:18Z</time>
      </trkpt>
      <trkpt lat="45.86533" lon="4.20637">
        <ele>496.17773</ele>
        <time>2011-07-09T13:28:24Z</time>
      </trkpt>
      <trkpt lat="45.86535" lon="4.20632">
        <ele>496.17773</ele>
        <time>2011-07-09T13:28:25Z</time>
      </trkpt>
      <trkpt lat="45.86555" lon="4.2059">
        <ele>495.69689</ele>
        <time>2011-07-09T13:28:33Z</time>
      </trkpt>
      <trkpt lat="45.86571" lon="4.20558">
        <ele>496.17773</ele>
        <time>2011-07-09T13:28:40Z</time>
      </trkpt>
      <trkpt lat="45.86587" lon="4.20528">
        <ele>497.13891</ele>
        <time>2011-07-09T13:28:48Z</time>
      </trkpt>
      <trkpt lat="45.86595" lon="4.20514">
        <ele>497.61962</ele>
        <time>2011-07-09T13:28:52Z</time>
      </trkpt>
      <trkpt lat="45.86612" lon="4.20486">
        <ele>497.61962</ele>
        <time>2011-07-09T13:29:00Z</time>
      </trkpt>
      <trkpt lat="45.86619" lon="4.20472">
        <ele>499.54223</ele>
        <time>2011-07-09T13:29:04Z</time>
      </trkpt>
      <trkpt lat="45.86628" lon="4.20451">
        <ele>499.54223</ele>
        <time>2011-07-09T13:29:11Z</time>
      </trkpt>
      <trkpt lat="45.86632" lon="4.20436">
        <ele>500.50354</ele>
        <time>2011-07-09T13:29:19Z</time>
      </trkpt>
      <trkpt lat="45.86634" lon="4.20431">
        <ele>500.98413</ele>
        <time>2011-07-09T13:29:22Z</time>
      </trkpt>
      <trkpt lat="45.86636" lon="4.20426">
        <ele>501.46484</ele>
        <time>2011-07-09T13:29:28Z</time>
      </trkpt>
      <trkpt lat="45.86636" lon="4.20427">
        <ele>501.46484</ele>
        <time>2011-07-09T13:29:38Z</time>
      </trkpt>
      <trkpt lat="45.86636" lon="4.20429">
        <ele>501.46484</ele>
        <time>2011-07-09T13:30:01Z</time>
      </trkpt>
      <trkpt lat="45.86639" lon="4.20416">
        <ele>500.98413</ele>
        <time>2011-07-09T13:30:07Z</time>
      </trkpt>
      <trkpt lat="45.86649" lon="4.20389">
        <ele>501.94555</ele>
        <time>2011-07-09T13:30:15Z</time>
      </trkpt>
      <trkpt lat="45.86662" lon="4.20355">
        <ele>499.54223</ele>
        <time>2011-07-09T13:30:23Z</time>
      </trkpt>
      <trkpt lat="45.86664" lon="4.2035">
        <ele>499.54223</ele>
        <time>2011-07-09T13:30:24Z</time>
      </trkpt>
      <trkpt lat="45.86676" lon="4.20313">
        <ele>498.10034</ele>
        <time>2011-07-09T13:30:30Z</time>
      </trkpt>
      <trkpt lat="45.86687" lon="4.20265">
        <ele>497.13891</ele>
        <time>2011-07-09T13:30:36Z</time>
      </trkpt>
      <trkpt lat="45.86693" lon="4.202">
        <ele>496.65832</ele>
        <time>2011-07-09T13:30:43Z</time>
      </trkpt>
      <trkpt lat="45.86694" lon="4.20126">
        <ele>495.21618</ele>
        <time>2011-07-09T13:30:50Z</time>
      </trkpt>
      <trkpt lat="45.86695" lon="4.20115">
        <ele>494.73559</ele>
        <time>2011-07-09T13:30:51Z</time>
      </trkpt>
      <trkpt lat="45.86698" lon="4.20063">
        <ele>492.33239</ele>
        <time>2011-07-09T13:30:56Z</time>
      </trkpt>
      <trkpt lat="45.86702" lon="4.20033">
        <ele>491.85168</ele>
        <time>2011-07-09T13:30:59Z</time>
      </trkpt>
      <trkpt lat="45.86717" lon="4.1999">
        <ele>489.92907</ele>
        <time>2011-07-09T13:31:04Z</time>
      </trkpt>
      <trkpt lat="45.86722" lon="4.19976">
        <ele>489.44836</ele>
        <time>2011-07-09T13:31:06Z</time>
      </trkpt>
      <trkpt lat="45.8674" lon="4.19917">
        <ele>488.48718</ele>
        <time>2011-07-09T13:31:15Z</time>
      </trkpt>
      <trkpt lat="45.86742" lon="4.1991">
        <ele>488.96777</ele>
        <time>2011-07-09T13:31:16Z</time>
      </trkpt>
      <trkpt lat="45.86744" lon="4.19864">
        <ele>486.56445</ele>
        <time>2011-07-09T13:31:22Z</time>
      </trkpt>
      <trkpt lat="45.86738" lon="4.19808">
        <ele>483.68041</ele>
        <time>2011-07-09T13:31:28Z</time>
      </trkpt>
      <trkpt lat="45.86729" lon="4.19753">
        <ele>480.79663</ele>
        <time>2011-07-09T13:31:33Z</time>
      </trkpt>
      <trkpt lat="45.86726" lon="4.19742">
        <ele>479.83508</ele>
        <time>2011-07-09T13:31:34Z</time>
      </trkpt>
      <trkpt lat="45.86707" lon="4.19696">
        <ele>476.95129</ele>
        <time>2011-07-09T13:31:38Z</time>
      </trkpt>
      <trkpt lat="45.86682" lon="4.19645">
        <ele>472.62536</ele>
        <time>2011-07-09T13:31:42Z</time>
      </trkpt>
      <trkpt lat="45.86675" lon="4.19632">
        <ele>472.14465</ele>
        <time>2011-07-09T13:31:43Z</time>
      </trkpt>
      <trkpt lat="45.86645" lon="4.19571">
        <ele>471.18334</ele>
        <time>2011-07-09T13:31:48Z</time>
      </trkpt>
      <trkpt lat="45.86617" lon="4.19513">
        <ele>468.29931</ele>
        <time>2011-07-09T13:31:53Z</time>
      </trkpt>
      <trkpt lat="45.86611" lon="4.19501">
        <ele>468.29931</ele>
        <time>2011-07-09T13:31:54Z</time>
      </trkpt>
      <trkpt lat="45.86581" lon="4.19459">
        <ele>466.3767</ele>
        <time>2011-07-09T13:31:58Z</time>
      </trkpt>
      <trkpt lat="45.86554" lon="4.19423">
        <ele>464.93481</ele>
        <time>2011-07-09T13:32:02Z</time>
      </trkpt>
      <trkpt lat="45.86549" lon="4.19416">
        <ele>464.4541</ele>
        <time>2011-07-09T13:32:03Z</time>
      </trkpt>
      <trkpt lat="45.86538" lon="4.19388">
        <ele>462.53137</ele>
        <time>2011-07-09T13:32:07Z</time>
      </trkpt>
      <trkpt lat="45.86545" lon="4.19375">
        <ele>462.05078</ele>
        <time>2011-07-09T13:32:10Z</time>
      </trkpt>
      <trkpt lat="45.86553" lon="4.19373">
        <ele>462.53137</ele>
        <time>2011-07-09T13:32:12Z</time>
      </trkpt>
      <trkpt lat="45.86585" lon="4.19363">
        <ele>463.49279</ele>
        <time>2011-07-09T13:32:21Z</time>
      </trkpt>
      <trkpt lat="45.86603" lon="4.19352">
        <ele>466.85742</ele>
        <time>2011-07-09T13:32:27Z</time>
      </trkpt>
      <trkpt lat="45.86629" lon="4.19335">
        <ele>467.81872</ele>
        <time>2011-07-09T13:32:36Z</time>
      </trkpt>
      <trkpt lat="45.86651" lon="4.19324">
        <ele>469.26074</ele>
        <time>2011-07-09T13:32:43Z</time>
      </trkpt>
      <trkpt lat="45.86657" lon="4.19321">
        <ele>470.22192</ele>
        <time>2011-07-09T13:32:45Z</time>
      </trkpt>
      <trkpt lat="45.86682" lon="4.19308">
        <ele>471.18334</ele>
        <time>2011-07-09T13:32:53Z</time>
      </trkpt>
      <trkpt lat="45.86714" lon="4.19292">
        <ele>473.10607</ele>
        <time>2011-07-09T13:33:03Z</time>
      </trkpt>
      <trkpt lat="45.86739" lon="4.19279">
        <ele>474.54797</ele>
        <time>2011-07-09T13:33:12Z</time>
      </trkpt>
      <trkpt lat="45.86759" lon="4.19267">
        <ele>475.98986</ele>
        <time>2011-07-09T13:33:20Z</time>
      </trkpt>
      <trkpt lat="45.86786" lon="4.19254">
        <ele>478.39318</ele>
        <time>2011-07-09T13:33:30Z</time>
      </trkpt>
      <trkpt lat="45.86802" lon="4.19245">
        <ele>479.83508</ele>
        <time>2011-07-09T13:33:36Z</time>
      </trkpt>
      <trkpt lat="45.86818" lon="4.19235">
        <ele>481.27722</ele>
        <time>2011-07-09T13:33:42Z</time>
      </trkpt>
      <trkpt lat="45.86835" lon="4.19226">
        <ele>482.23852</ele>
        <time>2011-07-09T13:33:49Z</time>
      </trkpt>
      <trkpt lat="45.86845" lon="4.19214">
        <ele>483.19982</ele>
        <time>2011-07-09T13:33:55Z</time>
      </trkpt>
      <trkpt lat="45.86851" lon="4.19211">
        <ele>483.19982</ele>
        <time>2011-07-09T13:33:57Z</time>
      </trkpt>
      <trkpt lat="45.86852" lon="4.19188">
        <ele>484.16113</ele>
        <time>2011-07-09T13:34:02Z</time>
      </trkpt>
      <trkpt lat="45.86854" lon="4.1917">
        <ele>485.60302</ele>
        <time>2011-07-09T13:34:06Z</time>
      </trkpt>
      <trkpt lat="45.86859" lon="4.19144">
        <ele>486.56445</ele>
        <time>2011-07-09T13:34:12Z</time>
      </trkpt>
      <trkpt lat="45.86863" lon="4.19124">
        <ele>486.56445</ele>
        <time>2011-07-09T13:34:17Z</time>
      </trkpt>
      <trkpt lat="45.86872" lon="4.19113">
        <ele>486.56445</ele>
        <time>2011-07-09T13:34:21Z</time>
      </trkpt>
      <trkpt lat="45.86874" lon="4.19087">
        <ele>485.60302</ele>
        <time>2011-07-09T13:34:26Z</time>
      </trkpt>
      <trkpt lat="45.86864" lon="4.19049">
        <ele>483.19982</ele>
        <time>2011-07-09T13:34:31Z</time>
      </trkpt>
      <trkpt lat="45.86849" lon="4.19002">
        <ele>481.27722</ele>
        <time>2011-07-09T13:34:36Z</time>
      </trkpt>
      <trkpt lat="45.86839" lon="4.1897">
        <ele>478.39318</ele>
        <time>2011-07-09T13:34:39Z</time>
      </trkpt>
      <trkpt lat="45.86836" lon="4.18958">
        <ele>478.39318</ele>
        <time>2011-07-09T13:34:40Z</time>
      </trkpt>
      <trkpt lat="45.86828" lon="4.18937">
        <ele>477.43188</ele>
        <time>2011-07-09T13:34:42Z</time>
      </trkpt>
      <trkpt lat="45.86812" lon="4.18886">
        <ele>473.10607</ele>
        <time>2011-07-09T13:34:46Z</time>
      </trkpt>
      <trkpt lat="45.86784" lon="4.18841">
        <ele>469.26074</ele>
        <time>2011-07-09T13:34:50Z</time>
      </trkpt>
      <trkpt lat="45.86775" lon="4.18834">
        <ele>467.33813</ele>
        <time>2011-07-09T13:34:51Z</time>
      </trkpt>
      <trkpt lat="45.86762" lon="4.18824">
        <ele>464.93481</ele>
        <time>2011-07-09T13:34:53Z</time>
      </trkpt>
      <trkpt lat="45.86749" lon="4.18812">
        <ele>462.53137</ele>
        <time>2011-07-09T13:34:56Z</time>
      </trkpt>
      <trkpt lat="45.86735" lon="4.18792">
        <ele>460.60876</ele>
        <time>2011-07-09T13:35:01Z</time>
      </trkpt>
      <trkpt lat="45.86724" lon="4.18767">
        <ele>457.72497</ele>
        <time>2011-07-09T13:35:04Z</time>
      </trkpt>
      <trkpt lat="45.86714" lon="4.1873">
        <ele>453.87963</ele>
        <time>2011-07-09T13:35:07Z</time>
      </trkpt>
      <trkpt lat="45.86704" lon="4.18706">
        <ele>451.95703</ele>
        <time>2011-07-09T13:35:09Z</time>
      </trkpt>
      <trkpt lat="45.86689" lon="4.18652">
        <ele>448.11181</ele>
        <time>2011-07-09T13:35:14Z</time>
      </trkpt>
      <trkpt lat="45.86684" lon="4.18583">
        <ele>445.22766</ele>
        <time>2011-07-09T13:35:20Z</time>
      </trkpt>
      <trkpt lat="45.86676" lon="4.18502">
        <ele>443.30505</ele>
        <time>2011-07-09T13:35:27Z</time>
      </trkpt>
      <trkpt lat="45.86672" lon="4.18481">
        <ele>442.82446</ele>
        <time>2011-07-09T13:35:29Z</time>
      </trkpt>
      <trkpt lat="45.8666" lon="4.18441">
        <ele>442.34387</ele>
        <time>2011-07-09T13:35:34Z</time>
      </trkpt>
      <trkpt lat="45.86655" lon="4.18416">
        <ele>442.34387</ele>
        <time>2011-07-09T13:35:38Z</time>
      </trkpt>
      <trkpt lat="45.86641" lon="4.1839">
        <ele>441.38244</ele>
        <time>2011-07-09T13:35:42Z</time>
      </trkpt>
      <trkpt lat="45.86628" lon="4.18352">
        <ele>438.97912</ele>
        <time>2011-07-09T13:35:46Z</time>
      </trkpt>
      <trkpt lat="45.86619" lon="4.18332">
        <ele>438.01782</ele>
        <time>2011-07-09T13:35:48Z</time>
      </trkpt>
      <trkpt lat="45.86595" lon="4.18295">
        <ele>435.6145</ele>
        <time>2011-07-09T13:35:52Z</time>
      </trkpt>
      <trkpt lat="45.86579" lon="4.18248">
        <ele>432.73071</ele>
        <time>2011-07-09T13:35:56Z</time>
      </trkpt>
      <trkpt lat="45.8657" lon="4.18226">
        <ele>431.28857</ele>
        <time>2011-07-09T13:35:58Z</time>
      </trkpt>
      <trkpt lat="45.86548" lon="4.18175">
        <ele>429.36596</ele>
        <time>2011-07-09T13:36:03Z</time>
      </trkpt>
      <trkpt lat="45.86527" lon="4.18118">
        <ele>426.96276</ele>
        <time>2011-07-09T13:36:09Z</time>
      </trkpt>
      <trkpt lat="45.86501" lon="4.18084">
        <ele>424.07873</ele>
        <time>2011-07-09T13:36:15Z</time>
      </trkpt>
      <trkpt lat="45.86469" lon="4.1807">
        <ele>422.156</ele>
        <time>2011-07-09T13:36:19Z</time>
      </trkpt>
      <trkpt lat="45.86455" lon="4.18057">
        <ele>420.71411</ele>
        <time>2011-07-09T13:36:21Z</time>
      </trkpt>
      <trkpt lat="45.86435" lon="4.18034">
        <ele>418.31079</ele>
        <time>2011-07-09T13:36:24Z</time>
      </trkpt>
      <trkpt lat="45.86419" lon="4.18006">
        <ele>416.38818</ele>
        <time>2011-07-09T13:36:27Z</time>
      </trkpt>
      <trkpt lat="45.86399" lon="4.17986">
        <ele>415.90747</ele>
        <time>2011-07-09T13:36:30Z</time>
      </trkpt>
      <trkpt lat="45.86388" lon="4.17957">
        <ele>414.46545</ele>
        <time>2011-07-09T13:36:34Z</time>
      </trkpt>
      <trkpt lat="45.86381" lon="4.17921">
        <ele>412.06225</ele>
        <time>2011-07-09T13:36:38Z</time>
      </trkpt>
      <trkpt lat="45.86378" lon="4.17912">
        <ele>411.58166</ele>
        <time>2011-07-09T13:36:39Z</time>
      </trkpt>
      <trkpt lat="45.86364" lon="4.17886">
        <ele>411.10095</ele>
        <time>2011-07-09T13:36:42Z</time>
      </trkpt>
      <trkpt lat="45.86347" lon="4.17863">
        <ele>411.10095</ele>
        <time>2011-07-09T13:36:47Z</time>
      </trkpt>
      <trkpt lat="45.86337" lon="4.17846">
        <ele>409.65905</ele>
        <time>2011-07-09T13:36:52Z</time>
      </trkpt>
      <trkpt lat="45.86336" lon="4.17846">
        <ele>410.13964</ele>
        <time>2011-07-09T13:36:56Z</time>
      </trkpt>
      <trkpt lat="45.86333" lon="4.17847">
        <ele>409.65905</ele>
        <time>2011-07-09T13:37:04Z</time>
      </trkpt>
      <trkpt lat="45.86332" lon="4.17849">
        <ele>409.17834</ele>
        <time>2011-07-09T13:37:11Z</time>
      </trkpt>
      <trkpt lat="45.86332" lon="4.17848">
        <ele>409.17834</ele>
        <time>2011-07-09T13:37:15Z</time>
      </trkpt>
      <trkpt lat="45.86329" lon="4.17844">
        <ele>409.17834</ele>
        <time>2011-07-09T13:37:22Z</time>
      </trkpt>
      <trkpt lat="45.86341" lon="4.17854">
        <ele>407.25561</ele>
        <time>2011-07-09T13:41:07Z</time>
      </trkpt>
      <trkpt lat="45.86343" lon="4.17853">
        <ele>407.25561</ele>
        <time>2011-07-09T13:41:13Z</time>
      </trkpt>
      <trkpt lat="45.86341" lon="4.17851">
        <ele>407.25561</ele>
        <time>2011-07-09T13:41:21Z</time>
      </trkpt>
      <trkpt lat="45.86319" lon="4.1784">
        <ele>407.25561</ele>
        <time>2011-07-09T13:42:14Z</time>
      </trkpt>
      <trkpt lat="45.86337" lon="4.17843">
        <ele>406.7749</ele>
        <time>2011-07-09T13:43:17Z</time>
      </trkpt>
      <trkpt lat="45.8632" lon="4.17849">
        <ele>406.7749</ele>
        <time>2011-07-09T13:43:34Z</time>
      </trkpt>
      <trkpt lat="45.86332" lon="4.17843">
        <ele>406.29431</ele>
        <time>2011-07-09T13:45:02Z</time>
      </trkpt>
      <trkpt lat="45.86323" lon="4.17838">
        <ele>406.29431</ele>
        <time>2011-07-09T13:45:27Z</time>
      </trkpt>
      <trkpt lat="45.86313" lon="4.17836">
        <ele>406.7749</ele>
        <time>2011-07-09T13:45:41Z</time>
      </trkpt>
      <trkpt lat="45.86317" lon="4.17838">
        <ele>406.7749</ele>
        <time>2011-07-09T13:45:48Z</time>
      </trkpt>
      <trkpt lat="45.86314" lon="4.17831">
        <ele>407.73632</ele>
        <time>2011-07-09T13:47:26Z</time>
      </trkpt>
      <trkpt lat="45.8634" lon="4.17839">
        <ele>406.7749</ele>
        <time>2011-07-09T13:47:52Z</time>
      </trkpt>
      <trkpt lat="45.86343" lon="4.17842">
        <ele>406.7749</ele>
        <time>2011-07-09T13:47:58Z</time>
      </trkpt>
      <trkpt lat="45.86341" lon="4.17843">
        <ele>407.25561</ele>
        <time>2011-07-09T13:48:03Z</time>
      </trkpt>
      <trkpt lat="45.86335" lon="4.17844">
        <ele>404.3717</ele>
        <time>2011-07-09T13:49:28Z</time>
      </trkpt>
      <trkpt lat="45.86333" lon="4.17841">
        <ele>404.85229</ele>
        <time>2011-07-09T13:49:33Z</time>
      </trkpt>
      <trkpt lat="45.86323" lon="4.17833">
        <ele>404.3717</ele>
        <time>2011-07-09T13:50:14Z</time>
      </trkpt>
      <trkpt lat="45.86318" lon="4.17822">
        <ele>402.44909</ele>
        <time>2011-07-09T13:50:20Z</time>
      </trkpt>
      <trkpt lat="45.86315" lon="4.17812">
        <ele>402.44909</ele>
        <time>2011-07-09T13:50:24Z</time>
      </trkpt>
      <trkpt lat="45.86306" lon="4.17789">
        <ele>401.00708</ele>
        <time>2011-07-09T13:50:29Z</time>
      </trkpt>
      <trkpt lat="45.86296" lon="4.17761">
        <ele>400.52648</ele>
        <time>2011-07-09T13:50:34Z</time>
      </trkpt>
      <trkpt lat="45.86294" lon="4.17752">
        <ele>400.04589</ele>
        <time>2011-07-09T13:50:36Z</time>
      </trkpt>
      <trkpt lat="45.86278" lon="4.17723">
        <ele>396.20056</ele>
        <time>2011-07-09T13:50:41Z</time>
      </trkpt>
      <trkpt lat="45.86254" lon="4.17673">
        <ele>392.35534</ele>
        <time>2011-07-09T13:50:46Z</time>
      </trkpt>
      <trkpt lat="45.86246" lon="4.17669">
        <ele>392.35534</ele>
        <time>2011-07-09T13:50:47Z</time>
      </trkpt>
      <trkpt lat="45.86229" lon="4.17667">
        <ele>392.83593</ele>
        <time>2011-07-09T13:50:50Z</time>
      </trkpt>
      <trkpt lat="45.86213" lon="4.17668">
        <ele>394.27795</ele>
        <time>2011-07-09T13:50:54Z</time>
      </trkpt>
      <trkpt lat="45.86202" lon="4.17671">
        <ele>395.71984</ele>
        <time>2011-07-09T13:50:58Z</time>
      </trkpt>
      <trkpt lat="45.86182" lon="4.17675">
        <ele>397.16174</ele>
        <time>2011-07-09T13:51:07Z</time>
      </trkpt>
      <trkpt lat="45.8617" lon="4.1767">
        <ele>397.64245</ele>
        <time>2011-07-09T13:51:13Z</time>
      </trkpt>
      <trkpt lat="45.86166" lon="4.17665">
        <ele>398.12316</ele>
        <time>2011-07-09T13:51:15Z</time>
      </trkpt>
      <trkpt lat="45.86168" lon="4.17657">
        <ele>398.12316</ele>
        <time>2011-07-09T13:51:19Z</time>
      </trkpt>
      <trkpt lat="45.86175" lon="4.17653">
        <ele>398.12316</ele>
        <time>2011-07-09T13:51:23Z</time>
      </trkpt>
      <trkpt lat="45.86196" lon="4.17636">
        <ele>398.60375</ele>
        <time>2011-07-09T13:51:31Z</time>
      </trkpt>
      <trkpt lat="45.86219" lon="4.17616">
        <ele>399.56506</ele>
        <time>2011-07-09T13:51:39Z</time>
      </trkpt>
      <trkpt lat="45.86245" lon="4.17595">
        <ele>400.52648</ele>
        <time>2011-07-09T13:51:48Z</time>
      </trkpt>
      <trkpt lat="45.86267" lon="4.17579">
        <ele>401.48779</ele>
        <time>2011-07-09T13:51:56Z</time>
      </trkpt>
      <trkpt lat="45.86288" lon="4.17568">
        <ele>402.92968</ele>
        <time>2011-07-09T13:52:04Z</time>
      </trkpt>
      <trkpt lat="45.86311" lon="4.17555">
        <ele>405.81372</ele>
        <time>2011-07-09T13:52:13Z</time>
      </trkpt>
      <trkpt lat="45.86328" lon="4.17545">
        <ele>405.81372</ele>
        <time>2011-07-09T13:52:20Z</time>
      </trkpt>
      <trkpt lat="45.86349" lon="4.17533">
        <ele>406.7749</ele>
        <time>2011-07-09T13:52:29Z</time>
      </trkpt>
      <trkpt lat="45.86362" lon="4.17527">
        <ele>407.73632</ele>
        <time>2011-07-09T13:52:35Z</time>
      </trkpt>
      <trkpt lat="45.86364" lon="4.17524">
        <ele>407.73632</ele>
        <time>2011-07-09T13:52:37Z</time>
      </trkpt>
      <trkpt lat="45.86372" lon="4.17512">
        <ele>408.21704</ele>
        <time>2011-07-09T13:52:44Z</time>
      </trkpt>
      <trkpt lat="45.86366" lon="4.17493">
        <ele>409.65905</ele>
        <time>2011-07-09T13:52:50Z</time>
      </trkpt>
      <trkpt lat="45.86344" lon="4.17482">
        <ele>411.58166</ele>
        <time>2011-07-09T13:52:58Z</time>
      </trkpt>
      <trkpt lat="45.8632" lon="4.17474">
        <ele>413.50427</ele>
        <time>2011-07-09T13:53:07Z</time>
      </trkpt>
      <trkpt lat="45.86298" lon="4.17466">
        <ele>414.46545</ele>
        <time>2011-07-09T13:53:16Z</time>
      </trkpt>
      <trkpt lat="45.86282" lon="4.17459">
        <ele>415.90747</ele>
        <time>2011-07-09T13:53:22Z</time>
      </trkpt>
      <trkpt lat="45.8626" lon="4.17441">
        <ele>417.3496</ele>
        <time>2011-07-09T13:53:31Z</time>
      </trkpt>
      <trkpt lat="45.86249" lon="4.17417">
        <ele>418.7915</ele>
        <time>2011-07-09T13:53:38Z</time>
      </trkpt>
      <trkpt lat="45.86248" lon="4.1739">
        <ele>419.7528</ele>
        <time>2011-07-09T13:53:45Z</time>
      </trkpt>
      <trkpt lat="45.86249" lon="4.17364">
        <ele>420.71411</ele>
        <time>2011-07-09T13:53:52Z</time>
      </trkpt>
      <trkpt lat="45.86253" lon="4.17339">
        <ele>422.63671</ele>
        <time>2011-07-09T13:53:58Z</time>
      </trkpt>
      <trkpt lat="45.86257" lon="4.1731">
        <ele>424.07873</ele>
        <time>2011-07-09T13:54:05Z</time>
      </trkpt>
      <trkpt lat="45.86259" lon="4.17286">
        <ele>424.55944</ele>
        <time>2011-07-09T13:54:11Z</time>
      </trkpt>
      <trkpt lat="45.86254" lon="4.17261">
        <ele>425.04016</ele>
        <time>2011-07-09T13:54:17Z</time>
      </trkpt>
      <trkpt lat="45.86243" lon="4.1724">
        <ele>426.96276</ele>
        <time>2011-07-09T13:54:23Z</time>
      </trkpt>
      <trkpt lat="45.86222" lon="4.17224">
        <ele>427.92395</ele>
        <time>2011-07-09T13:54:31Z</time>
      </trkpt>
      <trkpt lat="45.86203" lon="4.17211">
        <ele>428.88537</ele>
        <time>2011-07-09T13:54:37Z</time>
      </trkpt>
      <trkpt lat="45.86181" lon="4.17193">
        <ele>429.84655</ele>
        <time>2011-07-09T13:54:45Z</time>
      </trkpt>
      <trkpt lat="45.86161" lon="4.17168">
        <ele>430.80798</ele>
        <time>2011-07-09T13:54:53Z</time>
      </trkpt>
      <trkpt lat="45.86149" lon="4.17139">
        <ele>433.2113</ele>
        <time>2011-07-09T13:55:00Z</time>
      </trkpt>
      <trkpt lat="45.86138" lon="4.17099">
        <ele>435.6145</ele>
        <time>2011-07-09T13:55:09Z</time>
      </trkpt>
      <trkpt lat="45.86129" lon="4.17062">
        <ele>437.05651</ele>
        <time>2011-07-09T13:55:17Z</time>
      </trkpt>
      <trkpt lat="45.86121" lon="4.17023">
        <ele>439.45971</ele>
        <time>2011-07-09T13:55:25Z</time>
      </trkpt>
      <trkpt lat="45.86115" lon="4.16977">
        <ele>438.97912</ele>
        <time>2011-07-09T13:55:33Z</time>
      </trkpt>
      <trkpt lat="45.86113" lon="4.1693">
        <ele>439.45971</ele>
        <time>2011-07-09T13:55:41Z</time>
      </trkpt>
      <trkpt lat="45.86115" lon="4.16905">
        <ele>439.45971</ele>
        <time>2011-07-09T13:55:45Z</time>
      </trkpt>
      <trkpt lat="45.86122" lon="4.16857">
        <ele>438.01782</ele>
        <time>2011-07-09T13:55:52Z</time>
      </trkpt>
      <trkpt lat="45.86125" lon="4.16843">
        <ele>437.5371</ele>
        <time>2011-07-09T13:55:54Z</time>
      </trkpt>
      <trkpt lat="45.86134" lon="4.16779">
        <ele>437.05651</ele>
        <time>2011-07-09T13:56:03Z</time>
      </trkpt>
      <trkpt lat="45.86135" lon="4.1675">
        <ele>436.09521</ele>
        <time>2011-07-09T13:56:08Z</time>
      </trkpt>
      <trkpt lat="45.86133" lon="4.16719">
        <ele>436.57592</ele>
        <time>2011-07-09T13:56:14Z</time>
      </trkpt>
      <trkpt lat="45.86134" lon="4.16701">
        <ele>436.57592</ele>
        <time>2011-07-09T13:56:17Z</time>
      </trkpt>
      <trkpt lat="45.8613" lon="4.16656">
        <ele>435.6145</ele>
        <time>2011-07-09T13:56:24Z</time>
      </trkpt>
      <trkpt lat="45.86123" lon="4.16608">
        <ele>436.09521</ele>
        <time>2011-07-09T13:56:31Z</time>
      </trkpt>
      <trkpt lat="45.86111" lon="4.16553">
        <ele>435.6145</ele>
        <time>2011-07-09T13:56:39Z</time>
      </trkpt>
      <trkpt lat="45.86103" lon="4.16497">
        <ele>435.13391</ele>
        <time>2011-07-09T13:56:47Z</time>
      </trkpt>
      <trkpt lat="45.86101" lon="4.1645">
        <ele>434.65332</ele>
        <time>2011-07-09T13:56:53Z</time>
      </trkpt>
      <trkpt lat="45.86105" lon="4.16421">
        <ele>433.69189</ele>
        <time>2011-07-09T13:56:58Z</time>
      </trkpt>
      <trkpt lat="45.86114" lon="4.16394">
        <ele>433.69189</ele>
        <time>2011-07-09T13:57:03Z</time>
      </trkpt>
      <trkpt lat="45.86118" lon="4.16385">
        <ele>433.69189</ele>
        <time>2011-07-09T13:57:07Z</time>
      </trkpt>
      <trkpt lat="45.86124" lon="4.16373">
        <ele>434.1726</ele>
        <time>2011-07-09T13:57:12Z</time>
      </trkpt>
      <trkpt lat="45.86133" lon="4.16356">
        <ele>434.1726</ele>
        <time>2011-07-09T13:57:18Z</time>
      </trkpt>
      <trkpt lat="45.86143" lon="4.16338">
        <ele>433.69189</ele>
        <time>2011-07-09T13:57:24Z</time>
      </trkpt>
      <trkpt lat="45.86156" lon="4.16312">
        <ele>433.69189</ele>
        <time>2011-07-09T13:57:30Z</time>
      </trkpt>
      <trkpt lat="45.8617" lon="4.16282">
        <ele>434.1726</ele>
        <time>2011-07-09T13:57:36Z</time>
      </trkpt>
      <trkpt lat="45.86187" lon="4.16246">
        <ele>435.13391</ele>
        <time>2011-07-09T13:57:44Z</time>
      </trkpt>
      <trkpt lat="45.86195" lon="4.16225">
        <ele>434.1726</ele>
        <time>2011-07-09T13:57:50Z</time>
      </trkpt>
      <trkpt lat="45.86197" lon="4.16222">
        <ele>435.13391</ele>
        <time>2011-07-09T13:57:54Z</time>
      </trkpt>
      <trkpt lat="45.86195" lon="4.16224">
        <ele>435.6145</ele>
        <time>2011-07-09T13:58:41Z</time>
      </trkpt>
      <trkpt lat="45.86195" lon="4.16226">
        <ele>435.13391</ele>
        <time>2011-07-09T14:00:10Z</time>
      </trkpt>
      <trkpt lat="45.86202" lon="4.16216">
        <ele>434.1726</ele>
        <time>2011-07-09T14:00:16Z</time>
      </trkpt>
      <trkpt lat="45.86203" lon="4.16213">
        <ele>434.65332</ele>
        <time>2011-07-09T14:00:21Z</time>
      </trkpt>
      <trkpt lat="45.86205" lon="4.16208">
        <ele>434.1726</ele>
        <time>2011-07-09T14:00:30Z</time>
      </trkpt>
      <trkpt lat="45.86204" lon="4.16208">
        <ele>434.1726</ele>
        <time>2011-07-09T14:00:36Z</time>
      </trkpt>
      <trkpt lat="45.86204" lon="4.16207">
        <ele>433.69189</ele>
        <time>2011-07-09T14:00:44Z</time>
      </trkpt>
      <trkpt lat="45.8621" lon="4.16201">
        <ele>433.69189</ele>
        <time>2011-07-09T14:00:49Z</time>
      </trkpt>
      <trkpt lat="45.86217" lon="4.16182">
        <ele>433.2113</ele>
        <time>2011-07-09T14:00:55Z</time>
      </trkpt>
      <trkpt lat="45.86225" lon="4.16154">
        <ele>433.69189</ele>
        <time>2011-07-09T14:01:01Z</time>
      </trkpt>
      <trkpt lat="45.86225" lon="4.16126">
        <ele>433.69189</ele>
        <time>2011-07-09T14:01:06Z</time>
      </trkpt>
      <trkpt lat="45.86224" lon="4.16114">
        <ele>433.2113</ele>
        <time>2011-07-09T14:01:08Z</time>
      </trkpt>
      <trkpt lat="45.86219" lon="4.16091">
        <ele>433.69189</ele>
        <time>2011-07-09T14:01:12Z</time>
      </trkpt>
      <trkpt lat="45.86204" lon="4.16066">
        <ele>433.69189</ele>
        <time>2011-07-09T14:01:17Z</time>
      </trkpt>
      <trkpt lat="45.86179" lon="4.16048">
        <ele>434.65332</ele>
        <time>2011-07-09T14:01:23Z</time>
      </trkpt>
      <trkpt lat="45.86164" lon="4.16045">
        <ele>435.13391</ele>
        <time>2011-07-09T14:01:26Z</time>
      </trkpt>
      <trkpt lat="45.8614" lon="4.16048">
        <ele>435.13391</ele>
        <time>2011-07-09T14:01:31Z</time>
      </trkpt>
      <trkpt lat="45.861" lon="4.1605">
        <ele>435.6145</ele>
        <time>2011-07-09T14:01:39Z</time>
      </trkpt>
      <trkpt lat="45.86067" lon="4.16046">
        <ele>436.57592</ele>
        <time>2011-07-09T14:01:46Z</time>
      </trkpt>
      <trkpt lat="45.86062" lon="4.16045">
        <ele>437.05651</ele>
        <time>2011-07-09T14:01:47Z</time>
      </trkpt>
      <trkpt lat="45.86028" lon="4.16028">
        <ele>437.05651</ele>
        <time>2011-07-09T14:01:54Z</time>
      </trkpt>
      <trkpt lat="45.86009" lon="4.16003">
        <ele>436.57592</ele>
        <time>2011-07-09T14:01:59Z</time>
      </trkpt>
      <trkpt lat="45.85986" lon="4.15944">
        <ele>438.01782</ele>
        <time>2011-07-09T14:02:09Z</time>
      </trkpt>
      <trkpt lat="45.85968" lon="4.15911">
        <ele>437.05651</ele>
        <time>2011-07-09T14:02:15Z</time>
      </trkpt>
      <trkpt lat="45.85957" lon="4.15891">
        <ele>435.6145</ele>
        <time>2011-07-09T14:02:18Z</time>
      </trkpt>
      <trkpt lat="45.85943" lon="4.15864">
        <ele>431.76916</ele>
        <time>2011-07-09T14:02:21Z</time>
      </trkpt>
      <trkpt lat="45.85911" lon="4.15802">
        <ele>430.32727</ele>
        <time>2011-07-09T14:02:27Z</time>
      </trkpt>
      <trkpt lat="45.85872" lon="4.15732">
        <ele>429.84655</ele>
        <time>2011-07-09T14:02:34Z</time>
      </trkpt>
      <trkpt lat="45.85856" lon="4.15698">
        <ele>430.32727</ele>
        <time>2011-07-09T14:02:38Z</time>
      </trkpt>
      <trkpt lat="45.85852" lon="4.15691">
        <ele>430.32727</ele>
        <time>2011-07-09T14:02:39Z</time>
      </trkpt>
      <trkpt lat="45.85828" lon="4.15658">
        <ele>429.84655</ele>
        <time>2011-07-09T14:02:45Z</time>
      </trkpt>
      <trkpt lat="45.85804" lon="4.1562">
        <ele>426.96276</ele>
        <time>2011-07-09T14:02:50Z</time>
      </trkpt>
      <trkpt lat="45.85753" lon="4.15552">
        <ele>424.07873</ele>
        <time>2011-07-09T14:02:59Z</time>
      </trkpt>
      <trkpt lat="45.85748" lon="4.15545">
        <ele>423.59802</ele>
        <time>2011-07-09T14:03:00Z</time>
      </trkpt>
      <trkpt lat="45.85717" lon="4.15512">
        <ele>421.19482</ele>
        <time>2011-07-09T14:03:05Z</time>
      </trkpt>
      <trkpt lat="45.85696" lon="4.15491">
        <ele>419.7528</ele>
        <time>2011-07-09T14:03:08Z</time>
      </trkpt>
      <trkpt lat="45.85651" lon="4.15439">
        <ele>417.8302</ele>
        <time>2011-07-09T14:03:15Z</time>
      </trkpt>
      <trkpt lat="45.85615" lon="4.15394">
        <ele>417.3496</ele>
        <time>2011-07-09T14:03:21Z</time>
      </trkpt>
      <trkpt lat="45.85592" lon="4.15359">
        <ele>417.3496</ele>
        <time>2011-07-09T14:03:26Z</time>
      </trkpt>
      <trkpt lat="45.85574" lon="4.15344">
        <ele>414.46545</ele>
        <time>2011-07-09T14:03:29Z</time>
      </trkpt>
      <trkpt lat="45.8555" lon="4.15312">
        <ele>413.98486</ele>
        <time>2011-07-09T14:03:33Z</time>
      </trkpt>
      <trkpt lat="45.85528" lon="4.15264">
        <ele>410.13964</ele>
        <time>2011-07-09T14:03:37Z</time>
      </trkpt>
      <trkpt lat="45.85517" lon="4.1524">
        <ele>409.17834</ele>
        <time>2011-07-09T14:03:39Z</time>
      </trkpt>
      <trkpt lat="45.85487" lon="4.15172">
        <ele>408.21704</ele>
        <time>2011-07-09T14:03:45Z</time>
      </trkpt>
      <trkpt lat="45.85466" lon="4.15125">
        <ele>408.69763</ele>
        <time>2011-07-09T14:03:50Z</time>
      </trkpt>
      <trkpt lat="45.85438" lon="4.1507">
        <ele>409.17834</ele>
        <time>2011-07-09T14:03:57Z</time>
      </trkpt>
      <trkpt lat="45.85402" lon="4.15016">
        <ele>408.69763</ele>
        <time>2011-07-09T14:04:05Z</time>
      </trkpt>
      <trkpt lat="45.85367" lon="4.1499">
        <ele>408.21704</ele>
        <time>2011-07-09T14:04:11Z</time>
      </trkpt>
      <trkpt lat="45.85331" lon="4.14968">
        <ele>408.69763</ele>
        <time>2011-07-09T14:04:17Z</time>
      </trkpt>
      <trkpt lat="45.85294" lon="4.14925">
        <ele>406.7749</ele>
        <time>2011-07-09T14:04:24Z</time>
      </trkpt>
      <trkpt lat="45.85259" lon="4.14879">
        <ele>407.73632</ele>
        <time>2011-07-09T14:04:31Z</time>
      </trkpt>
      <trkpt lat="45.85223" lon="4.1483">
        <ele>409.65905</ele>
        <time>2011-07-09T14:04:39Z</time>
      </trkpt>
      <trkpt lat="45.85201" lon="4.14799">
        <ele>410.13964</ele>
        <time>2011-07-09T14:04:45Z</time>
      </trkpt>
      <trkpt lat="45.85197" lon="4.14794">
        <ele>409.65905</ele>
        <time>2011-07-09T14:04:46Z</time>
      </trkpt>
      <trkpt lat="45.85183" lon="4.14765">
        <ele>409.17834</ele>
        <time>2011-07-09T14:04:51Z</time>
      </trkpt>
      <trkpt lat="45.85165" lon="4.14746">
        <ele>409.65905</ele>
        <time>2011-07-09T14:04:56Z</time>
      </trkpt>
      <trkpt lat="45.8516" lon="4.14744">
        <ele>409.17834</ele>
        <time>2011-07-09T14:04:59Z</time>
      </trkpt>
      <trkpt lat="45.85161" lon="4.14745">
        <ele>409.17834</ele>
        <time>2011-07-09T14:05:06Z</time>
      </trkpt>
      <trkpt lat="45.85164" lon="4.14747">
        <ele>408.21704</ele>
        <time>2011-07-09T14:05:18Z</time>
      </trkpt>
      <trkpt lat="45.85165" lon="4.14748">
        <ele>408.21704</ele>
        <time>2011-07-09T14:05:30Z</time>
      </trkpt>
      <trkpt lat="45.85155" lon="4.14738">
        <ele>407.25561</ele>
        <time>2011-07-09T14:05:36Z</time>
      </trkpt>
      <trkpt lat="45.85148" lon="4.14732">
        <ele>406.29431</ele>
        <time>2011-07-09T14:05:38Z</time>
      </trkpt>
      <trkpt lat="45.85122" lon="4.14703">
        <ele>403.89111</ele>
        <time>2011-07-09T14:05:43Z</time>
      </trkpt>
      <trkpt lat="45.85085" lon="4.14673">
        <ele>401.9685</ele>
        <time>2011-07-09T14:05:48Z</time>
      </trkpt>
      <trkpt lat="45.85062" lon="4.14655">
        <ele>400.04589</ele>
        <time>2011-07-09T14:05:51Z</time>
      </trkpt>
      <trkpt lat="45.85044" lon="4.14643">
        <ele>399.08435</ele>
        <time>2011-07-09T14:05:53Z</time>
      </trkpt>
      <trkpt lat="45.84979" lon="4.14607">
        <ele>395.71984</ele>
        <time>2011-07-09T14:06:00Z</time>
      </trkpt>
      <trkpt lat="45.8495" lon="4.14595">
        <ele>392.35534</ele>
        <time>2011-07-09T14:06:03Z</time>
      </trkpt>
      <trkpt lat="45.84909" lon="4.14585">
        <ele>388.51</ele>
        <time>2011-07-09T14:06:07Z</time>
      </trkpt>
      <trkpt lat="45.8486" lon="4.14565">
        <ele>384.66479</ele>
        <time>2011-07-09T14:06:12Z</time>
      </trkpt>
      <trkpt lat="45.84842" lon="4.14556">
        <ele>381.30004</ele>
        <time>2011-07-09T14:06:14Z</time>
      </trkpt>
      <trkpt lat="45.84811" lon="4.14534">
        <ele>376.97424</ele>
        <time>2011-07-09T14:06:18Z</time>
      </trkpt>
      <trkpt lat="45.84781" lon="4.14528">
        <ele>373.60949</ele>
        <time>2011-07-09T14:06:22Z</time>
      </trkpt>
      <trkpt lat="45.84768" lon="4.14544">
        <ele>372.64819</ele>
        <time>2011-07-09T14:06:24Z</time>
      </trkpt>
      <trkpt lat="45.84757" lon="4.14577">
        <ele>372.64819</ele>
        <time>2011-07-09T14:06:27Z</time>
      </trkpt>
      <trkpt lat="45.84736" lon="4.14616">
        <ele>371.68688</ele>
        <time>2011-07-09T14:06:32Z</time>
      </trkpt>
      <trkpt lat="45.84721" lon="4.1462">
        <ele>369.76428</ele>
        <time>2011-07-09T14:06:34Z</time>
      </trkpt>
      <trkpt lat="45.84685" lon="4.14627">
        <ele>365.91894</ele>
        <time>2011-07-09T14:06:38Z</time>
      </trkpt>
      <trkpt lat="45.84661" lon="4.14622">
        <ele>363.51574</ele>
        <time>2011-07-09T14:06:41Z</time>
      </trkpt>
      <trkpt lat="45.84654" lon="4.14615">
        <ele>362.55432</ele>
        <time>2011-07-09T14:06:42Z</time>
      </trkpt>
      <trkpt lat="45.84609" lon="4.14566">
        <ele>359.18969</ele>
        <time>2011-07-09T14:06:48Z</time>
      </trkpt>
      <trkpt lat="45.84584" lon="4.1454">
        <ele>355.82519</ele>
        <time>2011-07-09T14:06:51Z</time>
      </trkpt>
      <trkpt lat="45.8457" lon="4.14525">
        <ele>352.94116</ele>
        <time>2011-07-09T14:06:53Z</time>
      </trkpt>
      <trkpt lat="45.84552" lon="4.14481">
        <ele>347.65393</ele>
        <time>2011-07-09T14:06:57Z</time>
      </trkpt>
      <trkpt lat="45.84562" lon="4.14449">
        <ele>346.21203</ele>
        <time>2011-07-09T14:07:00Z</time>
      </trkpt>
      <trkpt lat="45.84576" lon="4.14433">
        <ele>345.73132</ele>
        <time>2011-07-09T14:07:02Z</time>
      </trkpt>
      <trkpt lat="45.84613" lon="4.14403">
        <ele>344.77001</ele>
        <time>2011-07-09T14:07:07Z</time>
      </trkpt>
      <trkpt lat="45.84621" lon="4.14396">
        <ele>343.32788</ele>
        <time>2011-07-09T14:07:08Z</time>
      </trkpt>
      <trkpt lat="45.84635" lon="4.14362">
        <ele>338.52148</ele>
        <time>2011-07-09T14:07:12Z</time>
      </trkpt>
      <trkpt lat="45.84622" lon="4.14354">
        <ele>336.11816</ele>
        <time>2011-07-09T14:07:14Z</time>
      </trkpt>
      <trkpt lat="45.84602" lon="4.14356">
        <ele>335.15673</ele>
        <time>2011-07-09T14:07:16Z</time>
      </trkpt>
      <trkpt lat="45.84592" lon="4.14359">
        <ele>333.23413</ele>
        <time>2011-07-09T14:07:17Z</time>
      </trkpt>
      <trkpt lat="45.8457" lon="4.14366">
        <ele>329.8695</ele>
        <time>2011-07-09T14:07:19Z</time>
      </trkpt>
      <trkpt lat="45.84535" lon="4.14372">
        <ele>327.46618</ele>
        <time>2011-07-09T14:07:22Z</time>
      </trkpt>
      <trkpt lat="45.84524" lon="4.14373">
        <ele>327.46618</ele>
        <time>2011-07-09T14:07:23Z</time>
      </trkpt>
      <trkpt lat="45.84461" lon="4.14381">
        <ele>326.98559</ele>
        <time>2011-07-09T14:07:29Z</time>
      </trkpt>
      <trkpt lat="45.84418" lon="4.14381">
        <ele>326.98559</ele>
        <time>2011-07-09T14:07:34Z</time>
      </trkpt>
      <trkpt lat="45.84389" lon="4.14384">
        <ele>326.50488</ele>
        <time>2011-07-09T14:07:38Z</time>
      </trkpt>
      <trkpt lat="45.84339" lon="4.14385">
        <ele>326.98559</ele>
        <time>2011-07-09T14:07:45Z</time>
      </trkpt>
      <trkpt lat="45.84292" lon="4.14386">
        <ele>326.98559</ele>
        <time>2011-07-09T14:07:52Z</time>
      </trkpt>
      <trkpt lat="45.84241" lon="4.14387">
        <ele>326.98559</ele>
        <time>2011-07-09T14:08:00Z</time>
      </trkpt>
      <trkpt lat="45.84183" lon="4.14388">
        <ele>326.50488</ele>
        <time>2011-07-09T14:08:09Z</time>
      </trkpt>
      <trkpt lat="45.84118" lon="4.14393">
        <ele>327.46618</ele>
        <time>2011-07-09T14:08:19Z</time>
      </trkpt>
      <trkpt lat="45.84073" lon="4.14398">
        <ele>327.46618</ele>
        <time>2011-07-09T14:08:26Z</time>
      </trkpt>
      <trkpt lat="45.8403" lon="4.14405">
        <ele>328.42761</ele>
        <time>2011-07-09T14:08:33Z</time>
      </trkpt>
      <trkpt lat="45.83987" lon="4.14411">
        <ele>327.46618</ele>
        <time>2011-07-09T14:08:40Z</time>
      </trkpt>
      <trkpt lat="45.83949" lon="4.14418">
        <ele>327.46618</ele>
        <time>2011-07-09T14:08:46Z</time>
      </trkpt>
      <trkpt lat="45.83898" lon="4.14427">
        <ele>328.90832</ele>
        <time>2011-07-09T14:08:54Z</time>
      </trkpt>
      <trkpt lat="45.83854" lon="4.14442">
        <ele>327.94677</ele>
        <time>2011-07-09T14:09:01Z</time>
      </trkpt>
      <trkpt lat="45.83848" lon="4.14445">
        <ele>327.94677</ele>
        <time>2011-07-09T14:09:02Z</time>
      </trkpt>
      <trkpt lat="45.83806" lon="4.14464">
        <ele>326.98559</ele>
        <time>2011-07-09T14:09:09Z</time>
      </trkpt>
      <trkpt lat="45.83795" lon="4.14469">
        <ele>326.98559</ele>
        <time>2011-07-09T14:09:11Z</time>
      </trkpt>
      <trkpt lat="45.83781" lon="4.14494">
        <ele>326.02416</ele>
        <time>2011-07-09T14:09:15Z</time>
      </trkpt>
      <trkpt lat="45.83788" lon="4.14511">
        <ele>327.94677</ele>
        <time>2011-07-09T14:09:18Z</time>
      </trkpt>
      <trkpt lat="45.83791" lon="4.14513">
        <ele>327.94677</ele>
        <time>2011-07-09T14:09:19Z</time>
      </trkpt>
      <trkpt lat="45.83809" lon="4.14518">
        <ele>332.27282</ele>
        <time>2011-07-09T14:09:25Z</time>
      </trkpt>
      <trkpt lat="45.83812" lon="4.14518">
        <ele>331.79211</ele>
        <time>2011-07-09T14:09:26Z</time>
      </trkpt>
      <trkpt lat="45.83832" lon="4.14523">
        <ele>334.19543</ele>
        <time>2011-07-09T14:09:34Z</time>
      </trkpt>
      <trkpt lat="45.83849" lon="4.14528">
        <ele>335.63732</ele>
        <time>2011-07-09T14:09:41Z</time>
      </trkpt>
      <trkpt lat="45.83866" lon="4.14532">
        <ele>338.04077</ele>
        <time>2011-07-09T14:09:48Z</time>
      </trkpt>
      <trkpt lat="45.83886" lon="4.14536">
        <ele>341.40527</ele>
        <time>2011-07-09T14:09:56Z</time>
      </trkpt>
      <trkpt lat="45.83892" lon="4.14538">
        <ele>342.84729</ele>
        <time>2011-07-09T14:09:59Z</time>
      </trkpt>
      <trkpt lat="45.8391" lon="4.14543">
        <ele>344.77001</ele>
        <time>2011-07-09T14:10:08Z</time>
      </trkpt>
      <trkpt lat="45.83922" lon="4.14543">
        <ele>345.25061</ele>
        <time>2011-07-09T14:10:15Z</time>
      </trkpt>
      <trkpt lat="45.83935" lon="4.14538">
        <ele>346.21203</ele>
        <time>2011-07-09T14:10:22Z</time>
      </trkpt>
      <trkpt lat="45.83946" lon="4.14532">
        <ele>346.21203</ele>
        <time>2011-07-09T14:10:28Z</time>
      </trkpt>
      <trkpt lat="45.83957" lon="4.14518">
        <ele>345.73132</ele>
        <time>2011-07-09T14:10:34Z</time>
      </trkpt>
      <trkpt lat="45.83965" lon="4.14509">
        <ele>345.73132</ele>
        <time>2011-07-09T14:10:38Z</time>
      </trkpt>
      <trkpt lat="45.83975" lon="4.14486">
        <ele>346.21203</ele>
        <time>2011-07-09T14:10:45Z</time>
      </trkpt>
      <trkpt lat="45.83988" lon="4.14444">
        <ele>346.69262</ele>
        <time>2011-07-09T14:10:56Z</time>
      </trkpt>
      <trkpt lat="45.83994" lon="4.14411">
        <ele>346.21203</ele>
        <time>2011-07-09T14:11:04Z</time>
      </trkpt>
      <trkpt lat="45.83996" lon="4.14369">
        <ele>346.21203</ele>
        <time>2011-07-09T14:11:13Z</time>
      </trkpt>
      <trkpt lat="45.83993" lon="4.14329">
        <ele>346.69262</ele>
        <time>2011-07-09T14:11:20Z</time>
      </trkpt>
      <trkpt lat="45.8399" lon="4.14292">
        <ele>346.69262</ele>
        <time>2011-07-09T14:11:26Z</time>
      </trkpt>
      <trkpt lat="45.83984" lon="4.14233">
        <ele>346.69262</ele>
        <time>2011-07-09T14:11:35Z</time>
      </trkpt>
      <trkpt lat="45.83985" lon="4.14188">
        <ele>346.69262</ele>
        <time>2011-07-09T14:11:42Z</time>
      </trkpt>
      <trkpt lat="45.8399" lon="4.14152">
        <ele>347.17321</ele>
        <time>2011-07-09T14:11:48Z</time>
      </trkpt>
      <trkpt lat="45.83995" lon="4.14135">
        <ele>346.69262</ele>
        <time>2011-07-09T14:11:51Z</time>
      </trkpt>
      <trkpt lat="45.84006" lon="4.14107">
        <ele>346.69262</ele>
        <time>2011-07-09T14:11:56Z</time>
      </trkpt>
      <trkpt lat="45.84025" lon="4.14076">
        <ele>347.65393</ele>
        <time>2011-07-09T14:12:03Z</time>
      </trkpt>
      <trkpt lat="45.84042" lon="4.14056">
        <ele>349.09582</ele>
        <time>2011-07-09T14:12:09Z</time>
      </trkpt>
      <trkpt lat="45.84069" lon="4.14037">
        <ele>350.53784</ele>
        <time>2011-07-09T14:12:17Z</time>
      </trkpt>
      <trkpt lat="45.84103" lon="4.14024">
        <ele>351.49914</ele>
        <time>2011-07-09T14:12:26Z</time>
      </trkpt>
      <trkpt lat="45.84142" lon="4.14011">
        <ele>352.94116</ele>
        <time>2011-07-09T14:12:37Z</time>
      </trkpt>
      <trkpt lat="45.84162" lon="4.14003">
        <ele>353.90258</ele>
        <time>2011-07-09T14:12:43Z</time>
      </trkpt>
      <trkpt lat="45.84192" lon="4.13993">
        <ele>354.38317</ele>
        <time>2011-07-09T14:12:51Z</time>
      </trkpt>
      <trkpt lat="45.84228" lon="4.13981">
        <ele>355.82519</ele>
        <time>2011-07-09T14:13:00Z</time>
      </trkpt>
      <trkpt lat="45.8427" lon="4.13966">
        <ele>357.26708</ele>
        <time>2011-07-09T14:13:11Z</time>
      </trkpt>
      <trkpt lat="45.84305" lon="4.13954">
        <ele>357.7478</ele>
        <time>2011-07-09T14:13:20Z</time>
      </trkpt>
      <trkpt lat="45.84332" lon="4.13945">
        <ele>359.18969</ele>
        <time>2011-07-09T14:13:27Z</time>
      </trkpt>
      <trkpt lat="45.84367" lon="4.13941">
        <ele>360.15112</ele>
        <time>2011-07-09T14:13:36Z</time>
      </trkpt>
      <trkpt lat="45.84394" lon="4.13948">
        <ele>361.11242</ele>
        <time>2011-07-09T14:13:43Z</time>
      </trkpt>
      <trkpt lat="45.84423" lon="4.13967">
        <ele>362.55432</ele>
        <time>2011-07-09T14:13:51Z</time>
      </trkpt>
      <trkpt lat="45.84446" lon="4.13989">
        <ele>363.99633</ele>
        <time>2011-07-09T14:13:58Z</time>
      </trkpt>
      <trkpt lat="45.84469" lon="4.14013">
        <ele>364.95764</ele>
        <time>2011-07-09T14:14:05Z</time>
      </trkpt>
      <trkpt lat="45.84493" lon="4.14035">
        <ele>366.39953</ele>
        <time>2011-07-09T14:14:12Z</time>
      </trkpt>
      <trkpt lat="45.84523" lon="4.14053">
        <ele>367.36096</ele>
        <time>2011-07-09T14:14:20Z</time>
      </trkpt>
      <trkpt lat="45.84546" lon="4.14062">
        <ele>368.32226</ele>
        <time>2011-07-09T14:14:26Z</time>
      </trkpt>
      <trkpt lat="45.84576" lon="4.14071">
        <ele>368.80297</ele>
        <time>2011-07-09T14:14:34Z</time>
      </trkpt>
      <trkpt lat="45.846" lon="4.14074">
        <ele>369.76428</ele>
        <time>2011-07-09T14:14:40Z</time>
      </trkpt>
      <trkpt lat="45.84626" lon="4.14072">
        <ele>370.24487</ele>
        <time>2011-07-09T14:14:46Z</time>
      </trkpt>
      <trkpt lat="45.84655" lon="4.14059">
        <ele>370.72558</ele>
        <time>2011-07-09T14:14:53Z</time>
      </trkpt>
      <trkpt lat="45.84659" lon="4.14057">
        <ele>370.72558</ele>
        <time>2011-07-09T14:14:54Z</time>
      </trkpt>
      <trkpt lat="45.84692" lon="4.14024">
        <ele>372.16748</ele>
        <time>2011-07-09T14:15:03Z</time>
      </trkpt>
      <trkpt lat="45.84716" lon="4.13986">
        <ele>373.1289</ele>
        <time>2011-07-09T14:15:11Z</time>
      </trkpt>
      <trkpt lat="45.84739" lon="4.13931">
        <ele>374.5708</ele>
        <time>2011-07-09T14:15:21Z</time>
      </trkpt>
      <trkpt lat="45.84761" lon="4.13877">
        <ele>375.5321</ele>
        <time>2011-07-09T14:15:31Z</time>
      </trkpt>
      <trkpt lat="45.8478" lon="4.13828">
        <ele>377.45483</ele>
        <time>2011-07-09T14:15:40Z</time>
      </trkpt>
      <trkpt lat="45.84789" lon="4.13798">
        <ele>377.93542</ele>
        <time>2011-07-09T14:15:45Z</time>
      </trkpt>
      <trkpt lat="45.84794" lon="4.13772">
        <ele>378.41613</ele>
        <time>2011-07-09T14:15:49Z</time>
      </trkpt>
      <trkpt lat="45.84796" lon="4.13703">
        <ele>379.85803</ele>
        <time>2011-07-09T14:15:59Z</time>
      </trkpt>
      <trkpt lat="45.84795" lon="4.13632">
        <ele>382.74206</ele>
        <time>2011-07-09T14:16:09Z</time>
      </trkpt>
      <trkpt lat="45.84802" lon="4.13576">
        <ele>383.70324</ele>
        <time>2011-07-09T14:16:17Z</time>
      </trkpt>
      <trkpt lat="45.84814" lon="4.13522">
        <ele>384.18408</ele>
        <time>2011-07-09T14:16:25Z</time>
      </trkpt>
      <trkpt lat="45.84825" lon="4.13459">
        <ele>386.10668</ele>
        <time>2011-07-09T14:16:34Z</time>
      </trkpt>
      <trkpt lat="45.84824" lon="4.13402">
        <ele>388.02929</ele>
        <time>2011-07-09T14:16:42Z</time>
      </trkpt>
      <trkpt lat="45.8482" lon="4.13373">
        <ele>388.51</ele>
        <time>2011-07-09T14:16:46Z</time>
      </trkpt>
      <trkpt lat="45.84803" lon="4.13314">
        <ele>388.51</ele>
        <time>2011-07-09T14:16:55Z</time>
      </trkpt>
      <trkpt lat="45.84789" lon="4.13268">
        <ele>389.9519</ele>
        <time>2011-07-09T14:17:03Z</time>
      </trkpt>
      <trkpt lat="45.84777" lon="4.13222">
        <ele>390.43261</ele>
        <time>2011-07-09T14:17:12Z</time>
      </trkpt>
      <trkpt lat="45.84772" lon="4.13188">
        <ele>389.9519</ele>
        <time>2011-07-09T14:17:19Z</time>
      </trkpt>
      <trkpt lat="45.84771" lon="4.13168">
        <ele>389.9519</ele>
        <time>2011-07-09T14:17:24Z</time>
      </trkpt>
      <trkpt lat="45.84771" lon="4.13148">
        <ele>389.9519</ele>
        <time>2011-07-09T14:17:30Z</time>
      </trkpt>
      <trkpt lat="45.84771" lon="4.13135">
        <ele>389.9519</ele>
        <time>2011-07-09T14:17:34Z</time>
      </trkpt>
      <trkpt lat="45.84763" lon="4.13126">
        <ele>389.9519</ele>
        <time>2011-07-09T14:17:40Z</time>
      </trkpt>
      <trkpt lat="45.84761" lon="4.13126">
        <ele>389.9519</ele>
        <time>2011-07-09T14:17:44Z</time>
      </trkpt>
      <trkpt lat="45.84763" lon="4.13128">
        <ele>390.43261</ele>
        <time>2011-07-09T14:17:59Z</time>
      </trkpt>
      <trkpt lat="45.84768" lon="4.1313">
        <ele>390.43261</ele>
        <time>2011-07-09T14:18:10Z</time>
      </trkpt>
      <trkpt lat="45.84765" lon="4.1313">
        <ele>390.43261</ele>
        <time>2011-07-09T14:18:20Z</time>
      </trkpt>
      <trkpt lat="45.84761" lon="4.13129">
        <ele>390.9132</ele>
        <time>2011-07-09T14:18:59Z</time>
      </trkpt>
      <trkpt lat="45.8475" lon="4.13132">
        <ele>390.9132</ele>
        <time>2011-07-09T14:19:04Z</time>
      </trkpt>
      <trkpt lat="45.84727" lon="4.13136">
        <ele>391.39379</ele>
        <time>2011-07-09T14:19:10Z</time>
      </trkpt>
      <trkpt lat="45.84688" lon="4.13143">
        <ele>390.43261</ele>
        <time>2011-07-09T14:19:18Z</time>
      </trkpt>
      <trkpt lat="45.8465" lon="4.1315">
        <ele>389.9519</ele>
        <time>2011-07-09T14:19:25Z</time>
      </trkpt>
      <trkpt lat="45.84609" lon="4.13156">
        <ele>389.47119</ele>
        <time>2011-07-09T14:19:32Z</time>
      </trkpt>
      <trkpt lat="45.84562" lon="4.13167">
        <ele>388.9906</ele>
        <time>2011-07-09T14:19:40Z</time>
      </trkpt>
      <trkpt lat="45.84508" lon="4.1319">
        <ele>388.9906</ele>
        <time>2011-07-09T14:19:49Z</time>
      </trkpt>
      <trkpt lat="45.84454" lon="4.13219">
        <ele>389.9519</ele>
        <time>2011-07-09T14:19:59Z</time>
      </trkpt>
      <trkpt lat="45.84412" lon="4.13251">
        <ele>389.47119</ele>
        <time>2011-07-09T14:20:08Z</time>
      </trkpt>
      <trkpt lat="45.84372" lon="4.13284">
        <ele>388.9906</ele>
        <time>2011-07-09T14:20:16Z</time>
      </trkpt>
      <trkpt lat="45.84337" lon="4.13307">
        <ele>388.02929</ele>
        <time>2011-07-09T14:20:22Z</time>
      </trkpt>
      <trkpt lat="45.84317" lon="4.13318">
        <ele>386.5874</ele>
        <time>2011-07-09T14:20:25Z</time>
      </trkpt>
      <trkpt lat="45.84266" lon="4.1332">
        <ele>383.22265</ele>
        <time>2011-07-09T14:20:31Z</time>
      </trkpt>
      <trkpt lat="45.84218" lon="4.13316">
        <ele>380.33874</ele>
        <time>2011-07-09T14:20:36Z</time>
      </trkpt>
      <trkpt lat="45.84167" lon="4.13312">
        <ele>376.01281</ele>
        <time>2011-07-09T14:20:41Z</time>
      </trkpt>
      <trkpt lat="45.84156" lon="4.13311">
        <ele>376.97424</ele>
        <time>2011-07-09T14:20:42Z</time>
      </trkpt>
      <trkpt lat="45.84123" lon="4.13309">
        <ele>374.5708</ele>
        <time>2011-07-09T14:20:45Z</time>
      </trkpt>
      <trkpt lat="45.84065" lon="4.13303">
        <ele>370.72558</ele>
        <time>2011-07-09T14:20:50Z</time>
      </trkpt>
      <trkpt lat="45.84004" lon="4.13299">
        <ele>367.84155</ele>
        <time>2011-07-09T14:20:55Z</time>
      </trkpt>
      <trkpt lat="45.83938" lon="4.13293">
        <ele>363.51574</ele>
        <time>2011-07-09T14:21:00Z</time>
      </trkpt>
      <trkpt lat="45.83897" lon="4.1329">
        <ele>362.07373</ele>
        <time>2011-07-09T14:21:03Z</time>
      </trkpt>
      <trkpt lat="45.83858" lon="4.13286">
        <ele>359.67041</ele>
        <time>2011-07-09T14:21:06Z</time>
      </trkpt>
      <trkpt lat="45.83805" lon="4.13284">
        <ele>357.26708</ele>
        <time>2011-07-09T14:21:10Z</time>
      </trkpt>
      <trkpt lat="45.83752" lon="4.13279">
        <ele>353.90258</ele>
        <time>2011-07-09T14:21:14Z</time>
      </trkpt>
      <trkpt lat="45.83699" lon="4.13272">
        <ele>349.57653</ele>
        <time>2011-07-09T14:21:18Z</time>
      </trkpt>
      <trkpt lat="45.83648" lon="4.13237">
        <ele>346.21203</ele>
        <time>2011-07-09T14:21:22Z</time>
      </trkpt>
      <trkpt lat="45.83611" lon="4.13202">
        <ele>344.28942</ele>
        <time>2011-07-09T14:21:25Z</time>
      </trkpt>
      <trkpt lat="45.83577" lon="4.1316">
        <ele>340.44409</ele>
        <time>2011-07-09T14:21:28Z</time>
      </trkpt>
      <trkpt lat="45.83567" lon="4.13145">
        <ele>339.96337</ele>
        <time>2011-07-09T14:21:29Z</time>
      </trkpt>
      <trkpt lat="45.83527" lon="4.13085">
        <ele>337.07946</ele>
        <time>2011-07-09T14:21:33Z</time>
      </trkpt>
      <trkpt lat="45.83478" lon="4.13041">
        <ele>332.75354</ele>
        <time>2011-07-09T14:21:37Z</time>
      </trkpt>
      <trkpt lat="45.83439" lon="4.13018">
        <ele>330.35021</ele>
        <time>2011-07-09T14:21:40Z</time>
      </trkpt>
      <trkpt lat="45.8338" lon="4.12984">
        <ele>329.8695</ele>
        <time>2011-07-09T14:21:45Z</time>
      </trkpt>
      <trkpt lat="45.83343" lon="4.12963">
        <ele>330.83093</ele>
        <time>2011-07-09T14:21:49Z</time>
      </trkpt>
      <trkpt lat="45.83306" lon="4.1294">
        <ele>331.79211</ele>
        <time>2011-07-09T14:21:54Z</time>
      </trkpt>
      <trkpt lat="45.8327" lon="4.12918">
        <ele>333.71472</ele>
        <time>2011-07-09T14:22:00Z</time>
      </trkpt>
      <trkpt lat="45.83237" lon="4.12897">
        <ele>336.11816</ele>
        <time>2011-07-09T14:22:07Z</time>
      </trkpt>
      <trkpt lat="45.83224" lon="4.12889">
        <ele>337.56005</ele>
        <time>2011-07-09T14:22:10Z</time>
      </trkpt>
      <trkpt lat="45.83193" lon="4.12875">
        <ele>339.96337</ele>
        <time>2011-07-09T14:22:17Z</time>
      </trkpt>
      <trkpt lat="45.83176" lon="4.12879">
        <ele>340.44409</ele>
        <time>2011-07-09T14:22:21Z</time>
      </trkpt>
      <trkpt lat="45.83156" lon="4.12902">
        <ele>341.88598</ele>
        <time>2011-07-09T14:22:27Z</time>
      </trkpt>
      <trkpt lat="45.83143" lon="4.12962">
        <ele>342.84729</ele>
        <time>2011-07-09T14:22:37Z</time>
      </trkpt>
      <trkpt lat="45.83133" lon="4.13016">
        <ele>344.28942</ele>
        <time>2011-07-09T14:22:46Z</time>
      </trkpt>
      <trkpt lat="45.8312" lon="4.13077">
        <ele>346.21203</ele>
        <time>2011-07-09T14:22:56Z</time>
      </trkpt>
      <trkpt lat="45.83118" lon="4.13083">
        <ele>346.69262</ele>
        <time>2011-07-09T14:22:57Z</time>
      </trkpt>
      <trkpt lat="45.83108" lon="4.13102">
        <ele>347.65393</ele>
        <time>2011-07-09T14:23:01Z</time>
      </trkpt>
      <trkpt lat="45.83079" lon="4.13127">
        <ele>348.61523</ele>
        <time>2011-07-09T14:23:09Z</time>
      </trkpt>
      <trkpt lat="45.83036" lon="4.13156">
        <ele>351.01843</ele>
        <time>2011-07-09T14:23:20Z</time>
      </trkpt>
      <trkpt lat="45.83007" lon="4.13175">
        <ele>352.94116</ele>
        <time>2011-07-09T14:23:28Z</time>
      </trkpt>
      <trkpt lat="45.82979" lon="4.13193">
        <ele>353.90258</ele>
        <time>2011-07-09T14:23:36Z</time>
      </trkpt>
      <trkpt lat="45.82958" lon="4.13216">
        <ele>355.34448</ele>
        <time>2011-07-09T14:23:43Z</time>
      </trkpt>
      <trkpt lat="45.82937" lon="4.13249">
        <ele>356.30578</ele>
        <time>2011-07-09T14:23:51Z</time>
      </trkpt>
      <trkpt lat="45.8291" lon="4.1329">
        <ele>357.7478</ele>
        <time>2011-07-09T14:24:01Z</time>
      </trkpt>
      <trkpt lat="45.82887" lon="4.13326">
        <ele>358.70898</ele>
        <time>2011-07-09T14:24:10Z</time>
      </trkpt>
      <trkpt lat="45.82861" lon="4.13367">
        <ele>362.55432</ele>
        <time>2011-07-09T14:24:20Z</time>
      </trkpt>
      <trkpt lat="45.82844" lon="4.1339">
        <ele>360.63171</ele>
        <time>2011-07-09T14:24:26Z</time>
      </trkpt>
      <trkpt lat="45.82818" lon="4.13424">
        <ele>363.03503</ele>
        <time>2011-07-09T14:24:35Z</time>
      </trkpt>
      <trkpt lat="45.82796" lon="4.13455">
        <ele>363.51574</ele>
        <time>2011-07-09T14:24:43Z</time>
      </trkpt>
      <trkpt lat="45.82785" lon="4.13471">
        <ele>363.99633</ele>
        <time>2011-07-09T14:24:47Z</time>
      </trkpt>
      <trkpt lat="45.82759" lon="4.13507">
        <ele>364.47692</ele>
        <time>2011-07-09T14:24:56Z</time>
      </trkpt>
      <trkpt lat="45.82734" lon="4.13541">
        <ele>364.95764</ele>
        <time>2011-07-09T14:25:04Z</time>
      </trkpt>
      <trkpt lat="45.82699" lon="4.13589">
        <ele>364.95764</ele>
        <time>2011-07-09T14:25:15Z</time>
      </trkpt>
      <trkpt lat="45.82665" lon="4.13631">
        <ele>364.95764</ele>
        <time>2011-07-09T14:25:25Z</time>
      </trkpt>
      <trkpt lat="45.82658" lon="4.13639">
        <ele>364.95764</ele>
        <time>2011-07-09T14:25:27Z</time>
      </trkpt>
      <trkpt lat="45.8262" lon="4.13677">
        <ele>365.43835</ele>
        <time>2011-07-09T14:25:37Z</time>
      </trkpt>
      <trkpt lat="45.82608" lon="4.1369">
        <ele>364.95764</ele>
        <time>2011-07-09T14:25:40Z</time>
      </trkpt>
      <trkpt lat="45.82561" lon="4.13736">
        <ele>364.47692</ele>
        <time>2011-07-09T14:25:51Z</time>
      </trkpt>
      <trkpt lat="45.82522" lon="4.13773">
        <ele>364.47692</ele>
        <time>2011-07-09T14:26:00Z</time>
      </trkpt>
      <trkpt lat="45.82487" lon="4.13806">
        <ele>363.99633</ele>
        <time>2011-07-09T14:26:08Z</time>
      </trkpt>
      <trkpt lat="45.82475" lon="4.13819">
        <ele>363.99633</ele>
        <time>2011-07-09T14:26:11Z</time>
      </trkpt>
      <trkpt lat="45.82466" lon="4.13833">
        <ele>363.99633</ele>
        <time>2011-07-09T14:26:14Z</time>
      </trkpt>
      <trkpt lat="45.82447" lon="4.13876">
        <ele>363.99633</ele>
        <time>2011-07-09T14:26:22Z</time>
      </trkpt>
      <trkpt lat="45.82438" lon="4.13906">
        <ele>364.47692</ele>
        <time>2011-07-09T14:26:27Z</time>
      </trkpt>
      <trkpt lat="45.8243" lon="4.13954">
        <ele>363.51574</ele>
        <time>2011-07-09T14:26:34Z</time>
      </trkpt>
      <trkpt lat="45.82425" lon="4.14011">
        <ele>362.55432</ele>
        <time>2011-07-09T14:26:42Z</time>
      </trkpt>
      <trkpt lat="45.82412" lon="4.14066">
        <ele>361.59313</ele>
        <time>2011-07-09T14:26:49Z</time>
      </trkpt>
      <trkpt lat="45.82388" lon="4.14112">
        <ele>360.63171</ele>
        <time>2011-07-09T14:26:55Z</time>
      </trkpt>
      <trkpt lat="45.8234" lon="4.14196">
        <ele>358.22839</ele>
        <time>2011-07-09T14:27:06Z</time>
      </trkpt>
      <trkpt lat="45.82303" lon="4.14261">
        <ele>356.30578</ele>
        <time>2011-07-09T14:27:14Z</time>
      </trkpt>
      <trkpt lat="45.82267" lon="4.14323">
        <ele>355.82519</ele>
        <time>2011-07-09T14:27:22Z</time>
      </trkpt>
      <trkpt lat="45.82236" lon="4.14373">
        <ele>354.86376</ele>
        <time>2011-07-09T14:27:29Z</time>
      </trkpt>
      <trkpt lat="45.82205" lon="4.14404">
        <ele>354.38317</ele>
        <time>2011-07-09T14:27:35Z</time>
      </trkpt>
      <trkpt lat="45.82161" lon="4.14424">
        <ele>354.38317</ele>
        <time>2011-07-09T14:27:42Z</time>
      </trkpt>
      <trkpt lat="45.82117" lon="4.14438">
        <ele>354.38317</ele>
        <time>2011-07-09T14:27:49Z</time>
      </trkpt>
      <trkpt lat="45.82095" lon="4.14446">
        <ele>353.90258</ele>
        <time>2011-07-09T14:27:53Z</time>
      </trkpt>
      <trkpt lat="45.82068" lon="4.14457">
        <ele>352.94116</ele>
        <time>2011-07-09T14:27:58Z</time>
      </trkpt>
      <trkpt lat="45.82046" lon="4.14481">
        <ele>351.97985</ele>
        <time>2011-07-09T14:28:03Z</time>
      </trkpt>
      <trkpt lat="45.82043" lon="4.14488">
        <ele>351.49914</ele>
        <time>2011-07-09T14:28:04Z</time>
      </trkpt>
      <trkpt lat="45.82023" lon="4.14546">
        <ele>351.01843</ele>
        <time>2011-07-09T14:28:11Z</time>
      </trkpt>
      <trkpt lat="45.8201" lon="4.14587">
        <ele>350.53784</ele>
        <time>2011-07-09T14:28:16Z</time>
      </trkpt>
      <trkpt lat="45.82" lon="4.14625">
        <ele>350.53784</ele>
        <time>2011-07-09T14:28:21Z</time>
      </trkpt>
      <trkpt lat="45.81978" lon="4.14658">
        <ele>350.05725</ele>
        <time>2011-07-09T14:28:27Z</time>
      </trkpt>
      <trkpt lat="45.8194" lon="4.14672">
        <ele>350.05725</ele>
        <time>2011-07-09T14:28:34Z</time>
      </trkpt>
      <trkpt lat="45.81894" lon="4.14678">
        <ele>350.53784</ele>
        <time>2011-07-09T14:28:42Z</time>
      </trkpt>
      <trkpt lat="45.81846" lon="4.1468">
        <ele>350.53784</ele>
        <time>2011-07-09T14:28:50Z</time>
      </trkpt>
      <trkpt lat="45.81806" lon="4.14679">
        <ele>350.53784</ele>
        <time>2011-07-09T14:28:57Z</time>
      </trkpt>
      <trkpt lat="45.81765" lon="4.14677">
        <ele>350.53784</ele>
        <time>2011-07-09T14:29:04Z</time>
      </trkpt>
      <trkpt lat="45.81733" lon="4.14676">
        <ele>350.53784</ele>
        <time>2011-07-09T14:29:10Z</time>
      </trkpt>
      <trkpt lat="45.81699" lon="4.14677">
        <ele>350.53784</ele>
        <time>2011-07-09T14:29:17Z</time>
      </trkpt>
      <trkpt lat="45.81663" lon="4.14679">
        <ele>349.09582</ele>
        <time>2011-07-09T14:29:23Z</time>
      </trkpt>
      <trkpt lat="45.81629" lon="4.14681">
        <ele>348.61523</ele>
        <time>2011-07-09T14:29:28Z</time>
      </trkpt>
      <trkpt lat="45.81615" lon="4.14685">
        <ele>347.17321</ele>
        <time>2011-07-09T14:29:30Z</time>
      </trkpt>
      <trkpt lat="45.8159" lon="4.14706">
        <ele>346.69262</ele>
        <time>2011-07-09T14:29:34Z</time>
      </trkpt>
      <trkpt lat="45.81551" lon="4.14753">
        <ele>346.21203</ele>
        <time>2011-07-09T14:29:42Z</time>
      </trkpt>
      <trkpt lat="45.81522" lon="4.14788">
        <ele>346.69262</ele>
        <time>2011-07-09T14:29:49Z</time>
      </trkpt>
      <trkpt lat="45.81482" lon="4.14831">
        <ele>348.13464</ele>
        <time>2011-07-09T14:29:58Z</time>
      </trkpt>
      <trkpt lat="45.81448" lon="4.14853">
        <ele>349.09582</ele>
        <time>2011-07-09T14:30:05Z</time>
      </trkpt>
      <trkpt lat="45.81408" lon="4.14871">
        <ele>348.61523</ele>
        <time>2011-07-09T14:30:13Z</time>
      </trkpt>
      <trkpt lat="45.81397" lon="4.14876">
        <ele>348.13464</ele>
        <time>2011-07-09T14:30:15Z</time>
      </trkpt>
      <trkpt lat="45.81366" lon="4.14908">
        <ele>344.77001</ele>
        <time>2011-07-09T14:30:21Z</time>
      </trkpt>
      <trkpt lat="45.81361" lon="4.14916">
        <ele>344.77001</ele>
        <time>2011-07-09T14:30:22Z</time>
      </trkpt>
      <trkpt lat="45.81341" lon="4.1495">
        <ele>342.36669</ele>
        <time>2011-07-09T14:30:26Z</time>
      </trkpt>
      <trkpt lat="45.813" lon="4.1501">
        <ele>339.96337</ele>
        <time>2011-07-09T14:30:33Z</time>
      </trkpt>
      <trkpt lat="45.81253" lon="4.1505">
        <ele>338.04077</ele>
        <time>2011-07-09T14:30:39Z</time>
      </trkpt>
      <trkpt lat="45.81185" lon="4.15112">
        <ele>336.59887</ele>
        <time>2011-07-09T14:30:48Z</time>
      </trkpt>
      <trkpt lat="45.81138" lon="4.15155">
        <ele>336.11816</ele>
        <time>2011-07-09T14:30:55Z</time>
      </trkpt>
      <trkpt lat="45.81104" lon="4.15189">
        <ele>335.63732</ele>
        <time>2011-07-09T14:31:01Z</time>
      </trkpt>
      <trkpt lat="45.81075" lon="4.15219">
        <ele>335.15673</ele>
        <time>2011-07-09T14:31:07Z</time>
      </trkpt>
      <trkpt lat="45.81046" lon="4.15252">
        <ele>333.71472</ele>
        <time>2011-07-09T14:31:13Z</time>
      </trkpt>
      <trkpt lat="45.80993" lon="4.15306">
        <ele>332.27282</ele>
        <time>2011-07-09T14:31:23Z</time>
      </trkpt>
      <trkpt lat="45.80973" lon="4.15324">
        <ele>332.27282</ele>
        <time>2011-07-09T14:31:27Z</time>
      </trkpt>
      <trkpt lat="45.80958" lon="4.15332">
        <ele>334.19543</ele>
        <time>2011-07-09T14:31:30Z</time>
      </trkpt>
      <trkpt lat="45.80948" lon="4.15337">
        <ele>334.19543</ele>
        <time>2011-07-09T14:31:32Z</time>
      </trkpt>
      <trkpt lat="45.80908" lon="4.15348">
        <ele>336.11816</ele>
        <time>2011-07-09T14:31:40Z</time>
      </trkpt>
      <trkpt lat="45.80881" lon="4.15357">
        <ele>336.11816</ele>
        <time>2011-07-09T14:31:47Z</time>
      </trkpt>
      <trkpt lat="45.80849" lon="4.15377">
        <ele>336.59887</ele>
        <time>2011-07-09T14:31:55Z</time>
      </trkpt>
      <trkpt lat="45.80821" lon="4.15397">
        <ele>338.04077</ele>
        <time>2011-07-09T14:32:03Z</time>
      </trkpt>
      <trkpt lat="45.80793" lon="4.15415">
        <ele>339.00207</ele>
        <time>2011-07-09T14:32:11Z</time>
      </trkpt>
      <trkpt lat="45.80767" lon="4.15417">
        <ele>339.48266</ele>
        <time>2011-07-09T14:32:17Z</time>
      </trkpt>
      <trkpt lat="45.80746" lon="4.15414">
        <ele>340.44409</ele>
        <time>2011-07-09T14:32:22Z</time>
      </trkpt>
      <trkpt lat="45.80716" lon="4.15421">
        <ele>340.92468</ele>
        <time>2011-07-09T14:32:30Z</time>
      </trkpt>
      <trkpt lat="45.80703" lon="4.1544">
        <ele>341.40527</ele>
        <time>2011-07-09T14:32:35Z</time>
      </trkpt>
      <trkpt lat="45.80691" lon="4.15475">
        <ele>341.88598</ele>
        <time>2011-07-09T14:32:42Z</time>
      </trkpt>
      <trkpt lat="45.8068" lon="4.1551">
        <ele>342.84729</ele>
        <time>2011-07-09T14:32:49Z</time>
      </trkpt>
      <trkpt lat="45.8067" lon="4.15538">
        <ele>343.32788</ele>
        <time>2011-07-09T14:32:55Z</time>
      </trkpt>
      <trkpt lat="45.80657" lon="4.15567">
        <ele>342.84729</ele>
        <time>2011-07-09T14:33:01Z</time>
      </trkpt>
      <trkpt lat="45.80637" lon="4.1559">
        <ele>342.36669</ele>
        <time>2011-07-09T14:33:08Z</time>
      </trkpt>
      <trkpt lat="45.80621" lon="4.15604">
        <ele>341.40527</ele>
        <time>2011-07-09T14:33:15Z</time>
      </trkpt>
      <trkpt lat="45.80609" lon="4.1561">
        <ele>340.44409</ele>
        <time>2011-07-09T14:33:20Z</time>
      </trkpt>
      <trkpt lat="45.80604" lon="4.15603">
        <ele>340.92468</ele>
        <time>2011-07-09T14:33:24Z</time>
      </trkpt>
      <trkpt lat="45.80598" lon="4.15578">
        <ele>341.88598</ele>
        <time>2011-07-09T14:33:31Z</time>
      </trkpt>
      <trkpt lat="45.80594" lon="4.15552">
        <ele>343.80859</ele>
        <time>2011-07-09T14:33:38Z</time>
      </trkpt>
      <trkpt lat="45.80585" lon="4.15519">
        <ele>345.73132</ele>
        <time>2011-07-09T14:33:46Z</time>
      </trkpt>
      <trkpt lat="45.80572" lon="4.15492">
        <ele>346.69262</ele>
        <time>2011-07-09T14:33:53Z</time>
      </trkpt>
      <trkpt lat="45.80559" lon="4.15464">
        <ele>347.65393</ele>
        <time>2011-07-09T14:34:00Z</time>
      </trkpt>
      <trkpt lat="45.80543" lon="4.15437">
        <ele>348.13464</ele>
        <time>2011-07-09T14:34:08Z</time>
      </trkpt>
      <trkpt lat="45.80533" lon="4.15415">
        <ele>348.61523</ele>
        <time>2011-07-09T14:34:14Z</time>
      </trkpt>
      <trkpt lat="45.80518" lon="4.15389">
        <ele>349.09582</ele>
        <time>2011-07-09T14:34:21Z</time>
      </trkpt>
      <trkpt lat="45.80503" lon="4.15359">
        <ele>350.05725</ele>
        <time>2011-07-09T14:34:29Z</time>
      </trkpt>
      <trkpt lat="45.80485" lon="4.15317">
        <ele>352.46057</ele>
        <time>2011-07-09T14:34:40Z</time>
      </trkpt>
      <trkpt lat="45.80473" lon="4.15276">
        <ele>352.94116</ele>
        <time>2011-07-09T14:34:50Z</time>
      </trkpt>
      <trkpt lat="45.80462" lon="4.15239">
        <ele>354.38317</ele>
        <time>2011-07-09T14:34:58Z</time>
      </trkpt>
      <trkpt lat="45.8045" lon="4.15216">
        <ele>355.34448</ele>
        <time>2011-07-09T14:35:04Z</time>
      </trkpt>
      <trkpt lat="45.80434" lon="4.15196">
        <ele>356.30578</ele>
        <time>2011-07-09T14:35:11Z</time>
      </trkpt>
      <trkpt lat="45.80423" lon="4.15176">
        <ele>357.26708</ele>
        <time>2011-07-09T14:35:18Z</time>
      </trkpt>
      <trkpt lat="45.80404" lon="4.15147">
        <ele>358.70898</ele>
        <time>2011-07-09T14:35:28Z</time>
      </trkpt>
      <trkpt lat="45.80386" lon="4.15122">
        <ele>360.15112</ele>
        <time>2011-07-09T14:35:37Z</time>
      </trkpt>
      <trkpt lat="45.80375" lon="4.15105">
        <ele>361.11242</ele>
        <time>2011-07-09T14:35:44Z</time>
      </trkpt>
      <trkpt lat="45.80367" lon="4.15094">
        <ele>361.11242</ele>
        <time>2011-07-09T14:35:49Z</time>
      </trkpt>
      <trkpt lat="45.80357" lon="4.15079">
        <ele>361.59313</ele>
        <time>2011-07-09T14:35:55Z</time>
      </trkpt>
      <trkpt lat="45.80343" lon="4.15058">
        <ele>362.55432</ele>
        <time>2011-07-09T14:36:03Z</time>
      </trkpt>
      <trkpt lat="45.8033" lon="4.15041">
        <ele>363.51574</ele>
        <time>2011-07-09T14:36:10Z</time>
      </trkpt>
      <trkpt lat="45.80312" lon="4.15017">
        <ele>364.47692</ele>
        <time>2011-07-09T14:36:18Z</time>
      </trkpt>
      <trkpt lat="45.80299" lon="4.14999">
        <ele>364.95764</ele>
        <time>2011-07-09T14:36:25Z</time>
      </trkpt>
      <trkpt lat="45.80294" lon="4.14993">
        <ele>365.43835</ele>
        <time>2011-07-09T14:36:30Z</time>
      </trkpt>
      <trkpt lat="45.80288" lon="4.14983">
        <ele>365.43835</ele>
        <time>2011-07-09T14:36:37Z</time>
      </trkpt>
      <trkpt lat="45.80286" lon="4.1498">
        <ele>364.95764</ele>
        <time>2011-07-09T14:36:40Z</time>
      </trkpt>
      <trkpt lat="45.80275" lon="4.14965">
        <ele>365.43835</ele>
        <time>2011-07-09T14:36:49Z</time>
      </trkpt>
      <trkpt lat="45.80262" lon="4.14947">
        <ele>366.39953</ele>
        <time>2011-07-09T14:36:56Z</time>
      </trkpt>
      <trkpt lat="45.80244" lon="4.14922">
        <ele>366.39953</ele>
        <time>2011-07-09T14:37:03Z</time>
      </trkpt>
      <trkpt lat="45.80227" lon="4.14899">
        <ele>367.36096</ele>
        <time>2011-07-09T14:37:11Z</time>
      </trkpt>
      <trkpt lat="45.8021" lon="4.14875">
        <ele>367.84155</ele>
        <time>2011-07-09T14:37:19Z</time>
      </trkpt>
      <trkpt lat="45.80194" lon="4.14854">
        <ele>368.80297</ele>
        <time>2011-07-09T14:37:26Z</time>
      </trkpt>
      <trkpt lat="45.80174" lon="4.14827">
        <ele>369.28369</ele>
        <time>2011-07-09T14:37:35Z</time>
      </trkpt>
      <trkpt lat="45.80155" lon="4.14803">
        <ele>369.28369</ele>
        <time>2011-07-09T14:37:43Z</time>
      </trkpt>
      <trkpt lat="45.80136" lon="4.14781">
        <ele>370.24487</ele>
        <time>2011-07-09T14:37:51Z</time>
      </trkpt>
      <trkpt lat="45.80116" lon="4.14762">
        <ele>370.24487</ele>
        <time>2011-07-09T14:37:58Z</time>
      </trkpt>
      <trkpt lat="45.80083" lon="4.14736">
        <ele>371.20629</ele>
        <time>2011-07-09T14:38:09Z</time>
      </trkpt>
      <trkpt lat="45.80056" lon="4.14721">
        <ele>371.20629</ele>
        <time>2011-07-09T14:38:17Z</time>
      </trkpt>
      <trkpt lat="45.80019" lon="4.14708">
        <ele>371.68688</ele>
        <time>2011-07-09T14:38:27Z</time>
      </trkpt>
      <trkpt lat="45.79986" lon="4.14698">
        <ele>372.16748</ele>
        <time>2011-07-09T14:38:36Z</time>
      </trkpt>
      <trkpt lat="45.79952" lon="4.14687">
        <ele>373.1289</ele>
        <time>2011-07-09T14:38:45Z</time>
      </trkpt>
      <trkpt lat="45.7994" lon="4.14674">
        <ele>373.1289</ele>
        <time>2011-07-09T14:38:49Z</time>
      </trkpt>
      <trkpt lat="45.7993" lon="4.14635">
        <ele>373.60949</ele>
        <time>2011-07-09T14:38:56Z</time>
      </trkpt>
      <trkpt lat="45.79919" lon="4.1458">
        <ele>374.09008</ele>
        <time>2011-07-09T14:39:06Z</time>
      </trkpt>
      <trkpt lat="45.79907" lon="4.14523">
        <ele>374.5708</ele>
        <time>2011-07-09T14:39:16Z</time>
      </trkpt>
      <trkpt lat="45.79891" lon="4.14442">
        <ele>375.05151</ele>
        <time>2011-07-09T14:39:29Z</time>
      </trkpt>
      <trkpt lat="45.7988" lon="4.14387">
        <ele>376.01281</ele>
        <time>2011-07-09T14:39:38Z</time>
      </trkpt>
      <trkpt lat="45.79868" lon="4.14327">
        <ele>376.49353</ele>
        <time>2011-07-09T14:39:48Z</time>
      </trkpt>
      <trkpt lat="45.79856" lon="4.14266">
        <ele>377.45483</ele>
        <time>2011-07-09T14:39:58Z</time>
      </trkpt>
      <trkpt lat="45.79847" lon="4.1422">
        <ele>377.93542</ele>
        <time>2011-07-09T14:40:06Z</time>
      </trkpt>
      <trkpt lat="45.79835" lon="4.1416">
        <ele>379.37744</ele>
        <time>2011-07-09T14:40:16Z</time>
      </trkpt>
      <trkpt lat="45.79819" lon="4.14082">
        <ele>380.33874</ele>
        <time>2011-07-09T14:40:29Z</time>
      </trkpt>
      <trkpt lat="45.7981" lon="4.14034">
        <ele>380.81945</ele>
        <time>2011-07-09T14:40:37Z</time>
      </trkpt>
      <trkpt lat="45.79798" lon="4.13981">
        <ele>379.85803</ele>
        <time>2011-07-09T14:40:46Z</time>
      </trkpt>
      <trkpt lat="45.79796" lon="4.13975">
        <ele>378.89685</ele>
        <time>2011-07-09T14:40:47Z</time>
      </trkpt>
      <trkpt lat="45.79792" lon="4.13964">
        <ele>378.41613</ele>
        <time>2011-07-09T14:40:49Z</time>
      </trkpt>
      <trkpt lat="45.79772" lon="4.13905">
        <ele>378.41613</ele>
        <time>2011-07-09T14:40:59Z</time>
      </trkpt>
      <trkpt lat="45.79751" lon="4.13855">
        <ele>377.45483</ele>
        <time>2011-07-09T14:41:08Z</time>
      </trkpt>
      <trkpt lat="45.79728" lon="4.13822">
        <ele>376.97424</ele>
        <time>2011-07-09T14:41:15Z</time>
      </trkpt>
      <trkpt lat="45.797" lon="4.13787">
        <ele>376.01281</ele>
        <time>2011-07-09T14:41:22Z</time>
      </trkpt>
      <trkpt lat="45.79684" lon="4.13764">
        <ele>376.01281</ele>
        <time>2011-07-09T14:41:26Z</time>
      </trkpt>
      <trkpt lat="45.79652" lon="4.13722">
        <ele>375.05151</ele>
        <time>2011-07-09T14:41:33Z</time>
      </trkpt>
      <trkpt lat="45.79612" lon="4.13669">
        <ele>375.05151</ele>
        <time>2011-07-09T14:41:42Z</time>
      </trkpt>
      <trkpt lat="45.79579" lon="4.13626">
        <ele>374.5708</ele>
        <time>2011-07-09T14:41:49Z</time>
      </trkpt>
      <trkpt lat="45.79543" lon="4.13576">
        <ele>374.09008</ele>
        <time>2011-07-09T14:41:57Z</time>
      </trkpt>
      <trkpt lat="45.79512" lon="4.13536">
        <ele>373.60949</ele>
        <time>2011-07-09T14:42:03Z</time>
      </trkpt>
      <trkpt lat="45.79482" lon="4.13496">
        <ele>374.5708</ele>
        <time>2011-07-09T14:42:08Z</time>
      </trkpt>
      <trkpt lat="45.7946" lon="4.13465">
        <ele>376.01281</ele>
        <time>2011-07-09T14:42:12Z</time>
      </trkpt>
      <trkpt lat="45.79439" lon="4.13441">
        <ele>376.97424</ele>
        <time>2011-07-09T14:42:16Z</time>
      </trkpt>
      <trkpt lat="45.79405" lon="4.13393">
        <ele>378.89685</ele>
        <time>2011-07-09T14:42:24Z</time>
      </trkpt>
      <trkpt lat="45.79385" lon="4.13367">
        <ele>378.41613</ele>
        <time>2011-07-09T14:42:29Z</time>
      </trkpt>
      <trkpt lat="45.79356" lon="4.13324">
        <ele>376.97424</ele>
        <time>2011-07-09T14:42:36Z</time>
      </trkpt>
      <trkpt lat="45.79328" lon="4.13286">
        <ele>373.1289</ele>
        <time>2011-07-09T14:42:41Z</time>
      </trkpt>
      <trkpt lat="45.79321" lon="4.13277">
        <ele>373.1289</ele>
        <time>2011-07-09T14:42:42Z</time>
      </trkpt>
      <trkpt lat="45.79308" lon="4.1326">
        <ele>371.68688</ele>
        <time>2011-07-09T14:42:44Z</time>
      </trkpt>
      <trkpt lat="45.79268" lon="4.13208">
        <ele>370.72558</ele>
        <time>2011-07-09T14:42:50Z</time>
      </trkpt>
      <trkpt lat="45.79235" lon="4.13164">
        <ele>371.20629</ele>
        <time>2011-07-09T14:42:56Z</time>
      </trkpt>
      <trkpt lat="45.79212" lon="4.13135">
        <ele>370.24487</ele>
        <time>2011-07-09T14:43:01Z</time>
      </trkpt>
      <trkpt lat="45.79186" lon="4.131">
        <ele>370.24487</ele>
        <time>2011-07-09T14:43:07Z</time>
      </trkpt>
      <trkpt lat="45.79157" lon="4.13059">
        <ele>368.80297</ele>
        <time>2011-07-09T14:43:14Z</time>
      </trkpt>
      <trkpt lat="45.79139" lon="4.13034">
        <ele>368.80297</ele>
        <time>2011-07-09T14:43:18Z</time>
      </trkpt>
      <trkpt lat="45.79105" lon="4.12989">
        <ele>368.32226</ele>
        <time>2011-07-09T14:43:26Z</time>
      </trkpt>
      <trkpt lat="45.79079" lon="4.12953">
        <ele>367.36096</ele>
        <time>2011-07-09T14:43:32Z</time>
      </trkpt>
      <trkpt lat="45.79047" lon="4.12914">
        <ele>367.36096</ele>
        <time>2011-07-09T14:43:39Z</time>
      </trkpt>
      <trkpt lat="45.79038" lon="4.12904">
        <ele>367.36096</ele>
        <time>2011-07-09T14:43:41Z</time>
      </trkpt>
      <trkpt lat="45.79018" lon="4.1289">
        <ele>367.36096</ele>
        <time>2011-07-09T14:43:45Z</time>
      </trkpt>
      <trkpt lat="45.7898" lon="4.12887">
        <ele>367.36096</ele>
        <time>2011-07-09T14:43:52Z</time>
      </trkpt>
      <trkpt lat="45.78944" lon="4.12886">
        <ele>367.84155</ele>
        <time>2011-07-09T14:43:59Z</time>
      </trkpt>
      <trkpt lat="45.78911" lon="4.12886">
        <ele>367.84155</ele>
        <time>2011-07-09T14:44:06Z</time>
      </trkpt>
      <trkpt lat="45.789" lon="4.12885">
        <ele>367.36096</ele>
        <time>2011-07-09T14:44:08Z</time>
      </trkpt>
      <trkpt lat="45.78888" lon="4.12882">
        <ele>367.36096</ele>
        <time>2011-07-09T14:44:10Z</time>
      </trkpt>
      <trkpt lat="45.78848" lon="4.12857">
        <ele>366.88024</ele>
        <time>2011-07-09T14:44:17Z</time>
      </trkpt>
      <trkpt lat="45.78813" lon="4.12824">
        <ele>366.39953</ele>
        <time>2011-07-09T14:44:24Z</time>
      </trkpt>
      <trkpt lat="45.78803" lon="4.12811">
        <ele>365.91894</ele>
        <time>2011-07-09T14:44:26Z</time>
      </trkpt>
      <trkpt lat="45.78791" lon="4.12788">
        <ele>365.43835</ele>
        <time>2011-07-09T14:44:29Z</time>
      </trkpt>
      <trkpt lat="45.78781" lon="4.12754">
        <ele>364.47692</ele>
        <time>2011-07-09T14:44:33Z</time>
      </trkpt>
      <trkpt lat="45.78775" lon="4.12727">
        <ele>364.47692</ele>
        <time>2011-07-09T14:44:37Z</time>
      </trkpt>
      <trkpt lat="45.78764" lon="4.12694">
        <ele>363.99633</ele>
        <time>2011-07-09T14:44:42Z</time>
      </trkpt>
      <trkpt lat="45.78753" lon="4.12646">
        <ele>363.51574</ele>
        <time>2011-07-09T14:44:48Z</time>
      </trkpt>
      <trkpt lat="45.78747" lon="4.12631">
        <ele>363.03503</ele>
        <time>2011-07-09T14:44:50Z</time>
      </trkpt>
      <trkpt lat="45.78743" lon="4.12616">
        <ele>363.03503</ele>
        <time>2011-07-09T14:44:52Z</time>
      </trkpt>
      <trkpt lat="45.78726" lon="4.12574">
        <ele>362.07373</ele>
        <time>2011-07-09T14:44:58Z</time>
      </trkpt>
      <trkpt lat="45.78718" lon="4.12556">
        <ele>361.59313</ele>
        <time>2011-07-09T14:45:01Z</time>
      </trkpt>
      <trkpt lat="45.78714" lon="4.12543">
        <ele>361.59313</ele>
        <time>2011-07-09T14:45:03Z</time>
      </trkpt>
      <trkpt lat="45.787" lon="4.12502">
        <ele>361.11242</ele>
        <time>2011-07-09T14:45:08Z</time>
      </trkpt>
      <trkpt lat="45.78685" lon="4.12451">
        <ele>360.63171</ele>
        <time>2011-07-09T14:45:14Z</time>
      </trkpt>
      <trkpt lat="45.78678" lon="4.12418">
        <ele>361.11242</ele>
        <time>2011-07-09T14:45:19Z</time>
      </trkpt>
      <trkpt lat="45.78663" lon="4.12367">
        <ele>359.67041</ele>
        <time>2011-07-09T14:45:26Z</time>
      </trkpt>
      <trkpt lat="45.78646" lon="4.123">
        <ele>358.70898</ele>
        <time>2011-07-09T14:45:34Z</time>
      </trkpt>
      <trkpt lat="45.78632" lon="4.12254">
        <ele>358.70898</ele>
        <time>2011-07-09T14:45:40Z</time>
      </trkpt>
      <trkpt lat="45.78617" lon="4.12207">
        <ele>358.70898</ele>
        <time>2011-07-09T14:45:46Z</time>
      </trkpt>
      <trkpt lat="45.78593" lon="4.12131">
        <ele>357.7478</ele>
        <time>2011-07-09T14:45:55Z</time>
      </trkpt>
      <trkpt lat="45.78574" lon="4.12064">
        <ele>358.22839</ele>
        <time>2011-07-09T14:46:03Z</time>
      </trkpt>
      <trkpt lat="45.78558" lon="4.12014">
        <ele>359.18969</ele>
        <time>2011-07-09T14:46:10Z</time>
      </trkpt>
      <trkpt lat="45.78546" lon="4.11997">
        <ele>359.67041</ele>
        <time>2011-07-09T14:46:14Z</time>
      </trkpt>
      <trkpt lat="45.78541" lon="4.11996">
        <ele>360.15112</ele>
        <time>2011-07-09T14:46:15Z</time>
      </trkpt>
      <trkpt lat="45.78527" lon="4.11996">
        <ele>360.15112</ele>
        <time>2011-07-09T14:46:18Z</time>
      </trkpt>
      <trkpt lat="45.785" lon="4.11999">
        <ele>360.15112</ele>
        <time>2011-07-09T14:46:24Z</time>
      </trkpt>
      <trkpt lat="45.78473" lon="4.11999">
        <ele>361.11242</ele>
        <time>2011-07-09T14:46:30Z</time>
      </trkpt>
      <trkpt lat="45.78442" lon="4.11996">
        <ele>360.63171</ele>
        <time>2011-07-09T14:46:36Z</time>
      </trkpt>
      <trkpt lat="45.78436" lon="4.11995">
        <ele>361.11242</ele>
        <time>2011-07-09T14:46:37Z</time>
      </trkpt>
      <trkpt lat="45.78426" lon="4.11993">
        <ele>361.59313</ele>
        <time>2011-07-09T14:46:39Z</time>
      </trkpt>
      <trkpt lat="45.78401" lon="4.11973">
        <ele>361.59313</ele>
        <time>2011-07-09T14:46:45Z</time>
      </trkpt>
      <trkpt lat="45.78397" lon="4.1197">
        <ele>361.11242</ele>
        <time>2011-07-09T14:46:46Z</time>
      </trkpt>
      <trkpt lat="45.78358" lon="4.11941">
        <ele>362.07373</ele>
        <time>2011-07-09T14:46:54Z</time>
      </trkpt>
      <trkpt lat="45.78324" lon="4.11933">
        <ele>363.03503</ele>
        <time>2011-07-09T14:47:01Z</time>
      </trkpt>
      <trkpt lat="45.78289" lon="4.1193">
        <ele>363.99633</ele>
        <time>2011-07-09T14:47:08Z</time>
      </trkpt>
      <trkpt lat="45.78244" lon="4.11927">
        <ele>363.03503</ele>
        <time>2011-07-09T14:47:16Z</time>
      </trkpt>
      <trkpt lat="45.78203" lon="4.11924">
        <ele>362.55432</ele>
        <time>2011-07-09T14:47:23Z</time>
      </trkpt>
      <trkpt lat="45.78151" lon="4.11925">
        <ele>362.55432</ele>
        <time>2011-07-09T14:47:32Z</time>
      </trkpt>
      <trkpt lat="45.78103" lon="4.11936">
        <ele>361.59313</ele>
        <time>2011-07-09T14:47:40Z</time>
      </trkpt>
      <trkpt lat="45.78061" lon="4.11945">
        <ele>361.59313</ele>
        <time>2011-07-09T14:47:47Z</time>
      </trkpt>
      <trkpt lat="45.78027" lon="4.11954">
        <ele>362.55432</ele>
        <time>2011-07-09T14:47:53Z</time>
      </trkpt>
      <trkpt lat="45.7798" lon="4.11964">
        <ele>362.55432</ele>
        <time>2011-07-09T14:48:01Z</time>
      </trkpt>
      <trkpt lat="45.77939" lon="4.11971">
        <ele>362.55432</ele>
        <time>2011-07-09T14:48:08Z</time>
      </trkpt>
      <trkpt lat="45.77904" lon="4.11978">
        <ele>362.07373</ele>
        <time>2011-07-09T14:48:14Z</time>
      </trkpt>
      <trkpt lat="45.77851" lon="4.11987">
        <ele>362.55432</ele>
        <time>2011-07-09T14:48:23Z</time>
      </trkpt>
      <trkpt lat="45.7781" lon="4.11994">
        <ele>362.07373</ele>
        <time>2011-07-09T14:48:30Z</time>
      </trkpt>
      <trkpt lat="45.77789" lon="4.11997">
        <ele>362.07373</ele>
        <time>2011-07-09T14:48:34Z</time>
      </trkpt>
      <trkpt lat="45.77765" lon="4.12014">
        <ele>362.07373</ele>
        <time>2011-07-09T14:48:39Z</time>
      </trkpt>
      <trkpt lat="45.77737" lon="4.12049">
        <ele>362.07373</ele>
        <time>2011-07-09T14:48:46Z</time>
      </trkpt>
      <trkpt lat="45.77715" lon="4.12081">
        <ele>362.55432</ele>
        <time>2011-07-09T14:48:52Z</time>
      </trkpt>
      <trkpt lat="45.7769" lon="4.12116">
        <ele>363.51574</ele>
        <time>2011-07-09T14:48:59Z</time>
      </trkpt>
      <trkpt lat="45.77668" lon="4.12139">
        <ele>364.95764</ele>
        <time>2011-07-09T14:49:05Z</time>
      </trkpt>
      <trkpt lat="45.77647" lon="4.12161">
        <ele>366.39953</ele>
        <time>2011-07-09T14:49:11Z</time>
      </trkpt>
      <trkpt lat="45.77631" lon="4.1218">
        <ele>366.39953</ele>
        <time>2011-07-09T14:49:16Z</time>
      </trkpt>
      <trkpt lat="45.77608" lon="4.12203">
        <ele>367.84155</ele>
        <time>2011-07-09T14:49:22Z</time>
      </trkpt>
      <trkpt lat="45.77579" lon="4.12235">
        <ele>368.80297</ele>
        <time>2011-07-09T14:49:30Z</time>
      </trkpt>
      <trkpt lat="45.77559" lon="4.12256">
        <ele>369.76428</ele>
        <time>2011-07-09T14:49:36Z</time>
      </trkpt>
      <trkpt lat="45.77534" lon="4.12283">
        <ele>370.24487</ele>
        <time>2011-07-09T14:49:43Z</time>
      </trkpt>
      <trkpt lat="45.77505" lon="4.12313">
        <ele>370.72558</ele>
        <time>2011-07-09T14:49:51Z</time>
      </trkpt>
      <trkpt lat="45.77483" lon="4.12336">
        <ele>371.68688</ele>
        <time>2011-07-09T14:49:57Z</time>
      </trkpt>
      <trkpt lat="45.77458" lon="4.12363">
        <ele>373.1289</ele>
        <time>2011-07-09T14:50:04Z</time>
      </trkpt>
      <trkpt lat="45.77438" lon="4.12385">
        <ele>373.60949</ele>
        <time>2011-07-09T14:50:10Z</time>
      </trkpt>
      <trkpt lat="45.77418" lon="4.12408">
        <ele>374.5708</ele>
        <time>2011-07-09T14:50:16Z</time>
      </trkpt>
      <trkpt lat="45.77392" lon="4.12437">
        <ele>376.01281</ele>
        <time>2011-07-09T14:50:23Z</time>
      </trkpt>
      <trkpt lat="45.77377" lon="4.12453">
        <ele>377.45483</ele>
        <time>2011-07-09T14:50:27Z</time>
      </trkpt>
      <trkpt lat="45.77369" lon="4.12463">
        <ele>377.45483</ele>
        <time>2011-07-09T14:50:29Z</time>
      </trkpt>
      <trkpt lat="45.77328" lon="4.12495">
        <ele>379.85803</ele>
        <time>2011-07-09T14:50:38Z</time>
      </trkpt>
      <trkpt lat="45.77281" lon="4.12532">
        <ele>381.78063</ele>
        <time>2011-07-09T14:50:48Z</time>
      </trkpt>
      <trkpt lat="45.77244" lon="4.12559">
        <ele>382.74206</ele>
        <time>2011-07-09T14:50:56Z</time>
      </trkpt>
      <trkpt lat="45.77221" lon="4.12578">
        <ele>383.70324</ele>
        <time>2011-07-09T14:51:00Z</time>
      </trkpt>
      <trkpt lat="45.77216" lon="4.12582">
        <ele>383.22265</ele>
        <time>2011-07-09T14:51:01Z</time>
      </trkpt>
      <trkpt lat="45.77192" lon="4.12596">
        <ele>383.22265</ele>
        <time>2011-07-09T14:51:06Z</time>
      </trkpt>
      <trkpt lat="45.77175" lon="4.12594">
        <ele>383.22265</ele>
        <time>2011-07-09T14:51:10Z</time>
      </trkpt>
      <trkpt lat="45.77167" lon="4.12589">
        <ele>383.70324</ele>
        <time>2011-07-09T14:51:13Z</time>
      </trkpt>
      <trkpt lat="45.77164" lon="4.12583">
        <ele>383.70324</ele>
        <time>2011-07-09T14:51:17Z</time>
      </trkpt>
      <trkpt lat="45.77159" lon="4.12576">
        <ele>384.18408</ele>
        <time>2011-07-09T14:51:22Z</time>
      </trkpt>
      <trkpt lat="45.77159" lon="4.12575">
        <ele>384.18408</ele>
        <time>2011-07-09T14:51:23Z</time>
      </trkpt>
      <trkpt lat="45.77163" lon="4.12565">
        <ele>384.66479</ele>
        <time>2011-07-09T14:51:28Z</time>
      </trkpt>
      <trkpt lat="45.77159" lon="4.12565">
        <ele>384.18408</ele>
        <time>2011-07-09T14:51:31Z</time>
      </trkpt>
      <trkpt lat="45.77157" lon="4.12578">
        <ele>384.66479</ele>
        <time>2011-07-09T14:51:35Z</time>
      </trkpt>
      <trkpt lat="45.77163" lon="4.12593">
        <ele>384.18408</ele>
        <time>2011-07-09T14:51:40Z</time>
      </trkpt>
      <trkpt lat="45.77168" lon="4.12595">
        <ele>383.70324</ele>
        <time>2011-07-09T14:51:43Z</time>
      </trkpt>
      <trkpt lat="45.77177" lon="4.12594">
        <ele>383.22265</ele>
        <time>2011-07-09T14:51:51Z</time>
      </trkpt>
      <trkpt lat="45.77177" lon="4.12594">
        <ele>382.74206</ele>
        <time>2011-07-09T14:51:58Z</time>
      </trkpt>
      <trkpt lat="45.77177" lon="4.12588">
        <ele>383.22265</ele>
        <time>2011-07-09T14:52:04Z</time>
      </trkpt>
      <trkpt lat="45.77176" lon="4.12587">
        <ele>382.74206</ele>
        <time>2011-07-09T14:52:08Z</time>
      </trkpt>
    </trkseg>
  </trk>
</gpx>